<?xml version="1.0" encoding="UTF-8" standalone="no" ?><gpx xmlns="http://www.topografix.com/GPX/1/1" xmlns:gpxx="http://www.garmin.com/xmlschemas/GpxExtensions/v3" xmlns:wptx1="http://www.garmin.com/xmlschemas/WaypointExtension/v1" xmlns:gpxtpx="http://www.garmin.com/xmlschemas/TrackPointExtension/v1" creator="GuideVTT.com" version="1.1" xmlns:xsi="http://www.w3.org/2001/XMLSchema-instance" xsi:schemaLocation="http://www.topografix.com/GPX/1/1 http://www.topografix.com/GPX/1/1/gpx.xsd http://www.garmin.com/xmlschemas/GpxExtensions/v3 http://www8.garmin.com/xmlschemas/GpxExtensionsv3.xsd http://www.garmin.com/xmlschemas/WaypointExtension/v1 http://www8.garmin.com/xmlschemas/WaypointExtensionv1.xsd http://www.garmin.com/xmlschemas/TrackPointExtension/v1 http://www.garmin.com/xmlschemas/TrackPointExtensionv1.xsd">
<metadata><link href="http://www.garmin.com"><text>Garmin International</text></link><time>2013-06-22T15:13:50Z</time></metadata>
<trk><name>vtt_2015-11-29_565ab23e79a463a92b001dfa.gpx</name><extensions><gpxx:TrackExtension><gpxx:DisplayColor>Cyan</gpxx:DisplayColor></gpxx:TrackExtension></extensions><trkseg>
<trkpt lat="49.125923156738" lon="2.6957750320435"><ele></ele><time>2022-6-8T8:3:48Z</time></trkpt>
<trkpt lat="49.125923156738" lon="2.6957788467407"><ele></ele><time>2022-6-8T8:3:51Z</time></trkpt>
<trkpt lat="49.12593460083" lon="2.6956465244293"><ele></ele><time>2022-6-8T8:3:54Z</time></trkpt>
<trkpt lat="49.125930786133" lon="2.6954867839813"><ele></ele><time>2022-6-8T8:3:57Z</time></trkpt>
<trkpt lat="49.1259765625" lon="2.6954247951508"><ele></ele><time>2022-6-8T8:4:0Z</time></trkpt>
<trkpt lat="49.126026153564" lon="2.6954824924469"><ele></ele><time>2022-6-8T8:4:3Z</time></trkpt>
<trkpt lat="49.126079559326" lon="2.6955411434174"><ele></ele><time>2022-6-8T8:4:6Z</time></trkpt>
<trkpt lat="49.126174926758" lon="2.6955990791321"><ele></ele><time>2022-6-8T8:4:9Z</time></trkpt>
<trkpt lat="49.126174926758" lon="2.6955990791321"><ele></ele><time>2022-6-8T8:4:12Z</time></trkpt>
<trkpt lat="49.126285552979" lon="2.6955513954163"><ele></ele><time>2022-6-8T8:4:15Z</time></trkpt>
<trkpt lat="49.126331329346" lon="2.6954779624939"><ele></ele><time>2022-6-8T8:4:18Z</time></trkpt>
<trkpt lat="49.12638092041" lon="2.6953816413879"><ele></ele><time>2022-6-8T8:4:21Z</time></trkpt>
<trkpt lat="49.126434326172" lon="2.6952660083771"><ele></ele><time>2022-6-8T8:4:24Z</time></trkpt>
<trkpt lat="49.126468658447" lon="2.6951284408569"><ele></ele><time>2022-6-8T8:4:27Z</time></trkpt>
<trkpt lat="49.126510620117" lon="2.6949963569641"><ele></ele><time>2022-6-8T8:4:30Z</time></trkpt>
<trkpt lat="49.126564025879" lon="2.6948535442352"><ele></ele><time>2022-6-8T8:4:33Z</time></trkpt>
<trkpt lat="49.126609802246" lon="2.6947124004364"><ele></ele><time>2022-6-8T8:4:36Z</time></trkpt>
<trkpt lat="49.126644134521" lon="2.6945793628693"><ele></ele><time>2022-6-8T8:4:39Z</time></trkpt>
<trkpt lat="49.126689910889" lon="2.6944968700409"><ele></ele><time>2022-6-8T8:4:42Z</time></trkpt>
<trkpt lat="49.126689910889" lon="2.6944968700409"><ele></ele><time>2022-6-8T8:4:45Z</time></trkpt>
<trkpt lat="49.126754760742" lon="2.6946082115173"><ele></ele><time>2022-6-8T8:4:48Z</time></trkpt>
<trkpt lat="49.126808166504" lon="2.6946806907654"><ele></ele><time>2022-6-8T8:4:51Z</time></trkpt>
<trkpt lat="49.126850128174" lon="2.6947560310364"><ele></ele><time>2022-6-8T8:4:54Z</time></trkpt>
<trkpt lat="49.126895904541" lon="2.6948580741882"><ele></ele><time>2022-6-8T8:4:57Z</time></trkpt>
<trkpt lat="49.126945495605" lon="2.6949644088745"><ele></ele><time>2022-6-8T8:5:0Z</time></trkpt>
<trkpt lat="49.126998901367" lon="2.6950674057007"><ele></ele><time>2022-6-8T8:5:3Z</time></trkpt>
<trkpt lat="49.127063751221" lon="2.6951849460602"><ele></ele><time>2022-6-8T8:5:6Z</time></trkpt>
<trkpt lat="49.127132415771" lon="2.6952984333038"><ele></ele><time>2022-6-8T8:5:9Z</time></trkpt>
<trkpt lat="49.127212524414" lon="2.6954157352448"><ele></ele><time>2022-6-8T8:5:12Z</time></trkpt>
<trkpt lat="49.127288818359" lon="2.6955342292786"><ele></ele><time>2022-6-8T8:5:15Z</time></trkpt>
<trkpt lat="49.127349853516" lon="2.695648431778"><ele></ele><time>2022-6-8T8:5:18Z</time></trkpt>
<trkpt lat="49.127414703369" lon="2.6957688331604"><ele></ele><time>2022-6-8T8:5:21Z</time></trkpt>
<trkpt lat="49.127471923828" lon="2.6958940029144"><ele></ele><time>2022-6-8T8:5:24Z</time></trkpt>
<trkpt lat="49.12752532959" lon="2.6960003376007"><ele></ele><time>2022-6-8T8:5:27Z</time></trkpt>
<trkpt lat="49.127582550049" lon="2.6961200237274"><ele></ele><time>2022-6-8T8:5:30Z</time></trkpt>
<trkpt lat="49.127635955811" lon="2.6962478160858"><ele></ele><time>2022-6-8T8:5:33Z</time></trkpt>
<trkpt lat="49.127674102783" lon="2.6963829994202"><ele></ele><time>2022-6-8T8:5:36Z</time></trkpt>
<trkpt lat="49.127716064453" lon="2.6965372562408"><ele></ele><time>2022-6-8T8:5:39Z</time></trkpt>
<trkpt lat="49.127742767334" lon="2.6966993808746"><ele></ele><time>2022-6-8T8:5:42Z</time></trkpt>
<trkpt lat="49.127746582031" lon="2.6968667507172"><ele></ele><time>2022-6-8T8:5:45Z</time></trkpt>
<trkpt lat="49.127750396729" lon="2.6970221996307"><ele></ele><time>2022-6-8T8:5:48Z</time></trkpt>
<trkpt lat="49.127750396729" lon="2.6971752643585"><ele></ele><time>2022-6-8T8:5:51Z</time></trkpt>
<trkpt lat="49.127750396729" lon="2.6973235607147"><ele></ele><time>2022-6-8T8:5:54Z</time></trkpt>
<trkpt lat="49.127754211426" lon="2.6974484920502"><ele></ele><time>2022-6-8T8:5:57Z</time></trkpt>
<trkpt lat="49.127754211426" lon="2.6975834369659"><ele></ele><time>2022-6-8T8:6:0Z</time></trkpt>
<trkpt lat="49.127765655518" lon="2.6977169513702"><ele></ele><time>2022-6-8T8:6:3Z</time></trkpt>
<trkpt lat="49.127780914307" lon="2.6978578567505"><ele></ele><time>2022-6-8T8:6:6Z</time></trkpt>
<trkpt lat="49.127784729004" lon="2.698011636734"><ele></ele><time>2022-6-8T8:6:9Z</time></trkpt>
<trkpt lat="49.127792358398" lon="2.6981649398804"><ele></ele><time>2022-6-8T8:6:12Z</time></trkpt>
<trkpt lat="49.127807617188" lon="2.6983277797699"><ele></ele><time>2022-6-8T8:6:15Z</time></trkpt>
<trkpt lat="49.127826690674" lon="2.6984858512878"><ele></ele><time>2022-6-8T8:6:18Z</time></trkpt>
<trkpt lat="49.127841949463" lon="2.6986424922943"><ele></ele><time>2022-6-8T8:6:21Z</time></trkpt>
<trkpt lat="49.127861022949" lon="2.6987957954407"><ele></ele><time>2022-6-8T8:6:24Z</time></trkpt>
<trkpt lat="49.127872467041" lon="2.6989364624023"><ele></ele><time>2022-6-8T8:6:27Z</time></trkpt>
<trkpt lat="49.127880096436" lon="2.6990849971771"><ele></ele><time>2022-6-8T8:6:30Z</time></trkpt>
<trkpt lat="49.127880096436" lon="2.699236869812"><ele></ele><time>2022-6-8T8:6:33Z</time></trkpt>
<trkpt lat="49.127891540527" lon="2.6993961334229"><ele></ele><time>2022-6-8T8:6:36Z</time></trkpt>
<trkpt lat="49.127902984619" lon="2.6995418071747"><ele></ele><time>2022-6-8T8:6:39Z</time></trkpt>
<trkpt lat="49.127910614014" lon="2.6996786594391"><ele></ele><time>2022-6-8T8:6:42Z</time></trkpt>
<trkpt lat="49.127918243408" lon="2.6998143196106"><ele></ele><time>2022-6-8T8:6:45Z</time></trkpt>
<trkpt lat="49.127918243408" lon="2.6999518871307"><ele></ele><time>2022-6-8T8:6:48Z</time></trkpt>
<trkpt lat="49.127899169922" lon="2.7000677585602"><ele></ele><time>2022-6-8T8:6:51Z</time></trkpt>
<trkpt lat="49.127872467041" lon="2.7001729011536"><ele></ele><time>2022-6-8T8:6:54Z</time></trkpt>
<trkpt lat="49.127822875977" lon="2.7002222537994"><ele></ele><time>2022-6-8T8:6:57Z</time></trkpt>
<trkpt lat="49.127758026123" lon="2.7002203464508"><ele></ele><time>2022-6-8T8:7:0Z</time></trkpt>
<trkpt lat="49.127689361572" lon="2.7002158164978"><ele></ele><time>2022-6-8T8:7:3Z</time></trkpt>
<trkpt lat="49.127689361572" lon="2.7002158164978"><ele></ele><time>2022-6-8T8:7:6Z</time></trkpt>
<trkpt lat="49.127601623535" lon="2.700257062912"><ele></ele><time>2022-6-8T8:7:9Z</time></trkpt>
<trkpt lat="49.127601623535" lon="2.700257062912"><ele></ele><time>2022-6-8T8:7:12Z</time></trkpt>
<trkpt lat="49.127548217773" lon="2.7003498077393"><ele></ele><time>2022-6-8T8:7:15Z</time></trkpt>
<trkpt lat="49.12752532959" lon="2.7004458904266"><ele></ele><time>2022-6-8T8:7:18Z</time></trkpt>
<trkpt lat="49.127506256104" lon="2.700541973114"><ele></ele><time>2022-6-8T8:7:21Z</time></trkpt>
<trkpt lat="49.127494812012" lon="2.7006506919861"><ele></ele><time>2022-6-8T8:7:24Z</time></trkpt>
<trkpt lat="49.12748336792" lon="2.7007522583008"><ele></ele><time>2022-6-8T8:7:27Z</time></trkpt>
<trkpt lat="49.127475738525" lon="2.7009377479553"><ele></ele><time>2022-6-8T8:7:30Z</time></trkpt>
<trkpt lat="49.127464294434" lon="2.7010488510132"><ele></ele><time>2022-6-8T8:7:33Z</time></trkpt>
<trkpt lat="49.127449035645" lon="2.7011728286743"><ele></ele><time>2022-6-8T8:7:36Z</time></trkpt>
<trkpt lat="49.127429962158" lon="2.7012870311737"><ele></ele><time>2022-6-8T8:7:39Z</time></trkpt>
<trkpt lat="49.127414703369" lon="2.7014005184174"><ele></ele><time>2022-6-8T8:7:42Z</time></trkpt>
<trkpt lat="49.127410888672" lon="2.7015273571014"><ele></ele><time>2022-6-8T8:7:45Z</time></trkpt>
<trkpt lat="49.12744140625" lon="2.7016546726227"><ele></ele><time>2022-6-8T8:7:48Z</time></trkpt>
<trkpt lat="49.127510070801" lon="2.7017545700073"><ele></ele><time>2022-6-8T8:7:51Z</time></trkpt>
<trkpt lat="49.127574920654" lon="2.7018401622772"><ele></ele><time>2022-6-8T8:7:54Z</time></trkpt>
<trkpt lat="49.127662658691" lon="2.7019262313843"><ele></ele><time>2022-6-8T8:7:57Z</time></trkpt>
<trkpt lat="49.127754211426" lon="2.7020263671875"><ele></ele><time>2022-6-8T8:8:0Z</time></trkpt>
<trkpt lat="49.127849578857" lon="2.7021391391754"><ele></ele><time>2022-6-8T8:8:3Z</time></trkpt>
<trkpt lat="49.127941131592" lon="2.7022533416748"><ele></ele><time>2022-6-8T8:8:6Z</time></trkpt>
<trkpt lat="49.128025054932" lon="2.7023596763611"><ele></ele><time>2022-6-8T8:8:9Z</time></trkpt>
<trkpt lat="49.128120422363" lon="2.7024753093719"><ele></ele><time>2022-6-8T8:8:12Z</time></trkpt>
<trkpt lat="49.128204345703" lon="2.7025628089905"><ele></ele><time>2022-6-8T8:8:15Z</time></trkpt>
<trkpt lat="49.128276824951" lon="2.702602148056"><ele></ele><time>2022-6-8T8:8:18Z</time></trkpt>
<trkpt lat="49.128372192383" lon="2.7026154994965"><ele></ele><time>2022-6-8T8:8:21Z</time></trkpt>
<trkpt lat="49.12845993042" lon="2.7026033401489"><ele></ele><time>2022-6-8T8:8:24Z</time></trkpt>
<trkpt lat="49.128536224365" lon="2.7026369571686"><ele></ele><time>2022-6-8T8:8:27Z</time></trkpt>
<trkpt lat="49.128593444824" lon="2.7027304172516"><ele></ele><time>2022-6-8T8:8:30Z</time></trkpt>
<trkpt lat="49.128635406494" lon="2.7028594017029"><ele></ele><time>2022-6-8T8:8:33Z</time></trkpt>
<trkpt lat="49.128650665283" lon="2.7029995918274"><ele></ele><time>2022-6-8T8:8:36Z</time></trkpt>
<trkpt lat="49.128658294678" lon="2.7031462192535"><ele></ele><time>2022-6-8T8:8:39Z</time></trkpt>
<trkpt lat="49.12866973877" lon="2.703292131424"><ele></ele><time>2022-6-8T8:8:42Z</time></trkpt>
<trkpt lat="49.128684997559" lon="2.7034287452698"><ele></ele><time>2022-6-8T8:8:45Z</time></trkpt>
<trkpt lat="49.12869644165" lon="2.7035701274872"><ele></ele><time>2022-6-8T8:8:48Z</time></trkpt>
<trkpt lat="49.128715515137" lon="2.7037127017975"><ele></ele><time>2022-6-8T8:8:51Z</time></trkpt>
<trkpt lat="49.128734588623" lon="2.703857421875"><ele></ele><time>2022-6-8T8:8:54Z</time></trkpt>
<trkpt lat="49.128753662109" lon="2.7039806842804"><ele></ele><time>2022-6-8T8:8:57Z</time></trkpt>
<trkpt lat="49.128772735596" lon="2.7040672302246"><ele></ele><time>2022-6-8T8:9:0Z</time></trkpt>
<trkpt lat="49.128818511963" lon="2.7041356563568"><ele></ele><time>2022-6-8T8:9:3Z</time></trkpt>
<trkpt lat="49.128818511963" lon="2.7041356563568"><ele></ele><time>2022-6-8T8:9:6Z</time></trkpt>
<trkpt lat="49.128871917725" lon="2.7042825222015"><ele></ele><time>2022-6-8T8:9:9Z</time></trkpt>
<trkpt lat="49.128871917725" lon="2.7042825222015"><ele></ele><time>2022-6-8T8:9:12Z</time></trkpt>
<trkpt lat="49.128902435303" lon="2.7044816017151"><ele></ele><time>2022-6-8T8:9:15Z</time></trkpt>
<trkpt lat="49.128921508789" lon="2.7045714855194"><ele></ele><time>2022-6-8T8:9:18Z</time></trkpt>
<trkpt lat="49.128936767578" lon="2.7046620845795"><ele></ele><time>2022-6-8T8:9:21Z</time></trkpt>
<trkpt lat="49.128955841064" lon="2.7047822475433"><ele></ele><time>2022-6-8T8:9:24Z</time></trkpt>
<trkpt lat="49.128974914551" lon="2.7049148082733"><ele></ele><time>2022-6-8T8:9:27Z</time></trkpt>
<trkpt lat="49.129016876221" lon="2.7050287723541"><ele></ele><time>2022-6-8T8:9:30Z</time></trkpt>
<trkpt lat="49.129055023193" lon="2.7051298618317"><ele></ele><time>2022-6-8T8:9:33Z</time></trkpt>
<trkpt lat="49.129089355469" lon="2.7052237987518"><ele></ele><time>2022-6-8T8:9:36Z</time></trkpt>
<trkpt lat="49.129123687744" lon="2.7053308486938"><ele></ele><time>2022-6-8T8:9:39Z</time></trkpt>
<trkpt lat="49.129150390625" lon="2.7054681777954"><ele></ele><time>2022-6-8T8:9:42Z</time></trkpt>
<trkpt lat="49.129169464111" lon="2.7055909633636"><ele></ele><time>2022-6-8T8:9:45Z</time></trkpt>
<trkpt lat="49.129199981689" lon="2.7057135105133"><ele></ele><time>2022-6-8T8:9:48Z</time></trkpt>
<trkpt lat="49.129222869873" lon="2.7058119773865"><ele></ele><time>2022-6-8T8:9:51Z</time></trkpt>
<trkpt lat="49.129245758057" lon="2.7059137821198"><ele></ele><time>2022-6-8T8:9:54Z</time></trkpt>
<trkpt lat="49.12926864624" lon="2.7060565948486"><ele></ele><time>2022-6-8T8:9:57Z</time></trkpt>
<trkpt lat="49.129287719727" lon="2.7061674594879"><ele></ele><time>2022-6-8T8:10:0Z</time></trkpt>
<trkpt lat="49.129295349121" lon="2.7062940597534"><ele></ele><time>2022-6-8T8:10:3Z</time></trkpt>
<trkpt lat="49.129295349121" lon="2.7064051628113"><ele></ele><time>2022-6-8T8:10:6Z</time></trkpt>
<trkpt lat="49.129295349121" lon="2.7064051628113"><ele></ele><time>2022-6-8T8:10:9Z</time></trkpt>
<trkpt lat="49.129276275635" lon="2.7065732479095"><ele></ele><time>2022-6-8T8:10:12Z</time></trkpt>
<trkpt lat="49.129261016846" lon="2.7066929340363"><ele></ele><time>2022-6-8T8:10:15Z</time></trkpt>
<trkpt lat="49.129249572754" lon="2.706805229187"><ele></ele><time>2022-6-8T8:10:18Z</time></trkpt>
<trkpt lat="49.129234313965" lon="2.706916809082"><ele></ele><time>2022-6-8T8:10:21Z</time></trkpt>
<trkpt lat="49.129215240479" lon="2.7070169448853"><ele></ele><time>2022-6-8T8:10:24Z</time></trkpt>
<trkpt lat="49.129203796387" lon="2.7071361541748"><ele></ele><time>2022-6-8T8:10:27Z</time></trkpt>
<trkpt lat="49.129188537598" lon="2.7072727680206"><ele></ele><time>2022-6-8T8:10:30Z</time></trkpt>
<trkpt lat="49.12915802002" lon="2.7074003219604"><ele></ele><time>2022-6-8T8:10:33Z</time></trkpt>
<trkpt lat="49.12914276123" lon="2.7075107097626"><ele></ele><time>2022-6-8T8:10:36Z</time></trkpt>
<trkpt lat="49.129123687744" lon="2.7076210975647"><ele></ele><time>2022-6-8T8:10:39Z</time></trkpt>
<trkpt lat="49.129112243652" lon="2.7077560424805"><ele></ele><time>2022-6-8T8:10:42Z</time></trkpt>
<trkpt lat="49.129100799561" lon="2.7078809738159"><ele></ele><time>2022-6-8T8:10:45Z</time></trkpt>
<trkpt lat="49.129089355469" lon="2.7080013751984"><ele></ele><time>2022-6-8T8:10:48Z</time></trkpt>
<trkpt lat="49.129070281982" lon="2.708135843277"><ele></ele><time>2022-6-8T8:10:51Z</time></trkpt>
<trkpt lat="49.129055023193" lon="2.708265542984"><ele></ele><time>2022-6-8T8:10:54Z</time></trkpt>
<trkpt lat="49.12903213501" lon="2.7084052562714"><ele></ele><time>2022-6-8T8:10:57Z</time></trkpt>
<trkpt lat="49.129013061523" lon="2.7085175514221"><ele></ele><time>2022-6-8T8:11:0Z</time></trkpt>
<trkpt lat="49.128997802734" lon="2.7086102962494"><ele></ele><time>2022-6-8T8:11:3Z</time></trkpt>
<trkpt lat="49.128993988037" lon="2.7087168693542"><ele></ele><time>2022-6-8T8:11:6Z</time></trkpt>
<trkpt lat="49.12899017334" lon="2.7088561058044"><ele></ele><time>2022-6-8T8:11:9Z</time></trkpt>
<trkpt lat="49.128986358643" lon="2.7089734077454"><ele></ele><time>2022-6-8T8:11:12Z</time></trkpt>
<trkpt lat="49.128986358643" lon="2.7090861797333"><ele></ele><time>2022-6-8T8:11:15Z</time></trkpt>
<trkpt lat="49.12899017334" lon="2.7092094421387"><ele></ele><time>2022-6-8T8:11:18Z</time></trkpt>
<trkpt lat="49.129009246826" lon="2.7093191146851"><ele></ele><time>2022-6-8T8:11:21Z</time></trkpt>
<trkpt lat="49.12903213501" lon="2.7094419002533"><ele></ele><time>2022-6-8T8:11:24Z</time></trkpt>
<trkpt lat="49.129043579102" lon="2.7095537185669"><ele></ele><time>2022-6-8T8:11:27Z</time></trkpt>
<trkpt lat="49.129051208496" lon="2.7096643447876"><ele></ele><time>2022-6-8T8:11:30Z</time></trkpt>
<trkpt lat="49.129058837891" lon="2.7097940444946"><ele></ele><time>2022-6-8T8:11:33Z</time></trkpt>
<trkpt lat="49.129077911377" lon="2.7099106311798"><ele></ele><time>2022-6-8T8:11:36Z</time></trkpt>
<trkpt lat="49.129093170166" lon="2.7100405693054"><ele></ele><time>2022-6-8T8:11:39Z</time></trkpt>
<trkpt lat="49.129104614258" lon="2.7101762294769"><ele></ele><time>2022-6-8T8:11:42Z</time></trkpt>
<trkpt lat="49.129108428955" lon="2.710301399231"><ele></ele><time>2022-6-8T8:11:45Z</time></trkpt>
<trkpt lat="49.12914276123" lon="2.7104294300079"><ele></ele><time>2022-6-8T8:11:48Z</time></trkpt>
<trkpt lat="49.129161834717" lon="2.7105526924133"><ele></ele><time>2022-6-8T8:11:51Z</time></trkpt>
<trkpt lat="49.129177093506" lon="2.7106733322144"><ele></ele><time>2022-6-8T8:11:54Z</time></trkpt>
<trkpt lat="49.129192352295" lon="2.7107932567596"><ele></ele><time>2022-6-8T8:11:57Z</time></trkpt>
<trkpt lat="49.129215240479" lon="2.710919380188"><ele></ele><time>2022-6-8T8:12:0Z</time></trkpt>
<trkpt lat="49.129238128662" lon="2.7110502719879"><ele></ele><time>2022-6-8T8:12:3Z</time></trkpt>
<trkpt lat="49.129261016846" lon="2.711198091507"><ele></ele><time>2022-6-8T8:12:6Z</time></trkpt>
<trkpt lat="49.129287719727" lon="2.7113270759583"><ele></ele><time>2022-6-8T8:12:9Z</time></trkpt>
<trkpt lat="49.129314422607" lon="2.7114496231079"><ele></ele><time>2022-6-8T8:12:12Z</time></trkpt>
<trkpt lat="49.129333496094" lon="2.7115616798401"><ele></ele><time>2022-6-8T8:12:15Z</time></trkpt>
<trkpt lat="49.129356384277" lon="2.7116849422455"><ele></ele><time>2022-6-8T8:12:18Z</time></trkpt>
<trkpt lat="49.129371643066" lon="2.7117919921875"><ele></ele><time>2022-6-8T8:12:21Z</time></trkpt>
<trkpt lat="49.129386901855" lon="2.7119109630585"><ele></ele><time>2022-6-8T8:12:24Z</time></trkpt>
<trkpt lat="49.129402160645" lon="2.7120156288147"><ele></ele><time>2022-6-8T8:12:27Z</time></trkpt>
<trkpt lat="49.129421234131" lon="2.7121241092682"><ele></ele><time>2022-6-8T8:12:30Z</time></trkpt>
<trkpt lat="49.129440307617" lon="2.7122251987457"><ele></ele><time>2022-6-8T8:12:33Z</time></trkpt>
<trkpt lat="49.129440307617" lon="2.7122251987457"><ele></ele><time>2022-6-8T8:12:36Z</time></trkpt>
<trkpt lat="49.129482269287" lon="2.7123885154724"><ele></ele><time>2022-6-8T8:12:39Z</time></trkpt>
<trkpt lat="49.129482269287" lon="2.7123885154724"><ele></ele><time>2022-6-8T8:12:42Z</time></trkpt>
<trkpt lat="49.129516601562" lon="2.712498664856"><ele></ele><time>2022-6-8T8:12:45Z</time></trkpt>
<trkpt lat="49.129516601562" lon="2.712498664856"><ele></ele><time>2022-6-8T8:12:48Z</time></trkpt>
<trkpt lat="49.129573822021" lon="2.7124938964844"><ele></ele><time>2022-6-8T8:12:51Z</time></trkpt>
<trkpt lat="49.129573822021" lon="2.7124938964844"><ele></ele><time>2022-6-8T8:12:54Z</time></trkpt>
<trkpt lat="49.129623413086" lon="2.7124252319336"><ele></ele><time>2022-6-8T8:12:57Z</time></trkpt>
<trkpt lat="49.129623413086" lon="2.7124252319336"><ele></ele><time>2022-6-8T8:13:0Z</time></trkpt>
<trkpt lat="49.129642486572" lon="2.7123394012451"><ele></ele><time>2022-6-8T8:13:3Z</time></trkpt>
<trkpt lat="49.129642486572" lon="2.7123394012451"><ele></ele><time>2022-6-8T8:13:6Z</time></trkpt>
<trkpt lat="49.12967300415" lon="2.7122626304626"><ele></ele><time>2022-6-8T8:13:9Z</time></trkpt>
<trkpt lat="49.12967300415" lon="2.7122626304626"><ele></ele><time>2022-6-8T8:13:12Z</time></trkpt>
<trkpt lat="49.129703521729" lon="2.7121617794037"><ele></ele><time>2022-6-8T8:13:15Z</time></trkpt>
<trkpt lat="49.129703521729" lon="2.7121617794037"><ele></ele><time>2022-6-8T8:13:18Z</time></trkpt>
<trkpt lat="49.129703521729" lon="2.7121617794037"><ele></ele><time>2022-6-8T8:13:21Z</time></trkpt>
<trkpt lat="49.129737854004" lon="2.712057352066"><ele></ele><time>2022-6-8T8:13:24Z</time></trkpt>
<trkpt lat="49.129737854004" lon="2.712057352066"><ele></ele><time>2022-6-8T8:13:27Z</time></trkpt>
<trkpt lat="49.129764556885" lon="2.7119603157043"><ele></ele><time>2022-6-8T8:13:30Z</time></trkpt>
<trkpt lat="49.129764556885" lon="2.7119603157043"><ele></ele><time>2022-6-8T8:13:33Z</time></trkpt>
<trkpt lat="49.129795074463" lon="2.7118465900421"><ele></ele><time>2022-6-8T8:13:36Z</time></trkpt>
<trkpt lat="49.129795074463" lon="2.7118465900421"><ele></ele><time>2022-6-8T8:13:39Z</time></trkpt>
<trkpt lat="49.129795074463" lon="2.7117400169373"><ele></ele><time>2022-6-8T8:13:42Z</time></trkpt>
<trkpt lat="49.129814147949" lon="2.7116544246674"><ele></ele><time>2022-6-8T8:13:45Z</time></trkpt>
<trkpt lat="49.129852294922" lon="2.7115590572357"><ele></ele><time>2022-6-8T8:13:48Z</time></trkpt>
<trkpt lat="49.129852294922" lon="2.7115590572357"><ele></ele><time>2022-6-8T8:13:51Z</time></trkpt>
<trkpt lat="49.129878997803" lon="2.7114639282227"><ele></ele><time>2022-6-8T8:13:54Z</time></trkpt>
<trkpt lat="49.129878997803" lon="2.7114639282227"><ele></ele><time>2022-6-8T8:13:57Z</time></trkpt>
<trkpt lat="49.129917144775" lon="2.7113606929779"><ele></ele><time>2022-6-8T8:14:0Z</time></trkpt>
<trkpt lat="49.129917144775" lon="2.7113606929779"><ele></ele><time>2022-6-8T8:14:3Z</time></trkpt>
<trkpt lat="49.129932403564" lon="2.7113237380981"><ele></ele><time>2022-6-8T8:14:6Z</time></trkpt>
<trkpt lat="49.129947662354" lon="2.7112851142883"><ele></ele><time>2022-6-8T8:14:9Z</time></trkpt>
<trkpt lat="49.129962921143" lon="2.7112324237823"><ele></ele><time>2022-6-8T8:14:12Z</time></trkpt>
<trkpt lat="49.129978179932" lon="2.7111802101135"><ele></ele><time>2022-6-8T8:14:15Z</time></trkpt>
<trkpt lat="49.129989624023" lon="2.7111189365387"><ele></ele><time>2022-6-8T8:14:18Z</time></trkpt>
<trkpt lat="49.129989624023" lon="2.7111189365387"><ele></ele><time>2022-6-8T8:14:21Z</time></trkpt>
<trkpt lat="49.130020141602" lon="2.7109570503235"><ele></ele><time>2022-6-8T8:14:24Z</time></trkpt>
<trkpt lat="49.130020141602" lon="2.7109570503235"><ele></ele><time>2022-6-8T8:14:27Z</time></trkpt>
<trkpt lat="49.130020141602" lon="2.7109570503235"><ele></ele><time>2022-6-8T8:14:30Z</time></trkpt>
<trkpt lat="49.130027770996" lon="2.7108354568481"><ele></ele><time>2022-6-8T8:14:33Z</time></trkpt>
<trkpt lat="49.130027770996" lon="2.7108354568481"><ele></ele><time>2022-6-8T8:14:36Z</time></trkpt>
<trkpt lat="49.130027770996" lon="2.7108354568481"><ele></ele><time>2022-6-8T8:14:39Z</time></trkpt>
<trkpt lat="49.130069732666" lon="2.7107367515564"><ele></ele><time>2022-6-8T8:14:42Z</time></trkpt>
<trkpt lat="49.130069732666" lon="2.7107367515564"><ele></ele><time>2022-6-8T8:14:45Z</time></trkpt>
<trkpt lat="49.130111694336" lon="2.7106728553772"><ele></ele><time>2022-6-8T8:14:48Z</time></trkpt>
<trkpt lat="49.130149841309" lon="2.7106029987335"><ele></ele><time>2022-6-8T8:14:51Z</time></trkpt>
<trkpt lat="49.130149841309" lon="2.7106029987335"><ele></ele><time>2022-6-8T8:14:54Z</time></trkpt>
<trkpt lat="49.130149841309" lon="2.7106029987335"><ele></ele><time>2022-6-8T8:14:57Z</time></trkpt>
<trkpt lat="49.130210876465" lon="2.7105240821838"><ele></ele><time>2022-6-8T8:15:0Z</time></trkpt>
<trkpt lat="49.130210876465" lon="2.7105240821838"><ele></ele><time>2022-6-8T8:15:3Z</time></trkpt>
<trkpt lat="49.130256652832" lon="2.7104547023773"><ele></ele><time>2022-6-8T8:15:6Z</time></trkpt>
<trkpt lat="49.130294799805" lon="2.7103593349457"><ele></ele><time>2022-6-8T8:15:9Z</time></trkpt>
<trkpt lat="49.130332946777" lon="2.7102708816528"><ele></ele><time>2022-6-8T8:15:12Z</time></trkpt>
<trkpt lat="49.130397796631" lon="2.7101709842682"><ele></ele><time>2022-6-8T8:15:15Z</time></trkpt>
<trkpt lat="49.130447387695" lon="2.7100656032562"><ele></ele><time>2022-6-8T8:15:18Z</time></trkpt>
<trkpt lat="49.130485534668" lon="2.7100014686584"><ele></ele><time>2022-6-8T8:15:21Z</time></trkpt>
<trkpt lat="49.130531311035" lon="2.7099018096924"><ele></ele><time>2022-6-8T8:15:24Z</time></trkpt>
<trkpt lat="49.130531311035" lon="2.7099018096924"><ele></ele><time>2022-6-8T8:15:27Z</time></trkpt>
<trkpt lat="49.130577087402" lon="2.7097904682159"><ele></ele><time>2022-6-8T8:15:30Z</time></trkpt>
<trkpt lat="49.130603790283" lon="2.7097108364105"><ele></ele><time>2022-6-8T8:15:33Z</time></trkpt>
<trkpt lat="49.130672454834" lon="2.7095625400543"><ele></ele><time>2022-6-8T8:15:36Z</time></trkpt>
<trkpt lat="49.130710601807" lon="2.7094919681549"><ele></ele><time>2022-6-8T8:15:39Z</time></trkpt>
<trkpt lat="49.130741119385" lon="2.7094180583954"><ele></ele><time>2022-6-8T8:15:42Z</time></trkpt>
<trkpt lat="49.13077545166" lon="2.7093455791473"><ele></ele><time>2022-6-8T8:15:45Z</time></trkpt>
<trkpt lat="49.130851745605" lon="2.7092063426971"><ele></ele><time>2022-6-8T8:15:48Z</time></trkpt>
<trkpt lat="49.130889892578" lon="2.7091462612152"><ele></ele><time>2022-6-8T8:15:51Z</time></trkpt>
<trkpt lat="49.130889892578" lon="2.7091462612152"><ele></ele><time>2022-6-8T8:15:54Z</time></trkpt>
<trkpt lat="49.130958557129" lon="2.7090604305267"><ele></ele><time>2022-6-8T8:15:57Z</time></trkpt>
<trkpt lat="49.130958557129" lon="2.7090604305267"><ele></ele><time>2022-6-8T8:16:0Z</time></trkpt>
<trkpt lat="49.131023406982" lon="2.7089624404907"><ele></ele><time>2022-6-8T8:16:3Z</time></trkpt>
<trkpt lat="49.131023406982" lon="2.7089624404907"><ele></ele><time>2022-6-8T8:16:6Z</time></trkpt>
<trkpt lat="49.131072998047" lon="2.7088775634766"><ele></ele><time>2022-6-8T8:16:9Z</time></trkpt>
<trkpt lat="49.131072998047" lon="2.7088775634766"><ele></ele><time>2022-6-8T8:16:12Z</time></trkpt>
<trkpt lat="49.131122589111" lon="2.7087867259979"><ele></ele><time>2022-6-8T8:16:15Z</time></trkpt>
<trkpt lat="49.131122589111" lon="2.7087867259979"><ele></ele><time>2022-6-8T8:16:18Z</time></trkpt>
<trkpt lat="49.131187438965" lon="2.7086663246155"><ele></ele><time>2022-6-8T8:16:21Z</time></trkpt>
<trkpt lat="49.131256103516" lon="2.708530664444"><ele></ele><time>2022-6-8T8:16:24Z</time></trkpt>
<trkpt lat="49.131290435791" lon="2.7084572315216"><ele></ele><time>2022-6-8T8:16:27Z</time></trkpt>
<trkpt lat="49.131332397461" lon="2.7083878517151"><ele></ele><time>2022-6-8T8:16:30Z</time></trkpt>
<trkpt lat="49.131397247314" lon="2.7082598209381"><ele></ele><time>2022-6-8T8:16:33Z</time></trkpt>
<trkpt lat="49.131458282471" lon="2.7080938816071"><ele></ele><time>2022-6-8T8:16:36Z</time></trkpt>
<trkpt lat="49.13151550293" lon="2.707973241806"><ele></ele><time>2022-6-8T8:16:39Z</time></trkpt>
<trkpt lat="49.131595611572" lon="2.7078084945679"><ele></ele><time>2022-6-8T8:16:42Z</time></trkpt>
<trkpt lat="49.131637573242" lon="2.7077279090881"><ele></ele><time>2022-6-8T8:16:45Z</time></trkpt>
<trkpt lat="49.131683349609" lon="2.7076487541199"><ele></ele><time>2022-6-8T8:16:48Z</time></trkpt>
<trkpt lat="49.131744384766" lon="2.707560300827"><ele></ele><time>2022-6-8T8:16:51Z</time></trkpt>
<trkpt lat="49.131790161133" lon="2.7074756622314"><ele></ele><time>2022-6-8T8:16:54Z</time></trkpt>
<trkpt lat="49.131828308105" lon="2.7073857784271"><ele></ele><time>2022-6-8T8:16:57Z</time></trkpt>
<trkpt lat="49.131896972656" lon="2.7071723937988"><ele></ele><time>2022-6-8T8:17:0Z</time></trkpt>
<trkpt lat="49.131927490234" lon="2.707067489624"><ele></ele><time>2022-6-8T8:17:3Z</time></trkpt>
<trkpt lat="49.131958007812" lon="2.7069807052612"><ele></ele><time>2022-6-8T8:17:6Z</time></trkpt>
<trkpt lat="49.131958007812" lon="2.7069807052612"><ele></ele><time>2022-6-8T8:17:9Z</time></trkpt>
<trkpt lat="49.131996154785" lon="2.706835269928"><ele></ele><time>2022-6-8T8:17:12Z</time></trkpt>
<trkpt lat="49.131996154785" lon="2.706835269928"><ele></ele><time>2022-6-8T8:17:15Z</time></trkpt>
<trkpt lat="49.132068634033" lon="2.7066979408264"><ele></ele><time>2022-6-8T8:17:18Z</time></trkpt>
<trkpt lat="49.132118225098" lon="2.7066476345062"><ele></ele><time>2022-6-8T8:17:21Z</time></trkpt>
<trkpt lat="49.132167816162" lon="2.7066037654877"><ele></ele><time>2022-6-8T8:17:24Z</time></trkpt>
<trkpt lat="49.132225036621" lon="2.7065491676331"><ele></ele><time>2022-6-8T8:17:27Z</time></trkpt>
<trkpt lat="49.13228225708" lon="2.7064943313599"><ele></ele><time>2022-6-8T8:17:30Z</time></trkpt>
<trkpt lat="49.132339477539" lon="2.7064447402954"><ele></ele><time>2022-6-8T8:17:33Z</time></trkpt>
<trkpt lat="49.132434844971" lon="2.7063434123993"><ele></ele><time>2022-6-8T8:17:36Z</time></trkpt>
<trkpt lat="49.132488250732" lon="2.7062776088715"><ele></ele><time>2022-6-8T8:17:39Z</time></trkpt>
<trkpt lat="49.132526397705" lon="2.7062056064606"><ele></ele><time>2022-6-8T8:17:42Z</time></trkpt>
<trkpt lat="49.132568359375" lon="2.7061398029327"><ele></ele><time>2022-6-8T8:17:45Z</time></trkpt>
<trkpt lat="49.132614135742" lon="2.7060630321503"><ele></ele><time>2022-6-8T8:17:48Z</time></trkpt>
<trkpt lat="49.132671356201" lon="2.7060022354126"><ele></ele><time>2022-6-8T8:17:51Z</time></trkpt>
<trkpt lat="49.132732391357" lon="2.7059466838837"><ele></ele><time>2022-6-8T8:17:54Z</time></trkpt>
<trkpt lat="49.132797241211" lon="2.7058894634247"><ele></ele><time>2022-6-8T8:17:57Z</time></trkpt>
<trkpt lat="49.132858276367" lon="2.7058193683624"><ele></ele><time>2022-6-8T8:18:0Z</time></trkpt>
<trkpt lat="49.132911682129" lon="2.7057592868805"><ele></ele><time>2022-6-8T8:18:3Z</time></trkpt>
<trkpt lat="49.132976531982" lon="2.7057003974915"><ele></ele><time>2022-6-8T8:18:6Z</time></trkpt>
<trkpt lat="49.133045196533" lon="2.7056319713593"><ele></ele><time>2022-6-8T8:18:9Z</time></trkpt>
<trkpt lat="49.133106231689" lon="2.7055537700653"><ele></ele><time>2022-6-8T8:18:12Z</time></trkpt>
<trkpt lat="49.133155822754" lon="2.7054786682129"><ele></ele><time>2022-6-8T8:18:15Z</time></trkpt>
<trkpt lat="49.133209228516" lon="2.7054371833801"><ele></ele><time>2022-6-8T8:18:18Z</time></trkpt>
<trkpt lat="49.133277893066" lon="2.7054173946381"><ele></ele><time>2022-6-8T8:18:21Z</time></trkpt>
<trkpt lat="49.133335113525" lon="2.7053945064545"><ele></ele><time>2022-6-8T8:18:24Z</time></trkpt>
<trkpt lat="49.133445739746" lon="2.7053422927856"><ele></ele><time>2022-6-8T8:18:27Z</time></trkpt>
<trkpt lat="49.133518218994" lon="2.7053101062775"><ele></ele><time>2022-6-8T8:18:30Z</time></trkpt>
<trkpt lat="49.133598327637" lon="2.7052798271179"><ele></ele><time>2022-6-8T8:18:33Z</time></trkpt>
<trkpt lat="49.13366317749" lon="2.7052586078644"><ele></ele><time>2022-6-8T8:18:36Z</time></trkpt>
<trkpt lat="49.133773803711" lon="2.7052171230316"><ele></ele><time>2022-6-8T8:18:39Z</time></trkpt>
<trkpt lat="49.133834838867" lon="2.7051928043365"><ele></ele><time>2022-6-8T8:18:42Z</time></trkpt>
<trkpt lat="49.133895874023" lon="2.7051653862"><ele></ele><time>2022-6-8T8:18:45Z</time></trkpt>
<trkpt lat="49.133964538574" lon="2.7051467895508"><ele></ele><time>2022-6-8T8:18:48Z</time></trkpt>
<trkpt lat="49.13404083252" lon="2.7051298618317"><ele></ele><time>2022-6-8T8:18:51Z</time></trkpt>
<trkpt lat="49.134117126465" lon="2.7051146030426"><ele></ele><time>2022-6-8T8:18:54Z</time></trkpt>
<trkpt lat="49.134197235107" lon="2.7050933837891"><ele></ele><time>2022-6-8T8:18:57Z</time></trkpt>
<trkpt lat="49.13427734375" lon="2.7050738334656"><ele></ele><time>2022-6-8T8:19:0Z</time></trkpt>
<trkpt lat="49.134353637695" lon="2.7050311565399"><ele></ele><time>2022-6-8T8:19:3Z</time></trkpt>
<trkpt lat="49.13444519043" lon="2.7049970626831"><ele></ele><time>2022-6-8T8:19:6Z</time></trkpt>
<trkpt lat="49.134525299072" lon="2.7049903869629"><ele></ele><time>2022-6-8T8:19:9Z</time></trkpt>
<trkpt lat="49.134605407715" lon="2.7049822807312"><ele></ele><time>2022-6-8T8:19:12Z</time></trkpt>
<trkpt lat="49.134685516357" lon="2.7049646377563"><ele></ele><time>2022-6-8T8:19:15Z</time></trkpt>
<trkpt lat="49.134769439697" lon="2.7049379348755"><ele></ele><time>2022-6-8T8:19:18Z</time></trkpt>
<trkpt lat="49.134853363037" lon="2.7049174308777"><ele></ele><time>2022-6-8T8:19:21Z</time></trkpt>
<trkpt lat="49.13493347168" lon="2.7048916816711"><ele></ele><time>2022-6-8T8:19:24Z</time></trkpt>
<trkpt lat="49.135025024414" lon="2.70485496521"><ele></ele><time>2022-6-8T8:19:27Z</time></trkpt>
<trkpt lat="49.135116577148" lon="2.7048168182373"><ele></ele><time>2022-6-8T8:19:30Z</time></trkpt>
<trkpt lat="49.13521194458" lon="2.7047777175903"><ele></ele><time>2022-6-8T8:19:33Z</time></trkpt>
<trkpt lat="49.135303497314" lon="2.7047419548035"><ele></ele><time>2022-6-8T8:19:36Z</time></trkpt>
<trkpt lat="49.135402679443" lon="2.7047026157379"><ele></ele><time>2022-6-8T8:19:39Z</time></trkpt>
<trkpt lat="49.13550567627" lon="2.7046658992767"><ele></ele><time>2022-6-8T8:19:42Z</time></trkpt>
<trkpt lat="49.13561630249" lon="2.7046270370483"><ele></ele><time>2022-6-8T8:19:45Z</time></trkpt>
<trkpt lat="49.135738372803" lon="2.7045850753784"><ele></ele><time>2022-6-8T8:19:48Z</time></trkpt>
<trkpt lat="49.135864257812" lon="2.704549074173"><ele></ele><time>2022-6-8T8:19:51Z</time></trkpt>
<trkpt lat="49.13599395752" lon="2.7045121192932"><ele></ele><time>2022-6-8T8:19:54Z</time></trkpt>
<trkpt lat="49.136100769043" lon="2.7044661045074"><ele></ele><time>2022-6-8T8:19:57Z</time></trkpt>
<trkpt lat="49.136180877686" lon="2.7044401168823"><ele></ele><time>2022-6-8T8:20:0Z</time></trkpt>
<trkpt lat="49.136257171631" lon="2.7044565677643"><ele></ele><time>2022-6-8T8:20:3Z</time></trkpt>
<trkpt lat="49.136322021484" lon="2.704532623291"><ele></ele><time>2022-6-8T8:20:6Z</time></trkpt>
<trkpt lat="49.13639831543" lon="2.7046175003052"><ele></ele><time>2022-6-8T8:20:9Z</time></trkpt>
<trkpt lat="49.136459350586" lon="2.7047021389008"><ele></ele><time>2022-6-8T8:20:12Z</time></trkpt>
<trkpt lat="49.136524200439" lon="2.7048034667969"><ele></ele><time>2022-6-8T8:20:15Z</time></trkpt>
<trkpt lat="49.136585235596" lon="2.7049016952515"><ele></ele><time>2022-6-8T8:20:18Z</time></trkpt>
<trkpt lat="49.136646270752" lon="2.7050001621246"><ele></ele><time>2022-6-8T8:20:21Z</time></trkpt>
<trkpt lat="49.136699676514" lon="2.7050967216492"><ele></ele><time>2022-6-8T8:20:24Z</time></trkpt>
<trkpt lat="49.136737823486" lon="2.7051720619202"><ele></ele><time>2022-6-8T8:20:27Z</time></trkpt>
<trkpt lat="49.136779785156" lon="2.7052414417267"><ele></ele><time>2022-6-8T8:20:30Z</time></trkpt>
<trkpt lat="49.136825561523" lon="2.7052969932556"><ele></ele><time>2022-6-8T8:20:33Z</time></trkpt>
<trkpt lat="49.136878967285" lon="2.7053365707397"><ele></ele><time>2022-6-8T8:20:36Z</time></trkpt>
<trkpt lat="49.136940002441" lon="2.7053718566895"><ele></ele><time>2022-6-8T8:20:39Z</time></trkpt>
<trkpt lat="49.137027740479" lon="2.7053897380829"><ele></ele><time>2022-6-8T8:20:42Z</time></trkpt>
<trkpt lat="49.137100219727" lon="2.7053847312927"><ele></ele><time>2022-6-8T8:20:45Z</time></trkpt>
<trkpt lat="49.137180328369" lon="2.7053620815277"><ele></ele><time>2022-6-8T8:20:48Z</time></trkpt>
<trkpt lat="49.137260437012" lon="2.7053301334381"><ele></ele><time>2022-6-8T8:20:51Z</time></trkpt>
<trkpt lat="49.13733291626" lon="2.7052550315857"><ele></ele><time>2022-6-8T8:20:54Z</time></trkpt>
<trkpt lat="49.1374168396" lon="2.7051289081573"><ele></ele><time>2022-6-8T8:20:57Z</time></trkpt>
<trkpt lat="49.137462615967" lon="2.7050156593323"><ele></ele><time>2022-6-8T8:21:0Z</time></trkpt>
<trkpt lat="49.137512207031" lon="2.704852104187"><ele></ele><time>2022-6-8T8:21:3Z</time></trkpt>
<trkpt lat="49.137554168701" lon="2.704699754715"><ele></ele><time>2022-6-8T8:21:6Z</time></trkpt>
<trkpt lat="49.137584686279" lon="2.7045533657074"><ele></ele><time>2022-6-8T8:21:9Z</time></trkpt>
<trkpt lat="49.137622833252" lon="2.7044415473938"><ele></ele><time>2022-6-8T8:21:12Z</time></trkpt>
<trkpt lat="49.137657165527" lon="2.7043364048004"><ele></ele><time>2022-6-8T8:21:15Z</time></trkpt>
<trkpt lat="49.137691497803" lon="2.7042257785797"><ele></ele><time>2022-6-8T8:21:18Z</time></trkpt>
<trkpt lat="49.137733459473" lon="2.7040960788727"><ele></ele><time>2022-6-8T8:21:21Z</time></trkpt>
<trkpt lat="49.137790679932" lon="2.7040138244629"><ele></ele><time>2022-6-8T8:21:24Z</time></trkpt>
<trkpt lat="49.137844085693" lon="2.7039716243744"><ele></ele><time>2022-6-8T8:21:27Z</time></trkpt>
<trkpt lat="49.137912750244" lon="2.7039220333099"><ele></ele><time>2022-6-8T8:21:30Z</time></trkpt>
<trkpt lat="49.137981414795" lon="2.703871011734"><ele></ele><time>2022-6-8T8:21:33Z</time></trkpt>
<trkpt lat="49.138053894043" lon="2.7038340568542"><ele></ele><time>2022-6-8T8:21:36Z</time></trkpt>
<trkpt lat="49.138137817383" lon="2.7038071155548"><ele></ele><time>2022-6-8T8:21:39Z</time></trkpt>
<trkpt lat="49.138233184814" lon="2.7037842273712"><ele></ele><time>2022-6-8T8:21:42Z</time></trkpt>
<trkpt lat="49.138332366943" lon="2.7037825584412"><ele></ele><time>2022-6-8T8:21:45Z</time></trkpt>
<trkpt lat="49.138431549072" lon="2.7037713527679"><ele></ele><time>2022-6-8T8:21:48Z</time></trkpt>
<trkpt lat="49.138534545898" lon="2.7038023471832"><ele></ele><time>2022-6-8T8:21:51Z</time></trkpt>
<trkpt lat="49.138645172119" lon="2.7038631439209"><ele></ele><time>2022-6-8T8:21:54Z</time></trkpt>
<trkpt lat="49.13875579834" lon="2.7039506435394"><ele></ele><time>2022-6-8T8:21:57Z</time></trkpt>
<trkpt lat="49.138854980469" lon="2.7040417194366"><ele></ele><time>2022-6-8T8:22:0Z</time></trkpt>
<trkpt lat="49.138969421387" lon="2.704137802124"><ele></ele><time>2022-6-8T8:22:3Z</time></trkpt>
<trkpt lat="49.13907623291" lon="2.7042047977448"><ele></ele><time>2022-6-8T8:22:6Z</time></trkpt>
<trkpt lat="49.139179229736" lon="2.704244852066"><ele></ele><time>2022-6-8T8:22:9Z</time></trkpt>
<trkpt lat="49.139263153076" lon="2.7042920589447"><ele></ele><time>2022-6-8T8:22:12Z</time></trkpt>
<trkpt lat="49.139366149902" lon="2.7043437957764"><ele></ele><time>2022-6-8T8:22:15Z</time></trkpt>
<trkpt lat="49.139465332031" lon="2.7044205665588"><ele></ele><time>2022-6-8T8:22:18Z</time></trkpt>
<trkpt lat="49.139549255371" lon="2.7045450210571"><ele></ele><time>2022-6-8T8:22:21Z</time></trkpt>
<trkpt lat="49.13960647583" lon="2.7047071456909"><ele></ele><time>2022-6-8T8:22:24Z</time></trkpt>
<trkpt lat="49.139636993408" lon="2.7048718929291"><ele></ele><time>2022-6-8T8:22:27Z</time></trkpt>
<trkpt lat="49.139633178711" lon="2.7050542831421"><ele></ele><time>2022-6-8T8:22:30Z</time></trkpt>
<trkpt lat="49.139625549316" lon="2.7052371501923"><ele></ele><time>2022-6-8T8:22:33Z</time></trkpt>
<trkpt lat="49.139705657959" lon="2.7053439617157"><ele></ele><time>2022-6-8T8:22:36Z</time></trkpt>
<trkpt lat="49.139797210693" lon="2.7054011821747"><ele></ele><time>2022-6-8T8:22:39Z</time></trkpt>
<trkpt lat="49.139877319336" lon="2.7055041790009"><ele></ele><time>2022-6-8T8:22:42Z</time></trkpt>
<trkpt lat="49.139907836914" lon="2.7056119441986"><ele></ele><time>2022-6-8T8:22:45Z</time></trkpt>
<trkpt lat="49.139907836914" lon="2.7056994438171"><ele></ele><time>2022-6-8T8:22:48Z</time></trkpt>
<trkpt lat="49.139907836914" lon="2.7056994438171"><ele></ele><time>2022-6-8T8:22:51Z</time></trkpt>
<trkpt lat="49.139904022217" lon="2.7058568000793"><ele></ele><time>2022-6-8T8:22:54Z</time></trkpt>
<trkpt lat="49.139904022217" lon="2.7058568000793"><ele></ele><time>2022-6-8T8:22:57Z</time></trkpt>
<trkpt lat="49.139862060547" lon="2.7059950828552"><ele></ele><time>2022-6-8T8:23:0Z</time></trkpt>
<trkpt lat="49.139862060547" lon="2.7059950828552"><ele></ele><time>2022-6-8T8:23:3Z</time></trkpt>
<trkpt lat="49.139842987061" lon="2.706170797348"><ele></ele><time>2022-6-8T8:23:6Z</time></trkpt>
<trkpt lat="49.139835357666" lon="2.7062785625458"><ele></ele><time>2022-6-8T8:23:9Z</time></trkpt>
<trkpt lat="49.139823913574" lon="2.7063853740692"><ele></ele><time>2022-6-8T8:23:12Z</time></trkpt>
<trkpt lat="49.139839172363" lon="2.7064967155457"><ele></ele><time>2022-6-8T8:23:15Z</time></trkpt>
<trkpt lat="49.139854431152" lon="2.7066159248352"><ele></ele><time>2022-6-8T8:23:18Z</time></trkpt>
<trkpt lat="49.13985824585" lon="2.7067677974701"><ele></ele><time>2022-6-8T8:23:21Z</time></trkpt>
<trkpt lat="49.139846801758" lon="2.7068994045258"><ele></ele><time>2022-6-8T8:23:24Z</time></trkpt>
<trkpt lat="49.139831542969" lon="2.7070474624634"><ele></ele><time>2022-6-8T8:23:27Z</time></trkpt>
<trkpt lat="49.13981628418" lon="2.7071938514709"><ele></ele><time>2022-6-8T8:23:30Z</time></trkpt>
<trkpt lat="49.139781951904" lon="2.7073650360107"><ele></ele><time>2022-6-8T8:23:33Z</time></trkpt>
<trkpt lat="49.139720916748" lon="2.7075293064117"><ele></ele><time>2022-6-8T8:23:36Z</time></trkpt>
<trkpt lat="49.139656066895" lon="2.7076606750488"><ele></ele><time>2022-6-8T8:23:39Z</time></trkpt>
<trkpt lat="49.139610290527" lon="2.7077627182007"><ele></ele><time>2022-6-8T8:23:42Z</time></trkpt>
<trkpt lat="49.139587402344" lon="2.7078466415405"><ele></ele><time>2022-6-8T8:23:45Z</time></trkpt>
<trkpt lat="49.139568328857" lon="2.7079303264618"><ele></ele><time>2022-6-8T8:23:48Z</time></trkpt>
<trkpt lat="49.139556884766" lon="2.708039522171"><ele></ele><time>2022-6-8T8:23:51Z</time></trkpt>
<trkpt lat="49.139560699463" lon="2.7081522941589"><ele></ele><time>2022-6-8T8:23:54Z</time></trkpt>
<trkpt lat="49.139595031738" lon="2.7082459926605"><ele></ele><time>2022-6-8T8:23:57Z</time></trkpt>
<trkpt lat="49.139636993408" lon="2.7083506584167"><ele></ele><time>2022-6-8T8:24:0Z</time></trkpt>
<trkpt lat="49.139717102051" lon="2.7084209918976"><ele></ele><time>2022-6-8T8:24:3Z</time></trkpt>
<trkpt lat="49.139808654785" lon="2.7084667682648"><ele></ele><time>2022-6-8T8:24:6Z</time></trkpt>
<trkpt lat="49.139888763428" lon="2.7085046768188"><ele></ele><time>2022-6-8T8:24:9Z</time></trkpt>
<trkpt lat="49.139980316162" lon="2.7085297107697"><ele></ele><time>2022-6-8T8:24:12Z</time></trkpt>
<trkpt lat="49.140045166016" lon="2.7085409164429"><ele></ele><time>2022-6-8T8:24:15Z</time></trkpt>
<trkpt lat="49.140045166016" lon="2.7085409164429"><ele></ele><time>2022-6-8T8:24:18Z</time></trkpt>
<trkpt lat="49.140045166016" lon="2.7085409164429"><ele></ele><time>2022-6-8T8:24:21Z</time></trkpt>
<trkpt lat="49.140129089355" lon="2.7085745334625"><ele></ele><time>2022-6-8T8:24:24Z</time></trkpt>
<trkpt lat="49.140186309814" lon="2.7086334228516"><ele></ele><time>2022-6-8T8:24:27Z</time></trkpt>
<trkpt lat="49.140251159668" lon="2.7087137699127"><ele></ele><time>2022-6-8T8:24:30Z</time></trkpt>
<trkpt lat="49.140316009521" lon="2.7087905406952"><ele></ele><time>2022-6-8T8:24:33Z</time></trkpt>
<trkpt lat="49.140354156494" lon="2.7088584899902"><ele></ele><time>2022-6-8T8:24:36Z</time></trkpt>
<trkpt lat="49.14038848877" lon="2.7089779376984"><ele></ele><time>2022-6-8T8:24:39Z</time></trkpt>
<trkpt lat="49.140426635742" lon="2.709109544754"><ele></ele><time>2022-6-8T8:24:42Z</time></trkpt>
<trkpt lat="49.140449523926" lon="2.7092337608337"><ele></ele><time>2022-6-8T8:24:45Z</time></trkpt>
<trkpt lat="49.140449523926" lon="2.7093632221222"><ele></ele><time>2022-6-8T8:24:48Z</time></trkpt>
<trkpt lat="49.140449523926" lon="2.7093632221222"><ele></ele><time>2022-6-8T8:24:51Z</time></trkpt>
<trkpt lat="49.140449523926" lon="2.7093632221222"><ele></ele><time>2022-6-8T8:24:54Z</time></trkpt>
<trkpt lat="49.140449523926" lon="2.7093632221222"><ele></ele><time>2022-6-8T8:24:57Z</time></trkpt>
<trkpt lat="49.140434265137" lon="2.7094864845276"><ele></ele><time>2022-6-8T8:25:0Z</time></trkpt>
<trkpt lat="49.14041519165" lon="2.7096011638641"><ele></ele><time>2022-6-8T8:25:3Z</time></trkpt>
<trkpt lat="49.140403747559" lon="2.7097177505493"><ele></ele><time>2022-6-8T8:25:6Z</time></trkpt>
<trkpt lat="49.140403747559" lon="2.7097177505493"><ele></ele><time>2022-6-8T8:25:9Z</time></trkpt>
<trkpt lat="49.140392303467" lon="2.7098162174225"><ele></ele><time>2022-6-8T8:25:12Z</time></trkpt>
<trkpt lat="49.140392303467" lon="2.7098162174225"><ele></ele><time>2022-6-8T8:25:15Z</time></trkpt>
<trkpt lat="49.140407562256" lon="2.7099044322968"><ele></ele><time>2022-6-8T8:25:18Z</time></trkpt>
<trkpt lat="49.140407562256" lon="2.7099044322968"><ele></ele><time>2022-6-8T8:25:21Z</time></trkpt>
<trkpt lat="49.140422821045" lon="2.709995508194"><ele></ele><time>2022-6-8T8:25:24Z</time></trkpt>
<trkpt lat="49.140422821045" lon="2.709995508194"><ele></ele><time>2022-6-8T8:25:27Z</time></trkpt>
<trkpt lat="49.140422821045" lon="2.709995508194"><ele></ele><time>2022-6-8T8:25:30Z</time></trkpt>
<trkpt lat="49.140468597412" lon="2.7100853919983"><ele></ele><time>2022-6-8T8:25:33Z</time></trkpt>
<trkpt lat="49.140468597412" lon="2.7100853919983"><ele></ele><time>2022-6-8T8:25:36Z</time></trkpt>
<trkpt lat="49.140468597412" lon="2.7100853919983"><ele></ele><time>2022-6-8T8:25:39Z</time></trkpt>
<trkpt lat="49.14045715332" lon="2.7101855278015"><ele></ele><time>2022-6-8T8:25:42Z</time></trkpt>
<trkpt lat="49.14045715332" lon="2.7101855278015"><ele></ele><time>2022-6-8T8:25:45Z</time></trkpt>
<trkpt lat="49.14045715332" lon="2.7101855278015"><ele></ele><time>2022-6-8T8:25:48Z</time></trkpt>
<trkpt lat="49.140487670898" lon="2.7102832794189"><ele></ele><time>2022-6-8T8:25:51Z</time></trkpt>
<trkpt lat="49.140487670898" lon="2.7102832794189"><ele></ele><time>2022-6-8T8:25:54Z</time></trkpt>
<trkpt lat="49.140533447266" lon="2.710343837738"><ele></ele><time>2022-6-8T8:25:57Z</time></trkpt>
<trkpt lat="49.140533447266" lon="2.710343837738"><ele></ele><time>2022-6-8T8:26:0Z</time></trkpt>
<trkpt lat="49.140567779541" lon="2.7104229927063"><ele></ele><time>2022-6-8T8:26:3Z</time></trkpt>
<trkpt lat="49.140567779541" lon="2.7104229927063"><ele></ele><time>2022-6-8T8:26:6Z</time></trkpt>
<trkpt lat="49.140617370605" lon="2.7104766368866"><ele></ele><time>2022-6-8T8:26:9Z</time></trkpt>
<trkpt lat="49.140674591064" lon="2.7105615139008"><ele></ele><time>2022-6-8T8:26:12Z</time></trkpt>
<trkpt lat="49.140686035156" lon="2.7106022834778"><ele></ele><time>2022-6-8T8:26:15Z</time></trkpt>
<trkpt lat="49.140701293945" lon="2.7106423377991"><ele></ele><time>2022-6-8T8:26:18Z</time></trkpt>
<trkpt lat="49.140701293945" lon="2.7106423377991"><ele></ele><time>2022-6-8T8:26:21Z</time></trkpt>
<trkpt lat="49.14070892334" lon="2.7106869220734"><ele></ele><time>2022-6-8T8:26:24Z</time></trkpt>
<trkpt lat="49.14070892334" lon="2.7106869220734"><ele></ele><time>2022-6-8T8:26:27Z</time></trkpt>
<trkpt lat="49.14070892334" lon="2.7106869220734"><ele></ele><time>2022-6-8T8:26:30Z</time></trkpt>
<trkpt lat="49.140697479248" lon="2.7108948230743"><ele></ele><time>2022-6-8T8:26:33Z</time></trkpt>
<trkpt lat="49.140697479248" lon="2.7108948230743"><ele></ele><time>2022-6-8T8:26:36Z</time></trkpt>
<trkpt lat="49.140697479248" lon="2.7108948230743"><ele></ele><time>2022-6-8T8:26:39Z</time></trkpt>
<trkpt lat="49.140716552734" lon="2.7110137939453"><ele></ele><time>2022-6-8T8:26:42Z</time></trkpt>
<trkpt lat="49.140785217285" lon="2.7111132144928"><ele></ele><time>2022-6-8T8:26:45Z</time></trkpt>
<trkpt lat="49.140846252441" lon="2.711198091507"><ele></ele><time>2022-6-8T8:26:48Z</time></trkpt>
<trkpt lat="49.140937805176" lon="2.7113137245178"><ele></ele><time>2022-6-8T8:26:51Z</time></trkpt>
<trkpt lat="49.140991210938" lon="2.7113904953003"><ele></ele><time>2022-6-8T8:26:54Z</time></trkpt>
<trkpt lat="49.141048431396" lon="2.7114980220795"><ele></ele><time>2022-6-8T8:26:57Z</time></trkpt>
<trkpt lat="49.141101837158" lon="2.7116031646729"><ele></ele><time>2022-6-8T8:27:0Z</time></trkpt>
<trkpt lat="49.14115524292" lon="2.711697101593"><ele></ele><time>2022-6-8T8:27:3Z</time></trkpt>
<trkpt lat="49.141227722168" lon="2.7117946147919"><ele></ele><time>2022-6-8T8:27:6Z</time></trkpt>
<trkpt lat="49.141288757324" lon="2.7119140625"><ele></ele><time>2022-6-8T8:27:9Z</time></trkpt>
<trkpt lat="49.14134979248" lon="2.7120110988617"><ele></ele><time>2022-6-8T8:27:12Z</time></trkpt>
<trkpt lat="49.141384124756" lon="2.7120935916901"><ele></ele><time>2022-6-8T8:27:15Z</time></trkpt>
<trkpt lat="49.141422271729" lon="2.7122676372528"><ele></ele><time>2022-6-8T8:27:18Z</time></trkpt>
<trkpt lat="49.141460418701" lon="2.7123699188232"><ele></ele><time>2022-6-8T8:27:21Z</time></trkpt>
<trkpt lat="49.141498565674" lon="2.712468624115"><ele></ele><time>2022-6-8T8:27:24Z</time></trkpt>
<trkpt lat="49.141536712646" lon="2.7125861644745"><ele></ele><time>2022-6-8T8:27:27Z</time></trkpt>
<trkpt lat="49.141567230225" lon="2.7127165794373"><ele></ele><time>2022-6-8T8:27:30Z</time></trkpt>
<trkpt lat="49.141586303711" lon="2.7128481864929"><ele></ele><time>2022-6-8T8:27:33Z</time></trkpt>
<trkpt lat="49.1416015625" lon="2.712984085083"><ele></ele><time>2022-6-8T8:27:36Z</time></trkpt>
<trkpt lat="49.141616821289" lon="2.7131097316742"><ele></ele><time>2022-6-8T8:27:39Z</time></trkpt>
<trkpt lat="49.141628265381" lon="2.7132384777069"><ele></ele><time>2022-6-8T8:27:42Z</time></trkpt>
<trkpt lat="49.141635894775" lon="2.7133691310883"><ele></ele><time>2022-6-8T8:27:45Z</time></trkpt>
<trkpt lat="49.141639709473" lon="2.7135150432587"><ele></ele><time>2022-6-8T8:27:48Z</time></trkpt>
<trkpt lat="49.14164352417" lon="2.7136676311493"><ele></ele><time>2022-6-8T8:27:51Z</time></trkpt>
<trkpt lat="49.141654968262" lon="2.7137959003448"><ele></ele><time>2022-6-8T8:27:54Z</time></trkpt>
<trkpt lat="49.14168548584" lon="2.7139399051666"><ele></ele><time>2022-6-8T8:27:57Z</time></trkpt>
<trkpt lat="49.141735076904" lon="2.7140512466431"><ele></ele><time>2022-6-8T8:28:0Z</time></trkpt>
<trkpt lat="49.14181137085" lon="2.714075088501"><ele></ele><time>2022-6-8T8:28:3Z</time></trkpt>
<trkpt lat="49.14181137085" lon="2.714075088501"><ele></ele><time>2022-6-8T8:28:6Z</time></trkpt>
<trkpt lat="49.1418800354" lon="2.7139520645142"><ele></ele><time>2022-6-8T8:28:9Z</time></trkpt>
<trkpt lat="49.141914367676" lon="2.7138719558716"><ele></ele><time>2022-6-8T8:28:12Z</time></trkpt>
<trkpt lat="49.141948699951" lon="2.7137730121613"><ele></ele><time>2022-6-8T8:28:15Z</time></trkpt>
<trkpt lat="49.141975402832" lon="2.7136693000793"><ele></ele><time>2022-6-8T8:28:18Z</time></trkpt>
<trkpt lat="49.142028808594" lon="2.7135281562805"><ele></ele><time>2022-6-8T8:28:21Z</time></trkpt>
<trkpt lat="49.142101287842" lon="2.7133827209473"><ele></ele><time>2022-6-8T8:28:24Z</time></trkpt>
<trkpt lat="49.142185211182" lon="2.7132399082184"><ele></ele><time>2022-6-8T8:28:27Z</time></trkpt>
<trkpt lat="49.142261505127" lon="2.7130563259125"><ele></ele><time>2022-6-8T8:28:30Z</time></trkpt>
<trkpt lat="49.14234161377" lon="2.7129166126251"><ele></ele><time>2022-6-8T8:28:33Z</time></trkpt>
<trkpt lat="49.142414093018" lon="2.7127432823181"><ele></ele><time>2022-6-8T8:28:36Z</time></trkpt>
<trkpt lat="49.142478942871" lon="2.712589263916"><ele></ele><time>2022-6-8T8:28:39Z</time></trkpt>
<trkpt lat="49.142555236816" lon="2.71244597435"><ele></ele><time>2022-6-8T8:28:42Z</time></trkpt>
<trkpt lat="49.142627716064" lon="2.7123165130615"><ele></ele><time>2022-6-8T8:28:45Z</time></trkpt>
<trkpt lat="49.142726898193" lon="2.7121760845184"><ele></ele><time>2022-6-8T8:28:48Z</time></trkpt>
<trkpt lat="49.142807006836" lon="2.7120139598846"><ele></ele><time>2022-6-8T8:28:51Z</time></trkpt>
<trkpt lat="49.142906188965" lon="2.7118256092072"><ele></ele><time>2022-6-8T8:28:54Z</time></trkpt>
<trkpt lat="49.142997741699" lon="2.7115893363953"><ele></ele><time>2022-6-8T8:28:57Z</time></trkpt>
<trkpt lat="49.143085479736" lon="2.7113802433014"><ele></ele><time>2022-6-8T8:29:0Z</time></trkpt>
<trkpt lat="49.14319229126" lon="2.7112114429474"><ele></ele><time>2022-6-8T8:29:3Z</time></trkpt>
<trkpt lat="49.14330291748" lon="2.7110118865967"><ele></ele><time>2022-6-8T8:29:6Z</time></trkpt>
<trkpt lat="49.143409729004" lon="2.7108018398285"><ele></ele><time>2022-6-8T8:29:9Z</time></trkpt>
<trkpt lat="49.143508911133" lon="2.7105889320374"><ele></ele><time>2022-6-8T8:29:12Z</time></trkpt>
<trkpt lat="49.143589019775" lon="2.7103934288025"><ele></ele><time>2022-6-8T8:29:15Z</time></trkpt>
<trkpt lat="49.14368057251" lon="2.7102081775665"><ele></ele><time>2022-6-8T8:29:18Z</time></trkpt>
<trkpt lat="49.143772125244" lon="2.7100098133087"><ele></ele><time>2022-6-8T8:29:21Z</time></trkpt>
<trkpt lat="49.143867492676" lon="2.7098169326782"><ele></ele><time>2022-6-8T8:29:24Z</time></trkpt>
<trkpt lat="49.14395904541" lon="2.7096116542816"><ele></ele><time>2022-6-8T8:29:27Z</time></trkpt>
<trkpt lat="49.144062042236" lon="2.7094268798828"><ele></ele><time>2022-6-8T8:29:30Z</time></trkpt>
<trkpt lat="49.144161224365" lon="2.7092659473419"><ele></ele><time>2022-6-8T8:29:33Z</time></trkpt>
<trkpt lat="49.144233703613" lon="2.7091228961945"><ele></ele><time>2022-6-8T8:29:36Z</time></trkpt>
<trkpt lat="49.144313812256" lon="2.7089779376984"><ele></ele><time>2022-6-8T8:29:39Z</time></trkpt>
<trkpt lat="49.144409179688" lon="2.7088043689728"><ele></ele><time>2022-6-8T8:29:42Z</time></trkpt>
<trkpt lat="49.14448928833" lon="2.7086451053619"><ele></ele><time>2022-6-8T8:29:45Z</time></trkpt>
<trkpt lat="49.144584655762" lon="2.7084691524506"><ele></ele><time>2022-6-8T8:29:48Z</time></trkpt>
<trkpt lat="49.144672393799" lon="2.7083358764648"><ele></ele><time>2022-6-8T8:29:51Z</time></trkpt>
<trkpt lat="49.144737243652" lon="2.708144903183"><ele></ele><time>2022-6-8T8:29:54Z</time></trkpt>
<trkpt lat="49.144821166992" lon="2.7080221176147"><ele></ele><time>2022-6-8T8:29:57Z</time></trkpt>
<trkpt lat="49.144908905029" lon="2.708126783371"><ele></ele><time>2022-6-8T8:30:0Z</time></trkpt>
<trkpt lat="49.144973754883" lon="2.7082765102386"><ele></ele><time>2022-6-8T8:30:3Z</time></trkpt>
<trkpt lat="49.145008087158" lon="2.7083852291107"><ele></ele><time>2022-6-8T8:30:6Z</time></trkpt>
<trkpt lat="49.145008087158" lon="2.7083852291107"><ele></ele><time>2022-6-8T8:30:9Z</time></trkpt>
<trkpt lat="49.145084381104" lon="2.7085165977478"><ele></ele><time>2022-6-8T8:30:12Z</time></trkpt>
<trkpt lat="49.145122528076" lon="2.708615064621"><ele></ele><time>2022-6-8T8:30:15Z</time></trkpt>
<trkpt lat="49.145156860352" lon="2.7087016105652"><ele></ele><time>2022-6-8T8:30:18Z</time></trkpt>
<trkpt lat="49.145202636719" lon="2.7088060379028"><ele></ele><time>2022-6-8T8:30:21Z</time></trkpt>
<trkpt lat="49.145252227783" lon="2.7089195251465"><ele></ele><time>2022-6-8T8:30:24Z</time></trkpt>
<trkpt lat="49.145313262939" lon="2.7090404033661"><ele></ele><time>2022-6-8T8:30:27Z</time></trkpt>
<trkpt lat="49.145378112793" lon="2.7091610431671"><ele></ele><time>2022-6-8T8:30:30Z</time></trkpt>
<trkpt lat="49.145439147949" lon="2.7092587947845"><ele></ele><time>2022-6-8T8:30:33Z</time></trkpt>
<trkpt lat="49.145515441895" lon="2.7093634605408"><ele></ele><time>2022-6-8T8:30:36Z</time></trkpt>
<trkpt lat="49.145580291748" lon="2.7094709873199"><ele></ele><time>2022-6-8T8:30:39Z</time></trkpt>
<trkpt lat="49.145645141602" lon="2.7095787525177"><ele></ele><time>2022-6-8T8:30:42Z</time></trkpt>
<trkpt lat="49.145698547363" lon="2.7096662521362"><ele></ele><time>2022-6-8T8:30:45Z</time></trkpt>
<trkpt lat="49.14574432373" lon="2.7097434997559"><ele></ele><time>2022-6-8T8:30:48Z</time></trkpt>
<trkpt lat="49.1457862854" lon="2.7098271846771"><ele></ele><time>2022-6-8T8:30:51Z</time></trkpt>
<trkpt lat="49.14582824707" lon="2.709902048111"><ele></ele><time>2022-6-8T8:30:54Z</time></trkpt>
<trkpt lat="49.145877838135" lon="2.7099888324738"><ele></ele><time>2022-6-8T8:30:57Z</time></trkpt>
<trkpt lat="49.145877838135" lon="2.7099888324738"><ele></ele><time>2022-6-8T8:31:0Z</time></trkpt>
<trkpt lat="49.145904541016" lon="2.7101235389709"><ele></ele><time>2022-6-8T8:31:3Z</time></trkpt>
<trkpt lat="49.145893096924" lon="2.7102165222168"><ele></ele><time>2022-6-8T8:31:6Z</time></trkpt>
<trkpt lat="49.145893096924" lon="2.7102165222168"><ele></ele><time>2022-6-8T8:31:9Z</time></trkpt>
<trkpt lat="49.145832061768" lon="2.7103400230408"><ele></ele><time>2022-6-8T8:31:12Z</time></trkpt>
<trkpt lat="49.145832061768" lon="2.7103400230408"><ele></ele><time>2022-6-8T8:31:15Z</time></trkpt>
<trkpt lat="49.1457862854" lon="2.7104675769806"><ele></ele><time>2022-6-8T8:31:18Z</time></trkpt>
<trkpt lat="49.145763397217" lon="2.7105457782745"><ele></ele><time>2022-6-8T8:31:21Z</time></trkpt>
<trkpt lat="49.145729064941" lon="2.7106199264526"><ele></ele><time>2022-6-8T8:31:24Z</time></trkpt>
<trkpt lat="49.145690917969" lon="2.7106900215149"><ele></ele><time>2022-6-8T8:31:27Z</time></trkpt>
<trkpt lat="49.145637512207" lon="2.7108342647552"><ele></ele><time>2022-6-8T8:31:30Z</time></trkpt>
<trkpt lat="49.145587921143" lon="2.7109687328339"><ele></ele><time>2022-6-8T8:31:33Z</time></trkpt>
<trkpt lat="49.145587921143" lon="2.7109687328339"><ele></ele><time>2022-6-8T8:31:36Z</time></trkpt>
<trkpt lat="49.145553588867" lon="2.7111012935638"><ele></ele><time>2022-6-8T8:31:39Z</time></trkpt>
<trkpt lat="49.145553588867" lon="2.7111012935638"><ele></ele><time>2022-6-8T8:31:42Z</time></trkpt>
<trkpt lat="49.1455078125" lon="2.7112245559692"><ele></ele><time>2022-6-8T8:31:45Z</time></trkpt>
<trkpt lat="49.14546585083" lon="2.7113680839539"><ele></ele><time>2022-6-8T8:31:48Z</time></trkpt>
<trkpt lat="49.145431518555" lon="2.7115042209625"><ele></ele><time>2022-6-8T8:31:51Z</time></trkpt>
<trkpt lat="49.145389556885" lon="2.7116248607635"><ele></ele><time>2022-6-8T8:31:54Z</time></trkpt>
<trkpt lat="49.145347595215" lon="2.71177983284"><ele></ele><time>2022-6-8T8:31:57Z</time></trkpt>
<trkpt lat="49.145324707031" lon="2.7118692398071"><ele></ele><time>2022-6-8T8:32:0Z</time></trkpt>
<trkpt lat="49.145305633545" lon="2.7119581699371"><ele></ele><time>2022-6-8T8:32:3Z</time></trkpt>
<trkpt lat="49.145286560059" lon="2.7120971679688"><ele></ele><time>2022-6-8T8:32:6Z</time></trkpt>
<trkpt lat="49.145286560059" lon="2.7120971679688"><ele></ele><time>2022-6-8T8:32:9Z</time></trkpt>
<trkpt lat="49.14527130127" lon="2.7122411727905"><ele></ele><time>2022-6-8T8:32:12Z</time></trkpt>
<trkpt lat="49.1452293396" lon="2.7123544216156"><ele></ele><time>2022-6-8T8:32:15Z</time></trkpt>
<trkpt lat="49.1452293396" lon="2.7123544216156"><ele></ele><time>2022-6-8T8:32:18Z</time></trkpt>
<trkpt lat="49.145168304443" lon="2.712464094162"><ele></ele><time>2022-6-8T8:32:21Z</time></trkpt>
<trkpt lat="49.14514541626" lon="2.7125506401062"><ele></ele><time>2022-6-8T8:32:24Z</time></trkpt>
<trkpt lat="49.145118713379" lon="2.7126307487488"><ele></ele><time>2022-6-8T8:32:27Z</time></trkpt>
<trkpt lat="49.145080566406" lon="2.7127752304077"><ele></ele><time>2022-6-8T8:32:30Z</time></trkpt>
<trkpt lat="49.145034790039" lon="2.7128973007202"><ele></ele><time>2022-6-8T8:32:33Z</time></trkpt>
<trkpt lat="49.145034790039" lon="2.7128973007202"><ele></ele><time>2022-6-8T8:32:36Z</time></trkpt>
<trkpt lat="49.144996643066" lon="2.7130246162415"><ele></ele><time>2022-6-8T8:32:39Z</time></trkpt>
<trkpt lat="49.144996643066" lon="2.7130246162415"><ele></ele><time>2022-6-8T8:32:42Z</time></trkpt>
<trkpt lat="49.144996643066" lon="2.7130246162415"><ele></ele><time>2022-6-8T8:32:45Z</time></trkpt>
<trkpt lat="49.14501953125" lon="2.7132680416107"><ele></ele><time>2022-6-8T8:32:48Z</time></trkpt>
<trkpt lat="49.145000457764" lon="2.7133259773254"><ele></ele><time>2022-6-8T8:32:51Z</time></trkpt>
<trkpt lat="49.144985198975" lon="2.7134017944336"><ele></ele><time>2022-6-8T8:32:54Z</time></trkpt>
<trkpt lat="49.144973754883" lon="2.7134711742401"><ele></ele><time>2022-6-8T8:32:57Z</time></trkpt>
<trkpt lat="49.144966125488" lon="2.7135443687439"><ele></ele><time>2022-6-8T8:33:0Z</time></trkpt>
<trkpt lat="49.144958496094" lon="2.7136235237122"><ele></ele><time>2022-6-8T8:33:3Z</time></trkpt>
<trkpt lat="49.144947052002" lon="2.7137792110443"><ele></ele><time>2022-6-8T8:33:6Z</time></trkpt>
<trkpt lat="49.144969940186" lon="2.7139081954956"><ele></ele><time>2022-6-8T8:33:9Z</time></trkpt>
<trkpt lat="49.144969940186" lon="2.7139081954956"><ele></ele><time>2022-6-8T8:33:12Z</time></trkpt>
<trkpt lat="49.144989013672" lon="2.7140271663666"><ele></ele><time>2022-6-8T8:33:15Z</time></trkpt>
<trkpt lat="49.144989013672" lon="2.7140271663666"><ele></ele><time>2022-6-8T8:33:18Z</time></trkpt>
<trkpt lat="49.145000457764" lon="2.714129447937"><ele></ele><time>2022-6-8T8:33:21Z</time></trkpt>
<trkpt lat="49.145000457764" lon="2.714129447937"><ele></ele><time>2022-6-8T8:33:24Z</time></trkpt>
<trkpt lat="49.145042419434" lon="2.7142403125763"><ele></ele><time>2022-6-8T8:33:27Z</time></trkpt>
<trkpt lat="49.145088195801" lon="2.7143340110779"><ele></ele><time>2022-6-8T8:33:30Z</time></trkpt>
<trkpt lat="49.145141601562" lon="2.714427947998"><ele></ele><time>2022-6-8T8:33:33Z</time></trkpt>
<trkpt lat="49.145141601562" lon="2.714427947998"><ele></ele><time>2022-6-8T8:33:36Z</time></trkpt>
<trkpt lat="49.145141601562" lon="2.714427947998"><ele></ele><time>2022-6-8T8:33:39Z</time></trkpt>
<trkpt lat="49.145141601562" lon="2.714427947998"><ele></ele><time>2022-6-8T8:33:42Z</time></trkpt>
<trkpt lat="49.145221710205" lon="2.7145240306854"><ele></ele><time>2022-6-8T8:33:45Z</time></trkpt>
<trkpt lat="49.145290374756" lon="2.7146053314209"><ele></ele><time>2022-6-8T8:33:48Z</time></trkpt>
<trkpt lat="49.145355224609" lon="2.7146589756012"><ele></ele><time>2022-6-8T8:33:51Z</time></trkpt>
<trkpt lat="49.145427703857" lon="2.7147319316864"><ele></ele><time>2022-6-8T8:33:54Z</time></trkpt>
<trkpt lat="49.145473480225" lon="2.7147877216339"><ele></ele><time>2022-6-8T8:33:57Z</time></trkpt>
<trkpt lat="49.145473480225" lon="2.7147877216339"><ele></ele><time>2022-6-8T8:34:0Z</time></trkpt>
<trkpt lat="49.14554977417" lon="2.7148869037628"><ele></ele><time>2022-6-8T8:34:3Z</time></trkpt>
<trkpt lat="49.145599365234" lon="2.7149665355682"><ele></ele><time>2022-6-8T8:34:6Z</time></trkpt>
<trkpt lat="49.145599365234" lon="2.7149665355682"><ele></ele><time>2022-6-8T8:34:9Z</time></trkpt>
<trkpt lat="49.14563369751" lon="2.715071439743"><ele></ele><time>2022-6-8T8:34:12Z</time></trkpt>
<trkpt lat="49.14563369751" lon="2.715071439743"><ele></ele><time>2022-6-8T8:34:15Z</time></trkpt>
<trkpt lat="49.145656585693" lon="2.7151660919189"><ele></ele><time>2022-6-8T8:34:18Z</time></trkpt>
<trkpt lat="49.145656585693" lon="2.7151660919189"><ele></ele><time>2022-6-8T8:34:21Z</time></trkpt>
<trkpt lat="49.14567565918" lon="2.7152497768402"><ele></ele><time>2022-6-8T8:34:24Z</time></trkpt>
<trkpt lat="49.145709991455" lon="2.71537566185"><ele></ele><time>2022-6-8T8:34:27Z</time></trkpt>
<trkpt lat="49.145729064941" lon="2.7154681682587"><ele></ele><time>2022-6-8T8:34:30Z</time></trkpt>
<trkpt lat="49.145729064941" lon="2.7154681682587"><ele></ele><time>2022-6-8T8:34:33Z</time></trkpt>
<trkpt lat="49.145729064941" lon="2.7154681682587"><ele></ele><time>2022-6-8T8:34:36Z</time></trkpt>
<trkpt lat="49.145751953125" lon="2.7156045436859"><ele></ele><time>2022-6-8T8:34:39Z</time></trkpt>
<trkpt lat="49.145771026611" lon="2.7157220840454"><ele></ele><time>2022-6-8T8:34:42Z</time></trkpt>
<trkpt lat="49.145771026611" lon="2.7157220840454"><ele></ele><time>2022-6-8T8:34:45Z</time></trkpt>
<trkpt lat="49.145790100098" lon="2.7158317565918"><ele></ele><time>2022-6-8T8:34:48Z</time></trkpt>
<trkpt lat="49.145790100098" lon="2.7158317565918"><ele></ele><time>2022-6-8T8:34:51Z</time></trkpt>
<trkpt lat="49.145797729492" lon="2.7159261703491"><ele></ele><time>2022-6-8T8:34:54Z</time></trkpt>
<trkpt lat="49.145797729492" lon="2.7159261703491"><ele></ele><time>2022-6-8T8:34:57Z</time></trkpt>
<trkpt lat="49.145809173584" lon="2.7160534858704"><ele></ele><time>2022-6-8T8:35:0Z</time></trkpt>
<trkpt lat="49.145809173584" lon="2.7161419391632"><ele></ele><time>2022-6-8T8:35:3Z</time></trkpt>
<trkpt lat="49.145809173584" lon="2.7162306308746"><ele></ele><time>2022-6-8T8:35:6Z</time></trkpt>
<trkpt lat="49.145793914795" lon="2.7162885665894"><ele></ele><time>2022-6-8T8:35:9Z</time></trkpt>
<trkpt lat="49.145771026611" lon="2.716335773468"><ele></ele><time>2022-6-8T8:35:12Z</time></trkpt>
<trkpt lat="49.14574432373" lon="2.7163786888123"><ele></ele><time>2022-6-8T8:35:15Z</time></trkpt>
<trkpt lat="49.14571762085" lon="2.7164173126221"><ele></ele><time>2022-6-8T8:35:18Z</time></trkpt>
<trkpt lat="49.145690917969" lon="2.7164499759674"><ele></ele><time>2022-6-8T8:35:21Z</time></trkpt>
<trkpt lat="49.145648956299" lon="2.7165167331696"><ele></ele><time>2022-6-8T8:35:24Z</time></trkpt>
<trkpt lat="49.145603179932" lon="2.7165825366974"><ele></ele><time>2022-6-8T8:35:27Z</time></trkpt>
<trkpt lat="49.145603179932" lon="2.7165825366974"><ele></ele><time>2022-6-8T8:35:30Z</time></trkpt>
<trkpt lat="49.145568847656" lon="2.7166585922241"><ele></ele><time>2022-6-8T8:35:33Z</time></trkpt>
<trkpt lat="49.145568847656" lon="2.7166585922241"><ele></ele><time>2022-6-8T8:35:36Z</time></trkpt>
<trkpt lat="49.145568847656" lon="2.7166585922241"><ele></ele><time>2022-6-8T8:35:39Z</time></trkpt>
<trkpt lat="49.14554977417" lon="2.7167794704437"><ele></ele><time>2022-6-8T8:35:42Z</time></trkpt>
<trkpt lat="49.145503997803" lon="2.7168912887573"><ele></ele><time>2022-6-8T8:35:45Z</time></trkpt>
<trkpt lat="49.145458221436" lon="2.7169938087463"><ele></ele><time>2022-6-8T8:35:48Z</time></trkpt>
<trkpt lat="49.145427703857" lon="2.7170722484589"><ele></ele><time>2022-6-8T8:35:51Z</time></trkpt>
<trkpt lat="49.145427703857" lon="2.7170722484589"><ele></ele><time>2022-6-8T8:35:54Z</time></trkpt>
<trkpt lat="49.145408630371" lon="2.7171578407288"><ele></ele><time>2022-6-8T8:35:57Z</time></trkpt>
<trkpt lat="49.145408630371" lon="2.7171578407288"><ele></ele><time>2022-6-8T8:36:0Z</time></trkpt>
<trkpt lat="49.145397186279" lon="2.7172462940216"><ele></ele><time>2022-6-8T8:36:3Z</time></trkpt>
<trkpt lat="49.145397186279" lon="2.7172462940216"><ele></ele><time>2022-6-8T8:36:6Z</time></trkpt>
<trkpt lat="49.145397186279" lon="2.7172462940216"><ele></ele><time>2022-6-8T8:36:9Z</time></trkpt>
<trkpt lat="49.145397186279" lon="2.7172462940216"><ele></ele><time>2022-6-8T8:36:12Z</time></trkpt>
<trkpt lat="49.145431518555" lon="2.7173290252686"><ele></ele><time>2022-6-8T8:36:15Z</time></trkpt>
<trkpt lat="49.145431518555" lon="2.7173290252686"><ele></ele><time>2022-6-8T8:36:18Z</time></trkpt>
<trkpt lat="49.145431518555" lon="2.7173290252686"><ele></ele><time>2022-6-8T8:36:21Z</time></trkpt>
<trkpt lat="49.145526885986" lon="2.7173562049866"><ele></ele><time>2022-6-8T8:36:24Z</time></trkpt>
<trkpt lat="49.145599365234" lon="2.7173843383789"><ele></ele><time>2022-6-8T8:36:27Z</time></trkpt>
<trkpt lat="49.145599365234" lon="2.7173843383789"><ele></ele><time>2022-6-8T8:36:30Z</time></trkpt>
<trkpt lat="49.145599365234" lon="2.7173843383789"><ele></ele><time>2022-6-8T8:36:33Z</time></trkpt>
<trkpt lat="49.145599365234" lon="2.7173843383789"><ele></ele><time>2022-6-8T8:36:36Z</time></trkpt>
<trkpt lat="49.1457862854" lon="2.7174360752106"><ele></ele><time>2022-6-8T8:36:39Z</time></trkpt>
<trkpt lat="49.1457862854" lon="2.7174360752106"><ele></ele><time>2022-6-8T8:36:42Z</time></trkpt>
<trkpt lat="49.1457862854" lon="2.7174360752106"><ele></ele><time>2022-6-8T8:36:45Z</time></trkpt>
<trkpt lat="49.145977020264" lon="2.7175369262695"><ele></ele><time>2022-6-8T8:36:48Z</time></trkpt>
<trkpt lat="49.145977020264" lon="2.7175369262695"><ele></ele><time>2022-6-8T8:36:51Z</time></trkpt>
<trkpt lat="49.146034240723" lon="2.7175493240356"><ele></ele><time>2022-6-8T8:36:54Z</time></trkpt>
<trkpt lat="49.146034240723" lon="2.7175493240356"><ele></ele><time>2022-6-8T8:36:57Z</time></trkpt>
<trkpt lat="49.146114349365" lon="2.7175872325897"><ele></ele><time>2022-6-8T8:37:0Z</time></trkpt>
<trkpt lat="49.146114349365" lon="2.7175872325897"><ele></ele><time>2022-6-8T8:37:3Z</time></trkpt>
<trkpt lat="49.146255493164" lon="2.7175295352936"><ele></ele><time>2022-6-8T8:37:6Z</time></trkpt>
<trkpt lat="49.146335601807" lon="2.7174737453461"><ele></ele><time>2022-6-8T8:37:9Z</time></trkpt>
<trkpt lat="49.14640045166" lon="2.7174637317657"><ele></ele><time>2022-6-8T8:37:12Z</time></trkpt>
<trkpt lat="49.146484375" lon="2.717479467392"><ele></ele><time>2022-6-8T8:37:15Z</time></trkpt>
<trkpt lat="49.146484375" lon="2.717479467392"><ele></ele><time>2022-6-8T8:37:18Z</time></trkpt>
<trkpt lat="49.146484375" lon="2.717479467392"><ele></ele><time>2022-6-8T8:37:21Z</time></trkpt>
<trkpt lat="49.146606445312" lon="2.7175455093384"><ele></ele><time>2022-6-8T8:37:24Z</time></trkpt>
<trkpt lat="49.146671295166" lon="2.7175827026367"><ele></ele><time>2022-6-8T8:37:27Z</time></trkpt>
<trkpt lat="49.146671295166" lon="2.7175827026367"><ele></ele><time>2022-6-8T8:37:30Z</time></trkpt>
<trkpt lat="49.146755218506" lon="2.7175855636597"><ele></ele><time>2022-6-8T8:37:33Z</time></trkpt>
<trkpt lat="49.146850585938" lon="2.7175872325897"><ele></ele><time>2022-6-8T8:37:36Z</time></trkpt>
<trkpt lat="49.146915435791" lon="2.7176055908203"><ele></ele><time>2022-6-8T8:37:39Z</time></trkpt>
<trkpt lat="49.14701461792" lon="2.7176516056061"><ele></ele><time>2022-6-8T8:37:42Z</time></trkpt>
<trkpt lat="49.147102355957" lon="2.71772813797"><ele></ele><time>2022-6-8T8:37:45Z</time></trkpt>
<trkpt lat="49.147174835205" lon="2.7177338600159"><ele></ele><time>2022-6-8T8:37:48Z</time></trkpt>
<trkpt lat="49.147239685059" lon="2.7177186012268"><ele></ele><time>2022-6-8T8:37:51Z</time></trkpt>
<trkpt lat="49.14729309082" lon="2.7176856994629"><ele></ele><time>2022-6-8T8:37:54Z</time></trkpt>
<trkpt lat="49.147384643555" lon="2.7176549434662"><ele></ele><time>2022-6-8T8:37:57Z</time></trkpt>
<trkpt lat="49.147491455078" lon="2.7176465988159"><ele></ele><time>2022-6-8T8:38:0Z</time></trkpt>
<trkpt lat="49.147556304932" lon="2.7176463603973"><ele></ele><time>2022-6-8T8:38:3Z</time></trkpt>
<trkpt lat="49.147655487061" lon="2.7176508903503"><ele></ele><time>2022-6-8T8:38:6Z</time></trkpt>
<trkpt lat="49.147716522217" lon="2.7176449298859"><ele></ele><time>2022-6-8T8:38:9Z</time></trkpt>
<trkpt lat="49.14778137207" lon="2.7176430225372"><ele></ele><time>2022-6-8T8:38:12Z</time></trkpt>
<trkpt lat="49.147850036621" lon="2.7176299095154"><ele></ele><time>2022-6-8T8:38:15Z</time></trkpt>
<trkpt lat="49.147899627686" lon="2.7175824642181"><ele></ele><time>2022-6-8T8:38:18Z</time></trkpt>
<trkpt lat="49.147979736328" lon="2.7175133228302"><ele></ele><time>2022-6-8T8:38:21Z</time></trkpt>
<trkpt lat="49.148067474365" lon="2.7174746990204"><ele></ele><time>2022-6-8T8:38:24Z</time></trkpt>
<trkpt lat="49.148136138916" lon="2.7174603939056"><ele></ele><time>2022-6-8T8:38:27Z</time></trkpt>
<trkpt lat="49.148204803467" lon="2.7174718379974"><ele></ele><time>2022-6-8T8:38:30Z</time></trkpt>
<trkpt lat="49.148292541504" lon="2.7175402641296"><ele></ele><time>2022-6-8T8:38:33Z</time></trkpt>
<trkpt lat="49.148384094238" lon="2.7176513671875"><ele></ele><time>2022-6-8T8:38:36Z</time></trkpt>
<trkpt lat="49.148452758789" lon="2.7177875041962"><ele></ele><time>2022-6-8T8:38:39Z</time></trkpt>
<trkpt lat="49.14852142334" lon="2.7178966999054"><ele></ele><time>2022-6-8T8:38:42Z</time></trkpt>
<trkpt lat="49.148593902588" lon="2.7179884910583"><ele></ele><time>2022-6-8T8:38:45Z</time></trkpt>
<trkpt lat="49.148662567139" lon="2.7180798053741"><ele></ele><time>2022-6-8T8:38:48Z</time></trkpt>
<trkpt lat="49.148712158203" lon="2.718169927597"><ele></ele><time>2022-6-8T8:38:51Z</time></trkpt>
<trkpt lat="49.148754119873" lon="2.7182500362396"><ele></ele><time>2022-6-8T8:38:54Z</time></trkpt>
<trkpt lat="49.148807525635" lon="2.7183384895325"><ele></ele><time>2022-6-8T8:38:57Z</time></trkpt>
<trkpt lat="49.148860931396" lon="2.7184374332428"><ele></ele><time>2022-6-8T8:39:0Z</time></trkpt>
<trkpt lat="49.148895263672" lon="2.7185134887695"><ele></ele><time>2022-6-8T8:39:3Z</time></trkpt>
<trkpt lat="49.148933410645" lon="2.7185909748077"><ele></ele><time>2022-6-8T8:39:6Z</time></trkpt>
<trkpt lat="49.148979187012" lon="2.7186532020569"><ele></ele><time>2022-6-8T8:39:9Z</time></trkpt>
<trkpt lat="49.149024963379" lon="2.7187008857727"><ele></ele><time>2022-6-8T8:39:12Z</time></trkpt>
<trkpt lat="49.149024963379" lon="2.7187008857727"><ele></ele><time>2022-6-8T8:39:15Z</time></trkpt>
<trkpt lat="49.149127960205" lon="2.7187747955322"><ele></ele><time>2022-6-8T8:39:18Z</time></trkpt>
<trkpt lat="49.149188995361" lon="2.7188420295715"><ele></ele><time>2022-6-8T8:39:21Z</time></trkpt>
<trkpt lat="49.14924621582" lon="2.7189030647278"><ele></ele><time>2022-6-8T8:39:24Z</time></trkpt>
<trkpt lat="49.149307250977" lon="2.7189626693726"><ele></ele><time>2022-6-8T8:39:27Z</time></trkpt>
<trkpt lat="49.149383544922" lon="2.7190644741058"><ele></ele><time>2022-6-8T8:39:30Z</time></trkpt>
<trkpt lat="49.14945602417" lon="2.7191715240479"><ele></ele><time>2022-6-8T8:39:33Z</time></trkpt>
<trkpt lat="49.149532318115" lon="2.719256401062"><ele></ele><time>2022-6-8T8:39:36Z</time></trkpt>
<trkpt lat="49.149608612061" lon="2.7193148136139"><ele></ele><time>2022-6-8T8:39:39Z</time></trkpt>
<trkpt lat="49.149681091309" lon="2.7193651199341"><ele></ele><time>2022-6-8T8:39:42Z</time></trkpt>
<trkpt lat="49.149761199951" lon="2.7194316387177"><ele></ele><time>2022-6-8T8:39:45Z</time></trkpt>
<trkpt lat="49.149833679199" lon="2.7195293903351"><ele></ele><time>2022-6-8T8:39:48Z</time></trkpt>
<trkpt lat="49.149890899658" lon="2.7196233272552"><ele></ele><time>2022-6-8T8:39:51Z</time></trkpt>
<trkpt lat="49.149929046631" lon="2.7197325229645"><ele></ele><time>2022-6-8T8:39:54Z</time></trkpt>
<trkpt lat="49.149955749512" lon="2.719872713089"><ele></ele><time>2022-6-8T8:39:57Z</time></trkpt>
<trkpt lat="49.14994430542" lon="2.7199966907501"><ele></ele><time>2022-6-8T8:40:0Z</time></trkpt>
<trkpt lat="49.149913787842" lon="2.7201111316681"><ele></ele><time>2022-6-8T8:40:3Z</time></trkpt>
<trkpt lat="49.149879455566" lon="2.7202315330505"><ele></ele><time>2022-6-8T8:40:6Z</time></trkpt>
<trkpt lat="49.149883270264" lon="2.7203483581543"><ele></ele><time>2022-6-8T8:40:9Z</time></trkpt>
<trkpt lat="49.149887084961" lon="2.7204847335815"><ele></ele><time>2022-6-8T8:40:12Z</time></trkpt>
<trkpt lat="49.149909973145" lon="2.7206048965454"><ele></ele><time>2022-6-8T8:40:15Z</time></trkpt>
<trkpt lat="49.14994430542" lon="2.7206983566284"><ele></ele><time>2022-6-8T8:40:18Z</time></trkpt>
<trkpt lat="49.149978637695" lon="2.7207944393158"><ele></ele><time>2022-6-8T8:40:21Z</time></trkpt>
<trkpt lat="49.149978637695" lon="2.7207944393158"><ele></ele><time>2022-6-8T8:40:24Z</time></trkpt>
<trkpt lat="49.150039672852" lon="2.7209362983704"><ele></ele><time>2022-6-8T8:40:27Z</time></trkpt>
<trkpt lat="49.150039672852" lon="2.7209362983704"><ele></ele><time>2022-6-8T8:40:30Z</time></trkpt>
<trkpt lat="49.150108337402" lon="2.7210156917572"><ele></ele><time>2022-6-8T8:40:33Z</time></trkpt>
<trkpt lat="49.150108337402" lon="2.7210156917572"><ele></ele><time>2022-6-8T8:40:36Z</time></trkpt>
<trkpt lat="49.150196075439" lon="2.7210962772369"><ele></ele><time>2022-6-8T8:40:39Z</time></trkpt>
<trkpt lat="49.150196075439" lon="2.7210962772369"><ele></ele><time>2022-6-8T8:40:42Z</time></trkpt>
<trkpt lat="49.150234222412" lon="2.7211992740631"><ele></ele><time>2022-6-8T8:40:45Z</time></trkpt>
<trkpt lat="49.150234222412" lon="2.7211992740631"><ele></ele><time>2022-6-8T8:40:48Z</time></trkpt>
<trkpt lat="49.150302886963" lon="2.7213146686554"><ele></ele><time>2022-6-8T8:40:51Z</time></trkpt>
<trkpt lat="49.150302886963" lon="2.7213146686554"><ele></ele><time>2022-6-8T8:40:54Z</time></trkpt>
<trkpt lat="49.150337219238" lon="2.7213492393494"><ele></ele><time>2022-6-8T8:40:57Z</time></trkpt>
<trkpt lat="49.150367736816" lon="2.7213883399963"><ele></ele><time>2022-6-8T8:41:0Z</time></trkpt>
<trkpt lat="49.150394439697" lon="2.7214272022247"><ele></ele><time>2022-6-8T8:41:3Z</time></trkpt>
<trkpt lat="49.150417327881" lon="2.7214772701263"><ele></ele><time>2022-6-8T8:41:6Z</time></trkpt>
<trkpt lat="49.150440216064" lon="2.721542596817"><ele></ele><time>2022-6-8T8:41:9Z</time></trkpt>
<trkpt lat="49.150485992432" lon="2.7216765880585"><ele></ele><time>2022-6-8T8:41:12Z</time></trkpt>
<trkpt lat="49.150535583496" lon="2.7217292785645"><ele></ele><time>2022-6-8T8:41:15Z</time></trkpt>
<trkpt lat="49.150535583496" lon="2.7217292785645"><ele></ele><time>2022-6-8T8:41:18Z</time></trkpt>
<trkpt lat="49.150535583496" lon="2.7217292785645"><ele></ele><time>2022-6-8T8:41:21Z</time></trkpt>
<trkpt lat="49.150611877441" lon="2.7216832637787"><ele></ele><time>2022-6-8T8:41:24Z</time></trkpt>
<trkpt lat="49.150611877441" lon="2.7216832637787"><ele></ele><time>2022-6-8T8:41:27Z</time></trkpt>
<trkpt lat="49.150730133057" lon="2.7217099666595"><ele></ele><time>2022-6-8T8:41:30Z</time></trkpt>
<trkpt lat="49.150806427002" lon="2.72159075737"><ele></ele><time>2022-6-8T8:41:33Z</time></trkpt>
<trkpt lat="49.150829315186" lon="2.7215023040771"><ele></ele><time>2022-6-8T8:41:36Z</time></trkpt>
<trkpt lat="49.150829315186" lon="2.7215023040771"><ele></ele><time>2022-6-8T8:41:39Z</time></trkpt>
<trkpt lat="49.150829315186" lon="2.7215023040771"><ele></ele><time>2022-6-8T8:41:42Z</time></trkpt>
<trkpt lat="49.15083694458" lon="2.7213037014008"><ele></ele><time>2022-6-8T8:41:45Z</time></trkpt>
<trkpt lat="49.15083694458" lon="2.7213037014008"><ele></ele><time>2022-6-8T8:41:48Z</time></trkpt>
<trkpt lat="49.150867462158" lon="2.7211408615112"><ele></ele><time>2022-6-8T8:41:51Z</time></trkpt>
<trkpt lat="49.150882720947" lon="2.7209115028381"><ele></ele><time>2022-6-8T8:41:54Z</time></trkpt>
<trkpt lat="49.150897979736" lon="2.720822095871"><ele></ele><time>2022-6-8T8:41:57Z</time></trkpt>
<trkpt lat="49.150943756104" lon="2.7205851078033"><ele></ele><time>2022-6-8T8:42:0Z</time></trkpt>
<trkpt lat="49.15096282959" lon="2.7204508781433"><ele></ele><time>2022-6-8T8:42:3Z</time></trkpt>
<trkpt lat="49.151031494141" lon="2.7199604511261"><ele></ele><time>2022-6-8T8:42:6Z</time></trkpt>
<trkpt lat="49.151031494141" lon="2.7197272777557"><ele></ele><time>2022-6-8T8:42:9Z</time></trkpt>
<trkpt lat="49.151031494141" lon="2.7195436954498"><ele></ele><time>2022-6-8T8:42:12Z</time></trkpt>
<trkpt lat="49.151027679443" lon="2.7193918228149"><ele></ele><time>2022-6-8T8:42:15Z</time></trkpt>
<trkpt lat="49.151035308838" lon="2.7192621231079"><ele></ele><time>2022-6-8T8:42:18Z</time></trkpt>
<trkpt lat="49.151039123535" lon="2.7191185951233"><ele></ele><time>2022-6-8T8:42:21Z</time></trkpt>
<trkpt lat="49.151039123535" lon="2.7189767360687"><ele></ele><time>2022-6-8T8:42:24Z</time></trkpt>
<trkpt lat="49.15104675293" lon="2.7186450958252"><ele></ele><time>2022-6-8T8:42:27Z</time></trkpt>
<trkpt lat="49.151039123535" lon="2.7184865474701"><ele></ele><time>2022-6-8T8:42:30Z</time></trkpt>
<trkpt lat="49.151042938232" lon="2.7183573246002"><ele></ele><time>2022-6-8T8:42:33Z</time></trkpt>
<trkpt lat="49.151050567627" lon="2.7182602882385"><ele></ele><time>2022-6-8T8:42:36Z</time></trkpt>
<trkpt lat="49.151073455811" lon="2.7181775569916"><ele></ele><time>2022-6-8T8:42:39Z</time></trkpt>
<trkpt lat="49.151092529297" lon="2.7180867195129"><ele></ele><time>2022-6-8T8:42:42Z</time></trkpt>
<trkpt lat="49.151092529297" lon="2.7180867195129"><ele></ele><time>2022-6-8T8:42:45Z</time></trkpt>
<trkpt lat="49.151153564453" lon="2.7180006504059"><ele></ele><time>2022-6-8T8:42:48Z</time></trkpt>
<trkpt lat="49.151153564453" lon="2.7180006504059"><ele></ele><time>2022-6-8T8:42:51Z</time></trkpt>
<trkpt lat="49.151237487793" lon="2.7179999351501"><ele></ele><time>2022-6-8T8:42:54Z</time></trkpt>
<trkpt lat="49.151309967041" lon="2.7180373668671"><ele></ele><time>2022-6-8T8:42:57Z</time></trkpt>
<trkpt lat="49.151390075684" lon="2.7180812358856"><ele></ele><time>2022-6-8T8:43:0Z</time></trkpt>
<trkpt lat="49.151489257812" lon="2.71812748909"><ele></ele><time>2022-6-8T8:43:3Z</time></trkpt>
<trkpt lat="49.151588439941" lon="2.7181839942932"><ele></ele><time>2022-6-8T8:43:6Z</time></trkpt>
<trkpt lat="49.151660919189" lon="2.7182366847992"><ele></ele><time>2022-6-8T8:43:9Z</time></trkpt>
<trkpt lat="49.151741027832" lon="2.7182757854462"><ele></ele><time>2022-6-8T8:43:12Z</time></trkpt>
<trkpt lat="49.151836395264" lon="2.7183277606964"><ele></ele><time>2022-6-8T8:43:15Z</time></trkpt>
<trkpt lat="49.151935577393" lon="2.7183916568756"><ele></ele><time>2022-6-8T8:43:18Z</time></trkpt>
<trkpt lat="49.152034759521" lon="2.7184593677521"><ele></ele><time>2022-6-8T8:43:21Z</time></trkpt>
<trkpt lat="49.152111053467" lon="2.7185199260712"><ele></ele><time>2022-6-8T8:43:24Z</time></trkpt>
<trkpt lat="49.152191162109" lon="2.7185795307159"><ele></ele><time>2022-6-8T8:43:27Z</time></trkpt>
<trkpt lat="49.152263641357" lon="2.718635559082"><ele></ele><time>2022-6-8T8:43:30Z</time></trkpt>
<trkpt lat="49.152347564697" lon="2.718700170517"><ele></ele><time>2022-6-8T8:43:33Z</time></trkpt>
<trkpt lat="49.152442932129" lon="2.7187812328339"><ele></ele><time>2022-6-8T8:43:36Z</time></trkpt>
<trkpt lat="49.152549743652" lon="2.7188692092896"><ele></ele><time>2022-6-8T8:43:39Z</time></trkpt>
<trkpt lat="49.152660369873" lon="2.7189276218414"><ele></ele><time>2022-6-8T8:43:42Z</time></trkpt>
<trkpt lat="49.15279006958" lon="2.7189791202545"><ele></ele><time>2022-6-8T8:43:45Z</time></trkpt>
<trkpt lat="49.152923583984" lon="2.7190411090851"><ele></ele><time>2022-6-8T8:43:48Z</time></trkpt>
<trkpt lat="49.153049468994" lon="2.7190928459167"><ele></ele><time>2022-6-8T8:43:51Z</time></trkpt>
<trkpt lat="49.15315246582" lon="2.7191598415375"><ele></ele><time>2022-6-8T8:43:54Z</time></trkpt>
<trkpt lat="49.153266906738" lon="2.7192268371582"><ele></ele><time>2022-6-8T8:43:57Z</time></trkpt>
<trkpt lat="49.153388977051" lon="2.7192928791046"><ele></ele><time>2022-6-8T8:44:0Z</time></trkpt>
<trkpt lat="49.153507232666" lon="2.7193574905396"><ele></ele><time>2022-6-8T8:44:3Z</time></trkpt>
<trkpt lat="49.153610229492" lon="2.7194318771362"><ele></ele><time>2022-6-8T8:44:6Z</time></trkpt>
<trkpt lat="49.153701782227" lon="2.719507932663"><ele></ele><time>2022-6-8T8:44:9Z</time></trkpt>
<trkpt lat="49.153781890869" lon="2.7195708751678"><ele></ele><time>2022-6-8T8:44:12Z</time></trkpt>
<trkpt lat="49.15389251709" lon="2.7196393013"><ele></ele><time>2022-6-8T8:44:15Z</time></trkpt>
<trkpt lat="49.153957366943" lon="2.7197299003601"><ele></ele><time>2022-6-8T8:44:18Z</time></trkpt>
<trkpt lat="49.154014587402" lon="2.7197995185852"><ele></ele><time>2022-6-8T8:44:21Z</time></trkpt>
<trkpt lat="49.154079437256" lon="2.7198572158813"><ele></ele><time>2022-6-8T8:44:24Z</time></trkpt>
<trkpt lat="49.154167175293" lon="2.719913482666"><ele></ele><time>2022-6-8T8:44:27Z</time></trkpt>
<trkpt lat="49.15425491333" lon="2.7199585437775"><ele></ele><time>2022-6-8T8:44:30Z</time></trkpt>
<trkpt lat="49.154331207275" lon="2.7200145721436"><ele></ele><time>2022-6-8T8:44:33Z</time></trkpt>
<trkpt lat="49.154426574707" lon="2.7200963497162"><ele></ele><time>2022-6-8T8:44:36Z</time></trkpt>
<trkpt lat="49.154521942139" lon="2.7201812267303"><ele></ele><time>2022-6-8T8:44:39Z</time></trkpt>
<trkpt lat="49.154605865479" lon="2.7202589511871"><ele></ele><time>2022-6-8T8:44:42Z</time></trkpt>
<trkpt lat="49.154705047607" lon="2.7203328609467"><ele></ele><time>2022-6-8T8:44:45Z</time></trkpt>
<trkpt lat="49.154781341553" lon="2.7204043865204"><ele></ele><time>2022-6-8T8:44:48Z</time></trkpt>
<trkpt lat="49.15486907959" lon="2.7204728126526"><ele></ele><time>2022-6-8T8:44:51Z</time></trkpt>
<trkpt lat="49.154964447021" lon="2.7205419540405"><ele></ele><time>2022-6-8T8:44:54Z</time></trkpt>
<trkpt lat="49.155071258545" lon="2.7206251621246"><ele></ele><time>2022-6-8T8:44:57Z</time></trkpt>
<trkpt lat="49.155181884766" lon="2.7207210063934"><ele></ele><time>2022-6-8T8:45:0Z</time></trkpt>
<trkpt lat="49.155300140381" lon="2.7208230495453"><ele></ele><time>2022-6-8T8:45:3Z</time></trkpt>
<trkpt lat="49.155414581299" lon="2.7209270000458"><ele></ele><time>2022-6-8T8:45:6Z</time></trkpt>
<trkpt lat="49.15552520752" lon="2.721019744873"><ele></ele><time>2022-6-8T8:45:9Z</time></trkpt>
<trkpt lat="49.155620574951" lon="2.7210965156555"><ele></ele><time>2022-6-8T8:45:12Z</time></trkpt>
<trkpt lat="49.155715942383" lon="2.7211425304413"><ele></ele><time>2022-6-8T8:45:15Z</time></trkpt>
<trkpt lat="49.155807495117" lon="2.7211990356445"><ele></ele><time>2022-6-8T8:45:18Z</time></trkpt>
<trkpt lat="49.155895233154" lon="2.721262216568"><ele></ele><time>2022-6-8T8:45:21Z</time></trkpt>
<trkpt lat="49.155990600586" lon="2.7213368415833"><ele></ele><time>2022-6-8T8:45:24Z</time></trkpt>
<trkpt lat="49.156085968018" lon="2.7214078903198"><ele></ele><time>2022-6-8T8:45:27Z</time></trkpt>
<trkpt lat="49.156169891357" lon="2.7214574813843"><ele></ele><time>2022-6-8T8:45:30Z</time></trkpt>
<trkpt lat="49.156280517578" lon="2.7215142250061"><ele></ele><time>2022-6-8T8:45:33Z</time></trkpt>
<trkpt lat="49.156398773193" lon="2.7215836048126"><ele></ele><time>2022-6-8T8:45:36Z</time></trkpt>
<trkpt lat="49.156513214111" lon="2.721661567688"><ele></ele><time>2022-6-8T8:45:39Z</time></trkpt>
<trkpt lat="49.156627655029" lon="2.7217361927032"><ele></ele><time>2022-6-8T8:45:42Z</time></trkpt>
<trkpt lat="49.156715393066" lon="2.7218010425568"><ele></ele><time>2022-6-8T8:45:45Z</time></trkpt>
<trkpt lat="49.156806945801" lon="2.7218635082245"><ele></ele><time>2022-6-8T8:45:48Z</time></trkpt>
<trkpt lat="49.156887054443" lon="2.7219214439392"><ele></ele><time>2022-6-8T8:45:51Z</time></trkpt>
<trkpt lat="49.156970977783" lon="2.7219774723053"><ele></ele><time>2022-6-8T8:45:54Z</time></trkpt>
<trkpt lat="49.157062530518" lon="2.7220349311829"><ele></ele><time>2022-6-8T8:45:57Z</time></trkpt>
<trkpt lat="49.157161712646" lon="2.7221047878265"><ele></ele><time>2022-6-8T8:46:0Z</time></trkpt>
<trkpt lat="49.157253265381" lon="2.7221658229828"><ele></ele><time>2022-6-8T8:46:3Z</time></trkpt>
<trkpt lat="49.157329559326" lon="2.7222089767456"><ele></ele><time>2022-6-8T8:46:6Z</time></trkpt>
<trkpt lat="49.157409667969" lon="2.7222526073456"><ele></ele><time>2022-6-8T8:46:9Z</time></trkpt>
<trkpt lat="49.157497406006" lon="2.7223029136658"><ele></ele><time>2022-6-8T8:46:12Z</time></trkpt>
<trkpt lat="49.157592773438" lon="2.7223610877991"><ele></ele><time>2022-6-8T8:46:15Z</time></trkpt>
<trkpt lat="49.157684326172" lon="2.7224130630493"><ele></ele><time>2022-6-8T8:46:18Z</time></trkpt>
<trkpt lat="49.15775680542" lon="2.7224507331848"><ele></ele><time>2022-6-8T8:46:21Z</time></trkpt>
<trkpt lat="49.157833099365" lon="2.7225031852722"><ele></ele><time>2022-6-8T8:46:24Z</time></trkpt>
<trkpt lat="49.157936096191" lon="2.7225685119629"><ele></ele><time>2022-6-8T8:46:27Z</time></trkpt>
<trkpt lat="49.158023834229" lon="2.7226378917694"><ele></ele><time>2022-6-8T8:46:30Z</time></trkpt>
<trkpt lat="49.158111572266" lon="2.7226996421814"><ele></ele><time>2022-6-8T8:46:33Z</time></trkpt>
<trkpt lat="49.158199310303" lon="2.7227523326874"><ele></ele><time>2022-6-8T8:46:36Z</time></trkpt>
<trkpt lat="49.158302307129" lon="2.7228138446808"><ele></ele><time>2022-6-8T8:46:39Z</time></trkpt>
<trkpt lat="49.158397674561" lon="2.72287774086"><ele></ele><time>2022-6-8T8:46:42Z</time></trkpt>
<trkpt lat="49.158500671387" lon="2.7229628562927"><ele></ele><time>2022-6-8T8:46:45Z</time></trkpt>
<trkpt lat="49.158588409424" lon="2.7230353355408"><ele></ele><time>2022-6-8T8:46:48Z</time></trkpt>
<trkpt lat="49.158672332764" lon="2.7230939865112"><ele></ele><time>2022-6-8T8:46:51Z</time></trkpt>
<trkpt lat="49.158752441406" lon="2.7231447696686"><ele></ele><time>2022-6-8T8:46:54Z</time></trkpt>
<trkpt lat="49.158828735352" lon="2.7231888771057"><ele></ele><time>2022-6-8T8:46:57Z</time></trkpt>
<trkpt lat="49.158912658691" lon="2.72323179245"><ele></ele><time>2022-6-8T8:47:0Z</time></trkpt>
<trkpt lat="49.159004211426" lon="2.7232828140259"><ele></ele><time>2022-6-8T8:47:3Z</time></trkpt>
<trkpt lat="49.159091949463" lon="2.7233190536499"><ele></ele><time>2022-6-8T8:47:6Z</time></trkpt>
<trkpt lat="49.159168243408" lon="2.7233517169952"><ele></ele><time>2022-6-8T8:47:9Z</time></trkpt>
<trkpt lat="49.159252166748" lon="2.7233946323395"><ele></ele><time>2022-6-8T8:47:12Z</time></trkpt>
<trkpt lat="49.159328460693" lon="2.723436832428"><ele></ele><time>2022-6-8T8:47:15Z</time></trkpt>
<trkpt lat="49.159412384033" lon="2.7234811782837"><ele></ele><time>2022-6-8T8:47:18Z</time></trkpt>
<trkpt lat="49.159492492676" lon="2.7235291004181"><ele></ele><time>2022-6-8T8:47:21Z</time></trkpt>
<trkpt lat="49.159572601318" lon="2.723582983017"><ele></ele><time>2022-6-8T8:47:24Z</time></trkpt>
<trkpt lat="49.159648895264" lon="2.7236380577087"><ele></ele><time>2022-6-8T8:47:27Z</time></trkpt>
<trkpt lat="49.159740447998" lon="2.723696231842"><ele></ele><time>2022-6-8T8:47:30Z</time></trkpt>
<trkpt lat="49.159832000732" lon="2.7237505912781"><ele></ele><time>2022-6-8T8:47:33Z</time></trkpt>
<trkpt lat="49.159912109375" lon="2.7238154411316"><ele></ele><time>2022-6-8T8:47:36Z</time></trkpt>
<trkpt lat="49.160007476807" lon="2.7238667011261"><ele></ele><time>2022-6-8T8:47:39Z</time></trkpt>
<trkpt lat="49.160102844238" lon="2.7239191532135"><ele></ele><time>2022-6-8T8:47:42Z</time></trkpt>
<trkpt lat="49.160190582275" lon="2.7239694595337"><ele></ele><time>2022-6-8T8:47:45Z</time></trkpt>
<trkpt lat="49.16028213501" lon="2.7240192890167"><ele></ele><time>2022-6-8T8:47:48Z</time></trkpt>
<trkpt lat="49.160377502441" lon="2.724089384079"><ele></ele><time>2022-6-8T8:47:51Z</time></trkpt>
<trkpt lat="49.160461425781" lon="2.7241606712341"><ele></ele><time>2022-6-8T8:47:54Z</time></trkpt>
<trkpt lat="49.160556793213" lon="2.724241733551"><ele></ele><time>2022-6-8T8:47:57Z</time></trkpt>
<trkpt lat="49.160636901855" lon="2.7243173122406"><ele></ele><time>2022-6-8T8:48:0Z</time></trkpt>
<trkpt lat="49.160724639893" lon="2.7243890762329"><ele></ele><time>2022-6-8T8:48:3Z</time></trkpt>
<trkpt lat="49.16081237793" lon="2.7244670391083"><ele></ele><time>2022-6-8T8:48:6Z</time></trkpt>
<trkpt lat="49.16089630127" lon="2.7245454788208"><ele></ele><time>2022-6-8T8:48:9Z</time></trkpt>
<trkpt lat="49.160984039307" lon="2.7246186733246"><ele></ele><time>2022-6-8T8:48:12Z</time></trkpt>
<trkpt lat="49.161075592041" lon="2.7246875762939"><ele></ele><time>2022-6-8T8:48:15Z</time></trkpt>
<trkpt lat="49.161163330078" lon="2.7247533798218"><ele></ele><time>2022-6-8T8:48:18Z</time></trkpt>
<trkpt lat="49.161262512207" lon="2.7248163223267"><ele></ele><time>2022-6-8T8:48:21Z</time></trkpt>
<trkpt lat="49.161350250244" lon="2.7248780727386"><ele></ele><time>2022-6-8T8:48:24Z</time></trkpt>
<trkpt lat="49.161449432373" lon="2.724946975708"><ele></ele><time>2022-6-8T8:48:27Z</time></trkpt>
<trkpt lat="49.161533355713" lon="2.7250111103058"><ele></ele><time>2022-6-8T8:48:30Z</time></trkpt>
<trkpt lat="49.161617279053" lon="2.7250735759735"><ele></ele><time>2022-6-8T8:48:33Z</time></trkpt>
<trkpt lat="49.161693572998" lon="2.7251482009888"><ele></ele><time>2022-6-8T8:48:36Z</time></trkpt>
<trkpt lat="49.161762237549" lon="2.725236415863"><ele></ele><time>2022-6-8T8:48:39Z</time></trkpt>
<trkpt lat="49.161834716797" lon="2.7253141403198"><ele></ele><time>2022-6-8T8:48:42Z</time></trkpt>
<trkpt lat="49.161903381348" lon="2.7253937721252"><ele></ele><time>2022-6-8T8:48:45Z</time></trkpt>
<trkpt lat="49.161975860596" lon="2.7254757881165"><ele></ele><time>2022-6-8T8:48:48Z</time></trkpt>
<trkpt lat="49.162052154541" lon="2.7255606651306"><ele></ele><time>2022-6-8T8:48:51Z</time></trkpt>
<trkpt lat="49.162128448486" lon="2.7256438732147"><ele></ele><time>2022-6-8T8:48:54Z</time></trkpt>
<trkpt lat="49.162208557129" lon="2.7257249355316"><ele></ele><time>2022-6-8T8:48:57Z</time></trkpt>
<trkpt lat="49.162288665771" lon="2.7258093357086"><ele></ele><time>2022-6-8T8:49:0Z</time></trkpt>
<trkpt lat="49.162372589111" lon="2.7258932590485"><ele></ele><time>2022-6-8T8:49:3Z</time></trkpt>
<trkpt lat="49.162452697754" lon="2.7259714603424"><ele></ele><time>2022-6-8T8:49:6Z</time></trkpt>
<trkpt lat="49.162536621094" lon="2.7260503768921"><ele></ele><time>2022-6-8T8:49:9Z</time></trkpt>
<trkpt lat="49.162609100342" lon="2.726122379303"><ele></ele><time>2022-6-8T8:49:12Z</time></trkpt>
<trkpt lat="49.16268157959" lon="2.7261986732483"><ele></ele><time>2022-6-8T8:49:15Z</time></trkpt>
<trkpt lat="49.162750244141" lon="2.7262787818909"><ele></ele><time>2022-6-8T8:49:18Z</time></trkpt>
<trkpt lat="49.162818908691" lon="2.7263624668121"><ele></ele><time>2022-6-8T8:49:21Z</time></trkpt>
<trkpt lat="49.162887573242" lon="2.7264506816864"><ele></ele><time>2022-6-8T8:49:24Z</time></trkpt>
<trkpt lat="49.162952423096" lon="2.7265329360962"><ele></ele><time>2022-6-8T8:49:27Z</time></trkpt>
<trkpt lat="49.163017272949" lon="2.7266132831573"><ele></ele><time>2022-6-8T8:49:30Z</time></trkpt>
<trkpt lat="49.163082122803" lon="2.7266919612885"><ele></ele><time>2022-6-8T8:49:33Z</time></trkpt>
<trkpt lat="49.163143157959" lon="2.7267639636993"><ele></ele><time>2022-6-8T8:49:36Z</time></trkpt>
<trkpt lat="49.163200378418" lon="2.7268245220184"><ele></ele><time>2022-6-8T8:49:39Z</time></trkpt>
<trkpt lat="49.163257598877" lon="2.7268781661987"><ele></ele><time>2022-6-8T8:49:42Z</time></trkpt>
<trkpt lat="49.163318634033" lon="2.7269351482391"><ele></ele><time>2022-6-8T8:49:45Z</time></trkpt>
<trkpt lat="49.163387298584" lon="2.7269954681396"><ele></ele><time>2022-6-8T8:49:48Z</time></trkpt>
<trkpt lat="49.163455963135" lon="2.7270574569702"><ele></ele><time>2022-6-8T8:49:51Z</time></trkpt>
<trkpt lat="49.163539886475" lon="2.7271196842194"><ele></ele><time>2022-6-8T8:49:54Z</time></trkpt>
<trkpt lat="49.163623809814" lon="2.7272047996521"><ele></ele><time>2022-6-8T8:49:57Z</time></trkpt>
<trkpt lat="49.163707733154" lon="2.727290391922"><ele></ele><time>2022-6-8T8:50:0Z</time></trkpt>
<trkpt lat="49.163799285889" lon="2.7273509502411"><ele></ele><time>2022-6-8T8:50:3Z</time></trkpt>
<trkpt lat="49.163890838623" lon="2.7274281978607"><ele></ele><time>2022-6-8T8:50:6Z</time></trkpt>
<trkpt lat="49.16397857666" lon="2.7275133132935"><ele></ele><time>2022-6-8T8:50:9Z</time></trkpt>
<trkpt lat="49.1640625" lon="2.7276048660278"><ele></ele><time>2022-6-8T8:50:12Z</time></trkpt>
<trkpt lat="49.16414642334" lon="2.727706193924"><ele></ele><time>2022-6-8T8:50:15Z</time></trkpt>
<trkpt lat="49.164222717285" lon="2.7278394699097"><ele></ele><time>2022-6-8T8:50:18Z</time></trkpt>
<trkpt lat="49.164302825928" lon="2.7279839515686"><ele></ele><time>2022-6-8T8:50:21Z</time></trkpt>
<trkpt lat="49.164379119873" lon="2.7281246185303"><ele></ele><time>2022-6-8T8:50:24Z</time></trkpt>
<trkpt lat="49.16446685791" lon="2.7282793521881"><ele></ele><time>2022-6-8T8:50:27Z</time></trkpt>
<trkpt lat="49.164546966553" lon="2.7284162044525"><ele></ele><time>2022-6-8T8:50:30Z</time></trkpt>
<trkpt lat="49.164630889893" lon="2.7285485267639"><ele></ele><time>2022-6-8T8:50:33Z</time></trkpt>
<trkpt lat="49.16471862793" lon="2.7286863327026"><ele></ele><time>2022-6-8T8:50:36Z</time></trkpt>
<trkpt lat="49.16480255127" lon="2.7288265228271"><ele></ele><time>2022-6-8T8:50:39Z</time></trkpt>
<trkpt lat="49.164897918701" lon="2.7289364337921"><ele></ele><time>2022-6-8T8:50:42Z</time></trkpt>
<trkpt lat="49.164989471436" lon="2.7290658950806"><ele></ele><time>2022-6-8T8:50:45Z</time></trkpt>
<trkpt lat="49.16508102417" lon="2.7292158603668"><ele></ele><time>2022-6-8T8:50:48Z</time></trkpt>
<trkpt lat="49.165172576904" lon="2.7293648719788"><ele></ele><time>2022-6-8T8:50:51Z</time></trkpt>
<trkpt lat="49.165252685547" lon="2.7294924259186"><ele></ele><time>2022-6-8T8:50:54Z</time></trkpt>
<trkpt lat="49.165344238281" lon="2.729635477066"><ele></ele><time>2022-6-8T8:50:57Z</time></trkpt>
<trkpt lat="49.16544342041" lon="2.7297773361206"><ele></ele><time>2022-6-8T8:51:0Z</time></trkpt>
<trkpt lat="49.165531158447" lon="2.7298853397369"><ele></ele><time>2022-6-8T8:51:3Z</time></trkpt>
<trkpt lat="49.165607452393" lon="2.7299299240112"><ele></ele><time>2022-6-8T8:51:6Z</time></trkpt>
<trkpt lat="49.165706634521" lon="2.7299454212189"><ele></ele><time>2022-6-8T8:51:9Z</time></trkpt>
<trkpt lat="49.165794372559" lon="2.7299880981445"><ele></ele><time>2022-6-8T8:51:12Z</time></trkpt>
<trkpt lat="49.165924072266" lon="2.7299871444702"><ele></ele><time>2022-6-8T8:51:15Z</time></trkpt>
<trkpt lat="49.166042327881" lon="2.7299754619598"><ele></ele><time>2022-6-8T8:51:18Z</time></trkpt>
<trkpt lat="49.166160583496" lon="2.7299613952637"><ele></ele><time>2022-6-8T8:51:21Z</time></trkpt>
<trkpt lat="49.16626739502" lon="2.7299489974976"><ele></ele><time>2022-6-8T8:51:24Z</time></trkpt>
<trkpt lat="49.166389465332" lon="2.7299375534058"><ele></ele><time>2022-6-8T8:51:27Z</time></trkpt>
<trkpt lat="49.166519165039" lon="2.7299253940582"><ele></ele><time>2022-6-8T8:51:30Z</time></trkpt>
<trkpt lat="49.166648864746" lon="2.7299113273621"><ele></ele><time>2022-6-8T8:51:33Z</time></trkpt>
<trkpt lat="49.166778564453" lon="2.7298989295959"><ele></ele><time>2022-6-8T8:51:36Z</time></trkpt>
<trkpt lat="49.16690826416" lon="2.7298831939697"><ele></ele><time>2022-6-8T8:51:39Z</time></trkpt>
<trkpt lat="49.167022705078" lon="2.7298626899719"><ele></ele><time>2022-6-8T8:51:42Z</time></trkpt>
<trkpt lat="49.167121887207" lon="2.7298436164856"><ele></ele><time>2022-6-8T8:51:45Z</time></trkpt>
<trkpt lat="49.167224884033" lon="2.7298262119293"><ele></ele><time>2022-6-8T8:51:48Z</time></trkpt>
<trkpt lat="49.167320251465" lon="2.7298095226288"><ele></ele><time>2022-6-8T8:51:51Z</time></trkpt>
<trkpt lat="49.167415618896" lon="2.7297937870026"><ele></ele><time>2022-6-8T8:51:54Z</time></trkpt>
<trkpt lat="49.167499542236" lon="2.7297575473785"><ele></ele><time>2022-6-8T8:51:57Z</time></trkpt>
<trkpt lat="49.167541503906" lon="2.7296330928802"><ele></ele><time>2022-6-8T8:52:0Z</time></trkpt>
<trkpt lat="49.167541503906" lon="2.7295212745667"><ele></ele><time>2022-6-8T8:52:3Z</time></trkpt>
<trkpt lat="49.167530059814" lon="2.7294037342072"><ele></ele><time>2022-6-8T8:52:6Z</time></trkpt>
<trkpt lat="49.167514801025" lon="2.7292628288269"><ele></ele><time>2022-6-8T8:52:9Z</time></trkpt>
<trkpt lat="49.167503356934" lon="2.7291240692139"><ele></ele><time>2022-6-8T8:52:12Z</time></trkpt>
<trkpt lat="49.167491912842" lon="2.7289760112762"><ele></ele><time>2022-6-8T8:52:15Z</time></trkpt>
<trkpt lat="49.16748046875" lon="2.7288379669189"><ele></ele><time>2022-6-8T8:52:18Z</time></trkpt>
<trkpt lat="49.167469024658" lon="2.7287006378174"><ele></ele><time>2022-6-8T8:52:21Z</time></trkpt>
<trkpt lat="49.167457580566" lon="2.7285771369934"><ele></ele><time>2022-6-8T8:52:24Z</time></trkpt>
<trkpt lat="49.167442321777" lon="2.7284471988678"><ele></ele><time>2022-6-8T8:52:27Z</time></trkpt>
<trkpt lat="49.167427062988" lon="2.7283110618591"><ele></ele><time>2022-6-8T8:52:30Z</time></trkpt>
<trkpt lat="49.167407989502" lon="2.7281699180603"><ele></ele><time>2022-6-8T8:52:33Z</time></trkpt>
<trkpt lat="49.167392730713" lon="2.728031873703"><ele></ele><time>2022-6-8T8:52:36Z</time></trkpt>
<trkpt lat="49.167381286621" lon="2.7278859615326"><ele></ele><time>2022-6-8T8:52:39Z</time></trkpt>
<trkpt lat="49.167362213135" lon="2.7277417182922"><ele></ele><time>2022-6-8T8:52:42Z</time></trkpt>
<trkpt lat="49.167343139648" lon="2.7276055812836"><ele></ele><time>2022-6-8T8:52:45Z</time></trkpt>
<trkpt lat="49.167324066162" lon="2.7274703979492"><ele></ele><time>2022-6-8T8:52:48Z</time></trkpt>
<trkpt lat="49.167301177979" lon="2.7273213863373"><ele></ele><time>2022-6-8T8:52:51Z</time></trkpt>
<trkpt lat="49.167282104492" lon="2.7271730899811"><ele></ele><time>2022-6-8T8:52:54Z</time></trkpt>
<trkpt lat="49.167266845703" lon="2.7270245552063"><ele></ele><time>2022-6-8T8:52:57Z</time></trkpt>
<trkpt lat="49.167255401611" lon="2.7268888950348"><ele></ele><time>2022-6-8T8:53:0Z</time></trkpt>
<trkpt lat="49.167255401611" lon="2.7267847061157"><ele></ele><time>2022-6-8T8:53:3Z</time></trkpt>
<trkpt lat="49.167255401611" lon="2.7266771793365"><ele></ele><time>2022-6-8T8:53:6Z</time></trkpt>
<trkpt lat="49.167247772217" lon="2.7265586853027"><ele></ele><time>2022-6-8T8:53:9Z</time></trkpt>
<trkpt lat="49.167240142822" lon="2.7264342308044"><ele></ele><time>2022-6-8T8:53:12Z</time></trkpt>
<trkpt lat="49.16722869873" lon="2.7263243198395"><ele></ele><time>2022-6-8T8:53:15Z</time></trkpt>
<trkpt lat="49.167217254639" lon="2.7262141704559"><ele></ele><time>2022-6-8T8:53:18Z</time></trkpt>
<trkpt lat="49.167205810547" lon="2.7261254787445"><ele></ele><time>2022-6-8T8:53:21Z</time></trkpt>
<trkpt lat="49.167205810547" lon="2.7261254787445"><ele></ele><time>2022-6-8T8:53:24Z</time></trkpt>
<trkpt lat="49.167171478271" lon="2.7258574962616"><ele></ele><time>2022-6-8T8:53:27Z</time></trkpt>
<trkpt lat="49.167148590088" lon="2.7257022857666"><ele></ele><time>2022-6-8T8:53:30Z</time></trkpt>
<trkpt lat="49.167140960693" lon="2.7256064414978"><ele></ele><time>2022-6-8T8:53:33Z</time></trkpt>
<trkpt lat="49.167129516602" lon="2.7255032062531"><ele></ele><time>2022-6-8T8:53:36Z</time></trkpt>
<trkpt lat="49.16711807251" lon="2.7254014015198"><ele></ele><time>2022-6-8T8:53:39Z</time></trkpt>
<trkpt lat="49.167110443115" lon="2.7252926826477"><ele></ele><time>2022-6-8T8:53:42Z</time></trkpt>
<trkpt lat="49.167098999023" lon="2.7251834869385"><ele></ele><time>2022-6-8T8:53:45Z</time></trkpt>
<trkpt lat="49.167083740234" lon="2.7250819206238"><ele></ele><time>2022-6-8T8:53:48Z</time></trkpt>
<trkpt lat="49.167068481445" lon="2.7249624729156"><ele></ele><time>2022-6-8T8:53:51Z</time></trkpt>
<trkpt lat="49.167053222656" lon="2.7248418331146"><ele></ele><time>2022-6-8T8:53:54Z</time></trkpt>
<trkpt lat="49.16703414917" lon="2.7247257232666"><ele></ele><time>2022-6-8T8:53:57Z</time></trkpt>
<trkpt lat="49.167015075684" lon="2.7246072292328"><ele></ele><time>2022-6-8T8:54:0Z</time></trkpt>
<trkpt lat="49.166999816895" lon="2.724481344223"><ele></ele><time>2022-6-8T8:54:3Z</time></trkpt>
<trkpt lat="49.166976928711" lon="2.7243518829346"><ele></ele><time>2022-6-8T8:54:6Z</time></trkpt>
<trkpt lat="49.166957855225" lon="2.7242231369019"><ele></ele><time>2022-6-8T8:54:9Z</time></trkpt>
<trkpt lat="49.166934967041" lon="2.7240934371948"><ele></ele><time>2022-6-8T8:54:12Z</time></trkpt>
<trkpt lat="49.166915893555" lon="2.7239646911621"><ele></ele><time>2022-6-8T8:54:15Z</time></trkpt>
<trkpt lat="49.166893005371" lon="2.723842382431"><ele></ele><time>2022-6-8T8:54:18Z</time></trkpt>
<trkpt lat="49.166873931885" lon="2.7237293720245"><ele></ele><time>2022-6-8T8:54:21Z</time></trkpt>
<trkpt lat="49.166847229004" lon="2.7236127853394"><ele></ele><time>2022-6-8T8:54:24Z</time></trkpt>
<trkpt lat="49.166831970215" lon="2.7234930992126"><ele></ele><time>2022-6-8T8:54:27Z</time></trkpt>
<trkpt lat="49.166809082031" lon="2.7233672142029"><ele></ele><time>2022-6-8T8:54:30Z</time></trkpt>
<trkpt lat="49.166786193848" lon="2.7232422828674"><ele></ele><time>2022-6-8T8:54:33Z</time></trkpt>
<trkpt lat="49.166767120361" lon="2.7231357097626"><ele></ele><time>2022-6-8T8:54:36Z</time></trkpt>
<trkpt lat="49.166744232178" lon="2.7230248451233"><ele></ele><time>2022-6-8T8:54:39Z</time></trkpt>
<trkpt lat="49.166721343994" lon="2.722912311554"><ele></ele><time>2022-6-8T8:54:42Z</time></trkpt>
<trkpt lat="49.166694641113" lon="2.7227895259857"><ele></ele><time>2022-6-8T8:54:45Z</time></trkpt>
<trkpt lat="49.166675567627" lon="2.7226829528809"><ele></ele><time>2022-6-8T8:54:48Z</time></trkpt>
<trkpt lat="49.166652679443" lon="2.7225835323334"><ele></ele><time>2022-6-8T8:54:51Z</time></trkpt>
<trkpt lat="49.16662979126" lon="2.7224814891815"><ele></ele><time>2022-6-8T8:54:54Z</time></trkpt>
<trkpt lat="49.166603088379" lon="2.7223703861237"><ele></ele><time>2022-6-8T8:54:57Z</time></trkpt>
<trkpt lat="49.166580200195" lon="2.722279548645"><ele></ele><time>2022-6-8T8:55:0Z</time></trkpt>
<trkpt lat="49.166553497314" lon="2.7221810817719"><ele></ele><time>2022-6-8T8:55:3Z</time></trkpt>
<trkpt lat="49.166526794434" lon="2.722074508667"><ele></ele><time>2022-6-8T8:55:6Z</time></trkpt>
<trkpt lat="49.166507720947" lon="2.7219812870026"><ele></ele><time>2022-6-8T8:55:9Z</time></trkpt>
<trkpt lat="49.166481018066" lon="2.7218735218048"><ele></ele><time>2022-6-8T8:55:12Z</time></trkpt>
<trkpt lat="49.166446685791" lon="2.7217578887939"><ele></ele><time>2022-6-8T8:55:15Z</time></trkpt>
<trkpt lat="49.166416168213" lon="2.7216520309448"><ele></ele><time>2022-6-8T8:55:18Z</time></trkpt>
<trkpt lat="49.166389465332" lon="2.7215447425842"><ele></ele><time>2022-6-8T8:55:21Z</time></trkpt>
<trkpt lat="49.166366577148" lon="2.7214357852936"><ele></ele><time>2022-6-8T8:55:24Z</time></trkpt>
<trkpt lat="49.166339874268" lon="2.7213177680969"><ele></ele><time>2022-6-8T8:55:27Z</time></trkpt>
<trkpt lat="49.166305541992" lon="2.7211856842041"><ele></ele><time>2022-6-8T8:55:30Z</time></trkpt>
<trkpt lat="49.166278839111" lon="2.7210731506348"><ele></ele><time>2022-6-8T8:55:33Z</time></trkpt>
<trkpt lat="49.166244506836" lon="2.7209615707397"><ele></ele><time>2022-6-8T8:55:36Z</time></trkpt>
<trkpt lat="49.166217803955" lon="2.7208611965179"><ele></ele><time>2022-6-8T8:55:39Z</time></trkpt>
<trkpt lat="49.16618347168" lon="2.7207417488098"><ele></ele><time>2022-6-8T8:55:42Z</time></trkpt>
<trkpt lat="49.166156768799" lon="2.7206304073334"><ele></ele><time>2022-6-8T8:55:45Z</time></trkpt>
<trkpt lat="49.166130065918" lon="2.7205202579498"><ele></ele><time>2022-6-8T8:55:48Z</time></trkpt>
<trkpt lat="49.16609954834" lon="2.7203998565674"><ele></ele><time>2022-6-8T8:55:51Z</time></trkpt>
<trkpt lat="49.166072845459" lon="2.720278263092"><ele></ele><time>2022-6-8T8:55:54Z</time></trkpt>
<trkpt lat="49.166042327881" lon="2.720165014267"><ele></ele><time>2022-6-8T8:55:57Z</time></trkpt>
<trkpt lat="49.166015625" lon="2.7200531959534"><ele></ele><time>2022-6-8T8:56:0Z</time></trkpt>
<trkpt lat="49.165988922119" lon="2.7199308872223"><ele></ele><time>2022-6-8T8:56:3Z</time></trkpt>
<trkpt lat="49.165958404541" lon="2.7198023796082"><ele></ele><time>2022-6-8T8:56:6Z</time></trkpt>
<trkpt lat="49.165924072266" lon="2.7196679115295"><ele></ele><time>2022-6-8T8:56:9Z</time></trkpt>
<trkpt lat="49.165893554688" lon="2.7195558547974"><ele></ele><time>2022-6-8T8:56:12Z</time></trkpt>
<trkpt lat="49.165863037109" lon="2.7194426059723"><ele></ele><time>2022-6-8T8:56:15Z</time></trkpt>
<trkpt lat="49.165832519531" lon="2.7193245887756"><ele></ele><time>2022-6-8T8:56:18Z</time></trkpt>
<trkpt lat="49.165809631348" lon="2.7192137241364"><ele></ele><time>2022-6-8T8:56:21Z</time></trkpt>
<trkpt lat="49.165782928467" lon="2.7190933227539"><ele></ele><time>2022-6-8T8:56:24Z</time></trkpt>
<trkpt lat="49.165760040283" lon="2.718976020813"><ele></ele><time>2022-6-8T8:56:27Z</time></trkpt>
<trkpt lat="49.1657371521" lon="2.7188618183136"><ele></ele><time>2022-6-8T8:56:30Z</time></trkpt>
<trkpt lat="49.165710449219" lon="2.71875"><ele></ele><time>2022-6-8T8:56:33Z</time></trkpt>
<trkpt lat="49.165683746338" lon="2.7186439037323"><ele></ele><time>2022-6-8T8:56:36Z</time></trkpt>
<trkpt lat="49.165657043457" lon="2.7185397148132"><ele></ele><time>2022-6-8T8:56:39Z</time></trkpt>
<trkpt lat="49.165630340576" lon="2.7184240818024"><ele></ele><time>2022-6-8T8:56:42Z</time></trkpt>
<trkpt lat="49.16561126709" lon="2.7183086872101"><ele></ele><time>2022-6-8T8:56:45Z</time></trkpt>
<trkpt lat="49.165588378906" lon="2.7181951999664"><ele></ele><time>2022-6-8T8:56:48Z</time></trkpt>
<trkpt lat="49.165565490723" lon="2.718074798584"><ele></ele><time>2022-6-8T8:56:51Z</time></trkpt>
<trkpt lat="49.165550231934" lon="2.7179710865021"><ele></ele><time>2022-6-8T8:56:54Z</time></trkpt>
<trkpt lat="49.165534973145" lon="2.7178566455841"><ele></ele><time>2022-6-8T8:56:57Z</time></trkpt>
<trkpt lat="49.165523529053" lon="2.7177488803864"><ele></ele><time>2022-6-8T8:57:0Z</time></trkpt>
<trkpt lat="49.165515899658" lon="2.7176308631897"><ele></ele><time>2022-6-8T8:57:3Z</time></trkpt>
<trkpt lat="49.165508270264" lon="2.7175068855286"><ele></ele><time>2022-6-8T8:57:6Z</time></trkpt>
<trkpt lat="49.165496826172" lon="2.7173843383789"><ele></ele><time>2022-6-8T8:57:9Z</time></trkpt>
<trkpt lat="49.165481567383" lon="2.7172553539276"><ele></ele><time>2022-6-8T8:57:12Z</time></trkpt>
<trkpt lat="49.165470123291" lon="2.7171337604523"><ele></ele><time>2022-6-8T8:57:15Z</time></trkpt>
<trkpt lat="49.165458679199" lon="2.7170152664185"><ele></ele><time>2022-6-8T8:57:18Z</time></trkpt>
<trkpt lat="49.165447235107" lon="2.7168908119202"><ele></ele><time>2022-6-8T8:57:21Z</time></trkpt>
<trkpt lat="49.165431976318" lon="2.7167677879333"><ele></ele><time>2022-6-8T8:57:24Z</time></trkpt>
<trkpt lat="49.165424346924" lon="2.7166402339935"><ele></ele><time>2022-6-8T8:57:27Z</time></trkpt>
<trkpt lat="49.165412902832" lon="2.7165081501007"><ele></ele><time>2022-6-8T8:57:30Z</time></trkpt>
<trkpt lat="49.16540145874" lon="2.716379404068"><ele></ele><time>2022-6-8T8:57:33Z</time></trkpt>
<trkpt lat="49.165386199951" lon="2.7162613868713"><ele></ele><time>2022-6-8T8:57:36Z</time></trkpt>
<trkpt lat="49.165370941162" lon="2.7161483764648"><ele></ele><time>2022-6-8T8:57:39Z</time></trkpt>
<trkpt lat="49.165355682373" lon="2.7160198688507"><ele></ele><time>2022-6-8T8:57:42Z</time></trkpt>
<trkpt lat="49.165344238281" lon="2.7158777713776"><ele></ele><time>2022-6-8T8:57:45Z</time></trkpt>
<trkpt lat="49.165336608887" lon="2.7157402038574"><ele></ele><time>2022-6-8T8:57:48Z</time></trkpt>
<trkpt lat="49.165325164795" lon="2.7156064510345"><ele></ele><time>2022-6-8T8:57:51Z</time></trkpt>
<trkpt lat="49.165309906006" lon="2.7154796123505"><ele></ele><time>2022-6-8T8:57:54Z</time></trkpt>
<trkpt lat="49.165294647217" lon="2.7153639793396"><ele></ele><time>2022-6-8T8:57:57Z</time></trkpt>
<trkpt lat="49.165287017822" lon="2.7152538299561"><ele></ele><time>2022-6-8T8:58:0Z</time></trkpt>
<trkpt lat="49.165287017822" lon="2.7152538299561"><ele></ele><time>2022-6-8T8:58:3Z</time></trkpt>
<trkpt lat="49.165271759033" lon="2.7150604724884"><ele></ele><time>2022-6-8T8:58:6Z</time></trkpt>
<trkpt lat="49.165267944336" lon="2.7149331569672"><ele></ele><time>2022-6-8T8:58:9Z</time></trkpt>
<trkpt lat="49.165256500244" lon="2.7148063182831"><ele></ele><time>2022-6-8T8:58:12Z</time></trkpt>
<trkpt lat="49.165241241455" lon="2.714684009552"><ele></ele><time>2022-6-8T8:58:15Z</time></trkpt>
<trkpt lat="49.165218353271" lon="2.7145535945892"><ele></ele><time>2022-6-8T8:58:18Z</time></trkpt>
<trkpt lat="49.16520690918" lon="2.7144310474396"><ele></ele><time>2022-6-8T8:58:21Z</time></trkpt>
<trkpt lat="49.165187835693" lon="2.7142915725708"><ele></ele><time>2022-6-8T8:58:24Z</time></trkpt>
<trkpt lat="49.165168762207" lon="2.7141661643982"><ele></ele><time>2022-6-8T8:58:27Z</time></trkpt>
<trkpt lat="49.165153503418" lon="2.7140467166901"><ele></ele><time>2022-6-8T8:58:30Z</time></trkpt>
<trkpt lat="49.165142059326" lon="2.7139139175415"><ele></ele><time>2022-6-8T8:58:33Z</time></trkpt>
<trkpt lat="49.165142059326" lon="2.7137970924377"><ele></ele><time>2022-6-8T8:58:36Z</time></trkpt>
<trkpt lat="49.165130615234" lon="2.7136726379395"><ele></ele><time>2022-6-8T8:58:39Z</time></trkpt>
<trkpt lat="49.165119171143" lon="2.7135574817657"><ele></ele><time>2022-6-8T8:58:42Z</time></trkpt>
<trkpt lat="49.165100097656" lon="2.7134478092194"><ele></ele><time>2022-6-8T8:58:45Z</time></trkpt>
<trkpt lat="49.165058135986" lon="2.7133486270905"><ele></ele><time>2022-6-8T8:58:48Z</time></trkpt>
<trkpt lat="49.165031433105" lon="2.7132387161255"><ele></ele><time>2022-6-8T8:58:51Z</time></trkpt>
<trkpt lat="49.165008544922" lon="2.7131242752075"><ele></ele><time>2022-6-8T8:58:54Z</time></trkpt>
<trkpt lat="49.164993286133" lon="2.7130126953125"><ele></ele><time>2022-6-8T8:58:57Z</time></trkpt>
<trkpt lat="49.164985656738" lon="2.7129054069519"><ele></ele><time>2022-6-8T8:59:0Z</time></trkpt>
<trkpt lat="49.164966583252" lon="2.7127771377563"><ele></ele><time>2022-6-8T8:59:3Z</time></trkpt>
<trkpt lat="49.164939880371" lon="2.7126622200012"><ele></ele><time>2022-6-8T8:59:6Z</time></trkpt>
<trkpt lat="49.164920806885" lon="2.7125422954559"><ele></ele><time>2022-6-8T8:59:9Z</time></trkpt>
<trkpt lat="49.164897918701" lon="2.7124226093292"><ele></ele><time>2022-6-8T8:59:12Z</time></trkpt>
<trkpt lat="49.16487121582" lon="2.7123074531555"><ele></ele><time>2022-6-8T8:59:15Z</time></trkpt>
<trkpt lat="49.164852142334" lon="2.7122015953064"><ele></ele><time>2022-6-8T8:59:18Z</time></trkpt>
<trkpt lat="49.16482925415" lon="2.7120926380157"><ele></ele><time>2022-6-8T8:59:21Z</time></trkpt>
<trkpt lat="49.16480255127" lon="2.7119836807251"><ele></ele><time>2022-6-8T8:59:24Z</time></trkpt>
<trkpt lat="49.164779663086" lon="2.7118780612946"><ele></ele><time>2022-6-8T8:59:27Z</time></trkpt>
<trkpt lat="49.164752960205" lon="2.7117669582367"><ele></ele><time>2022-6-8T8:59:30Z</time></trkpt>
<trkpt lat="49.164733886719" lon="2.7116496562958"><ele></ele><time>2022-6-8T8:59:33Z</time></trkpt>
<trkpt lat="49.164710998535" lon="2.7115292549133"><ele></ele><time>2022-6-8T8:59:36Z</time></trkpt>
<trkpt lat="49.164691925049" lon="2.7114119529724"><ele></ele><time>2022-6-8T8:59:39Z</time></trkpt>
<trkpt lat="49.164672851562" lon="2.7113077640533"><ele></ele><time>2022-6-8T8:59:42Z</time></trkpt>
<trkpt lat="49.164653778076" lon="2.7112045288086"><ele></ele><time>2022-6-8T8:59:45Z</time></trkpt>
<trkpt lat="49.16463470459" lon="2.7111036777496"><ele></ele><time>2022-6-8T8:59:48Z</time></trkpt>
<trkpt lat="49.164615631104" lon="2.7110016345978"><ele></ele><time>2022-6-8T8:59:51Z</time></trkpt>
<trkpt lat="49.16459274292" lon="2.7108874320984"><ele></ele><time>2022-6-8T8:59:54Z</time></trkpt>
<trkpt lat="49.164573669434" lon="2.7107632160187"><ele></ele><time>2022-6-8T8:59:57Z</time></trkpt>
<trkpt lat="49.16455078125" lon="2.7106482982635"><ele></ele><time>2022-6-8T9:0:0Z</time></trkpt>
<trkpt lat="49.164527893066" lon="2.7105286121368"><ele></ele><time>2022-6-8T9:0:3Z</time></trkpt>
<trkpt lat="49.16450881958" lon="2.7104194164276"><ele></ele><time>2022-6-8T9:0:6Z</time></trkpt>
<trkpt lat="49.164489746094" lon="2.7103095054626"><ele></ele><time>2022-6-8T9:0:9Z</time></trkpt>
<trkpt lat="49.164474487305" lon="2.7102172374725"><ele></ele><time>2022-6-8T9:0:12Z</time></trkpt>
<trkpt lat="49.164474487305" lon="2.7102172374725"><ele></ele><time>2022-6-8T9:0:15Z</time></trkpt>
<trkpt lat="49.164440155029" lon="2.7100358009338"><ele></ele><time>2022-6-8T9:0:18Z</time></trkpt>
<trkpt lat="49.16442489624" lon="2.7099258899689"><ele></ele><time>2022-6-8T9:0:21Z</time></trkpt>
<trkpt lat="49.164405822754" lon="2.7098166942596"><ele></ele><time>2022-6-8T9:0:24Z</time></trkpt>
<trkpt lat="49.16438293457" lon="2.7097175121307"><ele></ele><time>2022-6-8T9:0:27Z</time></trkpt>
<trkpt lat="49.164371490479" lon="2.7096207141876"><ele></ele><time>2022-6-8T9:0:30Z</time></trkpt>
<trkpt lat="49.164356231689" lon="2.7095167636871"><ele></ele><time>2022-6-8T9:0:33Z</time></trkpt>
<trkpt lat="49.164344787598" lon="2.7094252109528"><ele></ele><time>2022-6-8T9:0:36Z</time></trkpt>
<trkpt lat="49.164329528809" lon="2.7093079090118"><ele></ele><time>2022-6-8T9:0:39Z</time></trkpt>
<trkpt lat="49.164318084717" lon="2.7092061042786"><ele></ele><time>2022-6-8T9:0:42Z</time></trkpt>
<trkpt lat="49.164302825928" lon="2.7090981006622"><ele></ele><time>2022-6-8T9:0:45Z</time></trkpt>
<trkpt lat="49.164287567139" lon="2.7089850902557"><ele></ele><time>2022-6-8T9:0:48Z</time></trkpt>
<trkpt lat="49.164279937744" lon="2.7088775634766"><ele></ele><time>2022-6-8T9:0:51Z</time></trkpt>
<trkpt lat="49.164268493652" lon="2.7087604999542"><ele></ele><time>2022-6-8T9:0:54Z</time></trkpt>
<trkpt lat="49.164257049561" lon="2.7086386680603"><ele></ele><time>2022-6-8T9:0:57Z</time></trkpt>
<trkpt lat="49.164249420166" lon="2.7085192203522"><ele></ele><time>2022-6-8T9:1:0Z</time></trkpt>
<trkpt lat="49.164237976074" lon="2.7083919048309"><ele></ele><time>2022-6-8T9:1:3Z</time></trkpt>
<trkpt lat="49.164226531982" lon="2.7082626819611"><ele></ele><time>2022-6-8T9:1:6Z</time></trkpt>
<trkpt lat="49.164218902588" lon="2.7081410884857"><ele></ele><time>2022-6-8T9:1:9Z</time></trkpt>
<trkpt lat="49.164211273193" lon="2.7080264091492"><ele></ele><time>2022-6-8T9:1:12Z</time></trkpt>
<trkpt lat="49.164203643799" lon="2.7079062461853"><ele></ele><time>2022-6-8T9:1:15Z</time></trkpt>
<trkpt lat="49.164199829102" lon="2.7077789306641"><ele></ele><time>2022-6-8T9:1:18Z</time></trkpt>
<trkpt lat="49.164192199707" lon="2.7076516151428"><ele></ele><time>2022-6-8T9:1:21Z</time></trkpt>
<trkpt lat="49.16418838501" lon="2.7075262069702"><ele></ele><time>2022-6-8T9:1:24Z</time></trkpt>
<trkpt lat="49.164176940918" lon="2.7074007987976"><ele></ele><time>2022-6-8T9:1:27Z</time></trkpt>
<trkpt lat="49.164169311523" lon="2.7072818279266"><ele></ele><time>2022-6-8T9:1:30Z</time></trkpt>
<trkpt lat="49.164157867432" lon="2.7071537971497"><ele></ele><time>2022-6-8T9:1:33Z</time></trkpt>
<trkpt lat="49.16414642334" lon="2.70703125"><ele></ele><time>2022-6-8T9:1:36Z</time></trkpt>
<trkpt lat="49.164131164551" lon="2.7069070339203"><ele></ele><time>2022-6-8T9:1:39Z</time></trkpt>
<trkpt lat="49.164119720459" lon="2.7067844867706"><ele></ele><time>2022-6-8T9:1:42Z</time></trkpt>
<trkpt lat="49.16410446167" lon="2.7066617012024"><ele></ele><time>2022-6-8T9:1:45Z</time></trkpt>
<trkpt lat="49.164096832275" lon="2.7065470218658"><ele></ele><time>2022-6-8T9:1:48Z</time></trkpt>
<trkpt lat="49.164093017578" lon="2.7064347267151"><ele></ele><time>2022-6-8T9:1:51Z</time></trkpt>
<trkpt lat="49.164081573486" lon="2.7063159942627"><ele></ele><time>2022-6-8T9:1:54Z</time></trkpt>
<trkpt lat="49.164070129395" lon="2.7062010765076"><ele></ele><time>2022-6-8T9:1:57Z</time></trkpt>
<trkpt lat="49.1640625" lon="2.706086397171"><ele></ele><time>2022-6-8T9:2:0Z</time></trkpt>
<trkpt lat="49.164054870605" lon="2.7059760093689"><ele></ele><time>2022-6-8T9:2:3Z</time></trkpt>
<trkpt lat="49.164039611816" lon="2.7058644294739"><ele></ele><time>2022-6-8T9:2:6Z</time></trkpt>
<trkpt lat="49.164031982422" lon="2.7057580947876"><ele></ele><time>2022-6-8T9:2:9Z</time></trkpt>
<trkpt lat="49.16402053833" lon="2.7056422233582"><ele></ele><time>2022-6-8T9:2:12Z</time></trkpt>
<trkpt lat="49.164016723633" lon="2.7055368423462"><ele></ele><time>2022-6-8T9:2:15Z</time></trkpt>
<trkpt lat="49.164012908936" lon="2.7054238319397"><ele></ele><time>2022-6-8T9:2:18Z</time></trkpt>
<trkpt lat="49.164001464844" lon="2.7053129673004"><ele></ele><time>2022-6-8T9:2:21Z</time></trkpt>
<trkpt lat="49.163986206055" lon="2.7051889896393"><ele></ele><time>2022-6-8T9:2:24Z</time></trkpt>
<trkpt lat="49.163974761963" lon="2.7050700187683"><ele></ele><time>2022-6-8T9:2:27Z</time></trkpt>
<trkpt lat="49.163967132568" lon="2.7049524784088"><ele></ele><time>2022-6-8T9:2:30Z</time></trkpt>
<trkpt lat="49.163951873779" lon="2.7048411369324"><ele></ele><time>2022-6-8T9:2:33Z</time></trkpt>
<trkpt lat="49.163944244385" lon="2.7047176361084"><ele></ele><time>2022-6-8T9:2:36Z</time></trkpt>
<trkpt lat="49.163925170898" lon="2.7046031951904"><ele></ele><time>2022-6-8T9:2:39Z</time></trkpt>
<trkpt lat="49.163898468018" lon="2.7044961452484"><ele></ele><time>2022-6-8T9:2:42Z</time></trkpt>
<trkpt lat="49.163867950439" lon="2.7043776512146"><ele></ele><time>2022-6-8T9:2:45Z</time></trkpt>
<trkpt lat="49.163841247559" lon="2.7042508125305"><ele></ele><time>2022-6-8T9:2:48Z</time></trkpt>
<trkpt lat="49.163814544678" lon="2.7041294574738"><ele></ele><time>2022-6-8T9:2:51Z</time></trkpt>
<trkpt lat="49.163780212402" lon="2.7040088176727"><ele></ele><time>2022-6-8T9:2:54Z</time></trkpt>
<trkpt lat="49.16374206543" lon="2.7038848400116"><ele></ele><time>2022-6-8T9:2:57Z</time></trkpt>
<trkpt lat="49.163696289062" lon="2.7037632465363"><ele></ele><time>2022-6-8T9:3:0Z</time></trkpt>
<trkpt lat="49.163654327393" lon="2.7036435604095"><ele></ele><time>2022-6-8T9:3:3Z</time></trkpt>
<trkpt lat="49.163608551025" lon="2.7035171985626"><ele></ele><time>2022-6-8T9:3:6Z</time></trkpt>
<trkpt lat="49.163555145264" lon="2.7033846378326"><ele></ele><time>2022-6-8T9:3:9Z</time></trkpt>
<trkpt lat="49.163501739502" lon="2.7032520771027"><ele></ele><time>2022-6-8T9:3:12Z</time></trkpt>
<trkpt lat="49.163452148438" lon="2.7031264305115"><ele></ele><time>2022-6-8T9:3:15Z</time></trkpt>
<trkpt lat="49.163402557373" lon="2.7029960155487"><ele></ele><time>2022-6-8T9:3:18Z</time></trkpt>
<trkpt lat="49.163360595703" lon="2.7028739452362"><ele></ele><time>2022-6-8T9:3:21Z</time></trkpt>
<trkpt lat="49.163318634033" lon="2.7027595043182"><ele></ele><time>2022-6-8T9:3:24Z</time></trkpt>
<trkpt lat="49.163272857666" lon="2.7026305198669"><ele></ele><time>2022-6-8T9:3:27Z</time></trkpt>
<trkpt lat="49.163234710693" lon="2.7025203704834"><ele></ele><time>2022-6-8T9:3:30Z</time></trkpt>
<trkpt lat="49.163200378418" lon="2.7024173736572"><ele></ele><time>2022-6-8T9:3:33Z</time></trkpt>
<trkpt lat="49.163162231445" lon="2.7023060321808"><ele></ele><time>2022-6-8T9:3:36Z</time></trkpt>
<trkpt lat="49.16312789917" lon="2.7021930217743"><ele></ele><time>2022-6-8T9:3:39Z</time></trkpt>
<trkpt lat="49.163101196289" lon="2.7020781040192"><ele></ele><time>2022-6-8T9:3:42Z</time></trkpt>
<trkpt lat="49.163070678711" lon="2.7019553184509"><ele></ele><time>2022-6-8T9:3:45Z</time></trkpt>
<trkpt lat="49.163040161133" lon="2.7018356323242"><ele></ele><time>2022-6-8T9:3:48Z</time></trkpt>
<trkpt lat="49.163009643555" lon="2.7017111778259"><ele></ele><time>2022-6-8T9:3:51Z</time></trkpt>
<trkpt lat="49.162986755371" lon="2.7016034126282"><ele></ele><time>2022-6-8T9:3:54Z</time></trkpt>
<trkpt lat="49.162956237793" lon="2.7014806270599"><ele></ele><time>2022-6-8T9:3:57Z</time></trkpt>
<trkpt lat="49.162925720215" lon="2.7013614177704"><ele></ele><time>2022-6-8T9:4:0Z</time></trkpt>
<trkpt lat="49.162899017334" lon="2.7012412548065"><ele></ele><time>2022-6-8T9:4:3Z</time></trkpt>
<trkpt lat="49.16287612915" lon="2.7011318206787"><ele></ele><time>2022-6-8T9:4:6Z</time></trkpt>
<trkpt lat="49.162853240967" lon="2.701030254364"><ele></ele><time>2022-6-8T9:4:9Z</time></trkpt>
<trkpt lat="49.162826538086" lon="2.7009310722351"><ele></ele><time>2022-6-8T9:4:12Z</time></trkpt>
<trkpt lat="49.162818908691" lon="2.700825214386"><ele></ele><time>2022-6-8T9:4:15Z</time></trkpt>
<trkpt lat="49.162803649902" lon="2.7007274627686"><ele></ele><time>2022-6-8T9:4:18Z</time></trkpt>
<trkpt lat="49.162784576416" lon="2.7006378173828"><ele></ele><time>2022-6-8T9:4:21Z</time></trkpt>
<trkpt lat="49.162761688232" lon="2.70055103302"><ele></ele><time>2022-6-8T9:4:24Z</time></trkpt>
<trkpt lat="49.162746429443" lon="2.7004601955414"><ele></ele><time>2022-6-8T9:4:27Z</time></trkpt>
<trkpt lat="49.162727355957" lon="2.7003421783447"><ele></ele><time>2022-6-8T9:4:30Z</time></trkpt>
<trkpt lat="49.162708282471" lon="2.7002205848694"><ele></ele><time>2022-6-8T9:4:33Z</time></trkpt>
<trkpt lat="49.162693023682" lon="2.7000992298126"><ele></ele><time>2022-6-8T9:4:36Z</time></trkpt>
<trkpt lat="49.162673950195" lon="2.6999759674072"><ele></ele><time>2022-6-8T9:4:39Z</time></trkpt>
<trkpt lat="49.162662506104" lon="2.699857711792"><ele></ele><time>2022-6-8T9:4:42Z</time></trkpt>
<trkpt lat="49.162651062012" lon="2.6997489929199"><ele></ele><time>2022-6-8T9:4:45Z</time></trkpt>
<trkpt lat="49.16263961792" lon="2.6996383666992"><ele></ele><time>2022-6-8T9:4:48Z</time></trkpt>
<trkpt lat="49.162628173828" lon="2.6995375156403"><ele></ele><time>2022-6-8T9:4:51Z</time></trkpt>
<trkpt lat="49.162616729736" lon="2.6994307041168"><ele></ele><time>2022-6-8T9:4:54Z</time></trkpt>
<trkpt lat="49.162605285645" lon="2.699321269989"><ele></ele><time>2022-6-8T9:4:57Z</time></trkpt>
<trkpt lat="49.162590026855" lon="2.6992075443268"><ele></ele><time>2022-6-8T9:5:0Z</time></trkpt>
<trkpt lat="49.162570953369" lon="2.6990957260132"><ele></ele><time>2022-6-8T9:5:3Z</time></trkpt>
<trkpt lat="49.162551879883" lon="2.6989934444427"><ele></ele><time>2022-6-8T9:5:6Z</time></trkpt>
<trkpt lat="49.162536621094" lon="2.6988909244537"><ele></ele><time>2022-6-8T9:5:9Z</time></trkpt>
<trkpt lat="49.162517547607" lon="2.6987926959991"><ele></ele><time>2022-6-8T9:5:12Z</time></trkpt>
<trkpt lat="49.162490844727" lon="2.6986877918243"><ele></ele><time>2022-6-8T9:5:15Z</time></trkpt>
<trkpt lat="49.162464141846" lon="2.6985991001129"><ele></ele><time>2022-6-8T9:5:18Z</time></trkpt>
<trkpt lat="49.162441253662" lon="2.6984899044037"><ele></ele><time>2022-6-8T9:5:21Z</time></trkpt>
<trkpt lat="49.162418365479" lon="2.6983726024628"><ele></ele><time>2022-6-8T9:5:24Z</time></trkpt>
<trkpt lat="49.162395477295" lon="2.6982634067535"><ele></ele><time>2022-6-8T9:5:27Z</time></trkpt>
<trkpt lat="49.162380218506" lon="2.6981775760651"><ele></ele><time>2022-6-8T9:5:30Z</time></trkpt>
<trkpt lat="49.16236114502" lon="2.698086977005"><ele></ele><time>2022-6-8T9:5:33Z</time></trkpt>
<trkpt lat="49.162338256836" lon="2.6979866027832"><ele></ele><time>2022-6-8T9:5:36Z</time></trkpt>
<trkpt lat="49.162315368652" lon="2.6978867053986"><ele></ele><time>2022-6-8T9:5:39Z</time></trkpt>
<trkpt lat="49.162296295166" lon="2.6977865695953"><ele></ele><time>2022-6-8T9:5:42Z</time></trkpt>
<trkpt lat="49.16227722168" lon="2.697701215744"><ele></ele><time>2022-6-8T9:5:45Z</time></trkpt>
<trkpt lat="49.162265777588" lon="2.6976041793823"><ele></ele><time>2022-6-8T9:5:48Z</time></trkpt>
<trkpt lat="49.162246704102" lon="2.6974947452545"><ele></ele><time>2022-6-8T9:5:51Z</time></trkpt>
<trkpt lat="49.162227630615" lon="2.6973872184753"><ele></ele><time>2022-6-8T9:5:54Z</time></trkpt>
<trkpt lat="49.162208557129" lon="2.6972806453705"><ele></ele><time>2022-6-8T9:5:57Z</time></trkpt>
<trkpt lat="49.162189483643" lon="2.6971786022186"><ele></ele><time>2022-6-8T9:6:0Z</time></trkpt>
<trkpt lat="49.162166595459" lon="2.6970825195312"><ele></ele><time>2022-6-8T9:6:3Z</time></trkpt>
<trkpt lat="49.162147521973" lon="2.696971654892"><ele></ele><time>2022-6-8T9:6:6Z</time></trkpt>
<trkpt lat="49.162117004395" lon="2.6968750953674"><ele></ele><time>2022-6-8T9:6:9Z</time></trkpt>
<trkpt lat="49.162094116211" lon="2.696769952774"><ele></ele><time>2022-6-8T9:6:12Z</time></trkpt>
<trkpt lat="49.162071228027" lon="2.6966559886932"><ele></ele><time>2022-6-8T9:6:15Z</time></trkpt>
<trkpt lat="49.162048339844" lon="2.6965572834015"><ele></ele><time>2022-6-8T9:6:18Z</time></trkpt>
<trkpt lat="49.162021636963" lon="2.6964657306671"><ele></ele><time>2022-6-8T9:6:21Z</time></trkpt>
<trkpt lat="49.161994934082" lon="2.6963701248169"><ele></ele><time>2022-6-8T9:6:24Z</time></trkpt>
<trkpt lat="49.161979675293" lon="2.6962716579437"><ele></ele><time>2022-6-8T9:6:27Z</time></trkpt>
<trkpt lat="49.161964416504" lon="2.6961698532104"><ele></ele><time>2022-6-8T9:6:30Z</time></trkpt>
<trkpt lat="49.161949157715" lon="2.6960575580597"><ele></ele><time>2022-6-8T9:6:33Z</time></trkpt>
<trkpt lat="49.161933898926" lon="2.6959490776062"><ele></ele><time>2022-6-8T9:6:36Z</time></trkpt>
<trkpt lat="49.161914825439" lon="2.695848941803"><ele></ele><time>2022-6-8T9:6:39Z</time></trkpt>
<trkpt lat="49.161891937256" lon="2.6957542896271"><ele></ele><time>2022-6-8T9:6:42Z</time></trkpt>
<trkpt lat="49.161869049072" lon="2.6956593990326"><ele></ele><time>2022-6-8T9:6:45Z</time></trkpt>
<trkpt lat="49.161842346191" lon="2.6955590248108"><ele></ele><time>2022-6-8T9:6:48Z</time></trkpt>
<trkpt lat="49.161842346191" lon="2.6955590248108"><ele></ele><time>2022-6-8T9:6:51Z</time></trkpt>
<trkpt lat="49.161800384521" lon="2.6953823566437"><ele></ele><time>2022-6-8T9:6:54Z</time></trkpt>
<trkpt lat="49.161785125732" lon="2.6952815055847"><ele></ele><time>2022-6-8T9:6:57Z</time></trkpt>
<trkpt lat="49.161777496338" lon="2.695161819458"><ele></ele><time>2022-6-8T9:7:0Z</time></trkpt>
<trkpt lat="49.161792755127" lon="2.6950528621674"><ele></ele><time>2022-6-8T9:7:3Z</time></trkpt>
<trkpt lat="49.161808013916" lon="2.6949670314789"><ele></ele><time>2022-6-8T9:7:6Z</time></trkpt>
<trkpt lat="49.1618309021" lon="2.6948857307434"><ele></ele><time>2022-6-8T9:7:9Z</time></trkpt>
<trkpt lat="49.161849975586" lon="2.6947927474976"><ele></ele><time>2022-6-8T9:7:12Z</time></trkpt>
<trkpt lat="49.161849975586" lon="2.6947927474976"><ele></ele><time>2022-6-8T9:7:15Z</time></trkpt>
<trkpt lat="49.161849975586" lon="2.6947927474976"><ele></ele><time>2022-6-8T9:7:18Z</time></trkpt>
<trkpt lat="49.161849975586" lon="2.6947927474976"><ele></ele><time>2022-6-8T9:7:21Z</time></trkpt>
<trkpt lat="49.1618309021" lon="2.6946308612823"><ele></ele><time>2022-6-8T9:7:24Z</time></trkpt>
<trkpt lat="49.161720275879" lon="2.6945810317993"><ele></ele><time>2022-6-8T9:7:27Z</time></trkpt>
<trkpt lat="49.161624908447" lon="2.694625377655"><ele></ele><time>2022-6-8T9:7:30Z</time></trkpt>
<trkpt lat="49.161571502686" lon="2.6946561336517"><ele></ele><time>2022-6-8T9:7:33Z</time></trkpt>
<trkpt lat="49.161510467529" lon="2.6946940422058"><ele></ele><time>2022-6-8T9:7:36Z</time></trkpt>
<trkpt lat="49.161460876465" lon="2.6947300434113"><ele></ele><time>2022-6-8T9:7:39Z</time></trkpt>
<trkpt lat="49.161403656006" lon="2.6947758197784"><ele></ele><time>2022-6-8T9:7:42Z</time></trkpt>
<trkpt lat="49.161334991455" lon="2.6948261260986"><ele></ele><time>2022-6-8T9:7:45Z</time></trkpt>
<trkpt lat="49.161270141602" lon="2.694874048233"><ele></ele><time>2022-6-8T9:7:48Z</time></trkpt>
<trkpt lat="49.161205291748" lon="2.6949188709259"><ele></ele><time>2022-6-8T9:7:51Z</time></trkpt>
<trkpt lat="49.1611328125" lon="2.6949672698975"><ele></ele><time>2022-6-8T9:7:54Z</time></trkpt>
<trkpt lat="49.161064147949" lon="2.6950089931488"><ele></ele><time>2022-6-8T9:7:57Z</time></trkpt>
<trkpt lat="49.160995483398" lon="2.6950569152832"><ele></ele><time>2022-6-8T9:8:0Z</time></trkpt>
<trkpt lat="49.160942077637" lon="2.6950945854187"><ele></ele><time>2022-6-8T9:8:3Z</time></trkpt>
<trkpt lat="49.16088104248" lon="2.6951334476471"><ele></ele><time>2022-6-8T9:8:6Z</time></trkpt>
<trkpt lat="49.160816192627" lon="2.6951766014099"><ele></ele><time>2022-6-8T9:8:9Z</time></trkpt>
<trkpt lat="49.160743713379" lon="2.695220708847"><ele></ele><time>2022-6-8T9:8:12Z</time></trkpt>
<trkpt lat="49.160675048828" lon="2.6952562332153"><ele></ele><time>2022-6-8T9:8:15Z</time></trkpt>
<trkpt lat="49.160598754883" lon="2.6952912807465"><ele></ele><time>2022-6-8T9:8:18Z</time></trkpt>
<trkpt lat="49.160526275635" lon="2.6953165531158"><ele></ele><time>2022-6-8T9:8:21Z</time></trkpt>
<trkpt lat="49.160457611084" lon="2.6953413486481"><ele></ele><time>2022-6-8T9:8:24Z</time></trkpt>
<trkpt lat="49.16039276123" lon="2.6953637599945"><ele></ele><time>2022-6-8T9:8:27Z</time></trkpt>
<trkpt lat="49.160320281982" lon="2.695392370224"><ele></ele><time>2022-6-8T9:8:30Z</time></trkpt>
<trkpt lat="49.160247802734" lon="2.695426940918"><ele></ele><time>2022-6-8T9:8:33Z</time></trkpt>
<trkpt lat="49.160175323486" lon="2.6954569816589"><ele></ele><time>2022-6-8T9:8:36Z</time></trkpt>
<trkpt lat="49.160102844238" lon="2.6954855918884"><ele></ele><time>2022-6-8T9:8:39Z</time></trkpt>
<trkpt lat="49.16003036499" lon="2.6955087184906"><ele></ele><time>2022-6-8T9:8:42Z</time></trkpt>
<trkpt lat="49.159957885742" lon="2.6955354213715"><ele></ele><time>2022-6-8T9:8:45Z</time></trkpt>
<trkpt lat="49.1598777771" lon="2.6955735683441"><ele></ele><time>2022-6-8T9:8:48Z</time></trkpt>
<trkpt lat="49.159820556641" lon="2.6955971717834"><ele></ele><time>2022-6-8T9:8:51Z</time></trkpt>
<trkpt lat="49.159763336182" lon="2.6956188678741"><ele></ele><time>2022-6-8T9:8:54Z</time></trkpt>
<trkpt lat="49.159698486328" lon="2.695643901825"><ele></ele><time>2022-6-8T9:8:57Z</time></trkpt>
<trkpt lat="49.159637451172" lon="2.6956686973572"><ele></ele><time>2022-6-8T9:9:0Z</time></trkpt>
<trkpt lat="49.159572601318" lon="2.6956984996796"><ele></ele><time>2022-6-8T9:9:3Z</time></trkpt>
<trkpt lat="49.159511566162" lon="2.695732831955"><ele></ele><time>2022-6-8T9:9:6Z</time></trkpt>
<trkpt lat="49.159450531006" lon="2.6957728862762"><ele></ele><time>2022-6-8T9:9:9Z</time></trkpt>
<trkpt lat="49.15938949585" lon="2.6958119869232"><ele></ele><time>2022-6-8T9:9:12Z</time></trkpt>
<trkpt lat="49.159320831299" lon="2.6958475112915"><ele></ele><time>2022-6-8T9:9:15Z</time></trkpt>
<trkpt lat="49.159259796143" lon="2.6958730220795"><ele></ele><time>2022-6-8T9:9:18Z</time></trkpt>
<trkpt lat="49.159206390381" lon="2.6958918571472"><ele></ele><time>2022-6-8T9:9:21Z</time></trkpt>
<trkpt lat="49.159145355225" lon="2.6959180831909"><ele></ele><time>2022-6-8T9:9:24Z</time></trkpt>
<trkpt lat="49.159076690674" lon="2.6959404945374"><ele></ele><time>2022-6-8T9:9:27Z</time></trkpt>
<trkpt lat="49.159023284912" lon="2.695894241333"><ele></ele><time>2022-6-8T9:9:30Z</time></trkpt>
<trkpt lat="49.158996582031" lon="2.6958012580872"><ele></ele><time>2022-6-8T9:9:33Z</time></trkpt>
<trkpt lat="49.15896987915" lon="2.6956689357758"><ele></ele><time>2022-6-8T9:9:36Z</time></trkpt>
<trkpt lat="49.15896987915" lon="2.6956689357758"><ele></ele><time>2022-6-8T9:9:39Z</time></trkpt>
<trkpt lat="49.158946990967" lon="2.6954979896545"><ele></ele><time>2022-6-8T9:9:42Z</time></trkpt>
<trkpt lat="49.158935546875" lon="2.6954028606415"><ele></ele><time>2022-6-8T9:9:45Z</time></trkpt>
<trkpt lat="49.158924102783" lon="2.6953055858612"><ele></ele><time>2022-6-8T9:9:48Z</time></trkpt>
<trkpt lat="49.158912658691" lon="2.6952011585236"><ele></ele><time>2022-6-8T9:9:51Z</time></trkpt>
<trkpt lat="49.158897399902" lon="2.6950922012329"><ele></ele><time>2022-6-8T9:9:54Z</time></trkpt>
<trkpt lat="49.158885955811" lon="2.6949999332428"><ele></ele><time>2022-6-8T9:9:57Z</time></trkpt>
<trkpt lat="49.158870697021" lon="2.6949076652527"><ele></ele><time>2022-6-8T9:10:0Z</time></trkpt>
<trkpt lat="49.158855438232" lon="2.6948156356812"><ele></ele><time>2022-6-8T9:10:3Z</time></trkpt>
<trkpt lat="49.158840179443" lon="2.6946952342987"><ele></ele><time>2022-6-8T9:10:6Z</time></trkpt>
<trkpt lat="49.158828735352" lon="2.694591999054"><ele></ele><time>2022-6-8T9:10:9Z</time></trkpt>
<trkpt lat="49.15881729126" lon="2.6944849491119"><ele></ele><time>2022-6-8T9:10:12Z</time></trkpt>
<trkpt lat="49.158802032471" lon="2.6943752765656"><ele></ele><time>2022-6-8T9:10:15Z</time></trkpt>
<trkpt lat="49.158794403076" lon="2.6942751407623"><ele></ele><time>2022-6-8T9:10:18Z</time></trkpt>
<trkpt lat="49.158782958984" lon="2.6941468715668"><ele></ele><time>2022-6-8T9:10:21Z</time></trkpt>
<trkpt lat="49.158771514893" lon="2.6940407752991"><ele></ele><time>2022-6-8T9:10:24Z</time></trkpt>
<trkpt lat="49.158756256104" lon="2.693932056427"><ele></ele><time>2022-6-8T9:10:27Z</time></trkpt>
<trkpt lat="49.158744812012" lon="2.6938121318817"><ele></ele><time>2022-6-8T9:10:30Z</time></trkpt>
<trkpt lat="49.158729553223" lon="2.6936974525452"><ele></ele><time>2022-6-8T9:10:33Z</time></trkpt>
<trkpt lat="49.158718109131" lon="2.693591594696"><ele></ele><time>2022-6-8T9:10:36Z</time></trkpt>
<trkpt lat="49.158706665039" lon="2.6934726238251"><ele></ele><time>2022-6-8T9:10:39Z</time></trkpt>
<trkpt lat="49.15869140625" lon="2.6933386325836"><ele></ele><time>2022-6-8T9:10:42Z</time></trkpt>
<trkpt lat="49.158676147461" lon="2.6932277679443"><ele></ele><time>2022-6-8T9:10:45Z</time></trkpt>
<trkpt lat="49.158668518066" lon="2.6931180953979"><ele></ele><time>2022-6-8T9:10:48Z</time></trkpt>
<trkpt lat="49.15864944458" lon="2.6930022239685"><ele></ele><time>2022-6-8T9:10:51Z</time></trkpt>
<trkpt lat="49.158638000488" lon="2.6928842067719"><ele></ele><time>2022-6-8T9:10:54Z</time></trkpt>
<trkpt lat="49.158622741699" lon="2.6927680969238"><ele></ele><time>2022-6-8T9:10:57Z</time></trkpt>
<trkpt lat="49.158615112305" lon="2.6926577091217"><ele></ele><time>2022-6-8T9:11:0Z</time></trkpt>
<trkpt lat="49.158603668213" lon="2.6925392150879"><ele></ele><time>2022-6-8T9:11:3Z</time></trkpt>
<trkpt lat="49.158592224121" lon="2.6924157142639"><ele></ele><time>2022-6-8T9:11:6Z</time></trkpt>
<trkpt lat="49.158576965332" lon="2.69229388237"><ele></ele><time>2022-6-8T9:11:9Z</time></trkpt>
<trkpt lat="49.158561706543" lon="2.6921644210815"><ele></ele><time>2022-6-8T9:11:12Z</time></trkpt>
<trkpt lat="49.158546447754" lon="2.6920599937439"><ele></ele><time>2022-6-8T9:11:15Z</time></trkpt>
<trkpt lat="49.158535003662" lon="2.6919505596161"><ele></ele><time>2022-6-8T9:11:18Z</time></trkpt>
<trkpt lat="49.158519744873" lon="2.6918406486511"><ele></ele><time>2022-6-8T9:11:21Z</time></trkpt>
<trkpt lat="49.158512115479" lon="2.6917243003845"><ele></ele><time>2022-6-8T9:11:24Z</time></trkpt>
<trkpt lat="49.158508300781" lon="2.6916182041168"><ele></ele><time>2022-6-8T9:11:27Z</time></trkpt>
<trkpt lat="49.158500671387" lon="2.6915316581726"><ele></ele><time>2022-6-8T9:11:30Z</time></trkpt>
<trkpt lat="49.158493041992" lon="2.691442489624"><ele></ele><time>2022-6-8T9:11:33Z</time></trkpt>
<trkpt lat="49.158466339111" lon="2.6913421154022"><ele></ele><time>2022-6-8T9:11:36Z</time></trkpt>
<trkpt lat="49.158447265625" lon="2.6912491321564"><ele></ele><time>2022-6-8T9:11:39Z</time></trkpt>
<trkpt lat="49.158435821533" lon="2.6911420822144"><ele></ele><time>2022-6-8T9:11:42Z</time></trkpt>
<trkpt lat="49.158428192139" lon="2.691034078598"><ele></ele><time>2022-6-8T9:11:45Z</time></trkpt>
<trkpt lat="49.158416748047" lon="2.6909444332123"><ele></ele><time>2022-6-8T9:11:48Z</time></trkpt>
<trkpt lat="49.158416748047" lon="2.6909444332123"><ele></ele><time>2022-6-8T9:11:51Z</time></trkpt>
<trkpt lat="49.15837097168" lon="2.690794467926"><ele></ele><time>2022-6-8T9:11:54Z</time></trkpt>
<trkpt lat="49.15837097168" lon="2.690794467926"><ele></ele><time>2022-6-8T9:11:57Z</time></trkpt>
<trkpt lat="49.158309936523" lon="2.6906907558441"><ele></ele><time>2022-6-8T9:12:0Z</time></trkpt>
<trkpt lat="49.158260345459" lon="2.6906480789185"><ele></ele><time>2022-6-8T9:12:3Z</time></trkpt>
<trkpt lat="49.158199310303" lon="2.6906008720398"><ele></ele><time>2022-6-8T9:12:6Z</time></trkpt>
<trkpt lat="49.158138275146" lon="2.6905670166016"><ele></ele><time>2022-6-8T9:12:9Z</time></trkpt>
<trkpt lat="49.15807723999" lon="2.6905202865601"><ele></ele><time>2022-6-8T9:12:12Z</time></trkpt>
<trkpt lat="49.158020019531" lon="2.6904804706573"><ele></ele><time>2022-6-8T9:12:15Z</time></trkpt>
<trkpt lat="49.157955169678" lon="2.6904351711273"><ele></ele><time>2022-6-8T9:12:18Z</time></trkpt>
<trkpt lat="49.157886505127" lon="2.6903939247131"><ele></ele><time>2022-6-8T9:12:21Z</time></trkpt>
<trkpt lat="49.157810211182" lon="2.6903514862061"><ele></ele><time>2022-6-8T9:12:24Z</time></trkpt>
<trkpt lat="49.157733917236" lon="2.6903145313263"><ele></ele><time>2022-6-8T9:12:27Z</time></trkpt>
<trkpt lat="49.157657623291" lon="2.6902737617493"><ele></ele><time>2022-6-8T9:12:30Z</time></trkpt>
<trkpt lat="49.157581329346" lon="2.6902372837067"><ele></ele><time>2022-6-8T9:12:33Z</time></trkpt>
<trkpt lat="49.157501220703" lon="2.6901967525482"><ele></ele><time>2022-6-8T9:12:36Z</time></trkpt>
<trkpt lat="49.157421112061" lon="2.6901552677155"><ele></ele><time>2022-6-8T9:12:39Z</time></trkpt>
<trkpt lat="49.157344818115" lon="2.6901209354401"><ele></ele><time>2022-6-8T9:12:42Z</time></trkpt>
<trkpt lat="49.157272338867" lon="2.6900901794434"><ele></ele><time>2022-6-8T9:12:45Z</time></trkpt>
<trkpt lat="49.157196044922" lon="2.6900572776794"><ele></ele><time>2022-6-8T9:12:48Z</time></trkpt>
<trkpt lat="49.157112121582" lon="2.6900246143341"><ele></ele><time>2022-6-8T9:12:51Z</time></trkpt>
<trkpt lat="49.157028198242" lon="2.6899826526642"><ele></ele><time>2022-6-8T9:12:54Z</time></trkpt>
<trkpt lat="49.156940460205" lon="2.6899399757385"><ele></ele><time>2022-6-8T9:12:57Z</time></trkpt>
<trkpt lat="49.156860351562" lon="2.6898984909058"><ele></ele><time>2022-6-8T9:13:0Z</time></trkpt>
<trkpt lat="49.156784057617" lon="2.689861536026"><ele></ele><time>2022-6-8T9:13:3Z</time></trkpt>
<trkpt lat="49.156700134277" lon="2.6898229122162"><ele></ele><time>2022-6-8T9:13:6Z</time></trkpt>
<trkpt lat="49.156616210938" lon="2.6897804737091"><ele></ele><time>2022-6-8T9:13:9Z</time></trkpt>
<trkpt lat="49.156520843506" lon="2.6897351741791"><ele></ele><time>2022-6-8T9:13:12Z</time></trkpt>
<trkpt lat="49.15641784668" lon="2.6896777153015"><ele></ele><time>2022-6-8T9:13:15Z</time></trkpt>
<trkpt lat="49.156330108643" lon="2.6896162033081"><ele></ele><time>2022-6-8T9:13:18Z</time></trkpt>
<trkpt lat="49.156238555908" lon="2.6895549297333"><ele></ele><time>2022-6-8T9:13:21Z</time></trkpt>
<trkpt lat="49.156154632568" lon="2.6894855499268"><ele></ele><time>2022-6-8T9:13:24Z</time></trkpt>
<trkpt lat="49.156059265137" lon="2.6894063949585"><ele></ele><time>2022-6-8T9:13:27Z</time></trkpt>
<trkpt lat="49.155990600586" lon="2.6893222332001"><ele></ele><time>2022-6-8T9:13:30Z</time></trkpt>
<trkpt lat="49.15592956543" lon="2.6892201900482"><ele></ele><time>2022-6-8T9:13:33Z</time></trkpt>
<trkpt lat="49.155868530273" lon="2.6890978813171"><ele></ele><time>2022-6-8T9:13:36Z</time></trkpt>
<trkpt lat="49.155818939209" lon="2.6889481544495"><ele></ele><time>2022-6-8T9:13:39Z</time></trkpt>
<trkpt lat="49.155788421631" lon="2.6887865066528"><ele></ele><time>2022-6-8T9:13:42Z</time></trkpt>
<trkpt lat="49.155788421631" lon="2.6886138916016"><ele></ele><time>2022-6-8T9:13:45Z</time></trkpt>
<trkpt lat="49.155818939209" lon="2.6884422302246"><ele></ele><time>2022-6-8T9:13:48Z</time></trkpt>
<trkpt lat="49.155849456787" lon="2.6882836818695"><ele></ele><time>2022-6-8T9:13:51Z</time></trkpt>
<trkpt lat="49.155891418457" lon="2.6881237030029"><ele></ele><time>2022-6-8T9:13:54Z</time></trkpt>
<trkpt lat="49.155937194824" lon="2.6879649162292"><ele></ele><time>2022-6-8T9:13:57Z</time></trkpt>
<trkpt lat="49.155979156494" lon="2.68781208992"><ele></ele><time>2022-6-8T9:14:0Z</time></trkpt>
<trkpt lat="49.156009674072" lon="2.6876635551453"><ele></ele><time>2022-6-8T9:14:3Z</time></trkpt>
<trkpt lat="49.156044006348" lon="2.6875205039978"><ele></ele><time>2022-6-8T9:14:6Z</time></trkpt>
<trkpt lat="49.15608215332" lon="2.6873662471771"><ele></ele><time>2022-6-8T9:14:9Z</time></trkpt>
<trkpt lat="49.15612411499" lon="2.6872310638428"><ele></ele><time>2022-6-8T9:14:12Z</time></trkpt>
<trkpt lat="49.156169891357" lon="2.6871213912964"><ele></ele><time>2022-6-8T9:14:15Z</time></trkpt>
<trkpt lat="49.15620803833" lon="2.6870126724243"><ele></ele><time>2022-6-8T9:14:18Z</time></trkpt>
<trkpt lat="49.15625" lon="2.6868855953217"><ele></ele><time>2022-6-8T9:14:21Z</time></trkpt>
<trkpt lat="49.15629196167" lon="2.6867501735687"><ele></ele><time>2022-6-8T9:14:24Z</time></trkpt>
<trkpt lat="49.15633392334" lon="2.6866040229797"><ele></ele><time>2022-6-8T9:14:27Z</time></trkpt>
<trkpt lat="49.15637588501" lon="2.6864614486694"><ele></ele><time>2022-6-8T9:14:30Z</time></trkpt>
<trkpt lat="49.15641784668" lon="2.6863303184509"><ele></ele><time>2022-6-8T9:14:33Z</time></trkpt>
<trkpt lat="49.15645980835" lon="2.6862072944641"><ele></ele><time>2022-6-8T9:14:36Z</time></trkpt>
<trkpt lat="49.156497955322" lon="2.6860692501068"><ele></ele><time>2022-6-8T9:14:39Z</time></trkpt>
<trkpt lat="49.156539916992" lon="2.6859362125397"><ele></ele><time>2022-6-8T9:14:42Z</time></trkpt>
<trkpt lat="49.156581878662" lon="2.6858127117157"><ele></ele><time>2022-6-8T9:14:45Z</time></trkpt>
<trkpt lat="49.156623840332" lon="2.6856846809387"><ele></ele><time>2022-6-8T9:14:48Z</time></trkpt>
<trkpt lat="49.156661987305" lon="2.6855480670929"><ele></ele><time>2022-6-8T9:14:51Z</time></trkpt>
<trkpt lat="49.156700134277" lon="2.6854166984558"><ele></ele><time>2022-6-8T9:14:54Z</time></trkpt>
<trkpt lat="49.156742095947" lon="2.6852717399597"><ele></ele><time>2022-6-8T9:14:57Z</time></trkpt>
<trkpt lat="49.15678024292" lon="2.6851370334625"><ele></ele><time>2022-6-8T9:15:0Z</time></trkpt>
<trkpt lat="49.156814575195" lon="2.6850008964539"><ele></ele><time>2022-6-8T9:15:3Z</time></trkpt>
<trkpt lat="49.156841278076" lon="2.6848800182343"><ele></ele><time>2022-6-8T9:15:6Z</time></trkpt>
<trkpt lat="49.156867980957" lon="2.6847651004791"><ele></ele><time>2022-6-8T9:15:9Z</time></trkpt>
<trkpt lat="49.156909942627" lon="2.6846482753754"><ele></ele><time>2022-6-8T9:15:12Z</time></trkpt>
<trkpt lat="49.156951904297" lon="2.6845631599426"><ele></ele><time>2022-6-8T9:15:15Z</time></trkpt>
<trkpt lat="49.156951904297" lon="2.6845631599426"><ele></ele><time>2022-6-8T9:15:18Z</time></trkpt>
<trkpt lat="49.157054901123" lon="2.6845998764038"><ele></ele><time>2022-6-8T9:15:21Z</time></trkpt>
<trkpt lat="49.157104492188" lon="2.6846487522125"><ele></ele><time>2022-6-8T9:15:24Z</time></trkpt>
<trkpt lat="49.157157897949" lon="2.6846835613251"><ele></ele><time>2022-6-8T9:15:27Z</time></trkpt>
<trkpt lat="49.157157897949" lon="2.6846835613251"><ele></ele><time>2022-6-8T9:15:30Z</time></trkpt>
<trkpt lat="49.15726852417" lon="2.6847229003906"><ele></ele><time>2022-6-8T9:15:33Z</time></trkpt>
<trkpt lat="49.157325744629" lon="2.6847350597382"><ele></ele><time>2022-6-8T9:15:36Z</time></trkpt>
<trkpt lat="49.157325744629" lon="2.6847350597382"><ele></ele><time>2022-6-8T9:15:39Z</time></trkpt>
<trkpt lat="49.157417297363" lon="2.6847474575043"><ele></ele><time>2022-6-8T9:15:42Z</time></trkpt>
<trkpt lat="49.157417297363" lon="2.6847474575043"><ele></ele><time>2022-6-8T9:15:45Z</time></trkpt>
<trkpt lat="49.157524108887" lon="2.6847302913666"><ele></ele><time>2022-6-8T9:15:48Z</time></trkpt>
<trkpt lat="49.157592773438" lon="2.6847085952759"><ele></ele><time>2022-6-8T9:15:51Z</time></trkpt>
<trkpt lat="49.157592773438" lon="2.6847085952759"><ele></ele><time>2022-6-8T9:15:54Z</time></trkpt>
<trkpt lat="49.157695770264" lon="2.6847517490387"><ele></ele><time>2022-6-8T9:15:57Z</time></trkpt>
<trkpt lat="49.157760620117" lon="2.6847891807556"><ele></ele><time>2022-6-8T9:16:0Z</time></trkpt>
<trkpt lat="49.157825469971" lon="2.6848282814026"><ele></ele><time>2022-6-8T9:16:3Z</time></trkpt>
<trkpt lat="49.157890319824" lon="2.6848568916321"><ele></ele><time>2022-6-8T9:16:6Z</time></trkpt>
<trkpt lat="49.157958984375" lon="2.6848685741425"><ele></ele><time>2022-6-8T9:16:9Z</time></trkpt>
<trkpt lat="49.158023834229" lon="2.6848750114441"><ele></ele><time>2022-6-8T9:16:12Z</time></trkpt>
<trkpt lat="49.158088684082" lon="2.6849129199982"><ele></ele><time>2022-6-8T9:16:15Z</time></trkpt>
<trkpt lat="49.158145904541" lon="2.6849620342255"><ele></ele><time>2022-6-8T9:16:18Z</time></trkpt>
<trkpt lat="49.15824508667" lon="2.6850187778473"><ele></ele><time>2022-6-8T9:16:21Z</time></trkpt>
<trkpt lat="49.15824508667" lon="2.6850187778473"><ele></ele><time>2022-6-8T9:16:24Z</time></trkpt>
<trkpt lat="49.158348083496" lon="2.6849746704102"><ele></ele><time>2022-6-8T9:16:27Z</time></trkpt>
<trkpt lat="49.158348083496" lon="2.6849746704102"><ele></ele><time>2022-6-8T9:16:30Z</time></trkpt>
<trkpt lat="49.15843963623" lon="2.6850242614746"><ele></ele><time>2022-6-8T9:16:33Z</time></trkpt>
<trkpt lat="49.158493041992" lon="2.6850607395172"><ele></ele><time>2022-6-8T9:16:36Z</time></trkpt>
<trkpt lat="49.158592224121" lon="2.6851673126221"><ele></ele><time>2022-6-8T9:16:39Z</time></trkpt>
<trkpt lat="49.15864944458" lon="2.6852149963379"><ele></ele><time>2022-6-8T9:16:42Z</time></trkpt>
<trkpt lat="49.158710479736" lon="2.6852447986603"><ele></ele><time>2022-6-8T9:16:45Z</time></trkpt>
<trkpt lat="49.158782958984" lon="2.6852433681488"><ele></ele><time>2022-6-8T9:16:48Z</time></trkpt>
<trkpt lat="49.158843994141" lon="2.6852445602417"><ele></ele><time>2022-6-8T9:16:51Z</time></trkpt>
<trkpt lat="49.158843994141" lon="2.6852445602417"><ele></ele><time>2022-6-8T9:16:54Z</time></trkpt>
<trkpt lat="49.158935546875" lon="2.6852509975433"><ele></ele><time>2022-6-8T9:16:57Z</time></trkpt>
<trkpt lat="49.158935546875" lon="2.6852509975433"><ele></ele><time>2022-6-8T9:17:0Z</time></trkpt>
<trkpt lat="49.159015655518" lon="2.6852502822876"><ele></ele><time>2022-6-8T9:17:3Z</time></trkpt>
<trkpt lat="49.159015655518" lon="2.6852502822876"><ele></ele><time>2022-6-8T9:17:6Z</time></trkpt>
<trkpt lat="49.159122467041" lon="2.6852335929871"><ele></ele><time>2022-6-8T9:17:9Z</time></trkpt>
<trkpt lat="49.159194946289" lon="2.685239315033"><ele></ele><time>2022-6-8T9:17:12Z</time></trkpt>
<trkpt lat="49.15926361084" lon="2.6852571964264"><ele></ele><time>2022-6-8T9:17:15Z</time></trkpt>
<trkpt lat="49.159324645996" lon="2.6852753162384"><ele></ele><time>2022-6-8T9:17:18Z</time></trkpt>
<trkpt lat="49.159408569336" lon="2.6852960586548"><ele></ele><time>2022-6-8T9:17:21Z</time></trkpt>
<trkpt lat="49.159488677979" lon="2.68532538414"><ele></ele><time>2022-6-8T9:17:24Z</time></trkpt>
<trkpt lat="49.159576416016" lon="2.6853785514832"><ele></ele><time>2022-6-8T9:17:27Z</time></trkpt>
<trkpt lat="49.159664154053" lon="2.6854395866394"><ele></ele><time>2022-6-8T9:17:30Z</time></trkpt>
<trkpt lat="49.159748077393" lon="2.6854782104492"><ele></ele><time>2022-6-8T9:17:33Z</time></trkpt>
<trkpt lat="49.159820556641" lon="2.6855120658875"><ele></ele><time>2022-6-8T9:17:36Z</time></trkpt>
<trkpt lat="49.159889221191" lon="2.6855170726776"><ele></ele><time>2022-6-8T9:17:39Z</time></trkpt>
<trkpt lat="49.15994644165" lon="2.6855225563049"><ele></ele><time>2022-6-8T9:17:42Z</time></trkpt>
<trkpt lat="49.15994644165" lon="2.6855225563049"><ele></ele><time>2022-6-8T9:17:45Z</time></trkpt>
<trkpt lat="49.160049438477" lon="2.6855659484863"><ele></ele><time>2022-6-8T9:17:48Z</time></trkpt>
<trkpt lat="49.160049438477" lon="2.6855659484863"><ele></ele><time>2022-6-8T9:17:51Z</time></trkpt>
<trkpt lat="49.160144805908" lon="2.6855945587158"><ele></ele><time>2022-6-8T9:17:54Z</time></trkpt>
<trkpt lat="49.160209655762" lon="2.6856021881104"><ele></ele><time>2022-6-8T9:17:57Z</time></trkpt>
<trkpt lat="49.160209655762" lon="2.6856021881104"><ele></ele><time>2022-6-8T9:18:0Z</time></trkpt>
<trkpt lat="49.160320281982" lon="2.6856563091278"><ele></ele><time>2022-6-8T9:18:3Z</time></trkpt>
<trkpt lat="49.160385131836" lon="2.685694694519"><ele></ele><time>2022-6-8T9:18:6Z</time></trkpt>
<trkpt lat="49.160461425781" lon="2.6857254505157"><ele></ele><time>2022-6-8T9:18:9Z</time></trkpt>
<trkpt lat="49.160556793213" lon="2.6857516765594"><ele></ele><time>2022-6-8T9:18:12Z</time></trkpt>
<trkpt lat="49.16064453125" lon="2.6857941150665"><ele></ele><time>2022-6-8T9:18:15Z</time></trkpt>
<trkpt lat="49.160720825195" lon="2.6858239173889"><ele></ele><time>2022-6-8T9:18:18Z</time></trkpt>
<trkpt lat="49.160835266113" lon="2.6858608722687"><ele></ele><time>2022-6-8T9:18:21Z</time></trkpt>
<trkpt lat="49.160903930664" lon="2.6858835220337"><ele></ele><time>2022-6-8T9:18:24Z</time></trkpt>
<trkpt lat="49.160949707031" lon="2.685932636261"><ele></ele><time>2022-6-8T9:18:27Z</time></trkpt>
<trkpt lat="49.161018371582" lon="2.6859855651855"><ele></ele><time>2022-6-8T9:18:30Z</time></trkpt>
<trkpt lat="49.161075592041" lon="2.6860029697418"><ele></ele><time>2022-6-8T9:18:33Z</time></trkpt>
<trkpt lat="49.161144256592" lon="2.6860013008118"><ele></ele><time>2022-6-8T9:18:36Z</time></trkpt>
<trkpt lat="49.161209106445" lon="2.6859908103943"><ele></ele><time>2022-6-8T9:18:39Z</time></trkpt>
<trkpt lat="49.161270141602" lon="2.686000585556"><ele></ele><time>2022-6-8T9:18:42Z</time></trkpt>
<trkpt lat="49.161319732666" lon="2.686065196991"><ele></ele><time>2022-6-8T9:18:45Z</time></trkpt>
<trkpt lat="49.161380767822" lon="2.686126947403"><ele></ele><time>2022-6-8T9:18:48Z</time></trkpt>
<trkpt lat="49.161460876465" lon="2.6861708164215"><ele></ele><time>2022-6-8T9:18:51Z</time></trkpt>
<trkpt lat="49.161540985107" lon="2.6861822605133"><ele></ele><time>2022-6-8T9:18:54Z</time></trkpt>
<trkpt lat="49.161609649658" lon="2.686158657074"><ele></ele><time>2022-6-8T9:18:57Z</time></trkpt>
<trkpt lat="49.161670684814" lon="2.6861574649811"><ele></ele><time>2022-6-8T9:19:0Z</time></trkpt>
<trkpt lat="49.161739349365" lon="2.686172246933"><ele></ele><time>2022-6-8T9:19:3Z</time></trkpt>
<trkpt lat="49.161804199219" lon="2.6862111091614"><ele></ele><time>2022-6-8T9:19:6Z</time></trkpt>
<trkpt lat="49.161861419678" lon="2.6862494945526"><ele></ele><time>2022-6-8T9:19:9Z</time></trkpt>
<trkpt lat="49.161918640137" lon="2.6862680912018"><ele></ele><time>2022-6-8T9:19:12Z</time></trkpt>
<trkpt lat="49.161979675293" lon="2.6862812042236"><ele></ele><time>2022-6-8T9:19:15Z</time></trkpt>
<trkpt lat="49.162086486816" lon="2.6863024234772"><ele></ele><time>2022-6-8T9:19:18Z</time></trkpt>
<trkpt lat="49.162158966064" lon="2.6863250732422"><ele></ele><time>2022-6-8T9:19:21Z</time></trkpt>
<trkpt lat="49.16223526001" lon="2.6863441467285"><ele></ele><time>2022-6-8T9:19:24Z</time></trkpt>
<trkpt lat="49.162311553955" lon="2.6863644123077"><ele></ele><time>2022-6-8T9:19:27Z</time></trkpt>
<trkpt lat="49.162376403809" lon="2.6863524913788"><ele></ele><time>2022-6-8T9:19:30Z</time></trkpt>
<trkpt lat="49.162376403809" lon="2.6863524913788"><ele></ele><time>2022-6-8T9:19:33Z</time></trkpt>
<trkpt lat="49.162376403809" lon="2.6863524913788"><ele></ele><time>2022-6-8T9:19:36Z</time></trkpt>
<trkpt lat="49.162376403809" lon="2.6863524913788"><ele></ele><time>2022-6-8T9:19:39Z</time></trkpt>
<trkpt lat="49.162376403809" lon="2.6863524913788"><ele></ele><time>2022-6-8T9:19:42Z</time></trkpt>
<trkpt lat="49.162418365479" lon="2.6862938404083"><ele></ele><time>2022-6-8T9:19:45Z</time></trkpt>
<trkpt lat="49.162357330322" lon="2.686274766922"><ele></ele><time>2022-6-8T9:19:48Z</time></trkpt>
<trkpt lat="49.162357330322" lon="2.686274766922"><ele></ele><time>2022-6-8T9:19:51Z</time></trkpt>
<trkpt lat="49.162357330322" lon="2.686274766922"><ele></ele><time>2022-6-8T9:19:54Z</time></trkpt>
<trkpt lat="49.162403106689" lon="2.6862804889679"><ele></ele><time>2022-6-8T9:19:57Z</time></trkpt>
<trkpt lat="49.162490844727" lon="2.6861619949341"><ele></ele><time>2022-6-8T9:20:0Z</time></trkpt>
<trkpt lat="49.162551879883" lon="2.6861717700958"><ele></ele><time>2022-6-8T9:20:3Z</time></trkpt>
<trkpt lat="49.162620544434" lon="2.6861066818237"><ele></ele><time>2022-6-8T9:20:6Z</time></trkpt>
<trkpt lat="49.162620544434" lon="2.6861066818237"><ele></ele><time>2022-6-8T9:20:9Z</time></trkpt>
<trkpt lat="49.162620544434" lon="2.6861066818237"><ele></ele><time>2022-6-8T9:20:12Z</time></trkpt>
<trkpt lat="49.162620544434" lon="2.6861066818237"><ele></ele><time>2022-6-8T9:20:15Z</time></trkpt>
<trkpt lat="49.162620544434" lon="2.6860189437866"><ele></ele><time>2022-6-8T9:20:18Z</time></trkpt>
<trkpt lat="49.162620544434" lon="2.6860189437866"><ele></ele><time>2022-6-8T9:20:21Z</time></trkpt>
<trkpt lat="49.162620544434" lon="2.6858880519867"><ele></ele><time>2022-6-8T9:20:24Z</time></trkpt>
<trkpt lat="49.162612915039" lon="2.685736656189"><ele></ele><time>2022-6-8T9:20:27Z</time></trkpt>
<trkpt lat="49.162609100342" lon="2.6856062412262"><ele></ele><time>2022-6-8T9:20:30Z</time></trkpt>
<trkpt lat="49.16259765625" lon="2.685471534729"><ele></ele><time>2022-6-8T9:20:33Z</time></trkpt>
<trkpt lat="49.162586212158" lon="2.6853549480438"><ele></ele><time>2022-6-8T9:20:36Z</time></trkpt>
<trkpt lat="49.162578582764" lon="2.6852166652679"><ele></ele><time>2022-6-8T9:20:39Z</time></trkpt>
<trkpt lat="49.162570953369" lon="2.6850686073303"><ele></ele><time>2022-6-8T9:20:42Z</time></trkpt>
<trkpt lat="49.162548065186" lon="2.684912443161"><ele></ele><time>2022-6-8T9:20:45Z</time></trkpt>
<trkpt lat="49.162509918213" lon="2.6848111152649"><ele></ele><time>2022-6-8T9:20:48Z</time></trkpt>
<trkpt lat="49.162475585938" lon="2.6847043037415"><ele></ele><time>2022-6-8T9:20:51Z</time></trkpt>
<trkpt lat="49.16242980957" lon="2.6844921112061"><ele></ele><time>2022-6-8T9:20:54Z</time></trkpt>
<trkpt lat="49.162410736084" lon="2.6843338012695"><ele></ele><time>2022-6-8T9:20:57Z</time></trkpt>
<trkpt lat="49.162410736084" lon="2.6843338012695"><ele></ele><time>2022-6-8T9:21:0Z</time></trkpt>
<trkpt lat="49.162406921387" lon="2.6841983795166"><ele></ele><time>2022-6-8T9:21:3Z</time></trkpt>
<trkpt lat="49.162406921387" lon="2.6841983795166"><ele></ele><time>2022-6-8T9:21:6Z</time></trkpt>
<trkpt lat="49.162410736084" lon="2.6840891838074"><ele></ele><time>2022-6-8T9:21:9Z</time></trkpt>
<trkpt lat="49.162410736084" lon="2.6840891838074"><ele></ele><time>2022-6-8T9:21:12Z</time></trkpt>
<trkpt lat="49.162410736084" lon="2.6839184761047"><ele></ele><time>2022-6-8T9:21:15Z</time></trkpt>
<trkpt lat="49.162395477295" lon="2.6838102340698"><ele></ele><time>2022-6-8T9:21:18Z</time></trkpt>
<trkpt lat="49.162368774414" lon="2.6836774349213"><ele></ele><time>2022-6-8T9:21:21Z</time></trkpt>
<trkpt lat="49.162342071533" lon="2.6835796833038"><ele></ele><time>2022-6-8T9:21:24Z</time></trkpt>
<trkpt lat="49.162315368652" lon="2.683482170105"><ele></ele><time>2022-6-8T9:21:27Z</time></trkpt>
<trkpt lat="49.162292480469" lon="2.6833784580231"><ele></ele><time>2022-6-8T9:21:30Z</time></trkpt>
<trkpt lat="49.162269592285" lon="2.683287858963"><ele></ele><time>2022-6-8T9:21:33Z</time></trkpt>
<trkpt lat="49.162258148193" lon="2.6831183433533"><ele></ele><time>2022-6-8T9:21:36Z</time></trkpt>
<trkpt lat="49.162258148193" lon="2.6831183433533"><ele></ele><time>2022-6-8T9:21:39Z</time></trkpt>
<trkpt lat="49.162231445312" lon="2.6829235553741"><ele></ele><time>2022-6-8T9:21:42Z</time></trkpt>
<trkpt lat="49.162227630615" lon="2.6828212738037"><ele></ele><time>2022-6-8T9:21:45Z</time></trkpt>
<trkpt lat="49.162227630615" lon="2.6828212738037"><ele></ele><time>2022-6-8T9:21:48Z</time></trkpt>
<trkpt lat="49.162208557129" lon="2.6826395988464"><ele></ele><time>2022-6-8T9:21:51Z</time></trkpt>
<trkpt lat="49.16219329834" lon="2.6825435161591"><ele></ele><time>2022-6-8T9:21:54Z</time></trkpt>
<trkpt lat="49.16219329834" lon="2.6825435161591"><ele></ele><time>2022-6-8T9:21:57Z</time></trkpt>
<trkpt lat="49.162136077881" lon="2.6823747158051"><ele></ele><time>2022-6-8T9:22:0Z</time></trkpt>
<trkpt lat="49.162090301514" lon="2.6822655200958"><ele></ele><time>2022-6-8T9:22:3Z</time></trkpt>
<trkpt lat="49.162021636963" lon="2.682112455368"><ele></ele><time>2022-6-8T9:22:6Z</time></trkpt>
<trkpt lat="49.161972045898" lon="2.6819417476654"><ele></ele><time>2022-6-8T9:22:9Z</time></trkpt>
<trkpt lat="49.161933898926" lon="2.6817805767059"><ele></ele><time>2022-6-8T9:22:12Z</time></trkpt>
<trkpt lat="49.16189956665" lon="2.6816198825836"><ele></ele><time>2022-6-8T9:22:15Z</time></trkpt>
<trkpt lat="49.161853790283" lon="2.6814608573914"><ele></ele><time>2022-6-8T9:22:18Z</time></trkpt>
<trkpt lat="49.161800384521" lon="2.6813073158264"><ele></ele><time>2022-6-8T9:22:21Z</time></trkpt>
<trkpt lat="49.161754608154" lon="2.6811580657959"><ele></ele><time>2022-6-8T9:22:24Z</time></trkpt>
<trkpt lat="49.161716461182" lon="2.6810340881348"><ele></ele><time>2022-6-8T9:22:27Z</time></trkpt>
<trkpt lat="49.161685943604" lon="2.6809136867523"><ele></ele><time>2022-6-8T9:22:30Z</time></trkpt>
<trkpt lat="49.161674499512" lon="2.6807990074158"><ele></ele><time>2022-6-8T9:22:33Z</time></trkpt>
<trkpt lat="49.161659240723" lon="2.6806933879852"><ele></ele><time>2022-6-8T9:22:36Z</time></trkpt>
<trkpt lat="49.161640167236" lon="2.6806085109711"><ele></ele><time>2022-6-8T9:22:39Z</time></trkpt>
<trkpt lat="49.161617279053" lon="2.6804981231689"><ele></ele><time>2022-6-8T9:22:42Z</time></trkpt>
<trkpt lat="49.161617279053" lon="2.6802930831909"><ele></ele><time>2022-6-8T9:22:45Z</time></trkpt>
<trkpt lat="49.161617279053" lon="2.6802930831909"><ele></ele><time>2022-6-8T9:22:48Z</time></trkpt>
<trkpt lat="49.161666870117" lon="2.6801693439484"><ele></ele><time>2022-6-8T9:22:51Z</time></trkpt>
<trkpt lat="49.161739349365" lon="2.6801359653473"><ele></ele><time>2022-6-8T9:22:54Z</time></trkpt>
<trkpt lat="49.1618309021" lon="2.6800901889801"><ele></ele><time>2022-6-8T9:22:57Z</time></trkpt>
<trkpt lat="49.161911010742" lon="2.6800446510315"><ele></ele><time>2022-6-8T9:23:0Z</time></trkpt>
<trkpt lat="49.161994934082" lon="2.6799972057343"><ele></ele><time>2022-6-8T9:23:3Z</time></trkpt>
<trkpt lat="49.162071228027" lon="2.679966211319"><ele></ele><time>2022-6-8T9:23:6Z</time></trkpt>
<trkpt lat="49.162162780762" lon="2.6799256801605"><ele></ele><time>2022-6-8T9:23:9Z</time></trkpt>
<trkpt lat="49.162261962891" lon="2.6798844337463"><ele></ele><time>2022-6-8T9:23:12Z</time></trkpt>
<trkpt lat="49.16236114502" lon="2.6798424720764"><ele></ele><time>2022-6-8T9:23:15Z</time></trkpt>
<trkpt lat="49.162460327148" lon="2.6798045635223"><ele></ele><time>2022-6-8T9:23:18Z</time></trkpt>
<trkpt lat="49.16255569458" lon="2.6797697544098"><ele></ele><time>2022-6-8T9:23:21Z</time></trkpt>
<trkpt lat="49.162662506104" lon="2.6797277927399"><ele></ele><time>2022-6-8T9:23:24Z</time></trkpt>
<trkpt lat="49.162780761719" lon="2.6796748638153"><ele></ele><time>2022-6-8T9:23:27Z</time></trkpt>
<trkpt lat="49.162883758545" lon="2.6796231269836"><ele></ele><time>2022-6-8T9:23:30Z</time></trkpt>
<trkpt lat="49.162994384766" lon="2.6795818805695"><ele></ele><time>2022-6-8T9:23:33Z</time></trkpt>
<trkpt lat="49.163101196289" lon="2.6795334815979"><ele></ele><time>2022-6-8T9:23:36Z</time></trkpt>
<trkpt lat="49.16321182251" lon="2.6794879436493"><ele></ele><time>2022-6-8T9:23:39Z</time></trkpt>
<trkpt lat="49.163333892822" lon="2.6794412136078"><ele></ele><time>2022-6-8T9:23:42Z</time></trkpt>
<trkpt lat="49.16344833374" lon="2.6793947219849"><ele></ele><time>2022-6-8T9:23:45Z</time></trkpt>
<trkpt lat="49.163551330566" lon="2.6793563365936"><ele></ele><time>2022-6-8T9:23:48Z</time></trkpt>
<trkpt lat="49.163654327393" lon="2.6793088912964"><ele></ele><time>2022-6-8T9:23:51Z</time></trkpt>
<trkpt lat="49.163757324219" lon="2.6792571544647"><ele></ele><time>2022-6-8T9:23:54Z</time></trkpt>
<trkpt lat="49.163871765137" lon="2.6792008876801"><ele></ele><time>2022-6-8T9:23:57Z</time></trkpt>
<trkpt lat="49.163955688477" lon="2.6791644096375"><ele></ele><time>2022-6-8T9:24:0Z</time></trkpt>
<trkpt lat="49.164031982422" lon="2.6791131496429"><ele></ele><time>2022-6-8T9:24:3Z</time></trkpt>
<trkpt lat="49.164119720459" lon="2.6790645122528"><ele></ele><time>2022-6-8T9:24:6Z</time></trkpt>
<trkpt lat="49.164173126221" lon="2.6789882183075"><ele></ele><time>2022-6-8T9:24:9Z</time></trkpt>
<trkpt lat="49.164173126221" lon="2.6789882183075"><ele></ele><time>2022-6-8T9:24:12Z</time></trkpt>
<trkpt lat="49.16410446167" lon="2.6789536476135"><ele></ele><time>2022-6-8T9:24:15Z</time></trkpt>
<trkpt lat="49.16402053833" lon="2.6789186000824"><ele></ele><time>2022-6-8T9:24:18Z</time></trkpt>
<trkpt lat="49.163963317871" lon="2.6788861751556"><ele></ele><time>2022-6-8T9:24:21Z</time></trkpt>
<trkpt lat="49.163963317871" lon="2.6788861751556"><ele></ele><time>2022-6-8T9:24:24Z</time></trkpt>
<trkpt lat="49.163833618164" lon="2.6788494586945"><ele></ele><time>2022-6-8T9:24:27Z</time></trkpt>
<trkpt lat="49.163757324219" lon="2.6788094043732"><ele></ele><time>2022-6-8T9:24:30Z</time></trkpt>
<trkpt lat="49.163677215576" lon="2.6787617206573"><ele></ele><time>2022-6-8T9:24:33Z</time></trkpt>
<trkpt lat="49.163619995117" lon="2.6786901950836"><ele></ele><time>2022-6-8T9:24:36Z</time></trkpt>
<trkpt lat="49.163585662842" lon="2.6785674095154"><ele></ele><time>2022-6-8T9:24:39Z</time></trkpt>
<trkpt lat="49.163555145264" lon="2.6784310340881"><ele></ele><time>2022-6-8T9:24:42Z</time></trkpt>
<trkpt lat="49.16353225708" lon="2.678297996521"><ele></ele><time>2022-6-8T9:24:45Z</time></trkpt>
<trkpt lat="49.163509368896" lon="2.6781723499298"><ele></ele><time>2022-6-8T9:24:48Z</time></trkpt>
<trkpt lat="49.163471221924" lon="2.678053855896"><ele></ele><time>2022-6-8T9:24:51Z</time></trkpt>
<trkpt lat="49.163463592529" lon="2.6779406070709"><ele></ele><time>2022-6-8T9:24:54Z</time></trkpt>
<trkpt lat="49.163482666016" lon="2.6778175830841"><ele></ele><time>2022-6-8T9:24:57Z</time></trkpt>
<trkpt lat="49.163482666016" lon="2.6776659488678"><ele></ele><time>2022-6-8T9:25:0Z</time></trkpt>
<trkpt lat="49.163463592529" lon="2.6775679588318"><ele></ele><time>2022-6-8T9:25:3Z</time></trkpt>
<trkpt lat="49.163402557373" lon="2.677464723587"><ele></ele><time>2022-6-8T9:25:6Z</time></trkpt>
<trkpt lat="49.163341522217" lon="2.677342414856"><ele></ele><time>2022-6-8T9:25:9Z</time></trkpt>
<trkpt lat="49.163318634033" lon="2.6772329807281"><ele></ele><time>2022-6-8T9:25:12Z</time></trkpt>
<trkpt lat="49.163291931152" lon="2.6771268844604"><ele></ele><time>2022-6-8T9:25:15Z</time></trkpt>
<trkpt lat="49.163272857666" lon="2.6770217418671"><ele></ele><time>2022-6-8T9:25:18Z</time></trkpt>
<trkpt lat="49.163246154785" lon="2.6769347190857"><ele></ele><time>2022-6-8T9:25:21Z</time></trkpt>
<trkpt lat="49.163246154785" lon="2.6769347190857"><ele></ele><time>2022-6-8T9:25:24Z</time></trkpt>
<trkpt lat="49.163200378418" lon="2.6768081188202"><ele></ele><time>2022-6-8T9:25:27Z</time></trkpt>
<trkpt lat="49.163200378418" lon="2.6768081188202"><ele></ele><time>2022-6-8T9:25:30Z</time></trkpt>
<trkpt lat="49.163154602051" lon="2.6766362190247"><ele></ele><time>2022-6-8T9:25:33Z</time></trkpt>
<trkpt lat="49.163154602051" lon="2.6766362190247"><ele></ele><time>2022-6-8T9:25:36Z</time></trkpt>
<trkpt lat="49.163146972656" lon="2.6765658855438"><ele></ele><time>2022-6-8T9:25:39Z</time></trkpt>
<trkpt lat="49.163135528564" lon="2.6765036582947"><ele></ele><time>2022-6-8T9:25:42Z</time></trkpt>
<trkpt lat="49.163120269775" lon="2.6764354705811"><ele></ele><time>2022-6-8T9:25:45Z</time></trkpt>
<trkpt lat="49.163112640381" lon="2.6763715744019"><ele></ele><time>2022-6-8T9:25:48Z</time></trkpt>
<trkpt lat="49.163108825684" lon="2.6763143539429"><ele></ele><time>2022-6-8T9:25:51Z</time></trkpt>
<trkpt lat="49.163097381592" lon="2.6762011051178"><ele></ele><time>2022-6-8T9:25:54Z</time></trkpt>
<trkpt lat="49.163074493408" lon="2.6761167049408"><ele></ele><time>2022-6-8T9:25:57Z</time></trkpt>
<trkpt lat="49.163047790527" lon="2.6760210990906"><ele></ele><time>2022-6-8T9:26:0Z</time></trkpt>
<trkpt lat="49.163032531738" lon="2.6759295463562"><ele></ele><time>2022-6-8T9:26:3Z</time></trkpt>
<trkpt lat="49.163013458252" lon="2.6758337020874"><ele></ele><time>2022-6-8T9:26:6Z</time></trkpt>
<trkpt lat="49.162982940674" lon="2.6756994724274"><ele></ele><time>2022-6-8T9:26:9Z</time></trkpt>
<trkpt lat="49.162967681885" lon="2.6756150722504"><ele></ele><time>2022-6-8T9:26:12Z</time></trkpt>
<trkpt lat="49.162952423096" lon="2.675523519516"><ele></ele><time>2022-6-8T9:26:15Z</time></trkpt>
<trkpt lat="49.162937164307" lon="2.6754195690155"><ele></ele><time>2022-6-8T9:26:18Z</time></trkpt>
<trkpt lat="49.162937164307" lon="2.6754195690155"><ele></ele><time>2022-6-8T9:26:21Z</time></trkpt>
<trkpt lat="49.162914276123" lon="2.6752343177795"><ele></ele><time>2022-6-8T9:26:24Z</time></trkpt>
<trkpt lat="49.162906646729" lon="2.6750822067261"><ele></ele><time>2022-6-8T9:26:27Z</time></trkpt>
<trkpt lat="49.162906646729" lon="2.6750822067261"><ele></ele><time>2022-6-8T9:26:30Z</time></trkpt>
<trkpt lat="49.162872314453" lon="2.6749153137207"><ele></ele><time>2022-6-8T9:26:33Z</time></trkpt>
<trkpt lat="49.162841796875" lon="2.6748130321503"><ele></ele><time>2022-6-8T9:26:36Z</time></trkpt>
<trkpt lat="49.162811279297" lon="2.674656867981"><ele></ele><time>2022-6-8T9:26:39Z</time></trkpt>
<trkpt lat="49.162780761719" lon="2.6745140552521"><ele></ele><time>2022-6-8T9:26:42Z</time></trkpt>
<trkpt lat="49.162750244141" lon="2.6744282245636"><ele></ele><time>2022-6-8T9:26:45Z</time></trkpt>
<trkpt lat="49.16272354126" lon="2.6743493080139"><ele></ele><time>2022-6-8T9:26:48Z</time></trkpt>
<trkpt lat="49.162693023682" lon="2.6742732524872"><ele></ele><time>2022-6-8T9:26:51Z</time></trkpt>
<trkpt lat="49.162658691406" lon="2.6741647720337"><ele></ele><time>2022-6-8T9:26:54Z</time></trkpt>
<trkpt lat="49.16263961792" lon="2.6740772724152"><ele></ele><time>2022-6-8T9:26:57Z</time></trkpt>
<trkpt lat="49.162616729736" lon="2.6739792823792"><ele></ele><time>2022-6-8T9:27:0Z</time></trkpt>
<trkpt lat="49.162586212158" lon="2.6738619804382"><ele></ele><time>2022-6-8T9:27:3Z</time></trkpt>
<trkpt lat="49.162563323975" lon="2.6737706661224"><ele></ele><time>2022-6-8T9:27:6Z</time></trkpt>
<trkpt lat="49.162528991699" lon="2.6736006736755"><ele></ele><time>2022-6-8T9:27:9Z</time></trkpt>
<trkpt lat="49.16251373291" lon="2.6735005378723"><ele></ele><time>2022-6-8T9:27:12Z</time></trkpt>
<trkpt lat="49.162487030029" lon="2.6734051704407"><ele></ele><time>2022-6-8T9:27:15Z</time></trkpt>
<trkpt lat="49.162456512451" lon="2.673287153244"><ele></ele><time>2022-6-8T9:27:18Z</time></trkpt>
<trkpt lat="49.162437438965" lon="2.6731691360474"><ele></ele><time>2022-6-8T9:27:21Z</time></trkpt>
<trkpt lat="49.162422180176" lon="2.6730649471283"><ele></ele><time>2022-6-8T9:27:24Z</time></trkpt>
<trkpt lat="49.162399291992" lon="2.6729805469513"><ele></ele><time>2022-6-8T9:27:27Z</time></trkpt>
<trkpt lat="49.162368774414" lon="2.672872543335"><ele></ele><time>2022-6-8T9:27:30Z</time></trkpt>
<trkpt lat="49.16234588623" lon="2.6727843284607"><ele></ele><time>2022-6-8T9:27:33Z</time></trkpt>
<trkpt lat="49.162326812744" lon="2.6726996898651"><ele></ele><time>2022-6-8T9:27:36Z</time></trkpt>
<trkpt lat="49.162315368652" lon="2.6726117134094"><ele></ele><time>2022-6-8T9:27:39Z</time></trkpt>
<trkpt lat="49.162292480469" lon="2.6725053787231"><ele></ele><time>2022-6-8T9:27:42Z</time></trkpt>
<trkpt lat="49.162281036377" lon="2.6723971366882"><ele></ele><time>2022-6-8T9:27:45Z</time></trkpt>
<trkpt lat="49.162273406982" lon="2.6723058223724"><ele></ele><time>2022-6-8T9:27:48Z</time></trkpt>
<trkpt lat="49.162258148193" lon="2.6722085475922"><ele></ele><time>2022-6-8T9:27:51Z</time></trkpt>
<trkpt lat="49.162239074707" lon="2.6720976829529"><ele></ele><time>2022-6-8T9:27:54Z</time></trkpt>
<trkpt lat="49.162216186523" lon="2.6719996929169"><ele></ele><time>2022-6-8T9:27:57Z</time></trkpt>
<trkpt lat="49.162189483643" lon="2.6718850135803"><ele></ele><time>2022-6-8T9:28:0Z</time></trkpt>
<trkpt lat="49.162170410156" lon="2.6718013286591"><ele></ele><time>2022-6-8T9:28:3Z</time></trkpt>
<trkpt lat="49.162170410156" lon="2.6718013286591"><ele></ele><time>2022-6-8T9:28:6Z</time></trkpt>
<trkpt lat="49.162139892578" lon="2.6716520786285"><ele></ele><time>2022-6-8T9:28:9Z</time></trkpt>
<trkpt lat="49.162139892578" lon="2.6716520786285"><ele></ele><time>2022-6-8T9:28:12Z</time></trkpt>
<trkpt lat="49.162105560303" lon="2.671463727951"><ele></ele><time>2022-6-8T9:28:15Z</time></trkpt>
<trkpt lat="49.162105560303" lon="2.671463727951"><ele></ele><time>2022-6-8T9:28:18Z</time></trkpt>
<trkpt lat="49.162075042725" lon="2.6712944507599"><ele></ele><time>2022-6-8T9:28:21Z</time></trkpt>
<trkpt lat="49.162055969238" lon="2.6711940765381"><ele></ele><time>2022-6-8T9:28:24Z</time></trkpt>
<trkpt lat="49.162029266357" lon="2.6710729598999"><ele></ele><time>2022-6-8T9:28:27Z</time></trkpt>
<trkpt lat="49.162002563477" lon="2.6709399223328"><ele></ele><time>2022-6-8T9:28:30Z</time></trkpt>
<trkpt lat="49.161979675293" lon="2.6708419322968"><ele></ele><time>2022-6-8T9:28:33Z</time></trkpt>
<trkpt lat="49.161960601807" lon="2.6707022190094"><ele></ele><time>2022-6-8T9:28:36Z</time></trkpt>
<trkpt lat="49.161952972412" lon="2.6706078052521"><ele></ele><time>2022-6-8T9:28:39Z</time></trkpt>
<trkpt lat="49.161952972412" lon="2.6706078052521"><ele></ele><time>2022-6-8T9:28:42Z</time></trkpt>
<trkpt lat="49.161930084229" lon="2.6704232692719"><ele></ele><time>2022-6-8T9:28:45Z</time></trkpt>
<trkpt lat="49.161895751953" lon="2.6702859401703"><ele></ele><time>2022-6-8T9:28:48Z</time></trkpt>
<trkpt lat="49.161869049072" lon="2.6701416969299"><ele></ele><time>2022-6-8T9:28:51Z</time></trkpt>
<trkpt lat="49.161846160889" lon="2.6700191497803"><ele></ele><time>2022-6-8T9:28:54Z</time></trkpt>
<trkpt lat="49.161823272705" lon="2.6698961257935"><ele></ele><time>2022-6-8T9:28:57Z</time></trkpt>
<trkpt lat="49.161781311035" lon="2.6697387695312"><ele></ele><time>2022-6-8T9:29:0Z</time></trkpt>
<trkpt lat="49.161739349365" lon="2.6695816516876"><ele></ele><time>2022-6-8T9:29:3Z</time></trkpt>
<trkpt lat="49.161701202393" lon="2.6694447994232"><ele></ele><time>2022-6-8T9:29:6Z</time></trkpt>
<trkpt lat="49.161651611328" lon="2.6693093776703"><ele></ele><time>2022-6-8T9:29:9Z</time></trkpt>
<trkpt lat="49.161602020264" lon="2.6691474914551"><ele></ele><time>2022-6-8T9:29:12Z</time></trkpt>
<trkpt lat="49.161567687988" lon="2.6690073013306"><ele></ele><time>2022-6-8T9:29:15Z</time></trkpt>
<trkpt lat="49.161529541016" lon="2.6688647270203"><ele></ele><time>2022-6-8T9:29:18Z</time></trkpt>
<trkpt lat="49.161506652832" lon="2.6687467098236"><ele></ele><time>2022-6-8T9:29:21Z</time></trkpt>
<trkpt lat="49.161479949951" lon="2.6686434745789"><ele></ele><time>2022-6-8T9:29:24Z</time></trkpt>
<trkpt lat="49.161437988281" lon="2.6684715747833"><ele></ele><time>2022-6-8T9:29:27Z</time></trkpt>
<trkpt lat="49.161407470703" lon="2.6683058738708"><ele></ele><time>2022-6-8T9:29:30Z</time></trkpt>
<trkpt lat="49.161380767822" lon="2.6681864261627"><ele></ele><time>2022-6-8T9:29:33Z</time></trkpt>
<trkpt lat="49.161361694336" lon="2.668071269989"><ele></ele><time>2022-6-8T9:29:36Z</time></trkpt>
<trkpt lat="49.161346435547" lon="2.667977809906"><ele></ele><time>2022-6-8T9:29:39Z</time></trkpt>
<trkpt lat="49.161319732666" lon="2.667867898941"><ele></ele><time>2022-6-8T9:29:42Z</time></trkpt>
<trkpt lat="49.161285400391" lon="2.6677541732788"><ele></ele><time>2022-6-8T9:29:45Z</time></trkpt>
<trkpt lat="49.161254882812" lon="2.6676499843597"><ele></ele><time>2022-6-8T9:29:48Z</time></trkpt>
<trkpt lat="49.161224365234" lon="2.6675388813019"><ele></ele><time>2022-6-8T9:29:51Z</time></trkpt>
<trkpt lat="49.161197662354" lon="2.6674373149872"><ele></ele><time>2022-6-8T9:29:54Z</time></trkpt>
<trkpt lat="49.16117477417" lon="2.6673419475555"><ele></ele><time>2022-6-8T9:29:57Z</time></trkpt>
<trkpt lat="49.161148071289" lon="2.6672275066376"><ele></ele><time>2022-6-8T9:30:0Z</time></trkpt>
<trkpt lat="49.161128997803" lon="2.6671321392059"><ele></ele><time>2022-6-8T9:30:3Z</time></trkpt>
<trkpt lat="49.161109924316" lon="2.6670053005219"><ele></ele><time>2022-6-8T9:30:6Z</time></trkpt>
<trkpt lat="49.161083221436" lon="2.6668586730957"><ele></ele><time>2022-6-8T9:30:9Z</time></trkpt>
<trkpt lat="49.161064147949" lon="2.6667633056641"><ele></ele><time>2022-6-8T9:30:12Z</time></trkpt>
<trkpt lat="49.161045074463" lon="2.6666610240936"><ele></ele><time>2022-6-8T9:30:15Z</time></trkpt>
<trkpt lat="49.161026000977" lon="2.6665544509888"><ele></ele><time>2022-6-8T9:30:18Z</time></trkpt>
<trkpt lat="49.161003112793" lon="2.6664555072784"><ele></ele><time>2022-6-8T9:30:21Z</time></trkpt>
<trkpt lat="49.160976409912" lon="2.6663770675659"><ele></ele><time>2022-6-8T9:30:24Z</time></trkpt>
<trkpt lat="49.160942077637" lon="2.6662912368774"><ele></ele><time>2022-6-8T9:30:27Z</time></trkpt>
<trkpt lat="49.160903930664" lon="2.6661851406097"><ele></ele><time>2022-6-8T9:30:30Z</time></trkpt>
<trkpt lat="49.160865783691" lon="2.6660556793213"><ele></ele><time>2022-6-8T9:30:33Z</time></trkpt>
<trkpt lat="49.160842895508" lon="2.665919303894"><ele></ele><time>2022-6-8T9:30:36Z</time></trkpt>
<trkpt lat="49.160823822021" lon="2.6658198833466"><ele></ele><time>2022-6-8T9:30:39Z</time></trkpt>
<trkpt lat="49.160804748535" lon="2.665718793869"><ele></ele><time>2022-6-8T9:30:42Z</time></trkpt>
<trkpt lat="49.160778045654" lon="2.6656248569489"><ele></ele><time>2022-6-8T9:30:45Z</time></trkpt>
<trkpt lat="49.160778045654" lon="2.6656248569489"><ele></ele><time>2022-6-8T9:30:48Z</time></trkpt>
<trkpt lat="49.160766601562" lon="2.6654856204987"><ele></ele><time>2022-6-8T9:30:51Z</time></trkpt>
<trkpt lat="49.160766601562" lon="2.6654856204987"><ele></ele><time>2022-6-8T9:30:54Z</time></trkpt>
<trkpt lat="49.160747528076" lon="2.6653573513031"><ele></ele><time>2022-6-8T9:30:57Z</time></trkpt>
<trkpt lat="49.160709381104" lon="2.6652870178223"><ele></ele><time>2022-6-8T9:31:0Z</time></trkpt>
<trkpt lat="49.160709381104" lon="2.6652870178223"><ele></ele><time>2022-6-8T9:31:3Z</time></trkpt>
<trkpt lat="49.160667419434" lon="2.6651113033295"><ele></ele><time>2022-6-8T9:31:6Z</time></trkpt>
<trkpt lat="49.160640716553" lon="2.6649949550629"><ele></ele><time>2022-6-8T9:31:9Z</time></trkpt>
<trkpt lat="49.160617828369" lon="2.6648609638214"><ele></ele><time>2022-6-8T9:31:12Z</time></trkpt>
<trkpt lat="49.160591125488" lon="2.6647264957428"><ele></ele><time>2022-6-8T9:31:15Z</time></trkpt>
<trkpt lat="49.160564422607" lon="2.664612531662"><ele></ele><time>2022-6-8T9:31:18Z</time></trkpt>
<trkpt lat="49.160533905029" lon="2.6644909381866"><ele></ele><time>2022-6-8T9:31:21Z</time></trkpt>
<trkpt lat="49.160503387451" lon="2.6643826961517"><ele></ele><time>2022-6-8T9:31:24Z</time></trkpt>
<trkpt lat="49.160480499268" lon="2.6642916202545"><ele></ele><time>2022-6-8T9:31:27Z</time></trkpt>
<trkpt lat="49.160461425781" lon="2.6641726493835"><ele></ele><time>2022-6-8T9:31:30Z</time></trkpt>
<trkpt lat="49.1604347229" lon="2.6640584468842"><ele></ele><time>2022-6-8T9:31:33Z</time></trkpt>
<trkpt lat="49.160404205322" lon="2.6639111042023"><ele></ele><time>2022-6-8T9:31:36Z</time></trkpt>
<trkpt lat="49.160385131836" lon="2.663800239563"><ele></ele><time>2022-6-8T9:31:39Z</time></trkpt>
<trkpt lat="49.16036605835" lon="2.663679599762"><ele></ele><time>2022-6-8T9:31:42Z</time></trkpt>
<trkpt lat="49.160350799561" lon="2.6635873317719"><ele></ele><time>2022-6-8T9:31:45Z</time></trkpt>
<trkpt lat="49.160335540771" lon="2.6635007858276"><ele></ele><time>2022-6-8T9:31:48Z</time></trkpt>
<trkpt lat="49.160335540771" lon="2.6635007858276"><ele></ele><time>2022-6-8T9:31:51Z</time></trkpt>
<trkpt lat="49.160312652588" lon="2.6634001731873"><ele></ele><time>2022-6-8T9:31:54Z</time></trkpt>
<trkpt lat="49.16028213501" lon="2.6633236408234"><ele></ele><time>2022-6-8T9:31:57Z</time></trkpt>
<trkpt lat="49.16028213501" lon="2.6633236408234"><ele></ele><time>2022-6-8T9:32:0Z</time></trkpt>
<trkpt lat="49.16024017334" lon="2.6631979942322"><ele></ele><time>2022-6-8T9:32:3Z</time></trkpt>
<trkpt lat="49.160221099854" lon="2.6631143093109"><ele></ele><time>2022-6-8T9:32:6Z</time></trkpt>
<trkpt lat="49.160221099854" lon="2.6631143093109"><ele></ele><time>2022-6-8T9:32:9Z</time></trkpt>
<trkpt lat="49.16019821167" lon="2.6629779338837"><ele></ele><time>2022-6-8T9:32:12Z</time></trkpt>
<trkpt lat="49.16019821167" lon="2.6629779338837"><ele></ele><time>2022-6-8T9:32:15Z</time></trkpt>
<trkpt lat="49.16015625" lon="2.6628174781799"><ele></ele><time>2022-6-8T9:32:18Z</time></trkpt>
<trkpt lat="49.160129547119" lon="2.6627337932587"><ele></ele><time>2022-6-8T9:32:21Z</time></trkpt>
<trkpt lat="49.160110473633" lon="2.6626415252686"><ele></ele><time>2022-6-8T9:32:24Z</time></trkpt>
<trkpt lat="49.160102844238" lon="2.6625430583954"><ele></ele><time>2022-6-8T9:32:27Z</time></trkpt>
<trkpt lat="49.160102844238" lon="2.6624076366425"><ele></ele><time>2022-6-8T9:32:30Z</time></trkpt>
<trkpt lat="49.160102844238" lon="2.6624076366425"><ele></ele><time>2022-6-8T9:32:33Z</time></trkpt>
<trkpt lat="49.160102844238" lon="2.6624076366425"><ele></ele><time>2022-6-8T9:32:36Z</time></trkpt>
<trkpt lat="49.160102844238" lon="2.6624076366425"><ele></ele><time>2022-6-8T9:32:39Z</time></trkpt>
<trkpt lat="49.160060882568" lon="2.6622769832611"><ele></ele><time>2022-6-8T9:32:42Z</time></trkpt>
<trkpt lat="49.160022735596" lon="2.6621696949005"><ele></ele><time>2022-6-8T9:32:45Z</time></trkpt>
<trkpt lat="49.159984588623" lon="2.6619913578033"><ele></ele><time>2022-6-8T9:32:48Z</time></trkpt>
<trkpt lat="49.159965515137" lon="2.6618647575378"><ele></ele><time>2022-6-8T9:32:51Z</time></trkpt>
<trkpt lat="49.159950256348" lon="2.6617405414581"><ele></ele><time>2022-6-8T9:32:54Z</time></trkpt>
<trkpt lat="49.159938812256" lon="2.6616547107697"><ele></ele><time>2022-6-8T9:32:57Z</time></trkpt>
<trkpt lat="49.159923553467" lon="2.6615598201752"><ele></ele><time>2022-6-8T9:33:0Z</time></trkpt>
<trkpt lat="49.159900665283" lon="2.6614675521851"><ele></ele><time>2022-6-8T9:33:3Z</time></trkpt>
<trkpt lat="49.1598777771" lon="2.6613624095917"><ele></ele><time>2022-6-8T9:33:6Z</time></trkpt>
<trkpt lat="49.159847259521" lon="2.6612567901611"><ele></ele><time>2022-6-8T9:33:9Z</time></trkpt>
<trkpt lat="49.159805297852" lon="2.6610758304596"><ele></ele><time>2022-6-8T9:33:12Z</time></trkpt>
<trkpt lat="49.159782409668" lon="2.6609663963318"><ele></ele><time>2022-6-8T9:33:15Z</time></trkpt>
<trkpt lat="49.159759521484" lon="2.6608719825745"><ele></ele><time>2022-6-8T9:33:18Z</time></trkpt>
<trkpt lat="49.159736633301" lon="2.6607599258423"><ele></ele><time>2022-6-8T9:33:21Z</time></trkpt>
<trkpt lat="49.159702301025" lon="2.6605839729309"><ele></ele><time>2022-6-8T9:33:24Z</time></trkpt>
<trkpt lat="49.159679412842" lon="2.6604762077332"><ele></ele><time>2022-6-8T9:33:27Z</time></trkpt>
<trkpt lat="49.159656524658" lon="2.6603598594666"><ele></ele><time>2022-6-8T9:33:30Z</time></trkpt>
<trkpt lat="49.159641265869" lon="2.6602487564087"><ele></ele><time>2022-6-8T9:33:33Z</time></trkpt>
<trkpt lat="49.159614562988" lon="2.6601364612579"><ele></ele><time>2022-6-8T9:33:36Z</time></trkpt>
<trkpt lat="49.159580230713" lon="2.6600036621094"><ele></ele><time>2022-6-8T9:33:39Z</time></trkpt>
<trkpt lat="49.159549713135" lon="2.6598770618439"><ele></ele><time>2022-6-8T9:33:42Z</time></trkpt>
<trkpt lat="49.159519195557" lon="2.6597337722778"><ele></ele><time>2022-6-8T9:33:45Z</time></trkpt>
<trkpt lat="49.159496307373" lon="2.6596448421478"><ele></ele><time>2022-6-8T9:33:48Z</time></trkpt>
<trkpt lat="49.159469604492" lon="2.6595327854156"><ele></ele><time>2022-6-8T9:33:51Z</time></trkpt>
<trkpt lat="49.159446716309" lon="2.6594190597534"><ele></ele><time>2022-6-8T9:33:54Z</time></trkpt>
<trkpt lat="49.159423828125" lon="2.6593291759491"><ele></ele><time>2022-6-8T9:33:57Z</time></trkpt>
<trkpt lat="49.15938949585" lon="2.6592192649841"><ele></ele><time>2022-6-8T9:34:0Z</time></trkpt>
<trkpt lat="49.159358978271" lon="2.659087896347"><ele></ele><time>2022-6-8T9:34:3Z</time></trkpt>
<trkpt lat="49.159328460693" lon="2.6589787006378"><ele></ele><time>2022-6-8T9:34:6Z</time></trkpt>
<trkpt lat="49.159301757812" lon="2.6588625907898"><ele></ele><time>2022-6-8T9:34:9Z</time></trkpt>
<trkpt lat="49.159278869629" lon="2.6587426662445"><ele></ele><time>2022-6-8T9:34:12Z</time></trkpt>
<trkpt lat="49.159244537354" lon="2.6586146354675"><ele></ele><time>2022-6-8T9:34:15Z</time></trkpt>
<trkpt lat="49.159217834473" lon="2.658492565155"><ele></ele><time>2022-6-8T9:34:18Z</time></trkpt>
<trkpt lat="49.159202575684" lon="2.6584033966064"><ele></ele><time>2022-6-8T9:34:21Z</time></trkpt>
<trkpt lat="49.159175872803" lon="2.6583137512207"><ele></ele><time>2022-6-8T9:34:24Z</time></trkpt>
<trkpt lat="49.159152984619" lon="2.6581959724426"><ele></ele><time>2022-6-8T9:34:27Z</time></trkpt>
<trkpt lat="49.159130096436" lon="2.6580605506897"><ele></ele><time>2022-6-8T9:34:30Z</time></trkpt>
<trkpt lat="49.159103393555" lon="2.6579527854919"><ele></ele><time>2022-6-8T9:34:33Z</time></trkpt>
<trkpt lat="49.159080505371" lon="2.6578559875488"><ele></ele><time>2022-6-8T9:34:36Z</time></trkpt>
<trkpt lat="49.159080505371" lon="2.6578559875488"><ele></ele><time>2022-6-8T9:34:39Z</time></trkpt>
<trkpt lat="49.159038543701" lon="2.6577024459839"><ele></ele><time>2022-6-8T9:34:42Z</time></trkpt>
<trkpt lat="49.15901184082" lon="2.6576137542725"><ele></ele><time>2022-6-8T9:34:45Z</time></trkpt>
<trkpt lat="49.15901184082" lon="2.6576137542725"><ele></ele><time>2022-6-8T9:34:48Z</time></trkpt>
<trkpt lat="49.158985137939" lon="2.6574718952179"><ele></ele><time>2022-6-8T9:34:51Z</time></trkpt>
<trkpt lat="49.158985137939" lon="2.6574718952179"><ele></ele><time>2022-6-8T9:34:54Z</time></trkpt>
<trkpt lat="49.158962249756" lon="2.657345533371"><ele></ele><time>2022-6-8T9:34:57Z</time></trkpt>
<trkpt lat="49.158962249756" lon="2.657345533371"><ele></ele><time>2022-6-8T9:35:0Z</time></trkpt>
<trkpt lat="49.158939361572" lon="2.6571764945984"><ele></ele><time>2022-6-8T9:35:3Z</time></trkpt>
<trkpt lat="49.158939361572" lon="2.6571764945984"><ele></ele><time>2022-6-8T9:35:6Z</time></trkpt>
<trkpt lat="49.158924102783" lon="2.6570258140564"><ele></ele><time>2022-6-8T9:35:9Z</time></trkpt>
<trkpt lat="49.158924102783" lon="2.6570258140564"><ele></ele><time>2022-6-8T9:35:12Z</time></trkpt>
<trkpt lat="49.158897399902" lon="2.6568851470947"><ele></ele><time>2022-6-8T9:35:15Z</time></trkpt>
<trkpt lat="49.158878326416" lon="2.6568007469177"><ele></ele><time>2022-6-8T9:35:18Z</time></trkpt>
<trkpt lat="49.158855438232" lon="2.6567025184631"><ele></ele><time>2022-6-8T9:35:21Z</time></trkpt>
<trkpt lat="49.158836364746" lon="2.6566152572632"><ele></ele><time>2022-6-8T9:35:24Z</time></trkpt>
<trkpt lat="49.158802032471" lon="2.6564526557922"><ele></ele><time>2022-6-8T9:35:27Z</time></trkpt>
<trkpt lat="49.158802032471" lon="2.6564526557922"><ele></ele><time>2022-6-8T9:35:30Z</time></trkpt>
<trkpt lat="49.158756256104" lon="2.6562955379486"><ele></ele><time>2022-6-8T9:35:33Z</time></trkpt>
<trkpt lat="49.15873336792" lon="2.6562101840973"><ele></ele><time>2022-6-8T9:35:36Z</time></trkpt>
<trkpt lat="49.15873336792" lon="2.6562101840973"><ele></ele><time>2022-6-8T9:35:39Z</time></trkpt>
<trkpt lat="49.158706665039" lon="2.6560900211334"><ele></ele><time>2022-6-8T9:35:42Z</time></trkpt>
<trkpt lat="49.158706665039" lon="2.6560900211334"><ele></ele><time>2022-6-8T9:35:45Z</time></trkpt>
<trkpt lat="49.158668518066" lon="2.6559574604034"><ele></ele><time>2022-6-8T9:35:48Z</time></trkpt>
<trkpt lat="49.158668518066" lon="2.6559574604034"><ele></ele><time>2022-6-8T9:35:51Z</time></trkpt>
<trkpt lat="49.158626556396" lon="2.6558225154877"><ele></ele><time>2022-6-8T9:35:54Z</time></trkpt>
<trkpt lat="49.158592224121" lon="2.6556942462921"><ele></ele><time>2022-6-8T9:35:57Z</time></trkpt>
<trkpt lat="49.158557891846" lon="2.6555416584015"><ele></ele><time>2022-6-8T9:36:0Z</time></trkpt>
<trkpt lat="49.158538818359" lon="2.6554527282715"><ele></ele><time>2022-6-8T9:36:3Z</time></trkpt>
<trkpt lat="49.158512115479" lon="2.655314207077"><ele></ele><time>2022-6-8T9:36:6Z</time></trkpt>
<trkpt lat="49.158512115479" lon="2.655314207077"><ele></ele><time>2022-6-8T9:36:9Z</time></trkpt>
<trkpt lat="49.158493041992" lon="2.6551692485809"><ele></ele><time>2022-6-8T9:36:12Z</time></trkpt>
<trkpt lat="49.158493041992" lon="2.6551692485809"><ele></ele><time>2022-6-8T9:36:15Z</time></trkpt>
<trkpt lat="49.158470153809" lon="2.6550340652466"><ele></ele><time>2022-6-8T9:36:18Z</time></trkpt>
<trkpt lat="49.158470153809" lon="2.6550340652466"><ele></ele><time>2022-6-8T9:36:21Z</time></trkpt>
<trkpt lat="49.15845489502" lon="2.6549229621887"><ele></ele><time>2022-6-8T9:36:24Z</time></trkpt>
<trkpt lat="49.15845489502" lon="2.6549229621887"><ele></ele><time>2022-6-8T9:36:27Z</time></trkpt>
<trkpt lat="49.158435821533" lon="2.654812335968"><ele></ele><time>2022-6-8T9:36:30Z</time></trkpt>
<trkpt lat="49.158401489258" lon="2.6546549797058"><ele></ele><time>2022-6-8T9:36:33Z</time></trkpt>
<trkpt lat="49.158374786377" lon="2.6545214653015"><ele></ele><time>2022-6-8T9:36:36Z</time></trkpt>
<trkpt lat="49.158374786377" lon="2.6545214653015"><ele></ele><time>2022-6-8T9:36:39Z</time></trkpt>
<trkpt lat="49.158340454102" lon="2.6543662548065"><ele></ele><time>2022-6-8T9:36:42Z</time></trkpt>
<trkpt lat="49.158321380615" lon="2.6542689800262"><ele></ele><time>2022-6-8T9:36:45Z</time></trkpt>
<trkpt lat="49.158294677734" lon="2.6541223526001"><ele></ele><time>2022-6-8T9:36:48Z</time></trkpt>
<trkpt lat="49.158260345459" lon="2.653960943222"><ele></ele><time>2022-6-8T9:36:51Z</time></trkpt>
<trkpt lat="49.158229827881" lon="2.6537880897522"><ele></ele><time>2022-6-8T9:36:54Z</time></trkpt>
<trkpt lat="49.158229827881" lon="2.6537880897522"><ele></ele><time>2022-6-8T9:36:57Z</time></trkpt>
<trkpt lat="49.158218383789" lon="2.653703212738"><ele></ele><time>2022-6-8T9:37:0Z</time></trkpt>
<trkpt lat="49.158199310303" lon="2.6536183357239"><ele></ele><time>2022-6-8T9:37:3Z</time></trkpt>
<trkpt lat="49.158184051514" lon="2.6535444259644"><ele></ele><time>2022-6-8T9:37:6Z</time></trkpt>
<trkpt lat="49.158168792725" lon="2.6534724235535"><ele></ele><time>2022-6-8T9:37:9Z</time></trkpt>
<trkpt lat="49.158149719238" lon="2.6533920764923"><ele></ele><time>2022-6-8T9:37:12Z</time></trkpt>
<trkpt lat="49.15811920166" lon="2.6532435417175"><ele></ele><time>2022-6-8T9:37:15Z</time></trkpt>
<trkpt lat="49.15811920166" lon="2.6532435417175"><ele></ele><time>2022-6-8T9:37:18Z</time></trkpt>
<trkpt lat="49.158092498779" lon="2.6531007289886"><ele></ele><time>2022-6-8T9:37:21Z</time></trkpt>
<trkpt lat="49.158092498779" lon="2.6531007289886"><ele></ele><time>2022-6-8T9:37:24Z</time></trkpt>
<trkpt lat="49.158065795898" lon="2.6529326438904"><ele></ele><time>2022-6-8T9:37:27Z</time></trkpt>
<trkpt lat="49.158046722412" lon="2.6528446674347"><ele></ele><time>2022-6-8T9:37:30Z</time></trkpt>
<trkpt lat="49.158023834229" lon="2.6527574062347"><ele></ele><time>2022-6-8T9:37:33Z</time></trkpt>
<trkpt lat="49.157997131348" lon="2.6526641845703"><ele></ele><time>2022-6-8T9:37:36Z</time></trkpt>
<trkpt lat="49.157978057861" lon="2.652578830719"><ele></ele><time>2022-6-8T9:37:39Z</time></trkpt>
<trkpt lat="49.15795135498" lon="2.6524229049683"><ele></ele><time>2022-6-8T9:37:42Z</time></trkpt>
<trkpt lat="49.157928466797" lon="2.6523284912109"><ele></ele><time>2022-6-8T9:37:45Z</time></trkpt>
<trkpt lat="49.157901763916" lon="2.652245759964"><ele></ele><time>2022-6-8T9:37:48Z</time></trkpt>
<trkpt lat="49.15784072876" lon="2.6520965099335"><ele></ele><time>2022-6-8T9:37:51Z</time></trkpt>
<trkpt lat="49.157806396484" lon="2.6520004272461"><ele></ele><time>2022-6-8T9:37:54Z</time></trkpt>
<trkpt lat="49.157779693604" lon="2.6518950462341"><ele></ele><time>2022-6-8T9:37:57Z</time></trkpt>
<trkpt lat="49.157760620117" lon="2.6517899036407"><ele></ele><time>2022-6-8T9:38:0Z</time></trkpt>
<trkpt lat="49.157741546631" lon="2.6517016887665"><ele></ele><time>2022-6-8T9:38:3Z</time></trkpt>
<trkpt lat="49.157695770264" lon="2.6515498161316"><ele></ele><time>2022-6-8T9:38:6Z</time></trkpt>
<trkpt lat="49.15767288208" lon="2.6514539718628"><ele></ele><time>2022-6-8T9:38:9Z</time></trkpt>
<trkpt lat="49.157649993896" lon="2.6513364315033"><ele></ele><time>2022-6-8T9:38:12Z</time></trkpt>
<trkpt lat="49.157627105713" lon="2.6512274742126"><ele></ele><time>2022-6-8T9:38:15Z</time></trkpt>
<trkpt lat="49.157604217529" lon="2.651127576828"><ele></ele><time>2022-6-8T9:38:18Z</time></trkpt>
<trkpt lat="49.157581329346" lon="2.651006937027"><ele></ele><time>2022-6-8T9:38:21Z</time></trkpt>
<trkpt lat="49.157562255859" lon="2.6508958339691"><ele></ele><time>2022-6-8T9:38:24Z</time></trkpt>
<trkpt lat="49.157562255859" lon="2.6508958339691"><ele></ele><time>2022-6-8T9:38:27Z</time></trkpt>
<trkpt lat="49.157531738281" lon="2.6507322788239"><ele></ele><time>2022-6-8T9:38:30Z</time></trkpt>
<trkpt lat="49.157531738281" lon="2.6507322788239"><ele></ele><time>2022-6-8T9:38:33Z</time></trkpt>
<trkpt lat="49.157531738281" lon="2.6507322788239"><ele></ele><time>2022-6-8T9:38:36Z</time></trkpt>
<trkpt lat="49.157531738281" lon="2.6507322788239"><ele></ele><time>2022-6-8T9:38:39Z</time></trkpt>
<trkpt lat="49.157531738281" lon="2.6507322788239"><ele></ele><time>2022-6-8T9:38:42Z</time></trkpt>
<trkpt lat="49.157531738281" lon="2.6507322788239"><ele></ele><time>2022-6-8T9:38:45Z</time></trkpt>
<trkpt lat="49.157447814941" lon="2.650461435318"><ele></ele><time>2022-6-8T9:38:48Z</time></trkpt>
<trkpt lat="49.157428741455" lon="2.650374174118"><ele></ele><time>2022-6-8T9:38:51Z</time></trkpt>
<trkpt lat="49.157413482666" lon="2.6502280235291"><ele></ele><time>2022-6-8T9:38:54Z</time></trkpt>
<trkpt lat="49.157386779785" lon="2.6500978469849"><ele></ele><time>2022-6-8T9:38:57Z</time></trkpt>
<trkpt lat="49.157344818115" lon="2.6499779224396"><ele></ele><time>2022-6-8T9:39:0Z</time></trkpt>
<trkpt lat="49.157306671143" lon="2.6498725414276"><ele></ele><time>2022-6-8T9:39:3Z</time></trkpt>
<trkpt lat="49.157272338867" lon="2.6497745513916"><ele></ele><time>2022-6-8T9:39:6Z</time></trkpt>
<trkpt lat="49.157241821289" lon="2.6496458053589"><ele></ele><time>2022-6-8T9:39:9Z</time></trkpt>
<trkpt lat="49.157211303711" lon="2.6494896411896"><ele></ele><time>2022-6-8T9:39:12Z</time></trkpt>
<trkpt lat="49.157192230225" lon="2.6493556499481"><ele></ele><time>2022-6-8T9:39:15Z</time></trkpt>
<trkpt lat="49.157176971436" lon="2.649245262146"><ele></ele><time>2022-6-8T9:39:18Z</time></trkpt>
<trkpt lat="49.157154083252" lon="2.6491215229034"><ele></ele><time>2022-6-8T9:39:21Z</time></trkpt>
<trkpt lat="49.157131195068" lon="2.6489822864532"><ele></ele><time>2022-6-8T9:39:24Z</time></trkpt>
<trkpt lat="49.15710067749" lon="2.6488478183746"><ele></ele><time>2022-6-8T9:39:27Z</time></trkpt>
<trkpt lat="49.157077789307" lon="2.6487474441528"><ele></ele><time>2022-6-8T9:39:30Z</time></trkpt>
<trkpt lat="49.15705871582" lon="2.6486423015594"><ele></ele><time>2022-6-8T9:39:33Z</time></trkpt>
<trkpt lat="49.157047271729" lon="2.6485311985016"><ele></ele><time>2022-6-8T9:39:36Z</time></trkpt>
<trkpt lat="49.157028198242" lon="2.6484310626984"><ele></ele><time>2022-6-8T9:39:39Z</time></trkpt>
<trkpt lat="49.157009124756" lon="2.6483452320099"><ele></ele><time>2022-6-8T9:39:42Z</time></trkpt>
<trkpt lat="49.156993865967" lon="2.6482310295105"><ele></ele><time>2022-6-8T9:39:45Z</time></trkpt>
<trkpt lat="49.15697479248" lon="2.6481325626373"><ele></ele><time>2022-6-8T9:39:48Z</time></trkpt>
<trkpt lat="49.15697479248" lon="2.6481325626373"><ele></ele><time>2022-6-8T9:39:51Z</time></trkpt>
<trkpt lat="49.156944274902" lon="2.6479828357697"><ele></ele><time>2022-6-8T9:39:54Z</time></trkpt>
<trkpt lat="49.156944274902" lon="2.6479828357697"><ele></ele><time>2022-6-8T9:39:57Z</time></trkpt>
<trkpt lat="49.156894683838" lon="2.6478340625763"><ele></ele><time>2022-6-8T9:40:0Z</time></trkpt>
<trkpt lat="49.156894683838" lon="2.6478340625763"><ele></ele><time>2022-6-8T9:40:3Z</time></trkpt>
<trkpt lat="49.156852722168" lon="2.6477339267731"><ele></ele><time>2022-6-8T9:40:6Z</time></trkpt>
<trkpt lat="49.156852722168" lon="2.6477339267731"><ele></ele><time>2022-6-8T9:40:9Z</time></trkpt>
<trkpt lat="49.156852722168" lon="2.6477339267731"><ele></ele><time>2022-6-8T9:40:12Z</time></trkpt>
<trkpt lat="49.156852722168" lon="2.6477339267731"><ele></ele><time>2022-6-8T9:40:15Z</time></trkpt>
<trkpt lat="49.156852722168" lon="2.6477339267731"><ele></ele><time>2022-6-8T9:40:18Z</time></trkpt>
<trkpt lat="49.156883239746" lon="2.6475796699524"><ele></ele><time>2022-6-8T9:40:21Z</time></trkpt>
<trkpt lat="49.156883239746" lon="2.6475796699524"><ele></ele><time>2022-6-8T9:40:24Z</time></trkpt>
<trkpt lat="49.156852722168" lon="2.6474869251251"><ele></ele><time>2022-6-8T9:40:27Z</time></trkpt>
<trkpt lat="49.156799316406" lon="2.6473567485809"><ele></ele><time>2022-6-8T9:40:30Z</time></trkpt>
<trkpt lat="49.156772613525" lon="2.6472325325012"><ele></ele><time>2022-6-8T9:40:33Z</time></trkpt>
<trkpt lat="49.156761169434" lon="2.647111415863"><ele></ele><time>2022-6-8T9:40:36Z</time></trkpt>
<trkpt lat="49.156761169434" lon="2.647111415863"><ele></ele><time>2022-6-8T9:40:39Z</time></trkpt>
<trkpt lat="49.156734466553" lon="2.6469850540161"><ele></ele><time>2022-6-8T9:40:42Z</time></trkpt>
<trkpt lat="49.156734466553" lon="2.6469850540161"><ele></ele><time>2022-6-8T9:40:45Z</time></trkpt>
<trkpt lat="49.156700134277" lon="2.6468162536621"><ele></ele><time>2022-6-8T9:40:48Z</time></trkpt>
<trkpt lat="49.156673431396" lon="2.6467137336731"><ele></ele><time>2022-6-8T9:40:51Z</time></trkpt>
<trkpt lat="49.156650543213" lon="2.6466267108917"><ele></ele><time>2022-6-8T9:40:54Z</time></trkpt>
<trkpt lat="49.156623840332" lon="2.646538734436"><ele></ele><time>2022-6-8T9:40:57Z</time></trkpt>
<trkpt lat="49.156574249268" lon="2.6464061737061"><ele></ele><time>2022-6-8T9:41:0Z</time></trkpt>
<trkpt lat="49.156532287598" lon="2.6462812423706"><ele></ele><time>2022-6-8T9:41:3Z</time></trkpt>
<trkpt lat="49.156490325928" lon="2.6461308002472"><ele></ele><time>2022-6-8T9:41:6Z</time></trkpt>
<trkpt lat="49.15645980835" lon="2.6459939479828"><ele></ele><time>2022-6-8T9:41:9Z</time></trkpt>
<trkpt lat="49.156448364258" lon="2.64590883255"><ele></ele><time>2022-6-8T9:41:12Z</time></trkpt>
<trkpt lat="49.156436920166" lon="2.6458220481873"><ele></ele><time>2022-6-8T9:41:15Z</time></trkpt>
<trkpt lat="49.156436920166" lon="2.6458220481873"><ele></ele><time>2022-6-8T9:41:18Z</time></trkpt>
<trkpt lat="49.15641784668" lon="2.6456692218781"><ele></ele><time>2022-6-8T9:41:21Z</time></trkpt>
<trkpt lat="49.15641784668" lon="2.6456692218781"><ele></ele><time>2022-6-8T9:41:24Z</time></trkpt>
<trkpt lat="49.15641784668" lon="2.6456692218781"><ele></ele><time>2022-6-8T9:41:27Z</time></trkpt>
<trkpt lat="49.156394958496" lon="2.6455669403076"><ele></ele><time>2022-6-8T9:41:30Z</time></trkpt>
<trkpt lat="49.156364440918" lon="2.6454367637634"><ele></ele><time>2022-6-8T9:41:33Z</time></trkpt>
<trkpt lat="49.156364440918" lon="2.6454367637634"><ele></ele><time>2022-6-8T9:41:36Z</time></trkpt>
<trkpt lat="49.156345367432" lon="2.6453275680542"><ele></ele><time>2022-6-8T9:41:39Z</time></trkpt>
<trkpt lat="49.156345367432" lon="2.6453275680542"><ele></ele><time>2022-6-8T9:41:42Z</time></trkpt>
<trkpt lat="49.156326293945" lon="2.6452357769012"><ele></ele><time>2022-6-8T9:41:45Z</time></trkpt>
<trkpt lat="49.156326293945" lon="2.6452357769012"><ele></ele><time>2022-6-8T9:41:48Z</time></trkpt>
<trkpt lat="49.156330108643" lon="2.6451344490051"><ele></ele><time>2022-6-8T9:41:51Z</time></trkpt>
<trkpt lat="49.156330108643" lon="2.6451344490051"><ele></ele><time>2022-6-8T9:41:54Z</time></trkpt>
<trkpt lat="49.156330108643" lon="2.6451344490051"><ele></ele><time>2022-6-8T9:41:57Z</time></trkpt>
<trkpt lat="49.156307220459" lon="2.6450302600861"><ele></ele><time>2022-6-8T9:42:0Z</time></trkpt>
<trkpt lat="49.156307220459" lon="2.6450302600861"><ele></ele><time>2022-6-8T9:42:3Z</time></trkpt>
<trkpt lat="49.156307220459" lon="2.6450302600861"><ele></ele><time>2022-6-8T9:42:6Z</time></trkpt>
<trkpt lat="49.156307220459" lon="2.6450302600861"><ele></ele><time>2022-6-8T9:42:9Z</time></trkpt>
<trkpt lat="49.156276702881" lon="2.6449539661407"><ele></ele><time>2022-6-8T9:42:12Z</time></trkpt>
<trkpt lat="49.156276702881" lon="2.6449539661407"><ele></ele><time>2022-6-8T9:42:15Z</time></trkpt>
<trkpt lat="49.156257629395" lon="2.6448633670807"><ele></ele><time>2022-6-8T9:42:18Z</time></trkpt>
<trkpt lat="49.156257629395" lon="2.6448633670807"><ele></ele><time>2022-6-8T9:42:21Z</time></trkpt>
<trkpt lat="49.156257629395" lon="2.6448633670807"><ele></ele><time>2022-6-8T9:42:24Z</time></trkpt>
<trkpt lat="49.156230926514" lon="2.6447610855103"><ele></ele><time>2022-6-8T9:42:27Z</time></trkpt>
<trkpt lat="49.156230926514" lon="2.6447610855103"><ele></ele><time>2022-6-8T9:42:30Z</time></trkpt>
<trkpt lat="49.156230926514" lon="2.6447610855103"><ele></ele><time>2022-6-8T9:42:33Z</time></trkpt>
<trkpt lat="49.156188964844" lon="2.6446533203125"><ele></ele><time>2022-6-8T9:42:36Z</time></trkpt>
<trkpt lat="49.156188964844" lon="2.6446533203125"><ele></ele><time>2022-6-8T9:42:39Z</time></trkpt>
<trkpt lat="49.156177520752" lon="2.6446084976196"><ele></ele><time>2022-6-8T9:42:42Z</time></trkpt>
<trkpt lat="49.156169891357" lon="2.6445610523224"><ele></ele><time>2022-6-8T9:42:45Z</time></trkpt>
<trkpt lat="49.156162261963" lon="2.6445188522339"><ele></ele><time>2022-6-8T9:42:48Z</time></trkpt>
<trkpt lat="49.156154632568" lon="2.6444714069366"><ele></ele><time>2022-6-8T9:42:51Z</time></trkpt>
<trkpt lat="49.156143188477" lon="2.6444230079651"><ele></ele><time>2022-6-8T9:42:54Z</time></trkpt>
<trkpt lat="49.156127929688" lon="2.6443314552307"><ele></ele><time>2022-6-8T9:42:57Z</time></trkpt>
<trkpt lat="49.156097412109" lon="2.644229888916"><ele></ele><time>2022-6-8T9:43:0Z</time></trkpt>
<trkpt lat="49.156059265137" lon="2.6441178321838"><ele></ele><time>2022-6-8T9:43:3Z</time></trkpt>
<trkpt lat="49.156044006348" lon="2.6440222263336"><ele></ele><time>2022-6-8T9:43:6Z</time></trkpt>
<trkpt lat="49.156024932861" lon="2.6439335346222"><ele></ele><time>2022-6-8T9:43:9Z</time></trkpt>
<trkpt lat="49.156002044678" lon="2.6438429355621"><ele></ele><time>2022-6-8T9:43:12Z</time></trkpt>
<trkpt lat="49.155982971191" lon="2.6437311172485"><ele></ele><time>2022-6-8T9:43:15Z</time></trkpt>
<trkpt lat="49.155960083008" lon="2.6436131000519"><ele></ele><time>2022-6-8T9:43:18Z</time></trkpt>
<trkpt lat="49.15592956543" lon="2.6434988975525"><ele></ele><time>2022-6-8T9:43:21Z</time></trkpt>
<trkpt lat="49.15588760376" lon="2.6434092521667"><ele></ele><time>2022-6-8T9:43:24Z</time></trkpt>
<trkpt lat="49.155849456787" lon="2.6433215141296"><ele></ele><time>2022-6-8T9:43:27Z</time></trkpt>
<trkpt lat="49.155792236328" lon="2.6431920528412"><ele></ele><time>2022-6-8T9:43:30Z</time></trkpt>
<trkpt lat="49.155792236328" lon="2.6431920528412"><ele></ele><time>2022-6-8T9:43:33Z</time></trkpt>
<trkpt lat="49.155735015869" lon="2.6431024074554"><ele></ele><time>2022-6-8T9:43:36Z</time></trkpt>
<trkpt lat="49.155735015869" lon="2.6431024074554"><ele></ele><time>2022-6-8T9:43:39Z</time></trkpt>
<trkpt lat="49.155735015869" lon="2.6431024074554"><ele></ele><time>2022-6-8T9:43:42Z</time></trkpt>
<trkpt lat="49.155681610107" lon="2.6429753303528"><ele></ele><time>2022-6-8T9:43:45Z</time></trkpt>
<trkpt lat="49.155681610107" lon="2.6429753303528"><ele></ele><time>2022-6-8T9:43:48Z</time></trkpt>
<trkpt lat="49.15563583374" lon="2.6428620815277"><ele></ele><time>2022-6-8T9:43:51Z</time></trkpt>
<trkpt lat="49.15563583374" lon="2.6428620815277"><ele></ele><time>2022-6-8T9:43:54Z</time></trkpt>
<trkpt lat="49.155601501465" lon="2.642778635025"><ele></ele><time>2022-6-8T9:43:57Z</time></trkpt>
<trkpt lat="49.155601501465" lon="2.642778635025"><ele></ele><time>2022-6-8T9:44:0Z</time></trkpt>
<trkpt lat="49.155555725098" lon="2.6426758766174"><ele></ele><time>2022-6-8T9:44:3Z</time></trkpt>
<trkpt lat="49.155555725098" lon="2.6426758766174"><ele></ele><time>2022-6-8T9:44:6Z</time></trkpt>
<trkpt lat="49.155502319336" lon="2.6425850391388"><ele></ele><time>2022-6-8T9:44:9Z</time></trkpt>
<trkpt lat="49.155502319336" lon="2.6425850391388"><ele></ele><time>2022-6-8T9:44:12Z</time></trkpt>
<trkpt lat="49.155437469482" lon="2.6424763202667"><ele></ele><time>2022-6-8T9:44:15Z</time></trkpt>
<trkpt lat="49.155437469482" lon="2.6424763202667"><ele></ele><time>2022-6-8T9:44:18Z</time></trkpt>
<trkpt lat="49.155437469482" lon="2.6424763202667"><ele></ele><time>2022-6-8T9:44:21Z</time></trkpt>
<trkpt lat="49.155376434326" lon="2.6423902511597"><ele></ele><time>2022-6-8T9:44:24Z</time></trkpt>
<trkpt lat="49.155376434326" lon="2.6423902511597"><ele></ele><time>2022-6-8T9:44:27Z</time></trkpt>
<trkpt lat="49.15531539917" lon="2.6422762870789"><ele></ele><time>2022-6-8T9:44:30Z</time></trkpt>
<trkpt lat="49.155258178711" lon="2.6421566009521"><ele></ele><time>2022-6-8T9:44:33Z</time></trkpt>
<trkpt lat="49.155216217041" lon="2.6420781612396"><ele></ele><time>2022-6-8T9:44:36Z</time></trkpt>
<trkpt lat="49.155155181885" lon="2.6419630050659"><ele></ele><time>2022-6-8T9:44:39Z</time></trkpt>
<trkpt lat="49.155109405518" lon="2.6418650150299"><ele></ele><time>2022-6-8T9:44:42Z</time></trkpt>
<trkpt lat="49.155044555664" lon="2.6417324542999"><ele></ele><time>2022-6-8T9:44:45Z</time></trkpt>
<trkpt lat="49.154991149902" lon="2.641619682312"><ele></ele><time>2022-6-8T9:44:48Z</time></trkpt>
<trkpt lat="49.15495300293" lon="2.6415514945984"><ele></ele><time>2022-6-8T9:44:51Z</time></trkpt>
<trkpt lat="49.154907226562" lon="2.6414639949799"><ele></ele><time>2022-6-8T9:44:54Z</time></trkpt>
<trkpt lat="49.154865264893" lon="2.6413948535919"><ele></ele><time>2022-6-8T9:44:57Z</time></trkpt>
<trkpt lat="49.154819488525" lon="2.6413235664368"><ele></ele><time>2022-6-8T9:45:0Z</time></trkpt>
<trkpt lat="49.154762268066" lon="2.6412148475647"><ele></ele><time>2022-6-8T9:45:3Z</time></trkpt>
<trkpt lat="49.154689788818" lon="2.6410737037659"><ele></ele><time>2022-6-8T9:45:6Z</time></trkpt>
<trkpt lat="49.154640197754" lon="2.6409907341003"><ele></ele><time>2022-6-8T9:45:9Z</time></trkpt>
<trkpt lat="49.154590606689" lon="2.6408958435059"><ele></ele><time>2022-6-8T9:45:12Z</time></trkpt>
<trkpt lat="49.154552459717" lon="2.6408188343048"><ele></ele><time>2022-6-8T9:45:15Z</time></trkpt>
<trkpt lat="49.154521942139" lon="2.6407389640808"><ele></ele><time>2022-6-8T9:45:18Z</time></trkpt>
<trkpt lat="49.154487609863" lon="2.6406638622284"><ele></ele><time>2022-6-8T9:45:21Z</time></trkpt>
<trkpt lat="49.154445648193" lon="2.6405761241913"><ele></ele><time>2022-6-8T9:45:24Z</time></trkpt>
<trkpt lat="49.154445648193" lon="2.6405761241913"><ele></ele><time>2022-6-8T9:45:27Z</time></trkpt>
<trkpt lat="49.15438079834" lon="2.6404590606689"><ele></ele><time>2022-6-8T9:45:30Z</time></trkpt>
<trkpt lat="49.15438079834" lon="2.6404590606689"><ele></ele><time>2022-6-8T9:45:33Z</time></trkpt>
<trkpt lat="49.154312133789" lon="2.6403369903564"><ele></ele><time>2022-6-8T9:45:36Z</time></trkpt>
<trkpt lat="49.154312133789" lon="2.6403369903564"><ele></ele><time>2022-6-8T9:45:39Z</time></trkpt>
<trkpt lat="49.154258728027" lon="2.64018034935"><ele></ele><time>2022-6-8T9:45:42Z</time></trkpt>
<trkpt lat="49.154258728027" lon="2.64018034935"><ele></ele><time>2022-6-8T9:45:45Z</time></trkpt>
<trkpt lat="49.154190063477" lon="2.6400227546692"><ele></ele><time>2022-6-8T9:45:48Z</time></trkpt>
<trkpt lat="49.154136657715" lon="2.6399567127228"><ele></ele><time>2022-6-8T9:45:51Z</time></trkpt>
<trkpt lat="49.154075622559" lon="2.6398696899414"><ele></ele><time>2022-6-8T9:45:54Z</time></trkpt>
<trkpt lat="49.1540184021" lon="2.6397659778595"><ele></ele><time>2022-6-8T9:45:57Z</time></trkpt>
<trkpt lat="49.153968811035" lon="2.639655828476"><ele></ele><time>2022-6-8T9:46:0Z</time></trkpt>
<trkpt lat="49.153919219971" lon="2.6395545005798"><ele></ele><time>2022-6-8T9:46:3Z</time></trkpt>
<trkpt lat="49.153869628906" lon="2.6394474506378"><ele></ele><time>2022-6-8T9:46:6Z</time></trkpt>
<trkpt lat="49.153820037842" lon="2.639347076416"><ele></ele><time>2022-6-8T9:46:9Z</time></trkpt>
<trkpt lat="49.153751373291" lon="2.639217376709"><ele></ele><time>2022-6-8T9:46:12Z</time></trkpt>
<trkpt lat="49.153678894043" lon="2.6390657424927"><ele></ele><time>2022-6-8T9:46:15Z</time></trkpt>
<trkpt lat="49.153610229492" lon="2.6389276981354"><ele></ele><time>2022-6-8T9:46:18Z</time></trkpt>
<trkpt lat="49.153545379639" lon="2.6388113498688"><ele></ele><time>2022-6-8T9:46:21Z</time></trkpt>
<trkpt lat="49.153503417969" lon="2.6387178897858"><ele></ele><time>2022-6-8T9:46:24Z</time></trkpt>
<trkpt lat="49.15344619751" lon="2.6386096477509"><ele></ele><time>2022-6-8T9:46:27Z</time></trkpt>
<trkpt lat="49.153388977051" lon="2.638580083847"><ele></ele><time>2022-6-8T9:46:30Z</time></trkpt>
<trkpt lat="49.153388977051" lon="2.638580083847"><ele></ele><time>2022-6-8T9:46:33Z</time></trkpt>
<trkpt lat="49.153266906738" lon="2.6385917663574"><ele></ele><time>2022-6-8T9:46:36Z</time></trkpt>
<trkpt lat="49.153190612793" lon="2.6386251449585"><ele></ele><time>2022-6-8T9:46:39Z</time></trkpt>
<trkpt lat="49.153137207031" lon="2.6386587619781"><ele></ele><time>2022-6-8T9:46:42Z</time></trkpt>
<trkpt lat="49.153137207031" lon="2.6386587619781"><ele></ele><time>2022-6-8T9:46:45Z</time></trkpt>
<trkpt lat="49.153137207031" lon="2.6386587619781"><ele></ele><time>2022-6-8T9:46:48Z</time></trkpt>
<trkpt lat="49.153137207031" lon="2.6386587619781"><ele></ele><time>2022-6-8T9:46:51Z</time></trkpt>
<trkpt lat="49.153137207031" lon="2.6386587619781"><ele></ele><time>2022-6-8T9:46:54Z</time></trkpt>
<trkpt lat="49.153137207031" lon="2.6386587619781"><ele></ele><time>2022-6-8T9:46:57Z</time></trkpt>
<trkpt lat="49.153137207031" lon="2.6386587619781"><ele></ele><time>2022-6-8T9:47:0Z</time></trkpt>
<trkpt lat="49.153137207031" lon="2.6386587619781"><ele></ele><time>2022-6-8T9:47:3Z</time></trkpt>
<trkpt lat="49.153045654297" lon="2.6386611461639"><ele></ele><time>2022-6-8T9:47:6Z</time></trkpt>
<trkpt lat="49.152992248535" lon="2.6386880874634"><ele></ele><time>2022-6-8T9:47:9Z</time></trkpt>
<trkpt lat="49.152927398682" lon="2.6387133598328"><ele></ele><time>2022-6-8T9:47:12Z</time></trkpt>
<trkpt lat="49.152824401855" lon="2.6387670040131"><ele></ele><time>2022-6-8T9:47:15Z</time></trkpt>
<trkpt lat="49.152759552002" lon="2.6388003826141"><ele></ele><time>2022-6-8T9:47:18Z</time></trkpt>
<trkpt lat="49.152702331543" lon="2.6388294696808"><ele></ele><time>2022-6-8T9:47:21Z</time></trkpt>
<trkpt lat="49.152576446533" lon="2.6388831138611"><ele></ele><time>2022-6-8T9:47:24Z</time></trkpt>
<trkpt lat="49.152515411377" lon="2.6389145851135"><ele></ele><time>2022-6-8T9:47:27Z</time></trkpt>
<trkpt lat="49.152454376221" lon="2.6389417648315"><ele></ele><time>2022-6-8T9:47:30Z</time></trkpt>
<trkpt lat="49.152381896973" lon="2.6389656066895"><ele></ele><time>2022-6-8T9:47:33Z</time></trkpt>
<trkpt lat="49.152309417725" lon="2.6389904022217"><ele></ele><time>2022-6-8T9:47:36Z</time></trkpt>
<trkpt lat="49.152236938477" lon="2.6390171051025"><ele></ele><time>2022-6-8T9:47:39Z</time></trkpt>
<trkpt lat="49.152164459229" lon="2.6390473842621"><ele></ele><time>2022-6-8T9:47:42Z</time></trkpt>
<trkpt lat="49.152088165283" lon="2.6390790939331"><ele></ele><time>2022-6-8T9:47:45Z</time></trkpt>
<trkpt lat="49.152011871338" lon="2.6391131877899"><ele></ele><time>2022-6-8T9:47:48Z</time></trkpt>
<trkpt lat="49.151947021484" lon="2.6391417980194"><ele></ele><time>2022-6-8T9:47:51Z</time></trkpt>
<trkpt lat="49.151882171631" lon="2.6391627788544"><ele></ele><time>2022-6-8T9:47:54Z</time></trkpt>
<trkpt lat="49.151821136475" lon="2.6391837596893"><ele></ele><time>2022-6-8T9:47:57Z</time></trkpt>
<trkpt lat="49.151714324951" lon="2.6392431259155"><ele></ele><time>2022-6-8T9:48:0Z</time></trkpt>
<trkpt lat="49.151660919189" lon="2.6392798423767"><ele></ele><time>2022-6-8T9:48:3Z</time></trkpt>
<trkpt lat="49.151660919189" lon="2.6392798423767"><ele></ele><time>2022-6-8T9:48:6Z</time></trkpt>
<trkpt lat="49.151660919189" lon="2.6392798423767"><ele></ele><time>2022-6-8T9:48:9Z</time></trkpt>
<trkpt lat="49.151660919189" lon="2.6392798423767"><ele></ele><time>2022-6-8T9:48:12Z</time></trkpt>
<trkpt lat="49.151660919189" lon="2.6392798423767"><ele></ele><time>2022-6-8T9:48:15Z</time></trkpt>
<trkpt lat="49.151660919189" lon="2.6392798423767"><ele></ele><time>2022-6-8T9:48:18Z</time></trkpt>
<trkpt lat="49.151748657227" lon="2.6393377780914"><ele></ele><time>2022-6-8T9:48:21Z</time></trkpt>
<trkpt lat="49.151809692383" lon="2.639377117157"><ele></ele><time>2022-6-8T9:48:24Z</time></trkpt>
<trkpt lat="49.151809692383" lon="2.639377117157"><ele></ele><time>2022-6-8T9:48:27Z</time></trkpt>
<trkpt lat="49.151809692383" lon="2.639377117157"><ele></ele><time>2022-6-8T9:48:30Z</time></trkpt>
<trkpt lat="49.151794433594" lon="2.6393873691559"><ele></ele><time>2022-6-8T9:48:33Z</time></trkpt>
<trkpt lat="49.151794433594" lon="2.6393873691559"><ele></ele><time>2022-6-8T9:48:36Z</time></trkpt>
<trkpt lat="49.151794433594" lon="2.6393873691559"><ele></ele><time>2022-6-8T9:48:39Z</time></trkpt>
<trkpt lat="49.151794433594" lon="2.6393873691559"><ele></ele><time>2022-6-8T9:48:42Z</time></trkpt>
<trkpt lat="49.15177154541" lon="2.639301776886"><ele></ele><time>2022-6-8T9:48:45Z</time></trkpt>
<trkpt lat="49.15172958374" lon="2.6392292976379"><ele></ele><time>2022-6-8T9:48:48Z</time></trkpt>
<trkpt lat="49.151668548584" lon="2.6392271518707"><ele></ele><time>2022-6-8T9:48:51Z</time></trkpt>
<trkpt lat="49.151668548584" lon="2.6392271518707"><ele></ele><time>2022-6-8T9:48:54Z</time></trkpt>
<trkpt lat="49.151668548584" lon="2.6392271518707"><ele></ele><time>2022-6-8T9:48:57Z</time></trkpt>
<trkpt lat="49.151668548584" lon="2.6392271518707"><ele></ele><time>2022-6-8T9:49:0Z</time></trkpt>
<trkpt lat="49.151622772217" lon="2.6391723155975"><ele></ele><time>2022-6-8T9:49:3Z</time></trkpt>
<trkpt lat="49.151622772217" lon="2.6391723155975"><ele></ele><time>2022-6-8T9:49:6Z</time></trkpt>
<trkpt lat="49.151622772217" lon="2.6391723155975"><ele></ele><time>2022-6-8T9:49:9Z</time></trkpt>
<trkpt lat="49.15157699585" lon="2.6392183303833"><ele></ele><time>2022-6-8T9:49:12Z</time></trkpt>
<trkpt lat="49.15157699585" lon="2.6392183303833"><ele></ele><time>2022-6-8T9:49:15Z</time></trkpt>
<trkpt lat="49.151519775391" lon="2.6391649246216"><ele></ele><time>2022-6-8T9:49:18Z</time></trkpt>
<trkpt lat="49.151428222656" lon="2.6390850543976"><ele></ele><time>2022-6-8T9:49:21Z</time></trkpt>
<trkpt lat="49.15132522583" lon="2.6390087604523"><ele></ele><time>2022-6-8T9:49:24Z</time></trkpt>
<trkpt lat="49.151222229004" lon="2.6389284133911"><ele></ele><time>2022-6-8T9:49:27Z</time></trkpt>
<trkpt lat="49.151165008545" lon="2.6388835906982"><ele></ele><time>2022-6-8T9:49:30Z</time></trkpt>
<trkpt lat="49.151042938232" lon="2.6387660503387"><ele></ele><time>2022-6-8T9:49:33Z</time></trkpt>
<trkpt lat="49.150981903076" lon="2.6386983394623"><ele></ele><time>2022-6-8T9:49:36Z</time></trkpt>
<trkpt lat="49.15092086792" lon="2.6386353969574"><ele></ele><time>2022-6-8T9:49:39Z</time></trkpt>
<trkpt lat="49.150852203369" lon="2.6385722160339"><ele></ele><time>2022-6-8T9:49:42Z</time></trkpt>
<trkpt lat="49.150779724121" lon="2.6385004520416"><ele></ele><time>2022-6-8T9:49:45Z</time></trkpt>
<trkpt lat="49.150691986084" lon="2.638427734375"><ele></ele><time>2022-6-8T9:49:48Z</time></trkpt>
<trkpt lat="49.150608062744" lon="2.6383526325226"><ele></ele><time>2022-6-8T9:49:51Z</time></trkpt>
<trkpt lat="49.15051651001" lon="2.6382751464844"><ele></ele><time>2022-6-8T9:49:54Z</time></trkpt>
<trkpt lat="49.15043258667" lon="2.6381931304932"><ele></ele><time>2022-6-8T9:49:57Z</time></trkpt>
<trkpt lat="49.150344848633" lon="2.6381089687347"><ele></ele><time>2022-6-8T9:50:0Z</time></trkpt>
<trkpt lat="49.150253295898" lon="2.6380205154419"><ele></ele><time>2022-6-8T9:50:3Z</time></trkpt>
<trkpt lat="49.15015411377" lon="2.637932062149"><ele></ele><time>2022-6-8T9:50:6Z</time></trkpt>
<trkpt lat="49.150074005127" lon="2.6378402709961"><ele></ele><time>2022-6-8T9:50:9Z</time></trkpt>
<trkpt lat="49.14998626709" lon="2.6377501487732"><ele></ele><time>2022-6-8T9:50:12Z</time></trkpt>
<trkpt lat="49.149894714355" lon="2.6376600265503"><ele></ele><time>2022-6-8T9:50:15Z</time></trkpt>
<trkpt lat="49.149803161621" lon="2.6375770568848"><ele></ele><time>2022-6-8T9:50:18Z</time></trkpt>
<trkpt lat="49.149711608887" lon="2.6374797821045"><ele></ele><time>2022-6-8T9:50:21Z</time></trkpt>
<trkpt lat="49.149620056152" lon="2.6373889446259"><ele></ele><time>2022-6-8T9:50:24Z</time></trkpt>
<trkpt lat="49.149517059326" lon="2.6372952461243"><ele></ele><time>2022-6-8T9:50:27Z</time></trkpt>
<trkpt lat="49.149417877197" lon="2.6372032165527"><ele></ele><time>2022-6-8T9:50:30Z</time></trkpt>
<trkpt lat="49.149326324463" lon="2.6371147632599"><ele></ele><time>2022-6-8T9:50:33Z</time></trkpt>
<trkpt lat="49.149234771729" lon="2.637017250061"><ele></ele><time>2022-6-8T9:50:36Z</time></trkpt>
<trkpt lat="49.149150848389" lon="2.6369409561157"><ele></ele><time>2022-6-8T9:50:39Z</time></trkpt>
<trkpt lat="49.149047851562" lon="2.6368379592896"><ele></ele><time>2022-6-8T9:50:42Z</time></trkpt>
<trkpt lat="49.148944854736" lon="2.6367380619049"><ele></ele><time>2022-6-8T9:50:45Z</time></trkpt>
<trkpt lat="49.148860931396" lon="2.6366536617279"><ele></ele><time>2022-6-8T9:50:48Z</time></trkpt>
<trkpt lat="49.148773193359" lon="2.636568069458"><ele></ele><time>2022-6-8T9:50:51Z</time></trkpt>
<trkpt lat="49.148685455322" lon="2.6364789009094"><ele></ele><time>2022-6-8T9:50:54Z</time></trkpt>
<trkpt lat="49.148597717285" lon="2.6363868713379"><ele></ele><time>2022-6-8T9:50:57Z</time></trkpt>
<trkpt lat="49.148509979248" lon="2.6363015174866"><ele></ele><time>2022-6-8T9:51:0Z</time></trkpt>
<trkpt lat="49.148426055908" lon="2.6362235546112"><ele></ele><time>2022-6-8T9:51:3Z</time></trkpt>
<trkpt lat="49.148345947266" lon="2.6361491680145"><ele></ele><time>2022-6-8T9:51:6Z</time></trkpt>
<trkpt lat="49.148265838623" lon="2.6360621452332"><ele></ele><time>2022-6-8T9:51:9Z</time></trkpt>
<trkpt lat="49.148181915283" lon="2.6359848976135"><ele></ele><time>2022-6-8T9:51:12Z</time></trkpt>
<trkpt lat="49.148101806641" lon="2.6359033584595"><ele></ele><time>2022-6-8T9:51:15Z</time></trkpt>
<trkpt lat="49.148014068604" lon="2.6358234882355"><ele></ele><time>2022-6-8T9:51:18Z</time></trkpt>
<trkpt lat="49.147918701172" lon="2.6357452869415"><ele></ele><time>2022-6-8T9:51:21Z</time></trkpt>
<trkpt lat="49.147819519043" lon="2.6356525421143"><ele></ele><time>2022-6-8T9:51:24Z</time></trkpt>
<trkpt lat="49.147724151611" lon="2.6355593204498"><ele></ele><time>2022-6-8T9:51:27Z</time></trkpt>
<trkpt lat="49.147640228271" lon="2.6354825496674"><ele></ele><time>2022-6-8T9:51:30Z</time></trkpt>
<trkpt lat="49.147556304932" lon="2.6354014873505"><ele></ele><time>2022-6-8T9:51:33Z</time></trkpt>
<trkpt lat="49.147476196289" lon="2.6353139877319"><ele></ele><time>2022-6-8T9:51:36Z</time></trkpt>
<trkpt lat="49.147399902344" lon="2.6352367401123"><ele></ele><time>2022-6-8T9:51:39Z</time></trkpt>
<trkpt lat="49.147304534912" lon="2.6351404190063"><ele></ele><time>2022-6-8T9:51:42Z</time></trkpt>
<trkpt lat="49.147205352783" lon="2.6350378990173"><ele></ele><time>2022-6-8T9:51:45Z</time></trkpt>
<trkpt lat="49.147117614746" lon="2.6349627971649"><ele></ele><time>2022-6-8T9:51:48Z</time></trkpt>
<trkpt lat="49.147029876709" lon="2.6348884105682"><ele></ele><time>2022-6-8T9:51:51Z</time></trkpt>
<trkpt lat="49.146980285645" lon="2.634797334671"><ele></ele><time>2022-6-8T9:51:54Z</time></trkpt>
<trkpt lat="49.146949768066" lon="2.6346545219421"><ele></ele><time>2022-6-8T9:51:57Z</time></trkpt>
<trkpt lat="49.146923065186" lon="2.6344993114471"><ele></ele><time>2022-6-8T9:52:0Z</time></trkpt>
<trkpt lat="49.146896362305" lon="2.6343598365784"><ele></ele><time>2022-6-8T9:52:3Z</time></trkpt>
<trkpt lat="49.146884918213" lon="2.6342222690582"><ele></ele><time>2022-6-8T9:52:6Z</time></trkpt>
<trkpt lat="49.146873474121" lon="2.6340951919556"><ele></ele><time>2022-6-8T9:52:9Z</time></trkpt>
<trkpt lat="49.146862030029" lon="2.6339530944824"><ele></ele><time>2022-6-8T9:52:12Z</time></trkpt>
<trkpt lat="49.146854400635" lon="2.6337971687317"><ele></ele><time>2022-6-8T9:52:15Z</time></trkpt>
<trkpt lat="49.146839141846" lon="2.6336619853973"><ele></ele><time>2022-6-8T9:52:18Z</time></trkpt>
<trkpt lat="49.146831512451" lon="2.6335160732269"><ele></ele><time>2022-6-8T9:52:21Z</time></trkpt>
<trkpt lat="49.146823883057" lon="2.6333746910095"><ele></ele><time>2022-6-8T9:52:24Z</time></trkpt>
<trkpt lat="49.146808624268" lon="2.6332142353058"><ele></ele><time>2022-6-8T9:52:27Z</time></trkpt>
<trkpt lat="49.146793365479" lon="2.6330714225769"><ele></ele><time>2022-6-8T9:52:30Z</time></trkpt>
<trkpt lat="49.146778106689" lon="2.632955789566"><ele></ele><time>2022-6-8T9:52:33Z</time></trkpt>
<trkpt lat="49.146766662598" lon="2.6328494548798"><ele></ele><time>2022-6-8T9:52:36Z</time></trkpt>
<trkpt lat="49.146766662598" lon="2.6328494548798"><ele></ele><time>2022-6-8T9:52:39Z</time></trkpt>
<trkpt lat="49.146755218506" lon="2.6326420307159"><ele></ele><time>2022-6-8T9:52:42Z</time></trkpt>
<trkpt lat="49.146755218506" lon="2.6325113773346"><ele></ele><time>2022-6-8T9:52:45Z</time></trkpt>
<trkpt lat="49.146717071533" lon="2.6320340633392"><ele></ele><time>2022-6-8T9:52:48Z</time></trkpt>
<trkpt lat="49.146701812744" lon="2.631824016571"><ele></ele><time>2022-6-8T9:52:51Z</time></trkpt>
<trkpt lat="49.146690368652" lon="2.6316518783569"><ele></ele><time>2022-6-8T9:52:54Z</time></trkpt>
<trkpt lat="49.146671295166" lon="2.6314935684204"><ele></ele><time>2022-6-8T9:52:57Z</time></trkpt>
<trkpt lat="49.146648406982" lon="2.6313757896423"><ele></ele><time>2022-6-8T9:53:0Z</time></trkpt>
<trkpt lat="49.146606445312" lon="2.6312792301178"><ele></ele><time>2022-6-8T9:53:3Z</time></trkpt>
<trkpt lat="49.146606445312" lon="2.6312792301178"><ele></ele><time>2022-6-8T9:53:6Z</time></trkpt>
<trkpt lat="49.146606445312" lon="2.6312792301178"><ele></ele><time>2022-6-8T9:53:9Z</time></trkpt>
<trkpt lat="49.146511077881" lon="2.6312026977539"><ele></ele><time>2022-6-8T9:53:12Z</time></trkpt>
<trkpt lat="49.146434783936" lon="2.6311318874359"><ele></ele><time>2022-6-8T9:53:15Z</time></trkpt>
<trkpt lat="49.146362304688" lon="2.6310753822327"><ele></ele><time>2022-6-8T9:53:18Z</time></trkpt>
<trkpt lat="49.146282196045" lon="2.6310262680054"><ele></ele><time>2022-6-8T9:53:21Z</time></trkpt>
<trkpt lat="49.146202087402" lon="2.630996465683"><ele></ele><time>2022-6-8T9:53:24Z</time></trkpt>
<trkpt lat="49.146133422852" lon="2.6309745311737"><ele></ele><time>2022-6-8T9:53:27Z</time></trkpt>
<trkpt lat="49.146068572998" lon="2.6309418678284"><ele></ele><time>2022-6-8T9:53:30Z</time></trkpt>
<trkpt lat="49.146003723145" lon="2.6309082508087"><ele></ele><time>2022-6-8T9:53:33Z</time></trkpt>
<trkpt lat="49.145942687988" lon="2.630871295929"><ele></ele><time>2022-6-8T9:53:36Z</time></trkpt>
<trkpt lat="49.145881652832" lon="2.6308386325836"><ele></ele><time>2022-6-8T9:53:39Z</time></trkpt>
<trkpt lat="49.145824432373" lon="2.6308069229126"><ele></ele><time>2022-6-8T9:53:42Z</time></trkpt>
<trkpt lat="49.145767211914" lon="2.6307783126831"><ele></ele><time>2022-6-8T9:53:45Z</time></trkpt>
<trkpt lat="49.145698547363" lon="2.6307423114777"><ele></ele><time>2022-6-8T9:53:48Z</time></trkpt>
<trkpt lat="49.145599365234" lon="2.6306703090668"><ele></ele><time>2022-6-8T9:53:51Z</time></trkpt>
<trkpt lat="49.1455078125" lon="2.6305992603302"><ele></ele><time>2022-6-8T9:53:54Z</time></trkpt>
<trkpt lat="49.145435333252" lon="2.6305468082428"><ele></ele><time>2022-6-8T9:53:57Z</time></trkpt>
<trkpt lat="49.145362854004" lon="2.6304943561554"><ele></ele><time>2022-6-8T9:54:0Z</time></trkpt>
<trkpt lat="49.145290374756" lon="2.6304526329041"><ele></ele><time>2022-6-8T9:54:3Z</time></trkpt>
<trkpt lat="49.1452293396" lon="2.6304161548615"><ele></ele><time>2022-6-8T9:54:6Z</time></trkpt>
<trkpt lat="49.145160675049" lon="2.6303753852844"><ele></ele><time>2022-6-8T9:54:9Z</time></trkpt>
<trkpt lat="49.145095825195" lon="2.6303288936615"><ele></ele><time>2022-6-8T9:54:12Z</time></trkpt>
<trkpt lat="49.144981384277" lon="2.6302540302277"><ele></ele><time>2022-6-8T9:54:15Z</time></trkpt>
<trkpt lat="49.14489364624" lon="2.6301982402802"><ele></ele><time>2022-6-8T9:54:18Z</time></trkpt>
<trkpt lat="49.144821166992" lon="2.6301538944244"><ele></ele><time>2022-6-8T9:54:21Z</time></trkpt>
<trkpt lat="49.144737243652" lon="2.6301019191742"><ele></ele><time>2022-6-8T9:54:24Z</time></trkpt>
<trkpt lat="49.144645690918" lon="2.6300413608551"><ele></ele><time>2022-6-8T9:54:27Z</time></trkpt>
<trkpt lat="49.144546508789" lon="2.6299831867218"><ele></ele><time>2022-6-8T9:54:30Z</time></trkpt>
<trkpt lat="49.144466400146" lon="2.6299431324005"><ele></ele><time>2022-6-8T9:54:33Z</time></trkpt>
<trkpt lat="49.144466400146" lon="2.6299431324005"><ele></ele><time>2022-6-8T9:54:36Z</time></trkpt>
<trkpt lat="49.144397735596" lon="2.6298766136169"><ele></ele><time>2022-6-8T9:54:39Z</time></trkpt>
<trkpt lat="49.144397735596" lon="2.6298766136169"><ele></ele><time>2022-6-8T9:54:42Z</time></trkpt>
<trkpt lat="49.144336700439" lon="2.6298758983612"><ele></ele><time>2022-6-8T9:54:45Z</time></trkpt>
<trkpt lat="49.144336700439" lon="2.6298758983612"><ele></ele><time>2022-6-8T9:54:48Z</time></trkpt>
<trkpt lat="49.144309997559" lon="2.6299517154694"><ele></ele><time>2022-6-8T9:54:51Z</time></trkpt>
<trkpt lat="49.144309997559" lon="2.6299517154694"><ele></ele><time>2022-6-8T9:54:54Z</time></trkpt>
<trkpt lat="49.144313812256" lon="2.630078792572"><ele></ele><time>2022-6-8T9:54:57Z</time></trkpt>
<trkpt lat="49.144317626953" lon="2.630243062973"><ele></ele><time>2022-6-8T9:55:0Z</time></trkpt>
<trkpt lat="49.144325256348" lon="2.6303384304047"><ele></ele><time>2022-6-8T9:55:3Z</time></trkpt>
<trkpt lat="49.144332885742" lon="2.6305124759674"><ele></ele><time>2022-6-8T9:55:6Z</time></trkpt>
<trkpt lat="49.144340515137" lon="2.630658864975"><ele></ele><time>2022-6-8T9:55:9Z</time></trkpt>
<trkpt lat="49.144336700439" lon="2.6307454109192"><ele></ele><time>2022-6-8T9:55:12Z</time></trkpt>
<trkpt lat="49.144340515137" lon="2.6308403015137"><ele></ele><time>2022-6-8T9:55:15Z</time></trkpt>
<trkpt lat="49.144344329834" lon="2.6309616565704"><ele></ele><time>2022-6-8T9:55:18Z</time></trkpt>
<trkpt lat="49.144348144531" lon="2.631073474884"><ele></ele><time>2022-6-8T9:55:21Z</time></trkpt>
<trkpt lat="49.144348144531" lon="2.6312012672424"><ele></ele><time>2022-6-8T9:55:24Z</time></trkpt>
<trkpt lat="49.144348144531" lon="2.6313228607178"><ele></ele><time>2022-6-8T9:55:27Z</time></trkpt>
<trkpt lat="49.144344329834" lon="2.6314303874969"><ele></ele><time>2022-6-8T9:55:30Z</time></trkpt>
<trkpt lat="49.144336700439" lon="2.6315376758575"><ele></ele><time>2022-6-8T9:55:33Z</time></trkpt>
<trkpt lat="49.144329071045" lon="2.6316516399384"><ele></ele><time>2022-6-8T9:55:36Z</time></trkpt>
<trkpt lat="49.144332885742" lon="2.6317665576935"><ele></ele><time>2022-6-8T9:55:39Z</time></trkpt>
<trkpt lat="49.144340515137" lon="2.6319327354431"><ele></ele><time>2022-6-8T9:55:42Z</time></trkpt>
<trkpt lat="49.144344329834" lon="2.6320714950562"><ele></ele><time>2022-6-8T9:55:45Z</time></trkpt>
<trkpt lat="49.144340515137" lon="2.6322221755981"><ele></ele><time>2022-6-8T9:55:48Z</time></trkpt>
<trkpt lat="49.144340515137" lon="2.6323480606079"><ele></ele><time>2022-6-8T9:55:51Z</time></trkpt>
<trkpt lat="49.144336700439" lon="2.6324799060822"><ele></ele><time>2022-6-8T9:55:54Z</time></trkpt>
<trkpt lat="49.144340515137" lon="2.6326348781586"><ele></ele><time>2022-6-8T9:55:57Z</time></trkpt>
<trkpt lat="49.14436340332" lon="2.6327688694"><ele></ele><time>2022-6-8T9:56:0Z</time></trkpt>
<trkpt lat="49.144401550293" lon="2.6329283714294"><ele></ele><time>2022-6-8T9:56:3Z</time></trkpt>
<trkpt lat="49.144439697266" lon="2.6330530643463"><ele></ele><time>2022-6-8T9:56:6Z</time></trkpt>
<trkpt lat="49.144439697266" lon="2.6330530643463"><ele></ele><time>2022-6-8T9:56:9Z</time></trkpt>
<trkpt lat="49.144481658936" lon="2.6331830024719"><ele></ele><time>2022-6-8T9:56:12Z</time></trkpt>
<trkpt lat="49.144481658936" lon="2.6331830024719"><ele></ele><time>2022-6-8T9:56:15Z</time></trkpt>
<trkpt lat="49.14440536499" lon="2.6328794956207"><ele></ele><time>2022-6-8T9:56:18Z</time></trkpt>
<trkpt lat="49.14440536499" lon="2.6328794956207"><ele></ele><time>2022-6-8T9:56:21Z</time></trkpt>
<trkpt lat="49.144367218018" lon="2.6327362060547"><ele></ele><time>2022-6-8T9:56:24Z</time></trkpt>
<trkpt lat="49.144367218018" lon="2.6327362060547"><ele></ele><time>2022-6-8T9:56:27Z</time></trkpt>
<trkpt lat="49.144367218018" lon="2.6327362060547"><ele></ele><time>2022-6-8T9:56:30Z</time></trkpt>
<trkpt lat="49.144313812256" lon="2.6326179504395"><ele></ele><time>2022-6-8T9:56:33Z</time></trkpt>
<trkpt lat="49.1442527771" lon="2.6325790882111"><ele></ele><time>2022-6-8T9:56:36Z</time></trkpt>
<trkpt lat="49.144191741943" lon="2.6325316429138"><ele></ele><time>2022-6-8T9:56:39Z</time></trkpt>
<trkpt lat="49.144123077393" lon="2.6324784755707"><ele></ele><time>2022-6-8T9:56:42Z</time></trkpt>
<trkpt lat="49.144069671631" lon="2.6324303150177"><ele></ele><time>2022-6-8T9:56:45Z</time></trkpt>
<trkpt lat="49.144004821777" lon="2.6323716640472"><ele></ele><time>2022-6-8T9:56:48Z</time></trkpt>
<trkpt lat="49.143939971924" lon="2.6323125362396"><ele></ele><time>2022-6-8T9:56:51Z</time></trkpt>
<trkpt lat="49.14387512207" lon="2.6322867870331"><ele></ele><time>2022-6-8T9:56:54Z</time></trkpt>
<trkpt lat="49.143802642822" lon="2.6322338581085"><ele></ele><time>2022-6-8T9:56:57Z</time></trkpt>
<trkpt lat="49.143737792969" lon="2.632176399231"><ele></ele><time>2022-6-8T9:57:0Z</time></trkpt>
<trkpt lat="49.143669128418" lon="2.6321172714233"><ele></ele><time>2022-6-8T9:57:3Z</time></trkpt>
<trkpt lat="49.143615722656" lon="2.632066488266"><ele></ele><time>2022-6-8T9:57:6Z</time></trkpt>
<trkpt lat="49.143615722656" lon="2.632066488266"><ele></ele><time>2022-6-8T9:57:9Z</time></trkpt>
<trkpt lat="49.14351272583" lon="2.6319794654846"><ele></ele><time>2022-6-8T9:57:12Z</time></trkpt>
<trkpt lat="49.143459320068" lon="2.6319351196289"><ele></ele><time>2022-6-8T9:57:15Z</time></trkpt>
<trkpt lat="49.143405914307" lon="2.6318953037262"><ele></ele><time>2022-6-8T9:57:18Z</time></trkpt>
<trkpt lat="49.143356323242" lon="2.6318550109863"><ele></ele><time>2022-6-8T9:57:21Z</time></trkpt>
<trkpt lat="49.1432762146" lon="2.63179063797"><ele></ele><time>2022-6-8T9:57:24Z</time></trkpt>
<trkpt lat="49.143184661865" lon="2.6317200660706"><ele></ele><time>2022-6-8T9:57:27Z</time></trkpt>
<trkpt lat="49.143131256104" lon="2.6316871643066"><ele></ele><time>2022-6-8T9:57:30Z</time></trkpt>
<trkpt lat="49.143074035645" lon="2.6316502094269"><ele></ele><time>2022-6-8T9:57:33Z</time></trkpt>
<trkpt lat="49.143013000488" lon="2.63161444664"><ele></ele><time>2022-6-8T9:57:36Z</time></trkpt>
<trkpt lat="49.142951965332" lon="2.6315739154816"><ele></ele><time>2022-6-8T9:57:39Z</time></trkpt>
<trkpt lat="49.142890930176" lon="2.6315195560455"><ele></ele><time>2022-6-8T9:57:42Z</time></trkpt>
<trkpt lat="49.14281463623" lon="2.631441116333"><ele></ele><time>2022-6-8T9:57:45Z</time></trkpt>
<trkpt lat="49.142723083496" lon="2.6313540935516"><ele></ele><time>2022-6-8T9:57:48Z</time></trkpt>
<trkpt lat="49.142627716064" lon="2.6312689781189"><ele></ele><time>2022-6-8T9:57:51Z</time></trkpt>
<trkpt lat="49.14253616333" lon="2.6311826705933"><ele></ele><time>2022-6-8T9:57:54Z</time></trkpt>
<trkpt lat="49.142448425293" lon="2.6311063766479"><ele></ele><time>2022-6-8T9:57:57Z</time></trkpt>
<trkpt lat="49.142353057861" lon="2.6310331821442"><ele></ele><time>2022-6-8T9:58:0Z</time></trkpt>
<trkpt lat="49.142246246338" lon="2.6309325695038"><ele></ele><time>2022-6-8T9:58:3Z</time></trkpt>
<trkpt lat="49.142127990723" lon="2.630838394165"><ele></ele><time>2022-6-8T9:58:6Z</time></trkpt>
<trkpt lat="49.142028808594" lon="2.63077044487"><ele></ele><time>2022-6-8T9:58:9Z</time></trkpt>
<trkpt lat="49.141952514648" lon="2.6308014392853"><ele></ele><time>2022-6-8T9:58:12Z</time></trkpt>
<trkpt lat="49.141895294189" lon="2.6309173107147"><ele></ele><time>2022-6-8T9:58:15Z</time></trkpt>
<trkpt lat="49.141841888428" lon="2.6310610771179"><ele></ele><time>2022-6-8T9:58:18Z</time></trkpt>
<trkpt lat="49.141784667969" lon="2.6311891078949"><ele></ele><time>2022-6-8T9:58:21Z</time></trkpt>
<trkpt lat="49.14172744751" lon="2.6313118934631"><ele></ele><time>2022-6-8T9:58:24Z</time></trkpt>
<trkpt lat="49.141670227051" lon="2.6314015388489"><ele></ele><time>2022-6-8T9:58:27Z</time></trkpt>
<trkpt lat="49.141639709473" lon="2.6314811706543"><ele></ele><time>2022-6-8T9:58:30Z</time></trkpt>
<trkpt lat="49.141639709473" lon="2.6314811706543"><ele></ele><time>2022-6-8T9:58:33Z</time></trkpt>
<trkpt lat="49.141593933105" lon="2.6316211223602"><ele></ele><time>2022-6-8T9:58:36Z</time></trkpt>
<trkpt lat="49.141593933105" lon="2.6316211223602"><ele></ele><time>2022-6-8T9:58:39Z</time></trkpt>
<trkpt lat="49.141555786133" lon="2.6317267417908"><ele></ele><time>2022-6-8T9:58:42Z</time></trkpt>
<trkpt lat="49.141555786133" lon="2.6317267417908"><ele></ele><time>2022-6-8T9:58:45Z</time></trkpt>
<trkpt lat="49.141532897949" lon="2.6318142414093"><ele></ele><time>2022-6-8T9:58:48Z</time></trkpt>
<trkpt lat="49.141532897949" lon="2.6318142414093"><ele></ele><time>2022-6-8T9:58:51Z</time></trkpt>
<trkpt lat="49.141494750977" lon="2.6318898200989"><ele></ele><time>2022-6-8T9:58:54Z</time></trkpt>
<trkpt lat="49.141460418701" lon="2.6319591999054"><ele></ele><time>2022-6-8T9:58:57Z</time></trkpt>
<trkpt lat="49.141418457031" lon="2.6320486068726"><ele></ele><time>2022-6-8T9:59:0Z</time></trkpt>
<trkpt lat="49.141418457031" lon="2.6320486068726"><ele></ele><time>2022-6-8T9:59:3Z</time></trkpt>
<trkpt lat="49.141345977783" lon="2.632134437561"><ele></ele><time>2022-6-8T9:59:6Z</time></trkpt>
<trkpt lat="49.141300201416" lon="2.6322250366211"><ele></ele><time>2022-6-8T9:59:9Z</time></trkpt>
<trkpt lat="49.141300201416" lon="2.6322250366211"><ele></ele><time>2022-6-8T9:59:12Z</time></trkpt>
<trkpt lat="49.141300201416" lon="2.6322250366211"><ele></ele><time>2022-6-8T9:59:15Z</time></trkpt>
<trkpt lat="49.141300201416" lon="2.6322250366211"><ele></ele><time>2022-6-8T9:59:18Z</time></trkpt>
<trkpt lat="49.141284942627" lon="2.6322872638702"><ele></ele><time>2022-6-8T9:59:21Z</time></trkpt>
<trkpt lat="49.141181945801" lon="2.6325080394745"><ele></ele><time>2022-6-8T9:59:24Z</time></trkpt>
<trkpt lat="49.141128540039" lon="2.6326544284821"><ele></ele><time>2022-6-8T9:59:27Z</time></trkpt>
<trkpt lat="49.141090393066" lon="2.6327679157257"><ele></ele><time>2022-6-8T9:59:30Z</time></trkpt>
<trkpt lat="49.141036987305" lon="2.6328721046448"><ele></ele><time>2022-6-8T9:59:33Z</time></trkpt>
<trkpt lat="49.140991210938" lon="2.632960319519"><ele></ele><time>2022-6-8T9:59:36Z</time></trkpt>
<trkpt lat="49.14094543457" lon="2.6330637931824"><ele></ele><time>2022-6-8T9:59:39Z</time></trkpt>
<trkpt lat="49.140895843506" lon="2.6331813335419"><ele></ele><time>2022-6-8T9:59:42Z</time></trkpt>
<trkpt lat="49.140830993652" lon="2.6332979202271"><ele></ele><time>2022-6-8T9:59:45Z</time></trkpt>
<trkpt lat="49.140758514404" lon="2.6334178447723"><ele></ele><time>2022-6-8T9:59:48Z</time></trkpt>
<trkpt lat="49.140693664551" lon="2.6335396766663"><ele></ele><time>2022-6-8T9:59:51Z</time></trkpt>
<trkpt lat="49.140628814697" lon="2.6336841583252"><ele></ele><time>2022-6-8T9:59:54Z</time></trkpt>
<trkpt lat="49.140571594238" lon="2.6338047981262"><ele></ele><time>2022-6-8T9:59:57Z</time></trkpt>
<trkpt lat="49.140510559082" lon="2.6339328289032"><ele></ele><time>2022-6-8T10:0:0Z</time></trkpt>
<trkpt lat="49.140422821045" lon="2.6340882778168"><ele></ele><time>2022-6-8T10:0:3Z</time></trkpt>
<trkpt lat="49.140323638916" lon="2.6342673301697"><ele></ele><time>2022-6-8T10:0:6Z</time></trkpt>
<trkpt lat="49.14017868042" lon="2.6344153881073"><ele></ele><time>2022-6-8T10:0:9Z</time></trkpt>
<trkpt lat="49.140071868896" lon="2.6345772743225"><ele></ele><time>2022-6-8T10:0:12Z</time></trkpt>
<trkpt lat="49.139965057373" lon="2.6347799301147"><ele></ele><time>2022-6-8T10:0:15Z</time></trkpt>
<trkpt lat="49.139865875244" lon="2.6349833011627"><ele></ele><time>2022-6-8T10:0:18Z</time></trkpt>
<trkpt lat="49.139713287354" lon="2.6351430416107"><ele></ele><time>2022-6-8T10:0:21Z</time></trkpt>
<trkpt lat="49.139568328857" lon="2.6352915763855"><ele></ele><time>2022-6-8T10:0:24Z</time></trkpt>
<trkpt lat="49.139427185059" lon="2.6354184150696"><ele></ele><time>2022-6-8T10:0:27Z</time></trkpt>
<trkpt lat="49.139335632324" lon="2.6355564594269"><ele></ele><time>2022-6-8T10:0:30Z</time></trkpt>
<trkpt lat="49.139251708984" lon="2.6357192993164"><ele></ele><time>2022-6-8T10:0:33Z</time></trkpt>
<trkpt lat="49.139179229736" lon="2.6358940601349"><ele></ele><time>2022-6-8T10:0:36Z</time></trkpt>
<trkpt lat="49.139095306396" lon="2.6360983848572"><ele></ele><time>2022-6-8T10:0:39Z</time></trkpt>
<trkpt lat="49.139030456543" lon="2.6363301277161"><ele></ele><time>2022-6-8T10:0:42Z</time></trkpt>
<trkpt lat="49.139019012451" lon="2.6365723609924"><ele></ele><time>2022-6-8T10:0:45Z</time></trkpt>
<trkpt lat="49.139011383057" lon="2.6368372440338"><ele></ele><time>2022-6-8T10:0:48Z</time></trkpt>
<trkpt lat="49.139003753662" lon="2.637083530426"><ele></ele><time>2022-6-8T10:0:51Z</time></trkpt>
<trkpt lat="49.138977050781" lon="2.6372811794281"><ele></ele><time>2022-6-8T10:0:54Z</time></trkpt>
<trkpt lat="49.138912200928" lon="2.6374845504761"><ele></ele><time>2022-6-8T10:0:57Z</time></trkpt>
<trkpt lat="49.138824462891" lon="2.6376509666443"><ele></ele><time>2022-6-8T10:1:0Z</time></trkpt>
<trkpt lat="49.138729095459" lon="2.6378321647644"><ele></ele><time>2022-6-8T10:1:3Z</time></trkpt>
<trkpt lat="49.138641357422" lon="2.6380093097687"><ele></ele><time>2022-6-8T10:1:6Z</time></trkpt>
<trkpt lat="49.138572692871" lon="2.6381547451019"><ele></ele><time>2022-6-8T10:1:9Z</time></trkpt>
<trkpt lat="49.138496398926" lon="2.6383197307587"><ele></ele><time>2022-6-8T10:1:12Z</time></trkpt>
<trkpt lat="49.138423919678" lon="2.6384570598602"><ele></ele><time>2022-6-8T10:1:15Z</time></trkpt>
<trkpt lat="49.138359069824" lon="2.6385788917542"><ele></ele><time>2022-6-8T10:1:18Z</time></trkpt>
<trkpt lat="49.138282775879" lon="2.6387183666229"><ele></ele><time>2022-6-8T10:1:21Z</time></trkpt>
<trkpt lat="49.138217926025" lon="2.6388533115387"><ele></ele><time>2022-6-8T10:1:24Z</time></trkpt>
<trkpt lat="49.138164520264" lon="2.6389706134796"><ele></ele><time>2022-6-8T10:1:27Z</time></trkpt>
<trkpt lat="49.138118743896" lon="2.6390743255615"><ele></ele><time>2022-6-8T10:1:30Z</time></trkpt>
<trkpt lat="49.138061523438" lon="2.6391937732697"><ele></ele><time>2022-6-8T10:1:33Z</time></trkpt>
<trkpt lat="49.138008117676" lon="2.6393060684204"><ele></ele><time>2022-6-8T10:1:36Z</time></trkpt>
<trkpt lat="49.137969970703" lon="2.6393842697144"><ele></ele><time>2022-6-8T10:1:39Z</time></trkpt>
<trkpt lat="49.13793182373" lon="2.6394703388214"><ele></ele><time>2022-6-8T10:1:42Z</time></trkpt>
<trkpt lat="49.137889862061" lon="2.6395692825317"><ele></ele><time>2022-6-8T10:1:45Z</time></trkpt>
<trkpt lat="49.137889862061" lon="2.6395692825317"><ele></ele><time>2022-6-8T10:1:48Z</time></trkpt>
<trkpt lat="49.137836456299" lon="2.6397125720978"><ele></ele><time>2022-6-8T10:1:51Z</time></trkpt>
<trkpt lat="49.137836456299" lon="2.6397125720978"><ele></ele><time>2022-6-8T10:1:54Z</time></trkpt>
<trkpt lat="49.137794494629" lon="2.6398224830627"><ele></ele><time>2022-6-8T10:1:57Z</time></trkpt>
<trkpt lat="49.137794494629" lon="2.6398224830627"><ele></ele><time>2022-6-8T10:2:0Z</time></trkpt>
<trkpt lat="49.137752532959" lon="2.6399283409119"><ele></ele><time>2022-6-8T10:2:3Z</time></trkpt>
<trkpt lat="49.137752532959" lon="2.6399283409119"><ele></ele><time>2022-6-8T10:2:6Z</time></trkpt>
<trkpt lat="49.137699127197" lon="2.6400444507599"><ele></ele><time>2022-6-8T10:2:9Z</time></trkpt>
<trkpt lat="49.137699127197" lon="2.6400444507599"><ele></ele><time>2022-6-8T10:2:12Z</time></trkpt>
<trkpt lat="49.137664794922" lon="2.6401469707489"><ele></ele><time>2022-6-8T10:2:15Z</time></trkpt>
<trkpt lat="49.137664794922" lon="2.6401469707489"><ele></ele><time>2022-6-8T10:2:18Z</time></trkpt>
<trkpt lat="49.137622833252" lon="2.6402242183685"><ele></ele><time>2022-6-8T10:2:21Z</time></trkpt>
<trkpt lat="49.137622833252" lon="2.6402242183685"><ele></ele><time>2022-6-8T10:2:24Z</time></trkpt>
<trkpt lat="49.137584686279" lon="2.6402940750122"><ele></ele><time>2022-6-8T10:2:27Z</time></trkpt>
<trkpt lat="49.137584686279" lon="2.6402940750122"><ele></ele><time>2022-6-8T10:2:30Z</time></trkpt>
<trkpt lat="49.137542724609" lon="2.6403756141663"><ele></ele><time>2022-6-8T10:2:33Z</time></trkpt>
<trkpt lat="49.137542724609" lon="2.6403756141663"><ele></ele><time>2022-6-8T10:2:36Z</time></trkpt>
<trkpt lat="49.137504577637" lon="2.6404466629028"><ele></ele><time>2022-6-8T10:2:39Z</time></trkpt>
<trkpt lat="49.137474060059" lon="2.6405363082886"><ele></ele><time>2022-6-8T10:2:42Z</time></trkpt>
<trkpt lat="49.137474060059" lon="2.6405363082886"><ele></ele><time>2022-6-8T10:2:45Z</time></trkpt>
<trkpt lat="49.1374168396" lon="2.6406621932983"><ele></ele><time>2022-6-8T10:2:48Z</time></trkpt>
<trkpt lat="49.13737487793" lon="2.6407430171967"><ele></ele><time>2022-6-8T10:2:51Z</time></trkpt>
<trkpt lat="49.137325286865" lon="2.640857219696"><ele></ele><time>2022-6-8T10:2:54Z</time></trkpt>
<trkpt lat="49.13729095459" lon="2.6409528255463"><ele></ele><time>2022-6-8T10:2:57Z</time></trkpt>
<trkpt lat="49.137260437012" lon="2.6410536766052"><ele></ele><time>2022-6-8T10:3:0Z</time></trkpt>
<trkpt lat="49.137260437012" lon="2.6410536766052"><ele></ele><time>2022-6-8T10:3:3Z</time></trkpt>
<trkpt lat="49.137203216553" lon="2.6411724090576"><ele></ele><time>2022-6-8T10:3:6Z</time></trkpt>
<trkpt lat="49.137203216553" lon="2.6411724090576"><ele></ele><time>2022-6-8T10:3:9Z</time></trkpt>
<trkpt lat="49.137130737305" lon="2.6413013935089"><ele></ele><time>2022-6-8T10:3:12Z</time></trkpt>
<trkpt lat="49.137130737305" lon="2.6413013935089"><ele></ele><time>2022-6-8T10:3:15Z</time></trkpt>
<trkpt lat="49.137077331543" lon="2.6413910388947"><ele></ele><time>2022-6-8T10:3:18Z</time></trkpt>
<trkpt lat="49.137077331543" lon="2.6413910388947"><ele></ele><time>2022-6-8T10:3:21Z</time></trkpt>
<trkpt lat="49.137027740479" lon="2.6414756774902"><ele></ele><time>2022-6-8T10:3:24Z</time></trkpt>
<trkpt lat="49.137027740479" lon="2.6414756774902"><ele></ele><time>2022-6-8T10:3:27Z</time></trkpt>
<trkpt lat="49.136981964111" lon="2.6415324211121"><ele></ele><time>2022-6-8T10:3:30Z</time></trkpt>
<trkpt lat="49.136951446533" lon="2.6416366100311"><ele></ele><time>2022-6-8T10:3:33Z</time></trkpt>
<trkpt lat="49.136951446533" lon="2.6416366100311"><ele></ele><time>2022-6-8T10:3:36Z</time></trkpt>
<trkpt lat="49.136951446533" lon="2.6416366100311"><ele></ele><time>2022-6-8T10:3:39Z</time></trkpt>
<trkpt lat="49.136913299561" lon="2.6417863368988"><ele></ele><time>2022-6-8T10:3:42Z</time></trkpt>
<trkpt lat="49.136913299561" lon="2.6417863368988"><ele></ele><time>2022-6-8T10:3:45Z</time></trkpt>
<trkpt lat="49.136600494385" lon="2.6421597003937"><ele></ele><time>2022-6-8T10:3:48Z</time></trkpt>
<trkpt lat="49.136600494385" lon="2.6421597003937"><ele></ele><time>2022-6-8T10:3:51Z</time></trkpt>
<trkpt lat="49.136268615723" lon="2.6423275470734"><ele></ele><time>2022-6-8T10:3:54Z</time></trkpt>
<trkpt lat="49.136192321777" lon="2.6422312259674"><ele></ele><time>2022-6-8T10:3:57Z</time></trkpt>
<trkpt lat="49.136127471924" lon="2.642148733139"><ele></ele><time>2022-6-8T10:4:0Z</time></trkpt>
<trkpt lat="49.13606262207" lon="2.6420590877533"><ele></ele><time>2022-6-8T10:4:3Z</time></trkpt>
<trkpt lat="49.135971069336" lon="2.6419520378113"><ele></ele><time>2022-6-8T10:4:6Z</time></trkpt>
<trkpt lat="49.135860443115" lon="2.6418092250824"><ele></ele><time>2022-6-8T10:4:9Z</time></trkpt>
<trkpt lat="49.135749816895" lon="2.6416432857513"><ele></ele><time>2022-6-8T10:4:12Z</time></trkpt>
<trkpt lat="49.135654449463" lon="2.6414756774902"><ele></ele><time>2022-6-8T10:4:15Z</time></trkpt>
<trkpt lat="49.13557434082" lon="2.6413226127625"><ele></ele><time>2022-6-8T10:4:18Z</time></trkpt>
<trkpt lat="49.135524749756" lon="2.6411566734314"><ele></ele><time>2022-6-8T10:4:21Z</time></trkpt>
<trkpt lat="49.135494232178" lon="2.6410675048828"><ele></ele><time>2022-6-8T10:4:24Z</time></trkpt>
<trkpt lat="49.135456085205" lon="2.6409683227539"><ele></ele><time>2022-6-8T10:4:27Z</time></trkpt>
<trkpt lat="49.13542175293" lon="2.6408853530884"><ele></ele><time>2022-6-8T10:4:30Z</time></trkpt>
<trkpt lat="49.135391235352" lon="2.6408069133759"><ele></ele><time>2022-6-8T10:4:33Z</time></trkpt>
<trkpt lat="49.135341644287" lon="2.6407287120819"><ele></ele><time>2022-6-8T10:4:36Z</time></trkpt>
<trkpt lat="49.135261535645" lon="2.6406755447388"><ele></ele><time>2022-6-8T10:4:39Z</time></trkpt>
<trkpt lat="49.135261535645" lon="2.6406755447388"><ele></ele><time>2022-6-8T10:4:42Z</time></trkpt>
<trkpt lat="49.135154724121" lon="2.6407356262207"><ele></ele><time>2022-6-8T10:4:45Z</time></trkpt>
<trkpt lat="49.135093688965" lon="2.6407730579376"><ele></ele><time>2022-6-8T10:4:48Z</time></trkpt>
<trkpt lat="49.135093688965" lon="2.6407730579376"><ele></ele><time>2022-6-8T10:4:51Z</time></trkpt>
<trkpt lat="49.13500213623" lon="2.6408245563507"><ele></ele><time>2022-6-8T10:4:54Z</time></trkpt>
<trkpt lat="49.13493347168" lon="2.6408593654633"><ele></ele><time>2022-6-8T10:4:57Z</time></trkpt>
<trkpt lat="49.134876251221" lon="2.6408874988556"><ele></ele><time>2022-6-8T10:5:0Z</time></trkpt>
<trkpt lat="49.134811401367" lon="2.6409182548523"><ele></ele><time>2022-6-8T10:5:3Z</time></trkpt>
<trkpt lat="49.134738922119" lon="2.6409385204315"><ele></ele><time>2022-6-8T10:5:6Z</time></trkpt>
<trkpt lat="49.134628295898" lon="2.6409909725189"><ele></ele><time>2022-6-8T10:5:9Z</time></trkpt>
<trkpt lat="49.134571075439" lon="2.6410255432129"><ele></ele><time>2022-6-8T10:5:12Z</time></trkpt>
<trkpt lat="49.134510040283" lon="2.6410627365112"><ele></ele><time>2022-6-8T10:5:15Z</time></trkpt>
<trkpt lat="49.134452819824" lon="2.6410973072052"><ele></ele><time>2022-6-8T10:5:18Z</time></trkpt>
<trkpt lat="49.134346008301" lon="2.6411592960358"><ele></ele><time>2022-6-8T10:5:21Z</time></trkpt>
<trkpt lat="49.134273529053" lon="2.6411936283112"><ele></ele><time>2022-6-8T10:5:24Z</time></trkpt>
<trkpt lat="49.134273529053" lon="2.6411936283112"><ele></ele><time>2022-6-8T10:5:27Z</time></trkpt>
<trkpt lat="49.134189605713" lon="2.6412560939789"><ele></ele><time>2022-6-8T10:5:30Z</time></trkpt>
<trkpt lat="49.134189605713" lon="2.6412560939789"><ele></ele><time>2022-6-8T10:5:33Z</time></trkpt>
<trkpt lat="49.134120941162" lon="2.6413466930389"><ele></ele><time>2022-6-8T10:5:36Z</time></trkpt>
<trkpt lat="49.134120941162" lon="2.6413466930389"><ele></ele><time>2022-6-8T10:5:39Z</time></trkpt>
<trkpt lat="49.1340675354" lon="2.6415061950684"><ele></ele><time>2022-6-8T10:5:42Z</time></trkpt>
<trkpt lat="49.134037017822" lon="2.6415920257568"><ele></ele><time>2022-6-8T10:5:45Z</time></trkpt>
<trkpt lat="49.133995056152" lon="2.6416821479797"><ele></ele><time>2022-6-8T10:5:48Z</time></trkpt>
<trkpt lat="49.133930206299" lon="2.6418116092682"><ele></ele><time>2022-6-8T10:5:51Z</time></trkpt>
<trkpt lat="49.133865356445" lon="2.6419539451599"><ele></ele><time>2022-6-8T10:5:54Z</time></trkpt>
<trkpt lat="49.133815765381" lon="2.6420991420746"><ele></ele><time>2022-6-8T10:5:57Z</time></trkpt>
<trkpt lat="49.133800506592" lon="2.6421828269958"><ele></ele><time>2022-6-8T10:6:0Z</time></trkpt>
<trkpt lat="49.1337890625" lon="2.6422712802887"><ele></ele><time>2022-6-8T10:6:3Z</time></trkpt>
<trkpt lat="49.133800506592" lon="2.6423997879028"><ele></ele><time>2022-6-8T10:6:6Z</time></trkpt>
<trkpt lat="49.133834838867" lon="2.6425213813782"><ele></ele><time>2022-6-8T10:6:9Z</time></trkpt>
<trkpt lat="49.133907318115" lon="2.6426203250885"><ele></ele><time>2022-6-8T10:6:12Z</time></trkpt>
<trkpt lat="49.133975982666" lon="2.6426932811737"><ele></ele><time>2022-6-8T10:6:15Z</time></trkpt>
<trkpt lat="49.134044647217" lon="2.6427600383759"><ele></ele><time>2022-6-8T10:6:18Z</time></trkpt>
<trkpt lat="49.134113311768" lon="2.642829656601"><ele></ele><time>2022-6-8T10:6:21Z</time></trkpt>
<trkpt lat="49.134185791016" lon="2.6429033279419"><ele></ele><time>2022-6-8T10:6:24Z</time></trkpt>
<trkpt lat="49.134243011475" lon="2.6430134773254"><ele></ele><time>2022-6-8T10:6:27Z</time></trkpt>
<trkpt lat="49.134288787842" lon="2.643141746521"><ele></ele><time>2022-6-8T10:6:30Z</time></trkpt>
<trkpt lat="49.134338378906" lon="2.6432909965515"><ele></ele><time>2022-6-8T10:6:33Z</time></trkpt>
<trkpt lat="49.134384155273" lon="2.6434361934662"><ele></ele><time>2022-6-8T10:6:36Z</time></trkpt>
<trkpt lat="49.134422302246" lon="2.6435708999634"><ele></ele><time>2022-6-8T10:6:39Z</time></trkpt>
<trkpt lat="49.134452819824" lon="2.6437082290649"><ele></ele><time>2022-6-8T10:6:42Z</time></trkpt>
<trkpt lat="49.1344871521" lon="2.643837928772"><ele></ele><time>2022-6-8T10:6:45Z</time></trkpt>
<trkpt lat="49.134517669678" lon="2.6439876556396"><ele></ele><time>2022-6-8T10:6:48Z</time></trkpt>
<trkpt lat="49.134536743164" lon="2.6441116333008"><ele></ele><time>2022-6-8T10:6:51Z</time></trkpt>
<trkpt lat="49.13455581665" lon="2.6442244052887"><ele></ele><time>2022-6-8T10:6:54Z</time></trkpt>
<trkpt lat="49.134582519531" lon="2.6443476676941"><ele></ele><time>2022-6-8T10:6:57Z</time></trkpt>
<trkpt lat="49.134605407715" lon="2.6444773674011"><ele></ele><time>2022-6-8T10:7:0Z</time></trkpt>
<trkpt lat="49.134632110596" lon="2.6445846557617"><ele></ele><time>2022-6-8T10:7:3Z</time></trkpt>
<trkpt lat="49.13463973999" lon="2.6446967124939"><ele></ele><time>2022-6-8T10:7:6Z</time></trkpt>
<trkpt lat="49.134654998779" lon="2.6448757648468"><ele></ele><time>2022-6-8T10:7:9Z</time></trkpt>
<trkpt lat="49.13468170166" lon="2.6450817584991"><ele></ele><time>2022-6-8T10:7:12Z</time></trkpt>
<trkpt lat="49.134704589844" lon="2.6452505588531"><ele></ele><time>2022-6-8T10:7:15Z</time></trkpt>
<trkpt lat="49.13472366333" lon="2.6454045772552"><ele></ele><time>2022-6-8T10:7:18Z</time></trkpt>
<trkpt lat="49.134742736816" lon="2.645542383194"><ele></ele><time>2022-6-8T10:7:21Z</time></trkpt>
<trkpt lat="49.134769439697" lon="2.6456592082977"><ele></ele><time>2022-6-8T10:7:24Z</time></trkpt>
<trkpt lat="49.13480758667" lon="2.6457867622375"><ele></ele><time>2022-6-8T10:7:27Z</time></trkpt>
<trkpt lat="49.13484954834" lon="2.6459093093872"><ele></ele><time>2022-6-8T10:7:30Z</time></trkpt>
<trkpt lat="49.134860992432" lon="2.6460390090942"><ele></ele><time>2022-6-8T10:7:33Z</time></trkpt>
<trkpt lat="49.134830474854" lon="2.6461536884308"><ele></ele><time>2022-6-8T10:7:36Z</time></trkpt>
<trkpt lat="49.134773254395" lon="2.6462869644165"><ele></ele><time>2022-6-8T10:7:39Z</time></trkpt>
<trkpt lat="49.134712219238" lon="2.6464030742645"><ele></ele><time>2022-6-8T10:7:42Z</time></trkpt>
<trkpt lat="49.134651184082" lon="2.6465225219727"><ele></ele><time>2022-6-8T10:7:45Z</time></trkpt>
<trkpt lat="49.134578704834" lon="2.646665096283"><ele></ele><time>2022-6-8T10:7:48Z</time></trkpt>
<trkpt lat="49.134521484375" lon="2.6468317508698"><ele></ele><time>2022-6-8T10:7:51Z</time></trkpt>
<trkpt lat="49.134471893311" lon="2.6469354629517"><ele></ele><time>2022-6-8T10:7:54Z</time></trkpt>
<trkpt lat="49.134418487549" lon="2.647036075592"><ele></ele><time>2022-6-8T10:7:57Z</time></trkpt>
<trkpt lat="49.134338378906" lon="2.6471290588379"><ele></ele><time>2022-6-8T10:8:0Z</time></trkpt>
<trkpt lat="49.134288787842" lon="2.6472055912018"><ele></ele><time>2022-6-8T10:8:3Z</time></trkpt>
<trkpt lat="49.134262084961" lon="2.6472804546356"><ele></ele><time>2022-6-8T10:8:6Z</time></trkpt>
<trkpt lat="49.134231567383" lon="2.6473572254181"><ele></ele><time>2022-6-8T10:8:9Z</time></trkpt>
<trkpt lat="49.13419342041" lon="2.6474328041077"><ele></ele><time>2022-6-8T10:8:12Z</time></trkpt>
<trkpt lat="49.134143829346" lon="2.6475214958191"><ele></ele><time>2022-6-8T10:8:15Z</time></trkpt>
<trkpt lat="49.134086608887" lon="2.6476078033447"><ele></ele><time>2022-6-8T10:8:18Z</time></trkpt>
<trkpt lat="49.13402557373" lon="2.6476836204529"><ele></ele><time>2022-6-8T10:8:21Z</time></trkpt>
<trkpt lat="49.133968353271" lon="2.6477918624878"><ele></ele><time>2022-6-8T10:8:24Z</time></trkpt>
<trkpt lat="49.133930206299" lon="2.6478803157806"><ele></ele><time>2022-6-8T10:8:27Z</time></trkpt>
<trkpt lat="49.133930206299" lon="2.6478803157806"><ele></ele><time>2022-6-8T10:8:30Z</time></trkpt>
<trkpt lat="49.133884429932" lon="2.6480450630188"><ele></ele><time>2022-6-8T10:8:33Z</time></trkpt>
<trkpt lat="49.133853912354" lon="2.6481409072876"><ele></ele><time>2022-6-8T10:8:36Z</time></trkpt>
<trkpt lat="49.133815765381" lon="2.6482393741608"><ele></ele><time>2022-6-8T10:8:39Z</time></trkpt>
<trkpt lat="49.133777618408" lon="2.6483352184296"><ele></ele><time>2022-6-8T10:8:42Z</time></trkpt>
<trkpt lat="49.133731842041" lon="2.6484224796295"><ele></ele><time>2022-6-8T10:8:45Z</time></trkpt>
<trkpt lat="49.133693695068" lon="2.6485147476196"><ele></ele><time>2022-6-8T10:8:48Z</time></trkpt>
<trkpt lat="49.133651733398" lon="2.6485912799835"><ele></ele><time>2022-6-8T10:8:51Z</time></trkpt>
<trkpt lat="49.133617401123" lon="2.6486647129059"><ele></ele><time>2022-6-8T10:8:54Z</time></trkpt>
<trkpt lat="49.133583068848" lon="2.6487400531769"><ele></ele><time>2022-6-8T10:8:57Z</time></trkpt>
<trkpt lat="49.133583068848" lon="2.6487400531769"><ele></ele><time>2022-6-8T10:9:0Z</time></trkpt>
<trkpt lat="49.133518218994" lon="2.6488816738129"><ele></ele><time>2022-6-8T10:9:3Z</time></trkpt>
<trkpt lat="49.133480072021" lon="2.6489636898041"><ele></ele><time>2022-6-8T10:9:6Z</time></trkpt>
<trkpt lat="49.133441925049" lon="2.6490314006805"><ele></ele><time>2022-6-8T10:9:9Z</time></trkpt>
<trkpt lat="49.133441925049" lon="2.6490314006805"><ele></ele><time>2022-6-8T10:9:12Z</time></trkpt>
<trkpt lat="49.133358001709" lon="2.6491506099701"><ele></ele><time>2022-6-8T10:9:15Z</time></trkpt>
<trkpt lat="49.133323669434" lon="2.6492247581482"><ele></ele><time>2022-6-8T10:9:18Z</time></trkpt>
<trkpt lat="49.133323669434" lon="2.6492247581482"><ele></ele><time>2022-6-8T10:9:21Z</time></trkpt>
<trkpt lat="49.13325881958" lon="2.6493682861328"><ele></ele><time>2022-6-8T10:9:24Z</time></trkpt>
<trkpt lat="49.13325881958" lon="2.6493682861328"><ele></ele><time>2022-6-8T10:9:27Z</time></trkpt>
<trkpt lat="49.133190155029" lon="2.6495053768158"><ele></ele><time>2022-6-8T10:9:30Z</time></trkpt>
<trkpt lat="49.133159637451" lon="2.6495952606201"><ele></ele><time>2022-6-8T10:9:33Z</time></trkpt>
<trkpt lat="49.133129119873" lon="2.6496884822845"><ele></ele><time>2022-6-8T10:9:36Z</time></trkpt>
<trkpt lat="49.133102416992" lon="2.6497857570648"><ele></ele><time>2022-6-8T10:9:39Z</time></trkpt>
<trkpt lat="49.133060455322" lon="2.6498854160309"><ele></ele><time>2022-6-8T10:9:42Z</time></trkpt>
<trkpt lat="49.132999420166" lon="2.6499745845795"><ele></ele><time>2022-6-8T10:9:45Z</time></trkpt>
<trkpt lat="49.132934570312" lon="2.6499965190887"><ele></ele><time>2022-6-8T10:9:48Z</time></trkpt>
<trkpt lat="49.132869720459" lon="2.6499791145325"><ele></ele><time>2022-6-8T10:9:51Z</time></trkpt>
<trkpt lat="49.132801055908" lon="2.6499495506287"><ele></ele><time>2022-6-8T10:9:54Z</time></trkpt>
<trkpt lat="49.132732391357" lon="2.6499285697937"><ele></ele><time>2022-6-8T10:9:57Z</time></trkpt>
<trkpt lat="49.132656097412" lon="2.6499054431915"><ele></ele><time>2022-6-8T10:10:0Z</time></trkpt>
<trkpt lat="49.132568359375" lon="2.6498963832855"><ele></ele><time>2022-6-8T10:10:3Z</time></trkpt>
<trkpt lat="49.132507324219" lon="2.6499032974243"><ele></ele><time>2022-6-8T10:10:6Z</time></trkpt>
<trkpt lat="49.132446289062" lon="2.6499156951904"><ele></ele><time>2022-6-8T10:10:9Z</time></trkpt>
<trkpt lat="49.132362365723" lon="2.6499240398407"><ele></ele><time>2022-6-8T10:10:12Z</time></trkpt>
<trkpt lat="49.132286071777" lon="2.6499359607697"><ele></ele><time>2022-6-8T10:10:15Z</time></trkpt>
<trkpt lat="49.132209777832" lon="2.6499621868134"><ele></ele><time>2022-6-8T10:10:18Z</time></trkpt>
<trkpt lat="49.132141113281" lon="2.6499998569489"><ele></ele><time>2022-6-8T10:10:21Z</time></trkpt>
<trkpt lat="49.13207244873" lon="2.6500511169434"><ele></ele><time>2022-6-8T10:10:24Z</time></trkpt>
<trkpt lat="49.132007598877" lon="2.6500878334045"><ele></ele><time>2022-6-8T10:10:27Z</time></trkpt>
<trkpt lat="49.131931304932" lon="2.6501169204712"><ele></ele><time>2022-6-8T10:10:30Z</time></trkpt>
<trkpt lat="49.131862640381" lon="2.6501460075378"><ele></ele><time>2022-6-8T10:10:33Z</time></trkpt>
<trkpt lat="49.131801605225" lon="2.6501581668854"><ele></ele><time>2022-6-8T10:10:36Z</time></trkpt>
<trkpt lat="49.131729125977" lon="2.6501770019531"><ele></ele><time>2022-6-8T10:10:39Z</time></trkpt>
<trkpt lat="49.131660461426" lon="2.6501915454865"><ele></ele><time>2022-6-8T10:10:42Z</time></trkpt>
<trkpt lat="49.131587982178" lon="2.6501953601837"><ele></ele><time>2022-6-8T10:10:45Z</time></trkpt>
<trkpt lat="49.131523132324" lon="2.6501960754395"><ele></ele><time>2022-6-8T10:10:48Z</time></trkpt>
<trkpt lat="49.131435394287" lon="2.6501874923706"><ele></ele><time>2022-6-8T10:10:51Z</time></trkpt>
<trkpt lat="49.13130569458" lon="2.6501762866974"><ele></ele><time>2022-6-8T10:10:54Z</time></trkpt>
<trkpt lat="49.131187438965" lon="2.6501681804657"><ele></ele><time>2022-6-8T10:10:57Z</time></trkpt>
<trkpt lat="49.131065368652" lon="2.650173664093"><ele></ele><time>2022-6-8T10:11:0Z</time></trkpt>
<trkpt lat="49.130931854248" lon="2.6501770019531"><ele></ele><time>2022-6-8T10:11:3Z</time></trkpt>
<trkpt lat="49.130794525146" lon="2.65016913414"><ele></ele><time>2022-6-8T10:11:6Z</time></trkpt>
<trkpt lat="49.130668640137" lon="2.6501679420471"><ele></ele><time>2022-6-8T10:11:9Z</time></trkpt>
<trkpt lat="49.130550384521" lon="2.6501543521881"><ele></ele><time>2022-6-8T10:11:12Z</time></trkpt>
<trkpt lat="49.130416870117" lon="2.650130033493"><ele></ele><time>2022-6-8T10:11:15Z</time></trkpt>
<trkpt lat="49.130298614502" lon="2.6500968933105"><ele></ele><time>2022-6-8T10:11:18Z</time></trkpt>
<trkpt lat="49.130187988281" lon="2.650069475174"><ele></ele><time>2022-6-8T10:11:21Z</time></trkpt>
<trkpt lat="49.130077362061" lon="2.6500339508057"><ele></ele><time>2022-6-8T10:11:24Z</time></trkpt>
<trkpt lat="49.129970550537" lon="2.6499795913696"><ele></ele><time>2022-6-8T10:11:27Z</time></trkpt>
<trkpt lat="49.129863739014" lon="2.649911403656"><ele></ele><time>2022-6-8T10:11:30Z</time></trkpt>
<trkpt lat="49.129749298096" lon="2.6498231887817"><ele></ele><time>2022-6-8T10:11:33Z</time></trkpt>
<trkpt lat="49.12963104248" lon="2.6497309207916"><ele></ele><time>2022-6-8T10:11:36Z</time></trkpt>
<trkpt lat="49.129512786865" lon="2.6496226787567"><ele></ele><time>2022-6-8T10:11:39Z</time></trkpt>
<trkpt lat="49.129405975342" lon="2.6495137214661"><ele></ele><time>2022-6-8T10:11:42Z</time></trkpt>
<trkpt lat="49.129295349121" lon="2.6493899822235"><ele></ele><time>2022-6-8T10:11:45Z</time></trkpt>
<trkpt lat="49.129188537598" lon="2.6492581367493"><ele></ele><time>2022-6-8T10:11:48Z</time></trkpt>
<trkpt lat="49.129104614258" lon="2.6491312980652"><ele></ele><time>2022-6-8T10:11:51Z</time></trkpt>
<trkpt lat="49.129028320312" lon="2.6490087509155"><ele></ele><time>2022-6-8T10:11:54Z</time></trkpt>
<trkpt lat="49.128925323486" lon="2.6488797664642"><ele></ele><time>2022-6-8T10:11:57Z</time></trkpt>
<trkpt lat="49.128818511963" lon="2.6487722396851"><ele></ele><time>2022-6-8T10:12:0Z</time></trkpt>
<trkpt lat="49.128704071045" lon="2.6486418247223"><ele></ele><time>2022-6-8T10:12:3Z</time></trkpt>
<trkpt lat="49.128601074219" lon="2.6485247612"><ele></ele><time>2022-6-8T10:12:6Z</time></trkpt>
<trkpt lat="49.128498077393" lon="2.6484196186066"><ele></ele><time>2022-6-8T10:12:9Z</time></trkpt>
<trkpt lat="49.128379821777" lon="2.6483216285706"><ele></ele><time>2022-6-8T10:12:12Z</time></trkpt>
<trkpt lat="49.128269195557" lon="2.6482322216034"><ele></ele><time>2022-6-8T10:12:15Z</time></trkpt>
<trkpt lat="49.12818145752" lon="2.648149728775"><ele></ele><time>2022-6-8T10:12:18Z</time></trkpt>
<trkpt lat="49.128101348877" lon="2.648056268692"><ele></ele><time>2022-6-8T10:12:21Z</time></trkpt>
<trkpt lat="49.12801361084" lon="2.6479547023773"><ele></ele><time>2022-6-8T10:12:24Z</time></trkpt>
<trkpt lat="49.1279296875" lon="2.6478605270386"><ele></ele><time>2022-6-8T10:12:27Z</time></trkpt>
<trkpt lat="49.127853393555" lon="2.6477839946747"><ele></ele><time>2022-6-8T10:12:30Z</time></trkpt>
<trkpt lat="49.127796173096" lon="2.647718667984"><ele></ele><time>2022-6-8T10:12:33Z</time></trkpt>
<trkpt lat="49.127738952637" lon="2.6476655006409"><ele></ele><time>2022-6-8T10:12:36Z</time></trkpt>
<trkpt lat="49.127674102783" lon="2.6476058959961"><ele></ele><time>2022-6-8T10:12:39Z</time></trkpt>
<trkpt lat="49.127624511719" lon="2.6475636959076"><ele></ele><time>2022-6-8T10:12:42Z</time></trkpt>
<trkpt lat="49.127624511719" lon="2.6475636959076"><ele></ele><time>2022-6-8T10:12:45Z</time></trkpt>
<trkpt lat="49.127517700195" lon="2.6475372314453"><ele></ele><time>2022-6-8T10:12:48Z</time></trkpt>
<trkpt lat="49.127452850342" lon="2.6475174427032"><ele></ele><time>2022-6-8T10:12:51Z</time></trkpt>
<trkpt lat="49.127395629883" lon="2.6474857330322"><ele></ele><time>2022-6-8T10:12:54Z</time></trkpt>
<trkpt lat="49.127395629883" lon="2.6474857330322"><ele></ele><time>2022-6-8T10:12:57Z</time></trkpt>
<trkpt lat="49.127323150635" lon="2.647447347641"><ele></ele><time>2022-6-8T10:13:0Z</time></trkpt>
<trkpt lat="49.127265930176" lon="2.647430896759"><ele></ele><time>2022-6-8T10:13:3Z</time></trkpt>
<trkpt lat="49.127265930176" lon="2.647430896759"><ele></ele><time>2022-6-8T10:13:6Z</time></trkpt>
<trkpt lat="49.127170562744" lon="2.6474268436432"><ele></ele><time>2022-6-8T10:13:9Z</time></trkpt>
<trkpt lat="49.127170562744" lon="2.6474268436432"><ele></ele><time>2022-6-8T10:13:12Z</time></trkpt>
<trkpt lat="49.127071380615" lon="2.6474034786224"><ele></ele><time>2022-6-8T10:13:15Z</time></trkpt>
<trkpt lat="49.127071380615" lon="2.6474034786224"><ele></ele><time>2022-6-8T10:13:18Z</time></trkpt>
<trkpt lat="49.126964569092" lon="2.6473557949066"><ele></ele><time>2022-6-8T10:13:21Z</time></trkpt>
<trkpt lat="49.126895904541" lon="2.6473164558411"><ele></ele><time>2022-6-8T10:13:24Z</time></trkpt>
<trkpt lat="49.126831054688" lon="2.6472818851471"><ele></ele><time>2022-6-8T10:13:27Z</time></trkpt>
<trkpt lat="49.126831054688" lon="2.6472818851471"><ele></ele><time>2022-6-8T10:13:30Z</time></trkpt>
<trkpt lat="49.126728057861" lon="2.6472339630127"><ele></ele><time>2022-6-8T10:13:33Z</time></trkpt>
<trkpt lat="49.126659393311" lon="2.6471951007843"><ele></ele><time>2022-6-8T10:13:36Z</time></trkpt>
<trkpt lat="49.126552581787" lon="2.6471316814423"><ele></ele><time>2022-6-8T10:13:39Z</time></trkpt>
<trkpt lat="49.126495361328" lon="2.6470839977264"><ele></ele><time>2022-6-8T10:13:42Z</time></trkpt>
<trkpt lat="49.12642288208" lon="2.6470246315002"><ele></ele><time>2022-6-8T10:13:45Z</time></trkpt>
<trkpt lat="49.126354217529" lon="2.6469728946686"><ele></ele><time>2022-6-8T10:13:48Z</time></trkpt>
<trkpt lat="49.126293182373" lon="2.6469340324402"><ele></ele><time>2022-6-8T10:13:51Z</time></trkpt>
<trkpt lat="49.126216888428" lon="2.6469078063965"><ele></ele><time>2022-6-8T10:13:54Z</time></trkpt>
<trkpt lat="49.12614440918" lon="2.6468908786774"><ele></ele><time>2022-6-8T10:13:57Z</time></trkpt>
<trkpt lat="49.12614440918" lon="2.6468908786774"><ele></ele><time>2022-6-8T10:14:0Z</time></trkpt>
<trkpt lat="49.126064300537" lon="2.6468470096588"><ele></ele><time>2022-6-8T10:14:3Z</time></trkpt>
<trkpt lat="49.126014709473" lon="2.6467790603638"><ele></ele><time>2022-6-8T10:14:6Z</time></trkpt>
<trkpt lat="49.125961303711" lon="2.6466972827911"><ele></ele><time>2022-6-8T10:14:9Z</time></trkpt>
<trkpt lat="49.125911712646" lon="2.6466152667999"><ele></ele><time>2022-6-8T10:14:12Z</time></trkpt>
<trkpt lat="49.125858306885" lon="2.6465191841125"><ele></ele><time>2022-6-8T10:14:15Z</time></trkpt>
<trkpt lat="49.125816345215" lon="2.6464302539825"><ele></ele><time>2022-6-8T10:14:18Z</time></trkpt>
<trkpt lat="49.12576675415" lon="2.6463460922241"><ele></ele><time>2022-6-8T10:14:21Z</time></trkpt>
<trkpt lat="49.125709533691" lon="2.6462869644165"><ele></ele><time>2022-6-8T10:14:24Z</time></trkpt>
<trkpt lat="49.125606536865" lon="2.6461765766144"><ele></ele><time>2022-6-8T10:14:27Z</time></trkpt>
<trkpt lat="49.125549316406" lon="2.6460938453674"><ele></ele><time>2022-6-8T10:14:30Z</time></trkpt>
<trkpt lat="49.125503540039" lon="2.6460206508636"><ele></ele><time>2022-6-8T10:14:33Z</time></trkpt>
<trkpt lat="49.125461578369" lon="2.6459493637085"><ele></ele><time>2022-6-8T10:14:36Z</time></trkpt>
<trkpt lat="49.125415802002" lon="2.6458759307861"><ele></ele><time>2022-6-8T10:14:39Z</time></trkpt>
<trkpt lat="49.125370025635" lon="2.6458060741425"><ele></ele><time>2022-6-8T10:14:42Z</time></trkpt>
<trkpt lat="49.125308990479" lon="2.6457440853119"><ele></ele><time>2022-6-8T10:14:45Z</time></trkpt>
<trkpt lat="49.125240325928" lon="2.6457095146179"><ele></ele><time>2022-6-8T10:14:48Z</time></trkpt>
<trkpt lat="49.125171661377" lon="2.6456756591797"><ele></ele><time>2022-6-8T10:14:51Z</time></trkpt>
<trkpt lat="49.125102996826" lon="2.6456351280212"><ele></ele><time>2022-6-8T10:14:54Z</time></trkpt>
<trkpt lat="49.125026702881" lon="2.6456038951874"><ele></ele><time>2022-6-8T10:14:57Z</time></trkpt>
<trkpt lat="49.124954223633" lon="2.6455748081207"><ele></ele><time>2022-6-8T10:15:0Z</time></trkpt>
<trkpt lat="49.124870300293" lon="2.6455307006836"><ele></ele><time>2022-6-8T10:15:3Z</time></trkpt>
<trkpt lat="49.124794006348" lon="2.6454665660858"><ele></ele><time>2022-6-8T10:15:6Z</time></trkpt>
<trkpt lat="49.124717712402" lon="2.6454005241394"><ele></ele><time>2022-6-8T10:15:9Z</time></trkpt>
<trkpt lat="49.124656677246" lon="2.6453487873077"><ele></ele><time>2022-6-8T10:15:12Z</time></trkpt>
<trkpt lat="49.12459564209" lon="2.6452972888947"><ele></ele><time>2022-6-8T10:15:15Z</time></trkpt>
<trkpt lat="49.124526977539" lon="2.6452267169952"><ele></ele><time>2022-6-8T10:15:18Z</time></trkpt>
<trkpt lat="49.124462127686" lon="2.6451606750488"><ele></ele><time>2022-6-8T10:15:21Z</time></trkpt>
<trkpt lat="49.124404907227" lon="2.6451501846313"><ele></ele><time>2022-6-8T10:15:24Z</time></trkpt>
<trkpt lat="49.124332427979" lon="2.6451244354248"><ele></ele><time>2022-6-8T10:15:27Z</time></trkpt>
<trkpt lat="49.124263763428" lon="2.6450905799866"><ele></ele><time>2022-6-8T10:15:30Z</time></trkpt>
<trkpt lat="49.124195098877" lon="2.6450474262238"><ele></ele><time>2022-6-8T10:15:33Z</time></trkpt>
<trkpt lat="49.124134063721" lon="2.6450138092041"><ele></ele><time>2022-6-8T10:15:36Z</time></trkpt>
<trkpt lat="49.124073028564" lon="2.6449706554413"><ele></ele><time>2022-6-8T10:15:39Z</time></trkpt>
<trkpt lat="49.124004364014" lon="2.6449115276337"><ele></ele><time>2022-6-8T10:15:42Z</time></trkpt>
<trkpt lat="49.123931884766" lon="2.644852399826"><ele></ele><time>2022-6-8T10:15:45Z</time></trkpt>
<trkpt lat="49.123870849609" lon="2.6448094844818"><ele></ele><time>2022-6-8T10:15:48Z</time></trkpt>
<trkpt lat="49.123737335205" lon="2.6447310447693"><ele></ele><time>2022-6-8T10:15:51Z</time></trkpt>
<trkpt lat="49.123657226562" lon="2.6446979045868"><ele></ele><time>2022-6-8T10:15:54Z</time></trkpt>
<trkpt lat="49.123580932617" lon="2.6446621417999"><ele></ele><time>2022-6-8T10:15:57Z</time></trkpt>
<trkpt lat="49.123512268066" lon="2.6446220874786"><ele></ele><time>2022-6-8T10:16:0Z</time></trkpt>
<trkpt lat="49.123447418213" lon="2.6445879936218"><ele></ele><time>2022-6-8T10:16:3Z</time></trkpt>
<trkpt lat="49.123390197754" lon="2.6445546150208"><ele></ele><time>2022-6-8T10:16:6Z</time></trkpt>
<trkpt lat="49.123321533203" lon="2.6445112228394"><ele></ele><time>2022-6-8T10:16:9Z</time></trkpt>
<trkpt lat="49.123249053955" lon="2.6444628238678"><ele></ele><time>2022-6-8T10:16:12Z</time></trkpt>
<trkpt lat="49.123180389404" lon="2.6444256305695"><ele></ele><time>2022-6-8T10:16:15Z</time></trkpt>
<trkpt lat="49.123119354248" lon="2.6443955898285"><ele></ele><time>2022-6-8T10:16:18Z</time></trkpt>
<trkpt lat="49.123046875" lon="2.644348859787"><ele></ele><time>2022-6-8T10:16:21Z</time></trkpt>
<trkpt lat="49.122970581055" lon="2.6442940235138"><ele></ele><time>2022-6-8T10:16:24Z</time></trkpt>
<trkpt lat="49.122909545898" lon="2.6442406177521"><ele></ele><time>2022-6-8T10:16:27Z</time></trkpt>
<trkpt lat="49.122852325439" lon="2.6441843509674"><ele></ele><time>2022-6-8T10:16:30Z</time></trkpt>
<trkpt lat="49.122783660889" lon="2.6441094875336"><ele></ele><time>2022-6-8T10:16:33Z</time></trkpt>
<trkpt lat="49.122714996338" lon="2.6440179347992"><ele></ele><time>2022-6-8T10:16:36Z</time></trkpt>
<trkpt lat="49.122650146484" lon="2.6439263820648"><ele></ele><time>2022-6-8T10:16:39Z</time></trkpt>
<trkpt lat="49.122585296631" lon="2.6438238620758"><ele></ele><time>2022-6-8T10:16:42Z</time></trkpt>
<trkpt lat="49.12251663208" lon="2.6437168121338"><ele></ele><time>2022-6-8T10:16:45Z</time></trkpt>
<trkpt lat="49.122447967529" lon="2.6436378955841"><ele></ele><time>2022-6-8T10:16:48Z</time></trkpt>
<trkpt lat="49.122367858887" lon="2.6435697078705"><ele></ele><time>2022-6-8T10:16:51Z</time></trkpt>
<trkpt lat="49.122295379639" lon="2.6435346603394"><ele></ele><time>2022-6-8T10:16:54Z</time></trkpt>
<trkpt lat="49.122215270996" lon="2.643486738205"><ele></ele><time>2022-6-8T10:16:57Z</time></trkpt>
<trkpt lat="49.122135162354" lon="2.6434180736542"><ele></ele><time>2022-6-8T10:17:0Z</time></trkpt>
<trkpt lat="49.1220703125" lon="2.6433575153351"><ele></ele><time>2022-6-8T10:17:3Z</time></trkpt>
<trkpt lat="49.122013092041" lon="2.6433267593384"><ele></ele><time>2022-6-8T10:17:6Z</time></trkpt>
<trkpt lat="49.121952056885" lon="2.6432888507843"><ele></ele><time>2022-6-8T10:17:9Z</time></trkpt>
<trkpt lat="49.121891021729" lon="2.6432344913483"><ele></ele><time>2022-6-8T10:17:12Z</time></trkpt>
<trkpt lat="49.121814727783" lon="2.6431586742401"><ele></ele><time>2022-6-8T10:17:15Z</time></trkpt>
<trkpt lat="49.121734619141" lon="2.6431167125702"><ele></ele><time>2022-6-8T10:17:18Z</time></trkpt>
<trkpt lat="49.121646881104" lon="2.6430680751801"><ele></ele><time>2022-6-8T10:17:21Z</time></trkpt>
<trkpt lat="49.121574401855" lon="2.6430230140686"><ele></ele><time>2022-6-8T10:17:24Z</time></trkpt>
<trkpt lat="49.121494293213" lon="2.6429755687714"><ele></ele><time>2022-6-8T10:17:27Z</time></trkpt>
<trkpt lat="49.121395111084" lon="2.6429061889648"><ele></ele><time>2022-6-8T10:17:30Z</time></trkpt>
<trkpt lat="49.121326446533" lon="2.6428248882294"><ele></ele><time>2022-6-8T10:17:33Z</time></trkpt>
<trkpt lat="49.121269226074" lon="2.6427500247955"><ele></ele><time>2022-6-8T10:17:36Z</time></trkpt>
<trkpt lat="49.121192932129" lon="2.6426413059235"><ele></ele><time>2022-6-8T10:17:39Z</time></trkpt>
<trkpt lat="49.121097564697" lon="2.6424815654755"><ele></ele><time>2022-6-8T10:17:42Z</time></trkpt>
<trkpt lat="49.121002197266" lon="2.642329454422"><ele></ele><time>2022-6-8T10:17:45Z</time></trkpt>
<trkpt lat="49.120922088623" lon="2.6422138214111"><ele></ele><time>2022-6-8T10:17:48Z</time></trkpt>
<trkpt lat="49.120834350586" lon="2.642107963562"><ele></ele><time>2022-6-8T10:17:51Z</time></trkpt>
<trkpt lat="49.120723724365" lon="2.6419861316681"><ele></ele><time>2022-6-8T10:17:54Z</time></trkpt>
<trkpt lat="49.120620727539" lon="2.6418755054474"><ele></ele><time>2022-6-8T10:17:57Z</time></trkpt>
<trkpt lat="49.120536804199" lon="2.6417877674103"><ele></ele><time>2022-6-8T10:18:0Z</time></trkpt>
<trkpt lat="49.120441436768" lon="2.6416945457458"><ele></ele><time>2022-6-8T10:18:3Z</time></trkpt>
<trkpt lat="49.12035369873" lon="2.6416065692902"><ele></ele><time>2022-6-8T10:18:6Z</time></trkpt>
<trkpt lat="49.120273590088" lon="2.6415123939514"><ele></ele><time>2022-6-8T10:18:9Z</time></trkpt>
<trkpt lat="49.120212554932" lon="2.6414315700531"><ele></ele><time>2022-6-8T10:18:12Z</time></trkpt>
<trkpt lat="49.120151519775" lon="2.6413443088531"><ele></ele><time>2022-6-8T10:18:15Z</time></trkpt>
<trkpt lat="49.120063781738" lon="2.6412377357483"><ele></ele><time>2022-6-8T10:18:18Z</time></trkpt>
<trkpt lat="49.119987487793" lon="2.6411402225494"><ele></ele><time>2022-6-8T10:18:21Z</time></trkpt>
<trkpt lat="49.119922637939" lon="2.6410558223724"><ele></ele><time>2022-6-8T10:18:24Z</time></trkpt>
<trkpt lat="49.11986541748" lon="2.6409871578217"><ele></ele><time>2022-6-8T10:18:27Z</time></trkpt>
<trkpt lat="49.119792938232" lon="2.6409282684326"><ele></ele><time>2022-6-8T10:18:30Z</time></trkpt>
<trkpt lat="49.119724273682" lon="2.6408789157867"><ele></ele><time>2022-6-8T10:18:33Z</time></trkpt>
<trkpt lat="49.119625091553" lon="2.6408002376556"><ele></ele><time>2022-6-8T10:18:36Z</time></trkpt>
<trkpt lat="49.11954498291" lon="2.6407358646393"><ele></ele><time>2022-6-8T10:18:39Z</time></trkpt>
<trkpt lat="49.119457244873" lon="2.6406600475311"><ele></ele><time>2022-6-8T10:18:42Z</time></trkpt>
<trkpt lat="49.119380950928" lon="2.6406011581421"><ele></ele><time>2022-6-8T10:18:45Z</time></trkpt>
<trkpt lat="49.119274139404" lon="2.6405372619629"><ele></ele><time>2022-6-8T10:18:48Z</time></trkpt>
<trkpt lat="49.119171142578" lon="2.6404626369476"><ele></ele><time>2022-6-8T10:18:51Z</time></trkpt>
<trkpt lat="49.119060516357" lon="2.6404049396515"><ele></ele><time>2022-6-8T10:18:54Z</time></trkpt>
<trkpt lat="49.118946075439" lon="2.6403584480286"><ele></ele><time>2022-6-8T10:18:57Z</time></trkpt>
<trkpt lat="49.118824005127" lon="2.6403241157532"><ele></ele><time>2022-6-8T10:19:0Z</time></trkpt>
<trkpt lat="49.118690490723" lon="2.6402742862701"><ele></ele><time>2022-6-8T10:19:3Z</time></trkpt>
<trkpt lat="49.11861038208" lon="2.6401889324188"><ele></ele><time>2022-6-8T10:19:6Z</time></trkpt>
<trkpt lat="49.118534088135" lon="2.6400425434113"><ele></ele><time>2022-6-8T10:19:9Z</time></trkpt>
<trkpt lat="49.118434906006" lon="2.6398966312408"><ele></ele><time>2022-6-8T10:19:12Z</time></trkpt>
<trkpt lat="49.118343353271" lon="2.6398074626923"><ele></ele><time>2022-6-8T10:19:15Z</time></trkpt>
<trkpt lat="49.118244171143" lon="2.6397414207458"><ele></ele><time>2022-6-8T10:19:18Z</time></trkpt>
<trkpt lat="49.118144989014" lon="2.6396749019623"><ele></ele><time>2022-6-8T10:19:21Z</time></trkpt>
<trkpt lat="49.118026733398" lon="2.6396262645721"><ele></ele><time>2022-6-8T10:19:24Z</time></trkpt>
<trkpt lat="49.117897033691" lon="2.6396162509918"><ele></ele><time>2022-6-8T10:19:27Z</time></trkpt>
<trkpt lat="49.117774963379" lon="2.6396329402924"><ele></ele><time>2022-6-8T10:19:30Z</time></trkpt>
<trkpt lat="49.11763381958" lon="2.6396822929382"><ele></ele><time>2022-6-8T10:19:33Z</time></trkpt>
<trkpt lat="49.117469787598" lon="2.6397199630737"><ele></ele><time>2022-6-8T10:19:36Z</time></trkpt>
<trkpt lat="49.117282867432" lon="2.6397473812103"><ele></ele><time>2022-6-8T10:19:39Z</time></trkpt>
<trkpt lat="49.117149353027" lon="2.6397814750671"><ele></ele><time>2022-6-8T10:19:42Z</time></trkpt>
<trkpt lat="49.116985321045" lon="2.6398150920868"><ele></ele><time>2022-6-8T10:19:45Z</time></trkpt>
<trkpt lat="49.116832733154" lon="2.6398148536682"><ele></ele><time>2022-6-8T10:19:48Z</time></trkpt>
<trkpt lat="49.116691589355" lon="2.6398084163666"><ele></ele><time>2022-6-8T10:19:51Z</time></trkpt>
<trkpt lat="49.116569519043" lon="2.6398026943207"><ele></ele><time>2022-6-8T10:19:54Z</time></trkpt>
<trkpt lat="49.116470336914" lon="2.6397948265076"><ele></ele><time>2022-6-8T10:19:57Z</time></trkpt>
<trkpt lat="49.116363525391" lon="2.6397893428802"><ele></ele><time>2022-6-8T10:20:0Z</time></trkpt>
<trkpt lat="49.116256713867" lon="2.6397840976715"><ele></ele><time>2022-6-8T10:20:3Z</time></trkpt>
<trkpt lat="49.116153717041" lon="2.6397933959961"><ele></ele><time>2022-6-8T10:20:6Z</time></trkpt>
<trkpt lat="49.116069793701" lon="2.6398384571075"><ele></ele><time>2022-6-8T10:20:9Z</time></trkpt>
<trkpt lat="49.115997314453" lon="2.639892578125"><ele></ele><time>2022-6-8T10:20:12Z</time></trkpt>
<trkpt lat="49.115947723389" lon="2.6399431228638"><ele></ele><time>2022-6-8T10:20:15Z</time></trkpt>
<trkpt lat="49.115901947021" lon="2.64000248909"><ele></ele><time>2022-6-8T10:20:18Z</time></trkpt>
<trkpt lat="49.115844726562" lon="2.6400744915009"><ele></ele><time>2022-6-8T10:20:21Z</time></trkpt>
<trkpt lat="49.115783691406" lon="2.6401517391205"><ele></ele><time>2022-6-8T10:20:24Z</time></trkpt>
<trkpt lat="49.115711212158" lon="2.6402275562286"><ele></ele><time>2022-6-8T10:20:27Z</time></trkpt>
<trkpt lat="49.115642547607" lon="2.6403007507324"><ele></ele><time>2022-6-8T10:20:30Z</time></trkpt>
<trkpt lat="49.115573883057" lon="2.6403751373291"><ele></ele><time>2022-6-8T10:20:33Z</time></trkpt>
<trkpt lat="49.115505218506" lon="2.6404538154602"><ele></ele><time>2022-6-8T10:20:36Z</time></trkpt>
<trkpt lat="49.115505218506" lon="2.6404538154602"><ele></ele><time>2022-6-8T10:20:39Z</time></trkpt>
<trkpt lat="49.11540222168" lon="2.6405365467072"><ele></ele><time>2022-6-8T10:20:42Z</time></trkpt>
<trkpt lat="49.115345001221" lon="2.6405720710754"><ele></ele><time>2022-6-8T10:20:45Z</time></trkpt>
<trkpt lat="49.115287780762" lon="2.6406056880951"><ele></ele><time>2022-6-8T10:20:48Z</time></trkpt>
<trkpt lat="49.115234375" lon="2.6406364440918"><ele></ele><time>2022-6-8T10:20:51Z</time></trkpt>
<trkpt lat="49.115234375" lon="2.6406364440918"><ele></ele><time>2022-6-8T10:20:54Z</time></trkpt>
<trkpt lat="49.115154266357" lon="2.6406719684601"><ele></ele><time>2022-6-8T10:20:57Z</time></trkpt>
<trkpt lat="49.115154266357" lon="2.6406719684601"><ele></ele><time>2022-6-8T10:21:0Z</time></trkpt>
<trkpt lat="49.115055084229" lon="2.6406962871552"><ele></ele><time>2022-6-8T10:21:3Z</time></trkpt>
<trkpt lat="49.114994049072" lon="2.6407122612"><ele></ele><time>2022-6-8T10:21:6Z</time></trkpt>
<trkpt lat="49.114933013916" lon="2.6407339572906"><ele></ele><time>2022-6-8T10:21:9Z</time></trkpt>
<trkpt lat="49.114883422852" lon="2.6407520771027"><ele></ele><time>2022-6-8T10:21:12Z</time></trkpt>
<trkpt lat="49.114837646484" lon="2.6407670974731"><ele></ele><time>2022-6-8T10:21:15Z</time></trkpt>
<trkpt lat="49.114795684814" lon="2.6407792568207"><ele></ele><time>2022-6-8T10:21:18Z</time></trkpt>
<trkpt lat="49.114738464355" lon="2.6407916545868"><ele></ele><time>2022-6-8T10:21:21Z</time></trkpt>
<trkpt lat="49.114677429199" lon="2.6408021450043"><ele></ele><time>2022-6-8T10:21:24Z</time></trkpt>
<trkpt lat="49.114555358887" lon="2.6408181190491"><ele></ele><time>2022-6-8T10:21:27Z</time></trkpt>
<trkpt lat="49.11449432373" lon="2.6408228874207"><ele></ele><time>2022-6-8T10:21:30Z</time></trkpt>
<trkpt lat="49.114429473877" lon="2.6408290863037"><ele></ele><time>2022-6-8T10:21:33Z</time></trkpt>
<trkpt lat="49.114364624023" lon="2.6408343315125"><ele></ele><time>2022-6-8T10:21:36Z</time></trkpt>
<trkpt lat="49.114303588867" lon="2.6408379077911"><ele></ele><time>2022-6-8T10:21:39Z</time></trkpt>
<trkpt lat="49.114303588867" lon="2.6408379077911"><ele></ele><time>2022-6-8T10:21:42Z</time></trkpt>
<trkpt lat="49.114196777344" lon="2.6408507823944"><ele></ele><time>2022-6-8T10:21:45Z</time></trkpt>
<trkpt lat="49.114196777344" lon="2.6408507823944"><ele></ele><time>2022-6-8T10:21:48Z</time></trkpt>
<trkpt lat="49.114109039307" lon="2.6408536434174"><ele></ele><time>2022-6-8T10:21:51Z</time></trkpt>
<trkpt lat="49.114109039307" lon="2.6408536434174"><ele></ele><time>2022-6-8T10:21:54Z</time></trkpt>
<trkpt lat="49.113964080811" lon="2.6408538818359"><ele></ele><time>2022-6-8T10:21:57Z</time></trkpt>
<trkpt lat="49.113964080811" lon="2.6408538818359"><ele></ele><time>2022-6-8T10:22:0Z</time></trkpt>
<trkpt lat="49.113864898682" lon="2.6408634185791"><ele></ele><time>2022-6-8T10:22:3Z</time></trkpt>
<trkpt lat="49.113864898682" lon="2.6408634185791"><ele></ele><time>2022-6-8T10:22:6Z</time></trkpt>
<trkpt lat="49.113800048828" lon="2.6408758163452"><ele></ele><time>2022-6-8T10:22:9Z</time></trkpt>
<trkpt lat="49.113800048828" lon="2.6408758163452"><ele></ele><time>2022-6-8T10:22:12Z</time></trkpt>
<trkpt lat="49.113800048828" lon="2.6408758163452"><ele></ele><time>2022-6-8T10:22:15Z</time></trkpt>
<trkpt lat="49.113758087158" lon="2.6409831047058"><ele></ele><time>2022-6-8T10:22:18Z</time></trkpt>
<trkpt lat="49.11372756958" lon="2.6410622596741"><ele></ele><time>2022-6-8T10:22:21Z</time></trkpt>
<trkpt lat="49.113704681396" lon="2.6411564350128"><ele></ele><time>2022-6-8T10:22:24Z</time></trkpt>
<trkpt lat="49.11368560791" lon="2.641259431839"><ele></ele><time>2022-6-8T10:22:27Z</time></trkpt>
<trkpt lat="49.113670349121" lon="2.6413867473602"><ele></ele><time>2022-6-8T10:22:30Z</time></trkpt>
<trkpt lat="49.113662719727" lon="2.6415598392487"><ele></ele><time>2022-6-8T10:22:33Z</time></trkpt>
<trkpt lat="49.113655090332" lon="2.6417193412781"><ele></ele><time>2022-6-8T10:22:36Z</time></trkpt>
<trkpt lat="49.113639831543" lon="2.6418733596802"><ele></ele><time>2022-6-8T10:22:39Z</time></trkpt>
<trkpt lat="49.113620758057" lon="2.6420161724091"><ele></ele><time>2022-6-8T10:22:42Z</time></trkpt>
<trkpt lat="49.11360168457" lon="2.6421806812286"><ele></ele><time>2022-6-8T10:22:45Z</time></trkpt>
<trkpt lat="49.113582611084" lon="2.6423211097717"><ele></ele><time>2022-6-8T10:22:48Z</time></trkpt>
<trkpt lat="49.113555908203" lon="2.6424791812897"><ele></ele><time>2022-6-8T10:22:51Z</time></trkpt>
<trkpt lat="49.11351776123" lon="2.6425905227661"><ele></ele><time>2022-6-8T10:22:54Z</time></trkpt>
<trkpt lat="49.113437652588" lon="2.6427059173584"><ele></ele><time>2022-6-8T10:22:57Z</time></trkpt>
<trkpt lat="49.113346099854" lon="2.6428275108337"><ele></ele><time>2022-6-8T10:23:0Z</time></trkpt>
<trkpt lat="49.11328125" lon="2.6428968906403"><ele></ele><time>2022-6-8T10:23:3Z</time></trkpt>
<trkpt lat="49.113216400146" lon="2.6429626941681"><ele></ele><time>2022-6-8T10:23:6Z</time></trkpt>
<trkpt lat="49.113132476807" lon="2.6430566310883"><ele></ele><time>2022-6-8T10:23:9Z</time></trkpt>
<trkpt lat="49.113048553467" lon="2.643150806427"><ele></ele><time>2022-6-8T10:23:12Z</time></trkpt>
<trkpt lat="49.112968444824" lon="2.6432483196259"><ele></ele><time>2022-6-8T10:23:15Z</time></trkpt>
<trkpt lat="49.112899780273" lon="2.6433763504028"><ele></ele><time>2022-6-8T10:23:18Z</time></trkpt>
<trkpt lat="49.112854003906" lon="2.6435017585754"><ele></ele><time>2022-6-8T10:23:21Z</time></trkpt>
<trkpt lat="49.112831115723" lon="2.6436779499054"><ele></ele><time>2022-6-8T10:23:24Z</time></trkpt>
<trkpt lat="49.112823486328" lon="2.6438467502594"><ele></ele><time>2022-6-8T10:23:27Z</time></trkpt>
<trkpt lat="49.112846374512" lon="2.6440804004669"><ele></ele><time>2022-6-8T10:23:30Z</time></trkpt>
<trkpt lat="49.112873077393" lon="2.6443436145782"><ele></ele><time>2022-6-8T10:23:33Z</time></trkpt>
<trkpt lat="49.112895965576" lon="2.6445639133453"><ele></ele><time>2022-6-8T10:23:36Z</time></trkpt>
<trkpt lat="49.112895965576" lon="2.6447417736053"><ele></ele><time>2022-6-8T10:23:39Z</time></trkpt>
<trkpt lat="49.112892150879" lon="2.6449387073517"><ele></ele><time>2022-6-8T10:23:42Z</time></trkpt>
<trkpt lat="49.112888336182" lon="2.6451318264008"><ele></ele><time>2022-6-8T10:23:45Z</time></trkpt>
<trkpt lat="49.112884521484" lon="2.6453115940094"><ele></ele><time>2022-6-8T10:23:48Z</time></trkpt>
<trkpt lat="49.11287689209" lon="2.6454772949219"><ele></ele><time>2022-6-8T10:23:51Z</time></trkpt>
<trkpt lat="49.112873077393" lon="2.6456246376038"><ele></ele><time>2022-6-8T10:23:54Z</time></trkpt>
<trkpt lat="49.112869262695" lon="2.6457726955414"><ele></ele><time>2022-6-8T10:23:57Z</time></trkpt>
<trkpt lat="49.112865447998" lon="2.6459231376648"><ele></ele><time>2022-6-8T10:24:0Z</time></trkpt>
<trkpt lat="49.112861633301" lon="2.6460659503937"><ele></ele><time>2022-6-8T10:24:3Z</time></trkpt>
<trkpt lat="49.112857818604" lon="2.6462087631226"><ele></ele><time>2022-6-8T10:24:6Z</time></trkpt>
<trkpt lat="49.112854003906" lon="2.6463398933411"><ele></ele><time>2022-6-8T10:24:9Z</time></trkpt>
<trkpt lat="49.112873077393" lon="2.6464426517487"><ele></ele><time>2022-6-8T10:24:12Z</time></trkpt>
<trkpt lat="49.112892150879" lon="2.6465275287628"><ele></ele><time>2022-6-8T10:24:15Z</time></trkpt>
<trkpt lat="49.112911224365" lon="2.6466112136841"><ele></ele><time>2022-6-8T10:24:18Z</time></trkpt>
<trkpt lat="49.112934112549" lon="2.6467254161835"><ele></ele><time>2022-6-8T10:24:21Z</time></trkpt>
<trkpt lat="49.112949371338" lon="2.6468193531036"><ele></ele><time>2022-6-8T10:24:24Z</time></trkpt>
<trkpt lat="49.112968444824" lon="2.6469099521637"><ele></ele><time>2022-6-8T10:24:27Z</time></trkpt>
<trkpt lat="49.112987518311" lon="2.6470148563385"><ele></ele><time>2022-6-8T10:24:30Z</time></trkpt>
<trkpt lat="49.113006591797" lon="2.6471085548401"><ele></ele><time>2022-6-8T10:24:33Z</time></trkpt>
<trkpt lat="49.113021850586" lon="2.6471996307373"><ele></ele><time>2022-6-8T10:24:36Z</time></trkpt>
<trkpt lat="49.113037109375" lon="2.6472916603088"><ele></ele><time>2022-6-8T10:24:39Z</time></trkpt>
<trkpt lat="49.113056182861" lon="2.6473958492279"><ele></ele><time>2022-6-8T10:24:42Z</time></trkpt>
<trkpt lat="49.11307144165" lon="2.647486448288"><ele></ele><time>2022-6-8T10:24:45Z</time></trkpt>
<trkpt lat="49.11307144165" lon="2.647486448288"><ele></ele><time>2022-6-8T10:24:48Z</time></trkpt>
<trkpt lat="49.11307144165" lon="2.647486448288"><ele></ele><time>2022-6-8T10:24:51Z</time></trkpt>
<trkpt lat="49.113121032715" lon="2.6478934288025"><ele></ele><time>2022-6-8T10:24:54Z</time></trkpt>
<trkpt lat="49.113166809082" lon="2.6480567455292"><ele></ele><time>2022-6-8T10:24:57Z</time></trkpt>
<trkpt lat="49.113212585449" lon="2.6481554508209"><ele></ele><time>2022-6-8T10:25:0Z</time></trkpt>
<trkpt lat="49.113243103027" lon="2.6482393741608"><ele></ele><time>2022-6-8T10:25:3Z</time></trkpt>
<trkpt lat="49.113265991211" lon="2.6483318805695"><ele></ele><time>2022-6-8T10:25:6Z</time></trkpt>
<trkpt lat="49.113292694092" lon="2.6484360694885"><ele></ele><time>2022-6-8T10:25:9Z</time></trkpt>
<trkpt lat="49.113319396973" lon="2.6485407352448"><ele></ele><time>2022-6-8T10:25:12Z</time></trkpt>
<trkpt lat="49.113342285156" lon="2.6486368179321"><ele></ele><time>2022-6-8T10:25:15Z</time></trkpt>
<trkpt lat="49.11336517334" lon="2.6487340927124"><ele></ele><time>2022-6-8T10:25:18Z</time></trkpt>
<trkpt lat="49.113388061523" lon="2.648820400238"><ele></ele><time>2022-6-8T10:25:21Z</time></trkpt>
<trkpt lat="49.113388061523" lon="2.648820400238"><ele></ele><time>2022-6-8T10:25:24Z</time></trkpt>
<trkpt lat="49.113418579102" lon="2.6490061283112"><ele></ele><time>2022-6-8T10:25:27Z</time></trkpt>
<trkpt lat="49.113441467285" lon="2.6490976810455"><ele></ele><time>2022-6-8T10:25:30Z</time></trkpt>
<trkpt lat="49.113460540771" lon="2.6492080688477"><ele></ele><time>2022-6-8T10:25:33Z</time></trkpt>
<trkpt lat="49.113479614258" lon="2.6493051052094"><ele></ele><time>2022-6-8T10:25:36Z</time></trkpt>
<trkpt lat="49.113479614258" lon="2.6493051052094"><ele></ele><time>2022-6-8T10:25:39Z</time></trkpt>
<trkpt lat="49.113513946533" lon="2.6494822502136"><ele></ele><time>2022-6-8T10:25:42Z</time></trkpt>
<trkpt lat="49.113536834717" lon="2.6495800018311"><ele></ele><time>2022-6-8T10:25:45Z</time></trkpt>
<trkpt lat="49.1135597229" lon="2.6496801376343"><ele></ele><time>2022-6-8T10:25:48Z</time></trkpt>
<trkpt lat="49.113594055176" lon="2.649799823761"><ele></ele><time>2022-6-8T10:25:51Z</time></trkpt>
<trkpt lat="49.113616943359" lon="2.6498851776123"><ele></ele><time>2022-6-8T10:25:54Z</time></trkpt>
<trkpt lat="49.113639831543" lon="2.6499664783478"><ele></ele><time>2022-6-8T10:25:57Z</time></trkpt>
<trkpt lat="49.113662719727" lon="2.6500649452209"><ele></ele><time>2022-6-8T10:26:0Z</time></trkpt>
<trkpt lat="49.11368560791" lon="2.6501455307007"><ele></ele><time>2022-6-8T10:26:3Z</time></trkpt>
<trkpt lat="49.11368560791" lon="2.6501455307007"><ele></ele><time>2022-6-8T10:26:6Z</time></trkpt>
<trkpt lat="49.113765716553" lon="2.6501259803772"><ele></ele><time>2022-6-8T10:26:9Z</time></trkpt>
<trkpt lat="49.113765716553" lon="2.6501259803772"><ele></ele><time>2022-6-8T10:26:12Z</time></trkpt>
<trkpt lat="49.113834381104" lon="2.6501128673553"><ele></ele><time>2022-6-8T10:26:15Z</time></trkpt>
<trkpt lat="49.113952636719" lon="2.6500844955444"><ele></ele><time>2022-6-8T10:26:18Z</time></trkpt>
<trkpt lat="49.114135742188" lon="2.6500763893127"><ele></ele><time>2022-6-8T10:26:21Z</time></trkpt>
<trkpt lat="49.114250183105" lon="2.6500761508942"><ele></ele><time>2022-6-8T10:26:24Z</time></trkpt>
<trkpt lat="49.114315032959" lon="2.6500732898712"><ele></ele><time>2022-6-8T10:26:27Z</time></trkpt>
<trkpt lat="49.114376068115" lon="2.6500678062439"><ele></ele><time>2022-6-8T10:26:30Z</time></trkpt>
<trkpt lat="49.114490509033" lon="2.6500709056854"><ele></ele><time>2022-6-8T10:26:33Z</time></trkpt>
<trkpt lat="49.114559173584" lon="2.6500725746155"><ele></ele><time>2022-6-8T10:26:36Z</time></trkpt>
<trkpt lat="49.114639282227" lon="2.6500716209412"><ele></ele><time>2022-6-8T10:26:39Z</time></trkpt>
<trkpt lat="49.114707946777" lon="2.6500651836395"><ele></ele><time>2022-6-8T10:26:42Z</time></trkpt>
<trkpt lat="49.114765167236" lon="2.6500616073608"><ele></ele><time>2022-6-8T10:26:45Z</time></trkpt>
<trkpt lat="49.114826202393" lon="2.6500625610352"><ele></ele><time>2022-6-8T10:26:48Z</time></trkpt>
<trkpt lat="49.114891052246" lon="2.6500670909882"><ele></ele><time>2022-6-8T10:26:51Z</time></trkpt>
<trkpt lat="49.114967346191" lon="2.6500716209412"><ele></ele><time>2022-6-8T10:26:54Z</time></trkpt>
<trkpt lat="49.115043640137" lon="2.6500797271729"><ele></ele><time>2022-6-8T10:26:57Z</time></trkpt>
<trkpt lat="49.115119934082" lon="2.6500842571259"><ele></ele><time>2022-6-8T10:27:0Z</time></trkpt>
<trkpt lat="49.115196228027" lon="2.6500816345215"><ele></ele><time>2022-6-8T10:27:3Z</time></trkpt>
<trkpt lat="49.115268707275" lon="2.6500823497772"><ele></ele><time>2022-6-8T10:27:6Z</time></trkpt>
<trkpt lat="49.115356445312" lon="2.6500906944275"><ele></ele><time>2022-6-8T10:27:9Z</time></trkpt>
<trkpt lat="49.115459442139" lon="2.6501116752625"><ele></ele><time>2022-6-8T10:27:12Z</time></trkpt>
<trkpt lat="49.115547180176" lon="2.6501200199127"><ele></ele><time>2022-6-8T10:27:15Z</time></trkpt>
<trkpt lat="49.115627288818" lon="2.6501245498657"><ele></ele><time>2022-6-8T10:27:18Z</time></trkpt>
<trkpt lat="49.11572265625" lon="2.650134563446"><ele></ele><time>2022-6-8T10:27:21Z</time></trkpt>
<trkpt lat="49.115802764893" lon="2.6501288414001"><ele></ele><time>2022-6-8T10:27:24Z</time></trkpt>
<trkpt lat="49.115894317627" lon="2.65012383461"><ele></ele><time>2022-6-8T10:27:27Z</time></trkpt>
<trkpt lat="49.115966796875" lon="2.6501049995422"><ele></ele><time>2022-6-8T10:27:30Z</time></trkpt>
<trkpt lat="49.116046905518" lon="2.6500990390778"><ele></ele><time>2022-6-8T10:27:33Z</time></trkpt>
<trkpt lat="49.116138458252" lon="2.6500968933105"><ele></ele><time>2022-6-8T10:27:36Z</time></trkpt>
<trkpt lat="49.116226196289" lon="2.6500954627991"><ele></ele><time>2022-6-8T10:27:39Z</time></trkpt>
<trkpt lat="49.116310119629" lon="2.6500985622406"><ele></ele><time>2022-6-8T10:27:42Z</time></trkpt>
<trkpt lat="49.116405487061" lon="2.6500999927521"><ele></ele><time>2022-6-8T10:27:45Z</time></trkpt>
<trkpt lat="49.116493225098" lon="2.650107383728"><ele></ele><time>2022-6-8T10:27:48Z</time></trkpt>
<trkpt lat="49.116588592529" lon="2.6501109600067"><ele></ele><time>2022-6-8T10:27:51Z</time></trkpt>
<trkpt lat="49.116695404053" lon="2.6501007080078"><ele></ele><time>2022-6-8T10:27:54Z</time></trkpt>
<trkpt lat="49.116790771484" lon="2.6500935554504"><ele></ele><time>2022-6-8T10:27:57Z</time></trkpt>
<trkpt lat="49.116882324219" lon="2.6500859260559"><ele></ele><time>2022-6-8T10:28:0Z</time></trkpt>
<trkpt lat="49.116970062256" lon="2.6500797271729"><ele></ele><time>2022-6-8T10:28:3Z</time></trkpt>
<trkpt lat="49.117034912109" lon="2.6500773429871"><ele></ele><time>2022-6-8T10:28:6Z</time></trkpt>
<trkpt lat="49.117111206055" lon="2.6500742435455"><ele></ele><time>2022-6-8T10:28:9Z</time></trkpt>
<trkpt lat="49.117183685303" lon="2.6500597000122"><ele></ele><time>2022-6-8T10:28:12Z</time></trkpt>
<trkpt lat="49.117240905762" lon="2.6500267982483"><ele></ele><time>2022-6-8T10:28:15Z</time></trkpt>
<trkpt lat="49.117290496826" lon="2.6499891281128"><ele></ele><time>2022-6-8T10:28:18Z</time></trkpt>
<trkpt lat="49.117351531982" lon="2.6499423980713"><ele></ele><time>2022-6-8T10:28:21Z</time></trkpt>
<trkpt lat="49.117427825928" lon="2.649894952774"><ele></ele><time>2022-6-8T10:28:24Z</time></trkpt>
<trkpt lat="49.117511749268" lon="2.6498498916626"><ele></ele><time>2022-6-8T10:28:27Z</time></trkpt>
<trkpt lat="49.117595672607" lon="2.6498005390167"><ele></ele><time>2022-6-8T10:28:30Z</time></trkpt>
<trkpt lat="49.117679595947" lon="2.6497461795807"><ele></ele><time>2022-6-8T10:28:33Z</time></trkpt>
<trkpt lat="49.117755889893" lon="2.6497051715851"><ele></ele><time>2022-6-8T10:28:36Z</time></trkpt>
<trkpt lat="49.117858886719" lon="2.6496858596802"><ele></ele><time>2022-6-8T10:28:39Z</time></trkpt>
<trkpt lat="49.117961883545" lon="2.6497025489807"><ele></ele><time>2022-6-8T10:28:42Z</time></trkpt>
<trkpt lat="49.118064880371" lon="2.6497249603271"><ele></ele><time>2022-6-8T10:28:45Z</time></trkpt>
<trkpt lat="49.118148803711" lon="2.6497504711151"><ele></ele><time>2022-6-8T10:28:48Z</time></trkpt>
<trkpt lat="49.118244171143" lon="2.649796962738"><ele></ele><time>2022-6-8T10:28:51Z</time></trkpt>
<trkpt lat="49.118328094482" lon="2.6498379707336"><ele></ele><time>2022-6-8T10:28:54Z</time></trkpt>
<trkpt lat="49.118389129639" lon="2.6498489379883"><ele></ele><time>2022-6-8T10:28:57Z</time></trkpt>
<trkpt lat="49.118453979492" lon="2.6498160362244"><ele></ele><time>2022-6-8T10:29:0Z</time></trkpt>
<trkpt lat="49.11852645874" lon="2.6497843265533"><ele></ele><time>2022-6-8T10:29:3Z</time></trkpt>
<trkpt lat="49.118598937988" lon="2.6497728824615"><ele></ele><time>2022-6-8T10:29:6Z</time></trkpt>
<trkpt lat="49.118667602539" lon="2.6497638225555"><ele></ele><time>2022-6-8T10:29:9Z</time></trkpt>
<trkpt lat="49.11873626709" lon="2.6497404575348"><ele></ele><time>2022-6-8T10:29:12Z</time></trkpt>
<trkpt lat="49.118812561035" lon="2.6497077941895"><ele></ele><time>2022-6-8T10:29:15Z</time></trkpt>
<trkpt lat="49.118892669678" lon="2.6496770381927"><ele></ele><time>2022-6-8T10:29:18Z</time></trkpt>
<trkpt lat="49.118965148926" lon="2.6496458053589"><ele></ele><time>2022-6-8T10:29:21Z</time></trkpt>
<trkpt lat="49.119029998779" lon="2.6495764255524"><ele></ele><time>2022-6-8T10:29:24Z</time></trkpt>
<trkpt lat="49.11909866333" lon="2.6495072841644"><ele></ele><time>2022-6-8T10:29:27Z</time></trkpt>
<trkpt lat="49.119186401367" lon="2.6494741439819"><ele></ele><time>2022-6-8T10:29:30Z</time></trkpt>
<trkpt lat="49.119258880615" lon="2.6494615077972"><ele></ele><time>2022-6-8T10:29:33Z</time></trkpt>
<trkpt lat="49.119335174561" lon="2.6494371891022"><ele></ele><time>2022-6-8T10:29:36Z</time></trkpt>
<trkpt lat="49.1194190979" lon="2.6494073867798"><ele></ele><time>2022-6-8T10:29:39Z</time></trkpt>
<trkpt lat="49.119476318359" lon="2.6493425369263"><ele></ele><time>2022-6-8T10:29:42Z</time></trkpt>
<trkpt lat="49.119476318359" lon="2.6493425369263"><ele></ele><time>2022-6-8T10:29:45Z</time></trkpt>
<trkpt lat="49.119506835938" lon="2.6491868495941"><ele></ele><time>2022-6-8T10:29:48Z</time></trkpt>
<trkpt lat="49.119510650635" lon="2.6490588188171"><ele></ele><time>2022-6-8T10:29:51Z</time></trkpt>
<trkpt lat="49.11950302124" lon="2.6489498615265"><ele></ele><time>2022-6-8T10:29:54Z</time></trkpt>
<trkpt lat="49.119491577148" lon="2.6488602161407"><ele></ele><time>2022-6-8T10:29:57Z</time></trkpt>
<trkpt lat="49.11950302124" lon="2.648743391037"><ele></ele><time>2022-6-8T10:30:0Z</time></trkpt>
<trkpt lat="49.119525909424" lon="2.6486015319824"><ele></ele><time>2022-6-8T10:30:3Z</time></trkpt>
<trkpt lat="49.119567871094" lon="2.648491859436"><ele></ele><time>2022-6-8T10:30:6Z</time></trkpt>
<trkpt lat="49.11958694458" lon="2.6483817100525"><ele></ele><time>2022-6-8T10:30:9Z</time></trkpt>
<trkpt lat="49.119598388672" lon="2.6482796669006"><ele></ele><time>2022-6-8T10:30:12Z</time></trkpt>
<trkpt lat="49.119625091553" lon="2.6481776237488"><ele></ele><time>2022-6-8T10:30:15Z</time></trkpt>
<trkpt lat="49.119667053223" lon="2.6481029987335"><ele></ele><time>2022-6-8T10:30:18Z</time></trkpt>
<trkpt lat="49.119667053223" lon="2.6481029987335"><ele></ele><time>2022-6-8T10:30:21Z</time></trkpt>
<trkpt lat="49.119747161865" lon="2.64808344841"><ele></ele><time>2022-6-8T10:30:24Z</time></trkpt>
<trkpt lat="49.119808197021" lon="2.6480910778046"><ele></ele><time>2022-6-8T10:30:27Z</time></trkpt>
<trkpt lat="49.119808197021" lon="2.6480910778046"><ele></ele><time>2022-6-8T10:30:30Z</time></trkpt>
<trkpt lat="49.119911193848" lon="2.6481287479401"><ele></ele><time>2022-6-8T10:30:33Z</time></trkpt>
<trkpt lat="49.119911193848" lon="2.6481287479401"><ele></ele><time>2022-6-8T10:30:36Z</time></trkpt>
<trkpt lat="49.119911193848" lon="2.6481287479401"><ele></ele><time>2022-6-8T10:30:39Z</time></trkpt>
<trkpt lat="49.119968414307" lon="2.6481719017029"><ele></ele><time>2022-6-8T10:30:42Z</time></trkpt>
<trkpt lat="49.119968414307" lon="2.6481719017029"><ele></ele><time>2022-6-8T10:30:45Z</time></trkpt>
<trkpt lat="49.119968414307" lon="2.6481719017029"><ele></ele><time>2022-6-8T10:30:48Z</time></trkpt>
<trkpt lat="49.120101928711" lon="2.6482138633728"><ele></ele><time>2022-6-8T10:30:51Z</time></trkpt>
<trkpt lat="49.120204925537" lon="2.6482717990875"><ele></ele><time>2022-6-8T10:30:54Z</time></trkpt>
<trkpt lat="49.120281219482" lon="2.6483006477356"><ele></ele><time>2022-6-8T10:30:57Z</time></trkpt>
<trkpt lat="49.120349884033" lon="2.6483299732208"><ele></ele><time>2022-6-8T10:31:0Z</time></trkpt>
<trkpt lat="49.120410919189" lon="2.6483561992645"><ele></ele><time>2022-6-8T10:31:3Z</time></trkpt>
<trkpt lat="49.120475769043" lon="2.6483869552612"><ele></ele><time>2022-6-8T10:31:6Z</time></trkpt>
<trkpt lat="49.120571136475" lon="2.6484324932098"><ele></ele><time>2022-6-8T10:31:9Z</time></trkpt>
<trkpt lat="49.120662689209" lon="2.6484606266022"><ele></ele><time>2022-6-8T10:31:12Z</time></trkpt>
<trkpt lat="49.120723724365" lon="2.6484997272491"><ele></ele><time>2022-6-8T10:31:15Z</time></trkpt>
<trkpt lat="49.120830535889" lon="2.6485731601715"><ele></ele><time>2022-6-8T10:31:18Z</time></trkpt>
<trkpt lat="49.12088394165" lon="2.6486258506775"><ele></ele><time>2022-6-8T10:31:21Z</time></trkpt>
<trkpt lat="49.120941162109" lon="2.6486930847168"><ele></ele><time>2022-6-8T10:31:24Z</time></trkpt>
<trkpt lat="49.120994567871" lon="2.6487700939178"><ele></ele><time>2022-6-8T10:31:27Z</time></trkpt>
<trkpt lat="49.121047973633" lon="2.6488606929779"><ele></ele><time>2022-6-8T10:31:30Z</time></trkpt>
<trkpt lat="49.121097564697" lon="2.6489543914795"><ele></ele><time>2022-6-8T10:31:33Z</time></trkpt>
<trkpt lat="49.121143341064" lon="2.6490321159363"><ele></ele><time>2022-6-8T10:31:36Z</time></trkpt>
<trkpt lat="49.121189117432" lon="2.6491134166718"><ele></ele><time>2022-6-8T10:31:39Z</time></trkpt>
<trkpt lat="49.121234893799" lon="2.6491730213165"><ele></ele><time>2022-6-8T10:31:42Z</time></trkpt>
<trkpt lat="49.121326446533" lon="2.6492953300476"><ele></ele><time>2022-6-8T10:31:45Z</time></trkpt>
<trkpt lat="49.1213722229" lon="2.6493663787842"><ele></ele><time>2022-6-8T10:31:48Z</time></trkpt>
<trkpt lat="49.12141418457" lon="2.6494436264038"><ele></ele><time>2022-6-8T10:31:51Z</time></trkpt>
<trkpt lat="49.121467590332" lon="2.6495087146759"><ele></ele><time>2022-6-8T10:31:54Z</time></trkpt>
<trkpt lat="49.121528625488" lon="2.6495497226715"><ele></ele><time>2022-6-8T10:31:57Z</time></trkpt>
<trkpt lat="49.121528625488" lon="2.6495497226715"><ele></ele><time>2022-6-8T10:32:0Z</time></trkpt>
<trkpt lat="49.121627807617" lon="2.6496469974518"><ele></ele><time>2022-6-8T10:32:3Z</time></trkpt>
<trkpt lat="49.121677398682" lon="2.6497006416321"><ele></ele><time>2022-6-8T10:32:6Z</time></trkpt>
<trkpt lat="49.121726989746" lon="2.6497628688812"><ele></ele><time>2022-6-8T10:32:9Z</time></trkpt>
<trkpt lat="49.121772766113" lon="2.6498186588287"><ele></ele><time>2022-6-8T10:32:12Z</time></trkpt>
<trkpt lat="49.12183380127" lon="2.6498870849609"><ele></ele><time>2022-6-8T10:32:15Z</time></trkpt>
<trkpt lat="49.121894836426" lon="2.6499390602112"><ele></ele><time>2022-6-8T10:32:18Z</time></trkpt>
<trkpt lat="49.121959686279" lon="2.6499900817871"><ele></ele><time>2022-6-8T10:32:21Z</time></trkpt>
<trkpt lat="49.122016906738" lon="2.6500198841095"><ele></ele><time>2022-6-8T10:32:24Z</time></trkpt>
<trkpt lat="49.122081756592" lon="2.6500277519226"><ele></ele><time>2022-6-8T10:32:27Z</time></trkpt>
<trkpt lat="49.122142791748" lon="2.6500132083893"><ele></ele><time>2022-6-8T10:32:30Z</time></trkpt>
<trkpt lat="49.122200012207" lon="2.6499950885773"><ele></ele><time>2022-6-8T10:32:33Z</time></trkpt>
<trkpt lat="49.122261047363" lon="2.6499977111816"><ele></ele><time>2022-6-8T10:32:36Z</time></trkpt>
<trkpt lat="49.122325897217" lon="2.6500127315521"><ele></ele><time>2022-6-8T10:32:39Z</time></trkpt>
<trkpt lat="49.122325897217" lon="2.6500127315521"><ele></ele><time>2022-6-8T10:32:42Z</time></trkpt>
<trkpt lat="49.122425079346" lon="2.6500272750854"><ele></ele><time>2022-6-8T10:32:45Z</time></trkpt>
<trkpt lat="49.122425079346" lon="2.6500272750854"><ele></ele><time>2022-6-8T10:32:48Z</time></trkpt>
<trkpt lat="49.12251663208" lon="2.6500811576843"><ele></ele><time>2022-6-8T10:32:51Z</time></trkpt>
<trkpt lat="49.122566223145" lon="2.650139093399"><ele></ele><time>2022-6-8T10:32:54Z</time></trkpt>
<trkpt lat="49.122611999512" lon="2.6502044200897"><ele></ele><time>2022-6-8T10:32:57Z</time></trkpt>
<trkpt lat="49.122657775879" lon="2.6502759456635"><ele></ele><time>2022-6-8T10:33:0Z</time></trkpt>
<trkpt lat="49.122695922852" lon="2.6503458023071"><ele></ele><time>2022-6-8T10:33:3Z</time></trkpt>
<trkpt lat="49.122734069824" lon="2.6504204273224"><ele></ele><time>2022-6-8T10:33:6Z</time></trkpt>
<trkpt lat="49.122734069824" lon="2.6504204273224"><ele></ele><time>2022-6-8T10:33:9Z</time></trkpt>
<trkpt lat="49.122798919678" lon="2.6505270004272"><ele></ele><time>2022-6-8T10:33:12Z</time></trkpt>
<trkpt lat="49.122798919678" lon="2.6505270004272"><ele></ele><time>2022-6-8T10:33:15Z</time></trkpt>
<trkpt lat="49.122875213623" lon="2.6506285667419"><ele></ele><time>2022-6-8T10:33:18Z</time></trkpt>
<trkpt lat="49.122955322266" lon="2.6507475376129"><ele></ele><time>2022-6-8T10:33:21Z</time></trkpt>
<trkpt lat="49.122993469238" lon="2.6508238315582"><ele></ele><time>2022-6-8T10:33:24Z</time></trkpt>
<trkpt lat="49.123039245605" lon="2.6508893966675"><ele></ele><time>2022-6-8T10:33:27Z</time></trkpt>
<trkpt lat="49.123077392578" lon="2.6509671211243"><ele></ele><time>2022-6-8T10:33:30Z</time></trkpt>
<trkpt lat="49.123111724854" lon="2.6510510444641"><ele></ele><time>2022-6-8T10:33:33Z</time></trkpt>
<trkpt lat="49.123176574707" lon="2.6511979103088"><ele></ele><time>2022-6-8T10:33:36Z</time></trkpt>
<trkpt lat="49.123245239258" lon="2.6513323783875"><ele></ele><time>2022-6-8T10:33:39Z</time></trkpt>
<trkpt lat="49.123329162598" lon="2.6514387130737"><ele></ele><time>2022-6-8T10:33:42Z</time></trkpt>
<trkpt lat="49.123378753662" lon="2.6514925956726"><ele></ele><time>2022-6-8T10:33:45Z</time></trkpt>
<trkpt lat="49.123428344727" lon="2.6515436172485"><ele></ele><time>2022-6-8T10:33:48Z</time></trkpt>
<trkpt lat="49.123481750488" lon="2.6515870094299"><ele></ele><time>2022-6-8T10:33:51Z</time></trkpt>
<trkpt lat="49.123538970947" lon="2.6516370773315"><ele></ele><time>2022-6-8T10:33:54Z</time></trkpt>
<trkpt lat="49.123592376709" lon="2.65167760849"><ele></ele><time>2022-6-8T10:33:57Z</time></trkpt>
<trkpt lat="49.123645782471" lon="2.6517159938812"><ele></ele><time>2022-6-8T10:34:0Z</time></trkpt>
<trkpt lat="49.123691558838" lon="2.6517519950867"><ele></ele><time>2022-6-8T10:34:3Z</time></trkpt>
<trkpt lat="49.123737335205" lon="2.6517989635468"><ele></ele><time>2022-6-8T10:34:6Z</time></trkpt>
<trkpt lat="49.123783111572" lon="2.6518514156342"><ele></ele><time>2022-6-8T10:34:9Z</time></trkpt>
<trkpt lat="49.123828887939" lon="2.6519043445587"><ele></ele><time>2022-6-8T10:34:12Z</time></trkpt>
<trkpt lat="49.123870849609" lon="2.6519553661346"><ele></ele><time>2022-6-8T10:34:15Z</time></trkpt>
<trkpt lat="49.123954772949" lon="2.6520569324493"><ele></ele><time>2022-6-8T10:34:18Z</time></trkpt>
<trkpt lat="49.123954772949" lon="2.6520569324493"><ele></ele><time>2022-6-8T10:34:21Z</time></trkpt>
<trkpt lat="49.124038696289" lon="2.6521666049957"><ele></ele><time>2022-6-8T10:34:24Z</time></trkpt>
<trkpt lat="49.124088287354" lon="2.6522243022919"><ele></ele><time>2022-6-8T10:34:27Z</time></trkpt>
<trkpt lat="49.124137878418" lon="2.6522829532623"><ele></ele><time>2022-6-8T10:34:30Z</time></trkpt>
<trkpt lat="49.124187469482" lon="2.6523399353027"><ele></ele><time>2022-6-8T10:34:33Z</time></trkpt>
<trkpt lat="49.124240875244" lon="2.652407169342"><ele></ele><time>2022-6-8T10:34:36Z</time></trkpt>
<trkpt lat="49.124298095703" lon="2.6524872779846"><ele></ele><time>2022-6-8T10:34:39Z</time></trkpt>
<trkpt lat="49.124355316162" lon="2.6525795459747"><ele></ele><time>2022-6-8T10:34:42Z</time></trkpt>
<trkpt lat="49.124412536621" lon="2.6526851654053"><ele></ele><time>2022-6-8T10:34:45Z</time></trkpt>
<trkpt lat="49.124454498291" lon="2.6527743339539"><ele></ele><time>2022-6-8T10:34:48Z</time></trkpt>
<trkpt lat="49.124488830566" lon="2.6528654098511"><ele></ele><time>2022-6-8T10:34:51Z</time></trkpt>
<trkpt lat="49.124530792236" lon="2.6529583930969"><ele></ele><time>2022-6-8T10:34:54Z</time></trkpt>
<trkpt lat="49.124530792236" lon="2.6529583930969"><ele></ele><time>2022-6-8T10:34:57Z</time></trkpt>
<trkpt lat="49.124572753906" lon="2.6530888080597"><ele></ele><time>2022-6-8T10:35:0Z</time></trkpt>
<trkpt lat="49.124572753906" lon="2.6530888080597"><ele></ele><time>2022-6-8T10:35:3Z</time></trkpt>
<trkpt lat="49.124526977539" lon="2.6533858776093"><ele></ele><time>2022-6-8T10:35:6Z</time></trkpt>
<trkpt lat="49.124504089355" lon="2.6534810066223"><ele></ele><time>2022-6-8T10:35:9Z</time></trkpt>
<trkpt lat="49.124462127686" lon="2.6536405086517"><ele></ele><time>2022-6-8T10:35:12Z</time></trkpt>
<trkpt lat="49.124443054199" lon="2.653736114502"><ele></ele><time>2022-6-8T10:35:15Z</time></trkpt>
<trkpt lat="49.124412536621" lon="2.6538615226746"><ele></ele><time>2022-6-8T10:35:18Z</time></trkpt>
<trkpt lat="49.12438583374" lon="2.6539840698242"><ele></ele><time>2022-6-8T10:35:21Z</time></trkpt>
<trkpt lat="49.124362945557" lon="2.6541028022766"><ele></ele><time>2022-6-8T10:35:24Z</time></trkpt>
<trkpt lat="49.124328613281" lon="2.6542370319366"><ele></ele><time>2022-6-8T10:35:27Z</time></trkpt>
<trkpt lat="49.1243019104" lon="2.654363155365"><ele></ele><time>2022-6-8T10:35:30Z</time></trkpt>
<trkpt lat="49.124271392822" lon="2.6544814109802"><ele></ele><time>2022-6-8T10:35:33Z</time></trkpt>
<trkpt lat="49.12423324585" lon="2.6546058654785"><ele></ele><time>2022-6-8T10:35:36Z</time></trkpt>
<trkpt lat="49.124187469482" lon="2.6547574996948"><ele></ele><time>2022-6-8T10:35:39Z</time></trkpt>
<trkpt lat="49.124153137207" lon="2.6548988819122"><ele></ele><time>2022-6-8T10:35:42Z</time></trkpt>
<trkpt lat="49.124118804932" lon="2.6550171375275"><ele></ele><time>2022-6-8T10:35:45Z</time></trkpt>
<trkpt lat="49.124088287354" lon="2.6551406383514"><ele></ele><time>2022-6-8T10:35:48Z</time></trkpt>
<trkpt lat="49.124057769775" lon="2.6552884578705"><ele></ele><time>2022-6-8T10:35:51Z</time></trkpt>
<trkpt lat="49.124015808105" lon="2.6554226875305"><ele></ele><time>2022-6-8T10:35:54Z</time></trkpt>
<trkpt lat="49.123973846436" lon="2.6555488109589"><ele></ele><time>2022-6-8T10:35:57Z</time></trkpt>
<trkpt lat="49.12393951416" lon="2.6556782722473"><ele></ele><time>2022-6-8T10:36:0Z</time></trkpt>
<trkpt lat="49.123901367188" lon="2.6558146476746"><ele></ele><time>2022-6-8T10:36:3Z</time></trkpt>
<trkpt lat="49.123867034912" lon="2.6559484004974"><ele></ele><time>2022-6-8T10:36:6Z</time></trkpt>
<trkpt lat="49.123844146729" lon="2.6560719013214"><ele></ele><time>2022-6-8T10:36:9Z</time></trkpt>
<trkpt lat="49.123840332031" lon="2.6561801433563"><ele></ele><time>2022-6-8T10:36:12Z</time></trkpt>
<trkpt lat="49.123863220215" lon="2.6562912464142"><ele></ele><time>2022-6-8T10:36:15Z</time></trkpt>
<trkpt lat="49.123889923096" lon="2.6564078330994"><ele></ele><time>2022-6-8T10:36:18Z</time></trkpt>
<trkpt lat="49.123905181885" lon="2.6565160751343"><ele></ele><time>2022-6-8T10:36:21Z</time></trkpt>
<trkpt lat="49.123916625977" lon="2.6566233634949"><ele></ele><time>2022-6-8T10:36:24Z</time></trkpt>
<trkpt lat="49.123935699463" lon="2.6567237377167"><ele></ele><time>2022-6-8T10:36:27Z</time></trkpt>
<trkpt lat="49.123935699463" lon="2.6567237377167"><ele></ele><time>2022-6-8T10:36:30Z</time></trkpt>
<trkpt lat="49.123958587646" lon="2.6568615436554"><ele></ele><time>2022-6-8T10:36:33Z</time></trkpt>
<trkpt lat="49.123958587646" lon="2.6568615436554"><ele></ele><time>2022-6-8T10:36:36Z</time></trkpt>
<trkpt lat="49.123970031738" lon="2.6570086479187"><ele></ele><time>2022-6-8T10:36:39Z</time></trkpt>
<trkpt lat="49.123970031738" lon="2.6570086479187"><ele></ele><time>2022-6-8T10:36:42Z</time></trkpt>
<trkpt lat="49.12398147583" lon="2.6571636199951"><ele></ele><time>2022-6-8T10:36:45Z</time></trkpt>
<trkpt lat="49.12398147583" lon="2.6571636199951"><ele></ele><time>2022-6-8T10:36:48Z</time></trkpt>
<trkpt lat="49.123996734619" lon="2.6573095321655"><ele></ele><time>2022-6-8T10:36:51Z</time></trkpt>
<trkpt lat="49.123996734619" lon="2.6573095321655"><ele></ele><time>2022-6-8T10:36:54Z</time></trkpt>
<trkpt lat="49.123996734619" lon="2.6573095321655"><ele></ele><time>2022-6-8T10:36:57Z</time></trkpt>
<trkpt lat="49.124000549316" lon="2.6574366092682"><ele></ele><time>2022-6-8T10:37:0Z</time></trkpt>
<trkpt lat="49.124000549316" lon="2.6574366092682"><ele></ele><time>2022-6-8T10:37:3Z</time></trkpt>
<trkpt lat="49.124000549316" lon="2.6575539112091"><ele></ele><time>2022-6-8T10:37:6Z</time></trkpt>
<trkpt lat="49.123996734619" lon="2.6576414108276"><ele></ele><time>2022-6-8T10:37:9Z</time></trkpt>
<trkpt lat="49.123996734619" lon="2.6576414108276"><ele></ele><time>2022-6-8T10:37:12Z</time></trkpt>
<trkpt lat="49.124011993408" lon="2.6578631401062"><ele></ele><time>2022-6-8T10:37:15Z</time></trkpt>
<trkpt lat="49.124027252197" lon="2.6580138206482"><ele></ele><time>2022-6-8T10:37:18Z</time></trkpt>
<trkpt lat="49.124050140381" lon="2.6581404209137"><ele></ele><time>2022-6-8T10:37:21Z</time></trkpt>
<trkpt lat="49.124073028564" lon="2.6582684516907"><ele></ele><time>2022-6-8T10:37:24Z</time></trkpt>
<trkpt lat="49.124099731445" lon="2.6584026813507"><ele></ele><time>2022-6-8T10:37:27Z</time></trkpt>
<trkpt lat="49.124122619629" lon="2.6585555076599"><ele></ele><time>2022-6-8T10:37:30Z</time></trkpt>
<trkpt lat="49.124134063721" lon="2.6586933135986"><ele></ele><time>2022-6-8T10:37:33Z</time></trkpt>
<trkpt lat="49.124145507812" lon="2.6588110923767"><ele></ele><time>2022-6-8T10:37:36Z</time></trkpt>
<trkpt lat="49.124160766602" lon="2.6589362621307"><ele></ele><time>2022-6-8T10:37:39Z</time></trkpt>
<trkpt lat="49.124187469482" lon="2.6590411663055"><ele></ele><time>2022-6-8T10:37:42Z</time></trkpt>
<trkpt lat="49.124217987061" lon="2.6591963768005"><ele></ele><time>2022-6-8T10:37:45Z</time></trkpt>
<trkpt lat="49.124240875244" lon="2.6593337059021"><ele></ele><time>2022-6-8T10:37:48Z</time></trkpt>
<trkpt lat="49.12425994873" lon="2.6594526767731"><ele></ele><time>2022-6-8T10:37:51Z</time></trkpt>
<trkpt lat="49.12427520752" lon="2.6595387458801"><ele></ele><time>2022-6-8T10:37:54Z</time></trkpt>
<trkpt lat="49.124286651611" lon="2.6596279144287"><ele></ele><time>2022-6-8T10:37:57Z</time></trkpt>
<trkpt lat="49.124298095703" lon="2.6597139835358"><ele></ele><time>2022-6-8T10:38:0Z</time></trkpt>
<trkpt lat="49.124313354492" lon="2.6598057746887"><ele></ele><time>2022-6-8T10:38:3Z</time></trkpt>
<trkpt lat="49.124328613281" lon="2.6598963737488"><ele></ele><time>2022-6-8T10:38:6Z</time></trkpt>
<trkpt lat="49.124340057373" lon="2.6600036621094"><ele></ele><time>2022-6-8T10:38:9Z</time></trkpt>
<trkpt lat="49.124347686768" lon="2.660106420517"><ele></ele><time>2022-6-8T10:38:12Z</time></trkpt>
<trkpt lat="49.124362945557" lon="2.6602289676666"><ele></ele><time>2022-6-8T10:38:15Z</time></trkpt>
<trkpt lat="49.124370574951" lon="2.6603257656097"><ele></ele><time>2022-6-8T10:38:18Z</time></trkpt>
<trkpt lat="49.124382019043" lon="2.6604292392731"><ele></ele><time>2022-6-8T10:38:21Z</time></trkpt>
<trkpt lat="49.124393463135" lon="2.6605195999146"><ele></ele><time>2022-6-8T10:38:24Z</time></trkpt>
<trkpt lat="49.124412536621" lon="2.6606051921844"><ele></ele><time>2022-6-8T10:38:27Z</time></trkpt>
<trkpt lat="49.124439239502" lon="2.6607649326324"><ele></ele><time>2022-6-8T10:38:30Z</time></trkpt>
<trkpt lat="49.124454498291" lon="2.6608626842499"><ele></ele><time>2022-6-8T10:38:33Z</time></trkpt>
<trkpt lat="49.124465942383" lon="2.6609592437744"><ele></ele><time>2022-6-8T10:38:36Z</time></trkpt>
<trkpt lat="49.124481201172" lon="2.6610496044159"><ele></ele><time>2022-6-8T10:38:39Z</time></trkpt>
<trkpt lat="49.124496459961" lon="2.6611564159393"><ele></ele><time>2022-6-8T10:38:42Z</time></trkpt>
<trkpt lat="49.124515533447" lon="2.6612837314606"><ele></ele><time>2022-6-8T10:38:45Z</time></trkpt>
<trkpt lat="49.124534606934" lon="2.6613852977753"><ele></ele><time>2022-6-8T10:38:48Z</time></trkpt>
<trkpt lat="49.124565124512" lon="2.6615602970123"><ele></ele><time>2022-6-8T10:38:51Z</time></trkpt>
<trkpt lat="49.124576568604" lon="2.6616621017456"><ele></ele><time>2022-6-8T10:38:54Z</time></trkpt>
<trkpt lat="49.124588012695" lon="2.6618382930756"><ele></ele><time>2022-6-8T10:38:57Z</time></trkpt>
<trkpt lat="49.124626159668" lon="2.6620137691498"><ele></ele><time>2022-6-8T10:39:0Z</time></trkpt>
<trkpt lat="49.124641418457" lon="2.6621215343475"><ele></ele><time>2022-6-8T10:39:3Z</time></trkpt>
<trkpt lat="49.124660491943" lon="2.662250995636"><ele></ele><time>2022-6-8T10:39:6Z</time></trkpt>
<trkpt lat="49.12467956543" lon="2.6623647212982"><ele></ele><time>2022-6-8T10:39:9Z</time></trkpt>
<trkpt lat="49.124687194824" lon="2.6624667644501"><ele></ele><time>2022-6-8T10:39:12Z</time></trkpt>
<trkpt lat="49.124698638916" lon="2.6626191139221"><ele></ele><time>2022-6-8T10:39:15Z</time></trkpt>
<trkpt lat="49.124706268311" lon="2.6627216339111"><ele></ele><time>2022-6-8T10:39:18Z</time></trkpt>
<trkpt lat="49.124706268311" lon="2.6627216339111"><ele></ele><time>2022-6-8T10:39:21Z</time></trkpt>
<trkpt lat="49.1247215271" lon="2.6628665924072"><ele></ele><time>2022-6-8T10:39:24Z</time></trkpt>
<trkpt lat="49.1247215271" lon="2.6629643440247"><ele></ele><time>2022-6-8T10:39:27Z</time></trkpt>
<trkpt lat="49.1247215271" lon="2.6629643440247"><ele></ele><time>2022-6-8T10:39:30Z</time></trkpt>
<trkpt lat="49.124725341797" lon="2.6631133556366"><ele></ele><time>2022-6-8T10:39:33Z</time></trkpt>
<trkpt lat="49.124725341797" lon="2.6631133556366"><ele></ele><time>2022-6-8T10:39:36Z</time></trkpt>
<trkpt lat="49.124725341797" lon="2.6632413864136"><ele></ele><time>2022-6-8T10:39:39Z</time></trkpt>
<trkpt lat="49.124725341797" lon="2.6632413864136"><ele></ele><time>2022-6-8T10:39:42Z</time></trkpt>
<trkpt lat="49.124706268311" lon="2.6633801460266"><ele></ele><time>2022-6-8T10:39:45Z</time></trkpt>
<trkpt lat="49.124706268311" lon="2.6633801460266"><ele></ele><time>2022-6-8T10:39:48Z</time></trkpt>
<trkpt lat="49.124691009521" lon="2.663599729538"><ele></ele><time>2022-6-8T10:39:51Z</time></trkpt>
<trkpt lat="49.124691009521" lon="2.6637308597565"><ele></ele><time>2022-6-8T10:39:54Z</time></trkpt>
<trkpt lat="49.124713897705" lon="2.6638379096985"><ele></ele><time>2022-6-8T10:39:57Z</time></trkpt>
<trkpt lat="49.12474822998" lon="2.6639676094055"><ele></ele><time>2022-6-8T10:40:0Z</time></trkpt>
<trkpt lat="49.124786376953" lon="2.6640849113464"><ele></ele><time>2022-6-8T10:40:3Z</time></trkpt>
<trkpt lat="49.124824523926" lon="2.6642050743103"><ele></ele><time>2022-6-8T10:40:6Z</time></trkpt>
<trkpt lat="49.124877929688" lon="2.6643199920654"><ele></ele><time>2022-6-8T10:40:9Z</time></trkpt>
<trkpt lat="49.124897003174" lon="2.6644198894501"><ele></ele><time>2022-6-8T10:40:12Z</time></trkpt>
<trkpt lat="49.124912261963" lon="2.6645271778107"><ele></ele><time>2022-6-8T10:40:15Z</time></trkpt>
<trkpt lat="49.124942779541" lon="2.6646366119385"><ele></ele><time>2022-6-8T10:40:18Z</time></trkpt>
<trkpt lat="49.124969482422" lon="2.6648206710815"><ele></ele><time>2022-6-8T10:40:21Z</time></trkpt>
<trkpt lat="49.124984741211" lon="2.6649236679077"><ele></ele><time>2022-6-8T10:40:24Z</time></trkpt>
<trkpt lat="49.125003814697" lon="2.6650159358978"><ele></ele><time>2022-6-8T10:40:27Z</time></trkpt>
<trkpt lat="49.125030517578" lon="2.6651952266693"><ele></ele><time>2022-6-8T10:40:30Z</time></trkpt>
<trkpt lat="49.125045776367" lon="2.6653060913086"><ele></ele><time>2022-6-8T10:40:33Z</time></trkpt>
<trkpt lat="49.125072479248" lon="2.6654121875763"><ele></ele><time>2022-6-8T10:40:36Z</time></trkpt>
<trkpt lat="49.125091552734" lon="2.6655120849609"><ele></ele><time>2022-6-8T10:40:39Z</time></trkpt>
<trkpt lat="49.125106811523" lon="2.66561627388"><ele></ele><time>2022-6-8T10:40:42Z</time></trkpt>
<trkpt lat="49.12512588501" lon="2.6657297611237"><ele></ele><time>2022-6-8T10:40:45Z</time></trkpt>
<trkpt lat="49.125141143799" lon="2.6658289432526"><ele></ele><time>2022-6-8T10:40:48Z</time></trkpt>
<trkpt lat="49.125156402588" lon="2.6659390926361"><ele></ele><time>2022-6-8T10:40:51Z</time></trkpt>
<trkpt lat="49.125179290771" lon="2.6660494804382"><ele></ele><time>2022-6-8T10:40:54Z</time></trkpt>
<trkpt lat="49.125190734863" lon="2.6661548614502"><ele></ele><time>2022-6-8T10:40:57Z</time></trkpt>
<trkpt lat="49.125198364258" lon="2.6662693023682"><ele></ele><time>2022-6-8T10:41:0Z</time></trkpt>
<trkpt lat="49.125205993652" lon="2.6663699150085"><ele></ele><time>2022-6-8T10:41:3Z</time></trkpt>
<trkpt lat="49.125194549561" lon="2.6664600372314"><ele></ele><time>2022-6-8T10:41:6Z</time></trkpt>
<trkpt lat="49.125190734863" lon="2.6665604114532"><ele></ele><time>2022-6-8T10:41:9Z</time></trkpt>
<trkpt lat="49.125190734863" lon="2.6665604114532"><ele></ele><time>2022-6-8T10:41:12Z</time></trkpt>
<trkpt lat="49.125186920166" lon="2.6667129993439"><ele></ele><time>2022-6-8T10:41:15Z</time></trkpt>
<trkpt lat="49.125186920166" lon="2.6667129993439"><ele></ele><time>2022-6-8T10:41:18Z</time></trkpt>
<trkpt lat="49.12520980835" lon="2.6668920516968"><ele></ele><time>2022-6-8T10:41:21Z</time></trkpt>
<trkpt lat="49.125228881836" lon="2.6670138835907"><ele></ele><time>2022-6-8T10:41:24Z</time></trkpt>
<trkpt lat="49.125259399414" lon="2.6671547889709"><ele></ele><time>2022-6-8T10:41:27Z</time></trkpt>
<trkpt lat="49.125289916992" lon="2.6672868728638"><ele></ele><time>2022-6-8T10:41:30Z</time></trkpt>
<trkpt lat="49.125328063965" lon="2.6674184799194"><ele></ele><time>2022-6-8T10:41:33Z</time></trkpt>
<trkpt lat="49.125354766846" lon="2.6675143241882"><ele></ele><time>2022-6-8T10:41:36Z</time></trkpt>
<trkpt lat="49.125373840332" lon="2.6676023006439"><ele></ele><time>2022-6-8T10:41:39Z</time></trkpt>
<trkpt lat="49.125389099121" lon="2.6677055358887"><ele></ele><time>2022-6-8T10:41:42Z</time></trkpt>
<trkpt lat="49.125396728516" lon="2.6678042411804"><ele></ele><time>2022-6-8T10:41:45Z</time></trkpt>
<trkpt lat="49.12540435791" lon="2.6679029464722"><ele></ele><time>2022-6-8T10:41:48Z</time></trkpt>
<trkpt lat="49.125415802002" lon="2.6680464744568"><ele></ele><time>2022-6-8T10:41:51Z</time></trkpt>
<trkpt lat="49.125415802002" lon="2.6680464744568"><ele></ele><time>2022-6-8T10:41:54Z</time></trkpt>
<trkpt lat="49.125427246094" lon="2.6682093143463"><ele></ele><time>2022-6-8T10:41:57Z</time></trkpt>
<trkpt lat="49.125431060791" lon="2.668304681778"><ele></ele><time>2022-6-8T10:42:0Z</time></trkpt>
<trkpt lat="49.125431060791" lon="2.668304681778"><ele></ele><time>2022-6-8T10:42:3Z</time></trkpt>
<trkpt lat="49.125442504883" lon="2.6684536933899"><ele></ele><time>2022-6-8T10:42:6Z</time></trkpt>
<trkpt lat="49.125442504883" lon="2.6684536933899"><ele></ele><time>2022-6-8T10:42:9Z</time></trkpt>
<trkpt lat="49.125453948975" lon="2.668541431427"><ele></ele><time>2022-6-8T10:42:12Z</time></trkpt>
<trkpt lat="49.125465393066" lon="2.6686358451843"><ele></ele><time>2022-6-8T10:42:15Z</time></trkpt>
<trkpt lat="49.125476837158" lon="2.6687197685242"><ele></ele><time>2022-6-8T10:42:18Z</time></trkpt>
<trkpt lat="49.12548828125" lon="2.6688070297241"><ele></ele><time>2022-6-8T10:42:21Z</time></trkpt>
<trkpt lat="49.125507354736" lon="2.6688904762268"><ele></ele><time>2022-6-8T10:42:24Z</time></trkpt>
<trkpt lat="49.125545501709" lon="2.6690714359283"><ele></ele><time>2022-6-8T10:42:27Z</time></trkpt>
<trkpt lat="49.125583648682" lon="2.6692199707031"><ele></ele><time>2022-6-8T10:42:30Z</time></trkpt>
<trkpt lat="49.125606536865" lon="2.6693985462189"><ele></ele><time>2022-6-8T10:42:33Z</time></trkpt>
<trkpt lat="49.125610351562" lon="2.6694910526276"><ele></ele><time>2022-6-8T10:42:36Z</time></trkpt>
<trkpt lat="49.12565612793" lon="2.669634103775"><ele></ele><time>2022-6-8T10:42:39Z</time></trkpt>
<trkpt lat="49.12565612793" lon="2.669634103775"><ele></ele><time>2022-6-8T10:42:42Z</time></trkpt>
<trkpt lat="49.12572479248" lon="2.6697142124176"><ele></ele><time>2022-6-8T10:42:45Z</time></trkpt>
<trkpt lat="49.12572479248" lon="2.6697142124176"><ele></ele><time>2022-6-8T10:42:48Z</time></trkpt>
<trkpt lat="49.125797271729" lon="2.6697928905487"><ele></ele><time>2022-6-8T10:42:51Z</time></trkpt>
<trkpt lat="49.125797271729" lon="2.6697928905487"><ele></ele><time>2022-6-8T10:42:54Z</time></trkpt>
<trkpt lat="49.12589263916" lon="2.6698942184448"><ele></ele><time>2022-6-8T10:42:57Z</time></trkpt>
<trkpt lat="49.126007080078" lon="2.669980764389"><ele></ele><time>2022-6-8T10:43:0Z</time></trkpt>
<trkpt lat="49.12606048584" lon="2.6700375080109"><ele></ele><time>2022-6-8T10:43:3Z</time></trkpt>
<trkpt lat="49.126121520996" lon="2.6700820922852"><ele></ele><time>2022-6-8T10:43:6Z</time></trkpt>
<trkpt lat="49.12618637085" lon="2.6701278686523"><ele></ele><time>2022-6-8T10:43:9Z</time></trkpt>
<trkpt lat="49.126258850098" lon="2.6701848506927"><ele></ele><time>2022-6-8T10:43:12Z</time></trkpt>
<trkpt lat="49.126323699951" lon="2.6702363491058"><ele></ele><time>2022-6-8T10:43:15Z</time></trkpt>
<trkpt lat="49.12642288208" lon="2.6703276634216"><ele></ele><time>2022-6-8T10:43:18Z</time></trkpt>
<trkpt lat="49.126529693604" lon="2.6704263687134"><ele></ele><time>2022-6-8T10:43:21Z</time></trkpt>
<trkpt lat="49.126583099365" lon="2.6704778671265"><ele></ele><time>2022-6-8T10:43:24Z</time></trkpt>
<trkpt lat="49.126693725586" lon="2.6705932617188"><ele></ele><time>2022-6-8T10:43:27Z</time></trkpt>
<trkpt lat="49.126758575439" lon="2.6706547737122"><ele></ele><time>2022-6-8T10:43:30Z</time></trkpt>
<trkpt lat="49.126811981201" lon="2.6707048416138"><ele></ele><time>2022-6-8T10:43:33Z</time></trkpt>
<trkpt lat="49.126903533936" lon="2.6707928180695"><ele></ele><time>2022-6-8T10:43:36Z</time></trkpt>
<trkpt lat="49.126972198486" lon="2.6708595752716"><ele></ele><time>2022-6-8T10:43:39Z</time></trkpt>
<trkpt lat="49.126972198486" lon="2.6708595752716"><ele></ele><time>2022-6-8T10:43:42Z</time></trkpt>
<trkpt lat="49.126972198486" lon="2.6708595752716"><ele></ele><time>2022-6-8T10:43:45Z</time></trkpt>
<trkpt lat="49.127059936523" lon="2.6709403991699"><ele></ele><time>2022-6-8T10:43:48Z</time></trkpt>
<trkpt lat="49.127059936523" lon="2.6709403991699"><ele></ele><time>2022-6-8T10:43:51Z</time></trkpt>
<trkpt lat="49.127178192139" lon="2.6710424423218"><ele></ele><time>2022-6-8T10:43:54Z</time></trkpt>
<trkpt lat="49.127246856689" lon="2.6711163520813"><ele></ele><time>2022-6-8T10:43:57Z</time></trkpt>
<trkpt lat="49.127319335938" lon="2.6711928844452"><ele></ele><time>2022-6-8T10:44:0Z</time></trkpt>
<trkpt lat="49.127380371094" lon="2.6712565422058"><ele></ele><time>2022-6-8T10:44:3Z</time></trkpt>
<trkpt lat="49.127433776855" lon="2.6713120937347"><ele></ele><time>2022-6-8T10:44:6Z</time></trkpt>
<trkpt lat="49.127494812012" lon="2.6713707447052"><ele></ele><time>2022-6-8T10:44:9Z</time></trkpt>
<trkpt lat="49.127552032471" lon="2.67143201828"><ele></ele><time>2022-6-8T10:44:12Z</time></trkpt>
<trkpt lat="49.127613067627" lon="2.6714880466461"><ele></ele><time>2022-6-8T10:44:15Z</time></trkpt>
<trkpt lat="49.12767791748" lon="2.6715569496155"><ele></ele><time>2022-6-8T10:44:18Z</time></trkpt>
<trkpt lat="49.127780914307" lon="2.6716661453247"><ele></ele><time>2022-6-8T10:44:21Z</time></trkpt>
<trkpt lat="49.127841949463" lon="2.6717286109924"><ele></ele><time>2022-6-8T10:44:24Z</time></trkpt>
<trkpt lat="49.127902984619" lon="2.6718027591705"><ele></ele><time>2022-6-8T10:44:27Z</time></trkpt>
<trkpt lat="49.127960205078" lon="2.6718649864197"><ele></ele><time>2022-6-8T10:44:30Z</time></trkpt>
<trkpt lat="49.128021240234" lon="2.6719331741333"><ele></ele><time>2022-6-8T10:44:33Z</time></trkpt>
<trkpt lat="49.128059387207" lon="2.6719992160797"><ele></ele><time>2022-6-8T10:44:36Z</time></trkpt>
<trkpt lat="49.128059387207" lon="2.6719992160797"><ele></ele><time>2022-6-8T10:44:39Z</time></trkpt>
<trkpt lat="49.128059387207" lon="2.6719992160797"><ele></ele><time>2022-6-8T10:44:42Z</time></trkpt>
<trkpt lat="49.128059387207" lon="2.6719992160797"><ele></ele><time>2022-6-8T10:44:45Z</time></trkpt>
<trkpt lat="49.128059387207" lon="2.6722364425659"><ele></ele><time>2022-6-8T10:44:48Z</time></trkpt>
<trkpt lat="49.128040313721" lon="2.6723945140839"><ele></ele><time>2022-6-8T10:44:51Z</time></trkpt>
<trkpt lat="49.128025054932" lon="2.6724910736084"><ele></ele><time>2022-6-8T10:44:54Z</time></trkpt>
<trkpt lat="49.128009796143" lon="2.6726126670837"><ele></ele><time>2022-6-8T10:44:57Z</time></trkpt>
<trkpt lat="49.127975463867" lon="2.6727545261383"><ele></ele><time>2022-6-8T10:45:0Z</time></trkpt>
<trkpt lat="49.127941131592" lon="2.6728768348694"><ele></ele><time>2022-6-8T10:45:3Z</time></trkpt>
<trkpt lat="49.127914428711" lon="2.6730117797852"><ele></ele><time>2022-6-8T10:45:6Z</time></trkpt>
<trkpt lat="49.127891540527" lon="2.6731255054474"><ele></ele><time>2022-6-8T10:45:9Z</time></trkpt>
<trkpt lat="49.127864837646" lon="2.673229932785"><ele></ele><time>2022-6-8T10:45:12Z</time></trkpt>
<trkpt lat="49.127841949463" lon="2.6733837127686"><ele></ele><time>2022-6-8T10:45:15Z</time></trkpt>
<trkpt lat="49.127822875977" lon="2.6735224723816"><ele></ele><time>2022-6-8T10:45:18Z</time></trkpt>
<trkpt lat="49.127811431885" lon="2.6736676692963"><ele></ele><time>2022-6-8T10:45:21Z</time></trkpt>
<trkpt lat="49.127792358398" lon="2.6738135814667"><ele></ele><time>2022-6-8T10:45:24Z</time></trkpt>
<trkpt lat="49.127784729004" lon="2.6739461421967"><ele></ele><time>2022-6-8T10:45:27Z</time></trkpt>
<trkpt lat="49.127784729004" lon="2.67409324646"><ele></ele><time>2022-6-8T10:45:30Z</time></trkpt>
<trkpt lat="49.127784729004" lon="2.6742599010468"><ele></ele><time>2022-6-8T10:45:33Z</time></trkpt>
<trkpt lat="49.127780914307" lon="2.6744203567505"><ele></ele><time>2022-6-8T10:45:36Z</time></trkpt>
<trkpt lat="49.12780380249" lon="2.6745555400848"><ele></ele><time>2022-6-8T10:45:39Z</time></trkpt>
<trkpt lat="49.12784576416" lon="2.6746909618378"><ele></ele><time>2022-6-8T10:45:42Z</time></trkpt>
<trkpt lat="49.127864837646" lon="2.674866437912"><ele></ele><time>2022-6-8T10:45:45Z</time></trkpt>
<trkpt lat="49.127853393555" lon="2.6750657558441"><ele></ele><time>2022-6-8T10:45:48Z</time></trkpt>
<trkpt lat="49.127838134766" lon="2.6752429008484"><ele></ele><time>2022-6-8T10:45:51Z</time></trkpt>
<trkpt lat="49.127819061279" lon="2.6754324436188"><ele></ele><time>2022-6-8T10:45:54Z</time></trkpt>
<trkpt lat="49.127796173096" lon="2.6756145954132"><ele></ele><time>2022-6-8T10:45:57Z</time></trkpt>
<trkpt lat="49.127780914307" lon="2.6757504940033"><ele></ele><time>2022-6-8T10:46:0Z</time></trkpt>
<trkpt lat="49.127765655518" lon="2.6758835315704"><ele></ele><time>2022-6-8T10:46:3Z</time></trkpt>
<trkpt lat="49.127746582031" lon="2.6760146617889"><ele></ele><time>2022-6-8T10:46:6Z</time></trkpt>
<trkpt lat="49.127742767334" lon="2.6761519908905"><ele></ele><time>2022-6-8T10:46:9Z</time></trkpt>
<trkpt lat="49.127742767334" lon="2.6762945652008"><ele></ele><time>2022-6-8T10:46:12Z</time></trkpt>
<trkpt lat="49.127742767334" lon="2.6764295101166"><ele></ele><time>2022-6-8T10:46:15Z</time></trkpt>
<trkpt lat="49.127738952637" lon="2.676584482193"><ele></ele><time>2022-6-8T10:46:18Z</time></trkpt>
<trkpt lat="49.127738952637" lon="2.6767556667328"><ele></ele><time>2022-6-8T10:46:21Z</time></trkpt>
<trkpt lat="49.127735137939" lon="2.6769630908966"><ele></ele><time>2022-6-8T10:46:24Z</time></trkpt>
<trkpt lat="49.127731323242" lon="2.6771533489227"><ele></ele><time>2022-6-8T10:46:27Z</time></trkpt>
<trkpt lat="49.127727508545" lon="2.6773376464844"><ele></ele><time>2022-6-8T10:46:30Z</time></trkpt>
<trkpt lat="49.127723693848" lon="2.6775331497192"><ele></ele><time>2022-6-8T10:46:33Z</time></trkpt>
<trkpt lat="49.12771987915" lon="2.6777243614197"><ele></ele><time>2022-6-8T10:46:36Z</time></trkpt>
<trkpt lat="49.127712249756" lon="2.677889585495"><ele></ele><time>2022-6-8T10:46:39Z</time></trkpt>
<trkpt lat="49.127696990967" lon="2.6780831813812"><ele></ele><time>2022-6-8T10:46:42Z</time></trkpt>
<trkpt lat="49.127689361572" lon="2.6782958507538"><ele></ele><time>2022-6-8T10:46:45Z</time></trkpt>
<trkpt lat="49.127696990967" lon="2.6784937381744"><ele></ele><time>2022-6-8T10:46:48Z</time></trkpt>
<trkpt lat="49.127704620361" lon="2.678706407547"><ele></ele><time>2022-6-8T10:46:51Z</time></trkpt>
<trkpt lat="49.127716064453" lon="2.6789305210114"><ele></ele><time>2022-6-8T10:46:54Z</time></trkpt>
<trkpt lat="49.127773284912" lon="2.6792190074921"><ele></ele><time>2022-6-8T10:46:57Z</time></trkpt>
<trkpt lat="49.127826690674" lon="2.6795349121094"><ele></ele><time>2022-6-8T10:47:0Z</time></trkpt>
<trkpt lat="49.127906799316" lon="2.6798920631409"><ele></ele><time>2022-6-8T10:47:3Z</time></trkpt>
<trkpt lat="49.128044128418" lon="2.680168390274"><ele></ele><time>2022-6-8T10:47:6Z</time></trkpt>
<trkpt lat="49.128135681152" lon="2.6804239749908"><ele></ele><time>2022-6-8T10:47:9Z</time></trkpt>
<trkpt lat="49.128223419189" lon="2.6806261539459"><ele></ele><time>2022-6-8T10:47:12Z</time></trkpt>
<trkpt lat="49.128299713135" lon="2.6808044910431"><ele></ele><time>2022-6-8T10:47:15Z</time></trkpt>
<trkpt lat="49.128330230713" lon="2.6809830665588"><ele></ele><time>2022-6-8T10:47:18Z</time></trkpt>
<trkpt lat="49.128322601318" lon="2.6811330318451"><ele></ele><time>2022-6-8T10:47:21Z</time></trkpt>
<trkpt lat="49.128311157227" lon="2.6812562942505"><ele></ele><time>2022-6-8T10:47:24Z</time></trkpt>
<trkpt lat="49.128299713135" lon="2.6813535690308"><ele></ele><time>2022-6-8T10:47:27Z</time></trkpt>
<trkpt lat="49.128273010254" lon="2.6814670562744"><ele></ele><time>2022-6-8T10:47:30Z</time></trkpt>
<trkpt lat="49.128253936768" lon="2.6815493106842"><ele></ele><time>2022-6-8T10:47:33Z</time></trkpt>
<trkpt lat="49.128238677979" lon="2.6816329956055"><ele></ele><time>2022-6-8T10:47:36Z</time></trkpt>
<trkpt lat="49.128238677979" lon="2.6816329956055"><ele></ele><time>2022-6-8T10:47:39Z</time></trkpt>
<trkpt lat="49.128219604492" lon="2.6817636489868"><ele></ele><time>2022-6-8T10:47:42Z</time></trkpt>
<trkpt lat="49.128219604492" lon="2.6817636489868"><ele></ele><time>2022-6-8T10:47:45Z</time></trkpt>
<trkpt lat="49.128189086914" lon="2.6819036006927"><ele></ele><time>2022-6-8T10:47:48Z</time></trkpt>
<trkpt lat="49.128189086914" lon="2.6819036006927"><ele></ele><time>2022-6-8T10:47:51Z</time></trkpt>
<trkpt lat="49.128158569336" lon="2.6820566654205"><ele></ele><time>2022-6-8T10:47:54Z</time></trkpt>
<trkpt lat="49.128158569336" lon="2.6820566654205"><ele></ele><time>2022-6-8T10:47:57Z</time></trkpt>
<trkpt lat="49.12813949585" lon="2.6821994781494"><ele></ele><time>2022-6-8T10:48:0Z</time></trkpt>
<trkpt lat="49.12813949585" lon="2.6821994781494"><ele></ele><time>2022-6-8T10:48:3Z</time></trkpt>
<trkpt lat="49.128131866455" lon="2.6823084354401"><ele></ele><time>2022-6-8T10:48:6Z</time></trkpt>
<trkpt lat="49.128120422363" lon="2.6824491024017"><ele></ele><time>2022-6-8T10:48:9Z</time></trkpt>
<trkpt lat="49.128105163574" lon="2.6826565265656"><ele></ele><time>2022-6-8T10:48:12Z</time></trkpt>
<trkpt lat="49.128105163574" lon="2.6827473640442"><ele></ele><time>2022-6-8T10:48:15Z</time></trkpt>
<trkpt lat="49.128101348877" lon="2.6828486919403"><ele></ele><time>2022-6-8T10:48:18Z</time></trkpt>
<trkpt lat="49.128093719482" lon="2.6829376220703"><ele></ele><time>2022-6-8T10:48:21Z</time></trkpt>
<trkpt lat="49.128078460693" lon="2.6830360889435"><ele></ele><time>2022-6-8T10:48:24Z</time></trkpt>
<trkpt lat="49.128051757812" lon="2.683197259903"><ele></ele><time>2022-6-8T10:48:27Z</time></trkpt>
<trkpt lat="49.128028869629" lon="2.6833047866821"><ele></ele><time>2022-6-8T10:48:30Z</time></trkpt>
<trkpt lat="49.12801361084" lon="2.6834063529968"><ele></ele><time>2022-6-8T10:48:33Z</time></trkpt>
<trkpt lat="49.128002166748" lon="2.683527469635"><ele></ele><time>2022-6-8T10:48:36Z</time></trkpt>
<trkpt lat="49.128005981445" lon="2.6836566925049"><ele></ele><time>2022-6-8T10:48:39Z</time></trkpt>
<trkpt lat="49.128002166748" lon="2.683830499649"><ele></ele><time>2022-6-8T10:48:42Z</time></trkpt>
<trkpt lat="49.127990722656" lon="2.6840441226959"><ele></ele><time>2022-6-8T10:48:45Z</time></trkpt>
<trkpt lat="49.127983093262" lon="2.684232711792"><ele></ele><time>2022-6-8T10:48:48Z</time></trkpt>
<trkpt lat="49.127983093262" lon="2.6844117641449"><ele></ele><time>2022-6-8T10:48:51Z</time></trkpt>
<trkpt lat="49.127994537354" lon="2.684565782547"><ele></ele><time>2022-6-8T10:48:54Z</time></trkpt>
<trkpt lat="49.12801361084" lon="2.6847667694092"><ele></ele><time>2022-6-8T10:48:57Z</time></trkpt>
<trkpt lat="49.128028869629" lon="2.6849529743195"><ele></ele><time>2022-6-8T10:49:0Z</time></trkpt>
<trkpt lat="49.128047943115" lon="2.6851446628571"><ele></ele><time>2022-6-8T10:49:3Z</time></trkpt>
<trkpt lat="49.128093719482" lon="2.685355424881"><ele></ele><time>2022-6-8T10:49:6Z</time></trkpt>
<trkpt lat="49.128131866455" lon="2.6855709552765"><ele></ele><time>2022-6-8T10:49:9Z</time></trkpt>
<trkpt lat="49.128189086914" lon="2.6857345104218"><ele></ele><time>2022-6-8T10:49:12Z</time></trkpt>
<trkpt lat="49.128238677979" lon="2.6858677864075"><ele></ele><time>2022-6-8T10:49:15Z</time></trkpt>
<trkpt lat="49.128246307373" lon="2.6860105991364"><ele></ele><time>2022-6-8T10:49:18Z</time></trkpt>
<trkpt lat="49.128242492676" lon="2.6861436367035"><ele></ele><time>2022-6-8T10:49:21Z</time></trkpt>
<trkpt lat="49.128238677979" lon="2.6862721443176"><ele></ele><time>2022-6-8T10:49:24Z</time></trkpt>
<trkpt lat="49.128223419189" lon="2.6864192485809"><ele></ele><time>2022-6-8T10:49:27Z</time></trkpt>
<trkpt lat="49.128200531006" lon="2.6865968704224"><ele></ele><time>2022-6-8T10:49:30Z</time></trkpt>
<trkpt lat="49.128170013428" lon="2.6867859363556"><ele></ele><time>2022-6-8T10:49:33Z</time></trkpt>
<trkpt lat="49.128135681152" lon="2.6869885921478"><ele></ele><time>2022-6-8T10:49:36Z</time></trkpt>
<trkpt lat="49.12809753418" lon="2.6871914863586"><ele></ele><time>2022-6-8T10:49:39Z</time></trkpt>
<trkpt lat="49.12805557251" lon="2.687408208847"><ele></ele><time>2022-6-8T10:49:42Z</time></trkpt>
<trkpt lat="49.128005981445" lon="2.6876289844513"><ele></ele><time>2022-6-8T10:49:45Z</time></trkpt>
<trkpt lat="49.127941131592" lon="2.6878519058228"><ele></ele><time>2022-6-8T10:49:48Z</time></trkpt>
<trkpt lat="49.127880096436" lon="2.6880712509155"><ele></ele><time>2022-6-8T10:49:51Z</time></trkpt>
<trkpt lat="49.127811431885" lon="2.6883249282837"><ele></ele><time>2022-6-8T10:49:54Z</time></trkpt>
<trkpt lat="49.127735137939" lon="2.6885702610016"><ele></ele><time>2022-6-8T10:49:57Z</time></trkpt>
<trkpt lat="49.127658843994" lon="2.6888020038605"><ele></ele><time>2022-6-8T10:50:0Z</time></trkpt>
<trkpt lat="49.127601623535" lon="2.688981294632"><ele></ele><time>2022-6-8T10:50:3Z</time></trkpt>
<trkpt lat="49.127563476562" lon="2.6891396045685"><ele></ele><time>2022-6-8T10:50:6Z</time></trkpt>
<trkpt lat="49.127536773682" lon="2.6892538070679"><ele></ele><time>2022-6-8T10:50:9Z</time></trkpt>
<trkpt lat="49.127502441406" lon="2.6893725395203"><ele></ele><time>2022-6-8T10:50:12Z</time></trkpt>
<trkpt lat="49.127456665039" lon="2.6894836425781"><ele></ele><time>2022-6-8T10:50:15Z</time></trkpt>
<trkpt lat="49.127403259277" lon="2.6896209716797"><ele></ele><time>2022-6-8T10:50:18Z</time></trkpt>
<trkpt lat="49.127376556396" lon="2.6897866725922"><ele></ele><time>2022-6-8T10:50:21Z</time></trkpt>
<trkpt lat="49.127365112305" lon="2.6899483203888"><ele></ele><time>2022-6-8T10:50:24Z</time></trkpt>
<trkpt lat="49.12735748291" lon="2.6900980472565"><ele></ele><time>2022-6-8T10:50:27Z</time></trkpt>
<trkpt lat="49.127326965332" lon="2.6901898384094"><ele></ele><time>2022-6-8T10:50:30Z</time></trkpt>
<trkpt lat="49.12727355957" lon="2.6902530193329"><ele></ele><time>2022-6-8T10:50:33Z</time></trkpt>
<trkpt lat="49.127220153809" lon="2.6902923583984"><ele></ele><time>2022-6-8T10:50:36Z</time></trkpt>
<trkpt lat="49.127155303955" lon="2.6903364658356"><ele></ele><time>2022-6-8T10:50:39Z</time></trkpt>
<trkpt lat="49.127071380615" lon="2.6903865337372"><ele></ele><time>2022-6-8T10:50:42Z</time></trkpt>
<trkpt lat="49.126987457275" lon="2.6904304027557"><ele></ele><time>2022-6-8T10:50:45Z</time></trkpt>
<trkpt lat="49.126892089844" lon="2.6904792785645"><ele></ele><time>2022-6-8T10:50:48Z</time></trkpt>
<trkpt lat="49.126808166504" lon="2.6905248165131"><ele></ele><time>2022-6-8T10:50:51Z</time></trkpt>
<trkpt lat="49.126705169678" lon="2.6905989646912"><ele></ele><time>2022-6-8T10:50:54Z</time></trkpt>
<trkpt lat="49.126605987549" lon="2.6907086372375"><ele></ele><time>2022-6-8T10:50:57Z</time></trkpt>
<trkpt lat="49.126522064209" lon="2.6908791065216"><ele></ele><time>2022-6-8T10:51:0Z</time></trkpt>
<trkpt lat="49.126449584961" lon="2.6910512447357"><ele></ele><time>2022-6-8T10:51:3Z</time></trkpt>
<trkpt lat="49.12638092041" lon="2.6912469863892"><ele></ele><time>2022-6-8T10:51:6Z</time></trkpt>
<trkpt lat="49.12629699707" lon="2.691383600235"><ele></ele><time>2022-6-8T10:51:9Z</time></trkpt>
<trkpt lat="49.126209259033" lon="2.6914982795715"><ele></ele><time>2022-6-8T10:51:12Z</time></trkpt>
<trkpt lat="49.126106262207" lon="2.6916167736053"><ele></ele><time>2022-6-8T10:51:15Z</time></trkpt>
<trkpt lat="49.126003265381" lon="2.6917436122894"><ele></ele><time>2022-6-8T10:51:18Z</time></trkpt>
<trkpt lat="49.125900268555" lon="2.6918754577637"><ele></ele><time>2022-6-8T10:51:21Z</time></trkpt>
<trkpt lat="49.125804901123" lon="2.6920020580292"><ele></ele><time>2022-6-8T10:51:24Z</time></trkpt>
<trkpt lat="49.125709533691" lon="2.6921319961548"><ele></ele><time>2022-6-8T10:51:27Z</time></trkpt>
<trkpt lat="49.125625610352" lon="2.6922609806061"><ele></ele><time>2022-6-8T10:51:30Z</time></trkpt>
<trkpt lat="49.125576019287" lon="2.6924023628235"><ele></ele><time>2022-6-8T10:51:33Z</time></trkpt>
<trkpt lat="49.125549316406" lon="2.6925539970398"><ele></ele><time>2022-6-8T10:51:36Z</time></trkpt>
<trkpt lat="49.125537872314" lon="2.6927051544189"><ele></ele><time>2022-6-8T10:51:39Z</time></trkpt>
<trkpt lat="49.125549316406" lon="2.6928703784943"><ele></ele><time>2022-6-8T10:51:42Z</time></trkpt>
<trkpt lat="49.125560760498" lon="2.6930315494537"><ele></ele><time>2022-6-8T10:51:45Z</time></trkpt>
<trkpt lat="49.125579833984" lon="2.693163394928"><ele></ele><time>2022-6-8T10:51:48Z</time></trkpt>
<trkpt lat="49.125595092773" lon="2.6933019161224"><ele></ele><time>2022-6-8T10:51:51Z</time></trkpt>
<trkpt lat="49.125602722168" lon="2.6934428215027"><ele></ele><time>2022-6-8T10:51:54Z</time></trkpt>
<trkpt lat="49.125598907471" lon="2.6935813426971"><ele></ele><time>2022-6-8T10:51:57Z</time></trkpt>
<trkpt lat="49.125587463379" lon="2.6937062740326"><ele></ele><time>2022-6-8T10:52:0Z</time></trkpt>
<trkpt lat="49.125568389893" lon="2.6938059329987"><ele></ele><time>2022-6-8T10:52:3Z</time></trkpt>
<trkpt lat="49.125568389893" lon="2.6938059329987"><ele></ele><time>2022-6-8T10:52:6Z</time></trkpt>
<trkpt lat="49.12553024292" lon="2.6939675807953"><ele></ele><time>2022-6-8T10:52:9Z</time></trkpt>
<trkpt lat="49.125507354736" lon="2.6940610408783"><ele></ele><time>2022-6-8T10:52:12Z</time></trkpt>
<trkpt lat="49.125507354736" lon="2.6940610408783"><ele></ele><time>2022-6-8T10:52:15Z</time></trkpt>
<trkpt lat="49.125518798828" lon="2.694180727005"><ele></ele><time>2022-6-8T10:52:18Z</time></trkpt>
<trkpt lat="49.125518798828" lon="2.694180727005"><ele></ele><time>2022-6-8T10:52:21Z</time></trkpt>
<trkpt lat="49.125522613525" lon="2.6942706108093"><ele></ele><time>2022-6-8T10:52:24Z</time></trkpt>
<trkpt lat="49.125522613525" lon="2.6942706108093"><ele></ele><time>2022-6-8T10:52:27Z</time></trkpt>
<trkpt lat="49.125522613525" lon="2.6943783760071"><ele></ele><time>2022-6-8T10:52:30Z</time></trkpt>
<trkpt lat="49.125522613525" lon="2.6943783760071"><ele></ele><time>2022-6-8T10:52:33Z</time></trkpt>
<trkpt lat="49.125518798828" lon="2.6944682598114"><ele></ele><time>2022-6-8T10:52:36Z</time></trkpt>
<trkpt lat="49.125518798828" lon="2.6944682598114"><ele></ele><time>2022-6-8T10:52:39Z</time></trkpt>
<trkpt lat="49.125522613525" lon="2.6945598125458"><ele></ele><time>2022-6-8T10:52:42Z</time></trkpt>
<trkpt lat="49.125522613525" lon="2.6945598125458"><ele></ele><time>2022-6-8T10:52:45Z</time></trkpt>
<trkpt lat="49.125522613525" lon="2.6946840286255"><ele></ele><time>2022-6-8T10:52:48Z</time></trkpt>
<trkpt lat="49.125514984131" lon="2.6947774887085"><ele></ele><time>2022-6-8T10:52:51Z</time></trkpt>
<trkpt lat="49.125514984131" lon="2.6947774887085"><ele></ele><time>2022-6-8T10:52:54Z</time></trkpt>
<trkpt lat="49.125507354736" lon="2.6948869228363"><ele></ele><time>2022-6-8T10:52:57Z</time></trkpt>
<trkpt lat="49.125507354736" lon="2.6948869228363"><ele></ele><time>2022-6-8T10:53:0Z</time></trkpt>
<trkpt lat="49.125507354736" lon="2.6948869228363"><ele></ele><time>2022-6-8T10:53:3Z</time></trkpt>
<trkpt lat="49.125511169434" lon="2.6950042247772"><ele></ele><time>2022-6-8T10:53:6Z</time></trkpt>
<trkpt lat="49.125511169434" lon="2.6950042247772"><ele></ele><time>2022-6-8T10:53:9Z</time></trkpt>
<trkpt lat="49.125511169434" lon="2.6950929164886"><ele></ele><time>2022-6-8T10:53:12Z</time></trkpt>
<trkpt lat="49.125511169434" lon="2.6950929164886"><ele></ele><time>2022-6-8T10:53:15Z</time></trkpt>
<trkpt lat="49.125514984131" lon="2.6951875686646"><ele></ele><time>2022-6-8T10:53:18Z</time></trkpt>
<trkpt lat="49.125522613525" lon="2.6952810287476"><ele></ele><time>2022-6-8T10:53:21Z</time></trkpt>
<trkpt lat="49.125522613525" lon="2.6952810287476"><ele></ele><time>2022-6-8T10:53:24Z</time></trkpt>
<trkpt lat="49.125534057617" lon="2.6953747272491"><ele></ele><time>2022-6-8T10:53:27Z</time></trkpt>
<trkpt lat="49.125591278076" lon="2.6954917907715"><ele></ele><time>2022-6-8T10:53:30Z</time></trkpt>
<trkpt lat="49.125629425049" lon="2.6955757141113"><ele></ele><time>2022-6-8T10:53:33Z</time></trkpt>
<trkpt lat="49.125648498535" lon="2.6956276893616"><ele></ele><time>2022-6-8T10:53:36Z</time></trkpt>
<trkpt lat="49.125675201416" lon="2.6956808567047"><ele></ele><time>2022-6-8T10:53:39Z</time></trkpt>
<trkpt lat="49.125713348389" lon="2.6957337856293"><ele></ele><time>2022-6-8T10:53:42Z</time></trkpt>
<trkpt lat="49.125755310059" lon="2.6957805156708"><ele></ele><time>2022-6-8T10:53:45Z</time></trkpt>
<trkpt lat="49.125797271729" lon="2.6958229541779"><ele></ele><time>2022-6-8T10:53:48Z</time></trkpt>
<trkpt lat="49.125873565674" lon="2.6958968639374"><ele></ele><time>2022-6-8T10:53:51Z</time></trkpt>
<trkpt lat="49.125873565674" lon="2.6958968639374"><ele></ele><time>2022-6-8T10:53:54Z</time></trkpt>
<trkpt lat="49.125953674316" lon="2.6959357261658"><ele></ele><time>2022-6-8T10:53:57Z</time></trkpt>
<trkpt lat="49.125953674316" lon="2.6959357261658"><ele></ele><time>2022-6-8T10:54:0Z</time></trkpt>
</trkseg></trk></gpx>